<?xml version="1.0" encoding="UTF-8" standalone="no" ?>
<gpx xmlns="http://www.topografix.com/GPX/1/1" xmlns:xsi="http://www.w3.org/2001/XMLSchema-instance" xsi:schemaLocation="http://www.topografix.com/GPX/1/1 http://www.topografix.com/GPX/1/1/gpx.xsd" version="1.1" creator="VisuGPX - https://www.visugpx.com">
  <metadata>
    <name>Ruhr - Day 1: Neuss-Bochum</name>
  </metadata>
  <trk>
    <name><![CDATA[Ruhrpott-Tour - Tag 1: Neuss-Bochum]]></name>
    <extensions>
      <line xmlns="http://www.topografix.com/GPX/gpx_style/0/2">
        <color>0000FF</color>
        <width>4</width>
      </line>
    </extensions>
    <trkseg>
      <trkpt lat="51.2011" lon="6.72435">
        <ele>79.882198</ele>
        <time>2023-04-26T08:10:54.224Z</time>
      </trkpt>
      <trkpt lat="51.20105" lon="6.72471">
        <ele>79.882198</ele>
        <time>2023-04-26T08:10:56.378Z</time>
      </trkpt>
      <trkpt lat="51.20111" lon="6.72435">
        <ele>79.882198</ele>
        <time>2023-04-26T08:10:58.288Z</time>
      </trkpt>
      <trkpt lat="51.20114" lon="6.72449">
        <ele>79.882198</ele>
        <time>2023-04-26T08:11:00.362Z</time>
      </trkpt>
      <trkpt lat="51.20113" lon="6.72443">
        <ele>79.882198</ele>
        <time>2023-04-26T08:13:00.076Z</time>
      </trkpt>
      <trkpt lat="51.201" lon="6.72426">
        <ele>79.882198</ele>
        <time>2023-04-26T08:17:45.284Z</time>
      </trkpt>
      <trkpt lat="51.20091" lon="6.72424">
        <ele>79.882198</ele>
        <time>2023-04-26T08:17:54.278Z</time>
      </trkpt>
      <trkpt lat="51.2008" lon="6.72426">
        <ele>79.956089</ele>
        <time>2023-04-26T08:17:58.289Z</time>
      </trkpt>
      <trkpt lat="51.20071" lon="6.7243">
        <ele>80.053014</ele>
        <time>2023-04-26T08:18:02.296Z</time>
      </trkpt>
      <trkpt lat="51.20071" lon="6.72449">
        <ele>80.168556</ele>
        <time>2023-04-26T08:18:07.305Z</time>
      </trkpt>
      <trkpt lat="51.20065" lon="6.72461">
        <ele>80.264607</ele>
        <time>2023-04-26T08:18:13.299Z</time>
      </trkpt>
      <trkpt lat="51.20056" lon="6.7247">
        <ele>80.37023</ele>
        <time>2023-04-26T08:18:19.303Z</time>
      </trkpt>
      <trkpt lat="51.20047" lon="6.7248">
        <ele>80.482606</ele>
        <time>2023-04-26T08:18:23.297Z</time>
      </trkpt>
      <trkpt lat="51.20038" lon="6.72485">
        <ele>80.583568</ele>
        <time>2023-04-26T08:18:26.291Z</time>
      </trkpt>
      <trkpt lat="51.20026" lon="6.72489">
        <ele>80.707181</ele>
        <time>2023-04-26T08:18:29.296Z</time>
      </trkpt>
      <trkpt lat="51.20014" lon="6.72495">
        <ele>80.827329</ele>
        <time>2023-04-26T08:18:32.288Z</time>
      </trkpt>
      <trkpt lat="51.20003" lon="6.72501">
        <ele>80.949587</ele>
        <time>2023-04-26T08:18:35.298Z</time>
      </trkpt>
      <trkpt lat="51.19991" lon="6.72506">
        <ele>81.074356</ele>
        <time>2023-04-26T08:18:38.275Z</time>
      </trkpt>
      <trkpt lat="51.19979" lon="6.72509">
        <ele>81.193927</ele>
        <time>2023-04-26T08:18:41.293Z</time>
      </trkpt>
      <trkpt lat="51.1997" lon="6.72513">
        <ele>81.29192</ele>
        <time>2023-04-26T08:18:44.291Z</time>
      </trkpt>
      <trkpt lat="51.19961" lon="6.72518">
        <ele>81.385063</ele>
        <time>2023-04-26T08:18:47.296Z</time>
      </trkpt>
      <trkpt lat="51.19951" lon="6.72521">
        <ele>81.486359</ele>
        <time>2023-04-26T08:18:50.295Z</time>
      </trkpt>
      <trkpt lat="51.19942" lon="6.72527">
        <ele>81.582751</ele>
        <time>2023-04-26T08:18:53.293Z</time>
      </trkpt>
      <trkpt lat="51.19934" lon="6.72534">
        <ele>81.681513</ele>
        <time>2023-04-26T08:18:56.307Z</time>
      </trkpt>
      <trkpt lat="51.19925" lon="6.72539">
        <ele>82.012175</ele>
        <time>2023-04-26T08:18:59.293Z</time>
      </trkpt>
      <trkpt lat="51.19916" lon="6.72543">
        <ele>82.374705</ele>
        <time>2023-04-26T08:19:02.293Z</time>
      </trkpt>
      <trkpt lat="51.19905" lon="6.72544">
        <ele>82.778267</ele>
        <time>2023-04-26T08:19:06.297Z</time>
      </trkpt>
      <trkpt lat="51.19895" lon="6.72545">
        <ele>83.162224</ele>
        <time>2023-04-26T08:19:10.298Z</time>
      </trkpt>
      <trkpt lat="51.19886" lon="6.72544">
        <ele>83.515236</ele>
        <time>2023-04-26T08:19:14.289Z</time>
      </trkpt>
      <trkpt lat="51.19885" lon="6.7253">
        <ele>83.863375</ele>
        <time>2023-04-26T08:19:23.300Z</time>
      </trkpt>
      <trkpt lat="51.19887" lon="6.72513">
        <ele>84.272318</ele>
        <time>2023-04-26T08:19:28.286Z</time>
      </trkpt>
      <trkpt lat="51.19889" lon="6.72497">
        <ele>84.657317</ele>
        <time>2023-04-26T08:19:32.306Z</time>
      </trkpt>
      <trkpt lat="51.19895" lon="6.72509">
        <ele>85.018059</ele>
        <time>2023-04-26T08:19:47.296Z</time>
      </trkpt>
      <trkpt lat="51.19896" lon="6.72524">
        <ele>85.38177</ele>
        <time>2023-04-26T08:19:58.285Z</time>
      </trkpt>
      <trkpt lat="51.19895" lon="6.7254">
        <ele>85.772845</ele>
        <time>2023-04-26T08:20:03.290Z</time>
      </trkpt>
      <trkpt lat="51.19895" lon="6.72557">
        <ele>86.20046</ele>
        <time>2023-04-26T08:20:07.294Z</time>
      </trkpt>
      <trkpt lat="51.19893" lon="6.72572">
        <ele>86.557631</ele>
        <time>2023-04-26T08:20:10.303Z</time>
      </trkpt>
      <trkpt lat="51.19892" lon="6.72588">
        <ele>86.954466</ele>
        <time>2023-04-26T08:20:13.304Z</time>
      </trkpt>
      <trkpt lat="51.19891" lon="6.72604">
        <ele>87.348348</ele>
        <time>2023-04-26T08:20:16.299Z</time>
      </trkpt>
      <trkpt lat="51.19891" lon="6.72622">
        <ele>87.771309</ele>
        <time>2023-04-26T08:20:19.299Z</time>
      </trkpt>
      <trkpt lat="51.1989" lon="6.72639">
        <ele>88.180903</ele>
        <time>2023-04-26T08:20:22.301Z</time>
      </trkpt>
      <trkpt lat="51.19888" lon="6.72655">
        <ele>88.589154</ele>
        <time>2023-04-26T08:20:25.297Z</time>
      </trkpt>
      <trkpt lat="51.19887" lon="6.72672">
        <ele>88.720389</ele>
        <time>2023-04-26T08:20:28.296Z</time>
      </trkpt>
      <trkpt lat="51.19885" lon="6.72689">
        <ele>88.792896</ele>
        <time>2023-04-26T08:20:31.295Z</time>
      </trkpt>
      <trkpt lat="51.19884" lon="6.72706">
        <ele>88.86309</ele>
        <time>2023-04-26T08:20:34.292Z</time>
      </trkpt>
      <trkpt lat="51.19883" lon="6.72725">
        <ele>88.940701</ele>
        <time>2023-04-26T08:20:37.288Z</time>
      </trkpt>
      <trkpt lat="51.19882" lon="6.72741">
        <ele>89.00975</ele>
        <time>2023-04-26T08:20:40.295Z</time>
      </trkpt>
      <trkpt lat="51.19882" lon="6.72759">
        <ele>89.083545</ele>
        <time>2023-04-26T08:20:43.295Z</time>
      </trkpt>
      <trkpt lat="51.1988" lon="6.72777">
        <ele>89.158198</ele>
        <time>2023-04-26T08:20:46.289Z</time>
      </trkpt>
      <trkpt lat="51.1988" lon="6.72794">
        <ele>89.233064</ele>
        <time>2023-04-26T08:20:49.288Z</time>
      </trkpt>
      <trkpt lat="51.19879" lon="6.72811">
        <ele>89.304015</ele>
        <time>2023-04-26T08:20:52.297Z</time>
      </trkpt>
      <trkpt lat="51.19878" lon="6.7283">
        <ele>89.381489</ele>
        <time>2023-04-26T08:20:55.295Z</time>
      </trkpt>
      <trkpt lat="51.19877" lon="6.72848">
        <ele>89.455711</ele>
        <time>2023-04-26T08:20:58.280Z</time>
      </trkpt>
      <trkpt lat="51.19876" lon="6.72865">
        <ele>89.529234</ele>
        <time>2023-04-26T08:21:01.294Z</time>
      </trkpt>
      <trkpt lat="51.19874" lon="6.72882">
        <ele>89.601637</ele>
        <time>2023-04-26T08:21:04.306Z</time>
      </trkpt>
      <trkpt lat="51.19874" lon="6.72899">
        <ele>89.672538</ele>
        <time>2023-04-26T08:21:07.308Z</time>
      </trkpt>
      <trkpt lat="51.19873" lon="6.72916">
        <ele>89.744204</ele>
        <time>2023-04-26T08:21:10.291Z</time>
      </trkpt>
      <trkpt lat="51.19873" lon="6.72934">
        <ele>89.81634</ele>
        <time>2023-04-26T08:21:13.292Z</time>
      </trkpt>
      <trkpt lat="51.19871" lon="6.72952">
        <ele>89.845059</ele>
        <time>2023-04-26T08:21:16.292Z</time>
      </trkpt>
      <trkpt lat="51.1987" lon="6.7297">
        <ele>89.820223</ele>
        <time>2023-04-26T08:21:19.297Z</time>
      </trkpt>
      <trkpt lat="51.19869" lon="6.72988">
        <ele>89.793618</ele>
        <time>2023-04-26T08:21:22.287Z</time>
      </trkpt>
      <trkpt lat="51.19868" lon="6.73007">
        <ele>89.76733</ele>
        <time>2023-04-26T08:21:25.289Z</time>
      </trkpt>
      <trkpt lat="51.19868" lon="6.73026">
        <ele>89.739492</ele>
        <time>2023-04-26T08:21:28.292Z</time>
      </trkpt>
      <trkpt lat="51.19867" lon="6.73046">
        <ele>89.711618</ele>
        <time>2023-04-26T08:21:31.292Z</time>
      </trkpt>
      <trkpt lat="51.19866" lon="6.73065">
        <ele>89.684257</ele>
        <time>2023-04-26T08:21:34.293Z</time>
      </trkpt>
      <trkpt lat="51.19864" lon="6.73085">
        <ele>89.655624</ele>
        <time>2023-04-26T08:21:37.297Z</time>
      </trkpt>
      <trkpt lat="51.19863" lon="6.73104">
        <ele>89.629254</ele>
        <time>2023-04-26T08:21:40.295Z</time>
      </trkpt>
      <trkpt lat="51.19862" lon="6.73123">
        <ele>89.601486</ele>
        <time>2023-04-26T08:21:43.300Z</time>
      </trkpt>
      <trkpt lat="51.19861" lon="6.73144">
        <ele>89.571735</ele>
        <time>2023-04-26T08:21:46.297Z</time>
      </trkpt>
      <trkpt lat="51.1986" lon="6.73164">
        <ele>89.542425</ele>
        <time>2023-04-26T08:21:49.287Z</time>
      </trkpt>
      <trkpt lat="51.19858" lon="6.73179">
        <ele>89.521615</ele>
        <time>2023-04-26T08:21:51.295Z</time>
      </trkpt>
      <trkpt lat="51.19857" lon="6.73193">
        <ele>89.500672</ele>
        <time>2023-04-26T08:21:53.294Z</time>
      </trkpt>
      <trkpt lat="51.19856" lon="6.73215">
        <ele>89.469834</ele>
        <time>2023-04-26T08:21:56.296Z</time>
      </trkpt>
      <trkpt lat="51.19856" lon="6.7323">
        <ele>89.442864</ele>
        <time>2023-04-26T08:21:58.287Z</time>
      </trkpt>
      <trkpt lat="51.19854" lon="6.73251">
        <ele>89.264018</ele>
        <time>2023-04-26T08:22:01.298Z</time>
      </trkpt>
      <trkpt lat="51.19854" lon="6.73272">
        <ele>89.080738</ele>
        <time>2023-04-26T08:22:04.297Z</time>
      </trkpt>
      <trkpt lat="51.19852" lon="6.73292">
        <ele>88.911956</ele>
        <time>2023-04-26T08:22:07.301Z</time>
      </trkpt>
      <trkpt lat="51.19852" lon="6.73309">
        <ele>88.767302</ele>
        <time>2023-04-26T08:22:11.298Z</time>
      </trkpt>
      <trkpt lat="51.19851" lon="6.73325">
        <ele>88.625964</ele>
        <time>2023-04-26T08:22:36.308Z</time>
      </trkpt>
      <trkpt lat="51.19852" lon="6.73342">
        <ele>88.4837</ele>
        <time>2023-04-26T08:22:40.298Z</time>
      </trkpt>
      <trkpt lat="51.19851" lon="6.73359">
        <ele>88.332812</ele>
        <time>2023-04-26T08:22:44.277Z</time>
      </trkpt>
      <trkpt lat="51.1985" lon="6.73375">
        <ele>88.201898</ele>
        <time>2023-04-26T08:22:47.298Z</time>
      </trkpt>
      <trkpt lat="51.19849" lon="6.73392">
        <ele>88.054348</ele>
        <time>2023-04-26T08:22:50.297Z</time>
      </trkpt>
      <trkpt lat="51.19846" lon="6.7341">
        <ele>87.894005</ele>
        <time>2023-04-26T08:22:53.293Z</time>
      </trkpt>
      <trkpt lat="51.19844" lon="6.7343">
        <ele>87.723032</ele>
        <time>2023-04-26T08:22:56.308Z</time>
      </trkpt>
      <trkpt lat="51.19843" lon="6.73449">
        <ele>87.556687</ele>
        <time>2023-04-26T08:22:59.325Z</time>
      </trkpt>
      <trkpt lat="51.19841" lon="6.73469">
        <ele>87.386352</ele>
        <time>2023-04-26T08:23:02.292Z</time>
      </trkpt>
      <trkpt lat="51.1984" lon="6.73483">
        <ele>87.261456</ele>
        <time>2023-04-26T08:23:04.301Z</time>
      </trkpt>
      <trkpt lat="51.19838" lon="6.73504">
        <ele>87.080955</ele>
        <time>2023-04-26T08:23:07.295Z</time>
      </trkpt>
      <trkpt lat="51.19837" lon="6.73525">
        <ele>86.941897</ele>
        <time>2023-04-26T08:23:10.315Z</time>
      </trkpt>
      <trkpt lat="51.19836" lon="6.73541">
        <ele>86.871853</ele>
        <time>2023-04-26T08:23:12.295Z</time>
      </trkpt>
      <trkpt lat="51.19835" lon="6.73556">
        <ele>86.800368</ele>
        <time>2023-04-26T08:23:14.299Z</time>
      </trkpt>
      <trkpt lat="51.19834" lon="6.73572">
        <ele>86.725499</ele>
        <time>2023-04-26T08:23:16.280Z</time>
      </trkpt>
      <trkpt lat="51.19834" lon="6.73589">
        <ele>86.650246</ele>
        <time>2023-04-26T08:23:18.297Z</time>
      </trkpt>
      <trkpt lat="51.19833" lon="6.73605">
        <ele>86.57478</ele>
        <time>2023-04-26T08:23:20.313Z</time>
      </trkpt>
      <trkpt lat="51.19833" lon="6.73621">
        <ele>86.503152</ele>
        <time>2023-04-26T08:23:22.292Z</time>
      </trkpt>
      <trkpt lat="51.19832" lon="6.73636">
        <ele>86.432318</ele>
        <time>2023-04-26T08:23:24.308Z</time>
      </trkpt>
      <trkpt lat="51.1983" lon="6.73651">
        <ele>86.363033</ele>
        <time>2023-04-26T08:23:26.309Z</time>
      </trkpt>
      <trkpt lat="51.19831" lon="6.73666">
        <ele>86.294672</ele>
        <time>2023-04-26T08:23:28.314Z</time>
      </trkpt>
      <trkpt lat="51.19829" lon="6.73687">
        <ele>86.198699</ele>
        <time>2023-04-26T08:23:31.285Z</time>
      </trkpt>
      <trkpt lat="51.19828" lon="6.73708">
        <ele>86.099473</ele>
        <time>2023-04-26T08:23:34.298Z</time>
      </trkpt>
      <trkpt lat="51.19828" lon="6.73723">
        <ele>86.030408</ele>
        <time>2023-04-26T08:23:36.328Z</time>
      </trkpt>
      <trkpt lat="51.19827" lon="6.73739">
        <ele>85.956874</ele>
        <time>2023-04-26T08:23:38.315Z</time>
      </trkpt>
      <trkpt lat="51.19827" lon="6.73755">
        <ele>85.882979</ele>
        <time>2023-04-26T08:23:40.303Z</time>
      </trkpt>
      <trkpt lat="51.19826" lon="6.73772">
        <ele>85.805874</ele>
        <time>2023-04-26T08:23:42.305Z</time>
      </trkpt>
      <trkpt lat="51.19826" lon="6.73789">
        <ele>85.729204</ele>
        <time>2023-04-26T08:23:44.312Z</time>
      </trkpt>
      <trkpt lat="51.19826" lon="6.73807">
        <ele>85.644083</ele>
        <time>2023-04-26T08:23:46.299Z</time>
      </trkpt>
      <trkpt lat="51.19826" lon="6.73824">
        <ele>85.551548</ele>
        <time>2023-04-26T08:23:48.300Z</time>
      </trkpt>
      <trkpt lat="51.19826" lon="6.73842">
        <ele>85.454252</ele>
        <time>2023-04-26T08:23:50.327Z</time>
      </trkpt>
      <trkpt lat="51.19826" lon="6.7386">
        <ele>85.359542</ele>
        <time>2023-04-26T08:23:52.302Z</time>
      </trkpt>
      <trkpt lat="51.19826" lon="6.73878">
        <ele>85.267475</ele>
        <time>2023-04-26T08:23:54.297Z</time>
      </trkpt>
      <trkpt lat="51.19825" lon="6.73893">
        <ele>85.188927</ele>
        <time>2023-04-26T08:23:56.302Z</time>
      </trkpt>
      <trkpt lat="51.19825" lon="6.73908">
        <ele>85.106371</ele>
        <time>2023-04-26T08:23:59.293Z</time>
      </trkpt>
      <trkpt lat="51.19825" lon="6.73924">
        <ele>85.022144</ele>
        <time>2023-04-26T08:24:02.310Z</time>
      </trkpt>
      <trkpt lat="51.19826" lon="6.73942">
        <ele>84.927929</ele>
        <time>2023-04-26T08:24:05.307Z</time>
      </trkpt>
      <trkpt lat="51.19827" lon="6.73959">
        <ele>84.836841</ele>
        <time>2023-04-26T08:24:08.313Z</time>
      </trkpt>
      <trkpt lat="51.19828" lon="6.73977">
        <ele>84.739709</ele>
        <time>2023-04-26T08:24:11.309Z</time>
      </trkpt>
      <trkpt lat="51.19829" lon="6.73998">
        <ele>84.631101</ele>
        <time>2023-04-26T08:24:14.305Z</time>
      </trkpt>
      <trkpt lat="51.1983" lon="6.74012">
        <ele>84.553208</ele>
        <time>2023-04-26T08:24:16.301Z</time>
      </trkpt>
      <trkpt lat="51.19829" lon="6.74027">
        <ele>84.474932</ele>
        <time>2023-04-26T08:24:18.292Z</time>
      </trkpt>
      <trkpt lat="51.1983" lon="6.74042">
        <ele>84.396634</ele>
        <time>2023-04-26T08:24:20.321Z</time>
      </trkpt>
      <trkpt lat="51.19831" lon="6.74058">
        <ele>84.312258</ele>
        <time>2023-04-26T08:24:22.286Z</time>
      </trkpt>
      <trkpt lat="51.19833" lon="6.74074">
        <ele>84.223699</ele>
        <time>2023-04-26T08:24:24.308Z</time>
      </trkpt>
      <trkpt lat="51.19834" lon="6.7409">
        <ele>84.12413</ele>
        <time>2023-04-26T08:24:26.303Z</time>
      </trkpt>
      <trkpt lat="51.19835" lon="6.74108">
        <ele>83.969648</ele>
        <time>2023-04-26T08:24:28.314Z</time>
      </trkpt>
      <trkpt lat="51.19836" lon="6.74126">
        <ele>83.80925</ele>
        <time>2023-04-26T08:24:30.295Z</time>
      </trkpt>
      <trkpt lat="51.19838" lon="6.74144">
        <ele>83.645833</ele>
        <time>2023-04-26T08:24:32.307Z</time>
      </trkpt>
      <trkpt lat="51.19839" lon="6.74163">
        <ele>83.475848</ele>
        <time>2023-04-26T08:24:34.288Z</time>
      </trkpt>
      <trkpt lat="51.19841" lon="6.74182">
        <ele>83.306522</ele>
        <time>2023-04-26T08:24:36.308Z</time>
      </trkpt>
      <trkpt lat="51.19843" lon="6.74201">
        <ele>83.134477</ele>
        <time>2023-04-26T08:24:38.300Z</time>
      </trkpt>
      <trkpt lat="51.19844" lon="6.7422">
        <ele>82.960298</ele>
        <time>2023-04-26T08:24:40.296Z</time>
      </trkpt>
      <trkpt lat="51.19847" lon="6.7424">
        <ele>82.784119</ele>
        <time>2023-04-26T08:24:42.309Z</time>
      </trkpt>
      <trkpt lat="51.19849" lon="6.7426">
        <ele>82.598063</ele>
        <time>2023-04-26T08:24:44.312Z</time>
      </trkpt>
      <trkpt lat="51.19852" lon="6.7428">
        <ele>82.415528</ele>
        <time>2023-04-26T08:24:46.301Z</time>
      </trkpt>
      <trkpt lat="51.19854" lon="6.74301">
        <ele>82.2307</ele>
        <time>2023-04-26T08:24:48.300Z</time>
      </trkpt>
      <trkpt lat="51.19857" lon="6.74322">
        <ele>82.039726</ele>
        <time>2023-04-26T08:24:50.308Z</time>
      </trkpt>
      <trkpt lat="51.19861" lon="6.74342">
        <ele>81.848225</ele>
        <time>2023-04-26T08:24:52.282Z</time>
      </trkpt>
      <trkpt lat="51.19864" lon="6.74364">
        <ele>81.653643</ele>
        <time>2023-04-26T08:24:54.297Z</time>
      </trkpt>
      <trkpt lat="51.19867" lon="6.74385">
        <ele>81.43315</ele>
        <time>2023-04-26T08:24:56.289Z</time>
      </trkpt>
      <trkpt lat="51.19871" lon="6.74406">
        <ele>81.213625</ele>
        <time>2023-04-26T08:24:58.291Z</time>
      </trkpt>
      <trkpt lat="51.19875" lon="6.74426">
        <ele>80.994218</ele>
        <time>2023-04-26T08:25:00.305Z</time>
      </trkpt>
      <trkpt lat="51.19879" lon="6.74447">
        <ele>80.777198</ele>
        <time>2023-04-26T08:25:02.291Z</time>
      </trkpt>
      <trkpt lat="51.19881" lon="6.74467">
        <ele>80.57013</ele>
        <time>2023-04-26T08:25:04.306Z</time>
      </trkpt>
      <trkpt lat="51.19883" lon="6.74485">
        <ele>80.376851</ele>
        <time>2023-04-26T08:25:06.277Z</time>
      </trkpt>
      <trkpt lat="51.19886" lon="6.74502">
        <ele>80.203248</ele>
        <time>2023-04-26T08:25:08.297Z</time>
      </trkpt>
      <trkpt lat="51.19889" lon="6.74518">
        <ele>80.029646</ele>
        <time>2023-04-26T08:25:10.293Z</time>
      </trkpt>
      <trkpt lat="51.19892" lon="6.74535">
        <ele>79.850669</ele>
        <time>2023-04-26T08:25:12.307Z</time>
      </trkpt>
      <trkpt lat="51.19896" lon="6.74551">
        <ele>79.676774</ele>
        <time>2023-04-26T08:25:14.297Z</time>
      </trkpt>
      <trkpt lat="51.199" lon="6.74567">
        <ele>79.493124</ele>
        <time>2023-04-26T08:25:16.319Z</time>
      </trkpt>
      <trkpt lat="51.19904" lon="6.74583">
        <ele>79.317886</ele>
        <time>2023-04-26T08:25:18.299Z</time>
      </trkpt>
      <trkpt lat="51.19908" lon="6.74599">
        <ele>79.139983</ele>
        <time>2023-04-26T08:25:20.313Z</time>
      </trkpt>
      <trkpt lat="51.19912" lon="6.74615">
        <ele>78.968185</ele>
        <time>2023-04-26T08:25:22.298Z</time>
      </trkpt>
      <trkpt lat="51.19915" lon="6.74632">
        <ele>78.785782</ele>
        <time>2023-04-26T08:25:24.302Z</time>
      </trkpt>
      <trkpt lat="51.1992" lon="6.74647">
        <ele>78.690673</ele>
        <time>2023-04-26T08:25:26.304Z</time>
      </trkpt>
      <trkpt lat="51.19924" lon="6.74663">
        <ele>78.74202</ele>
        <time>2023-04-26T08:25:28.299Z</time>
      </trkpt>
      <trkpt lat="51.19928" lon="6.74679">
        <ele>78.792716</ele>
        <time>2023-04-26T08:25:30.320Z</time>
      </trkpt>
      <trkpt lat="51.19932" lon="6.74694">
        <ele>78.842143</ele>
        <time>2023-04-26T08:25:32.311Z</time>
      </trkpt>
      <trkpt lat="51.19935" lon="6.74709">
        <ele>78.889721</ele>
        <time>2023-04-26T08:25:34.317Z</time>
      </trkpt>
      <trkpt lat="51.19939" lon="6.74724">
        <ele>78.938869</ele>
        <time>2023-04-26T08:25:36.295Z</time>
      </trkpt>
      <trkpt lat="51.19942" lon="6.74739">
        <ele>78.987117</ele>
        <time>2023-04-26T08:25:38.306Z</time>
      </trkpt>
      <trkpt lat="51.19946" lon="6.74753">
        <ele>79.031667</ele>
        <time>2023-04-26T08:25:40.293Z</time>
      </trkpt>
      <trkpt lat="51.1995" lon="6.74767">
        <ele>79.078955</ele>
        <time>2023-04-26T08:25:42.318Z</time>
      </trkpt>
      <trkpt lat="51.19954" lon="6.74781">
        <ele>79.124861</ele>
        <time>2023-04-26T08:25:44.296Z</time>
      </trkpt>
      <trkpt lat="51.19957" lon="6.74796">
        <ele>79.171225</ele>
        <time>2023-04-26T08:25:46.293Z</time>
      </trkpt>
      <trkpt lat="51.19961" lon="6.74811">
        <ele>79.219755</ele>
        <time>2023-04-26T08:25:48.298Z</time>
      </trkpt>
      <trkpt lat="51.19965" lon="6.74824">
        <ele>79.264983</ele>
        <time>2023-04-26T08:25:50.297Z</time>
      </trkpt>
      <trkpt lat="51.19969" lon="6.74838">
        <ele>79.310156</ele>
        <time>2023-04-26T08:25:52.305Z</time>
      </trkpt>
      <trkpt lat="51.19976" lon="6.74849">
        <ele>79.356677</ele>
        <time>2023-04-26T08:25:54.293Z</time>
      </trkpt>
      <trkpt lat="51.1998" lon="6.74863">
        <ele>79.402988</ele>
        <time>2023-04-26T08:25:56.290Z</time>
      </trkpt>
      <trkpt lat="51.19983" lon="6.74879">
        <ele>79.453183</ele>
        <time>2023-04-26T08:25:58.288Z</time>
      </trkpt>
      <trkpt lat="51.19987" lon="6.74895">
        <ele>79.504353</ele>
        <time>2023-04-26T08:26:00.307Z</time>
      </trkpt>
      <trkpt lat="51.19991" lon="6.74911">
        <ele>79.504788</ele>
        <time>2023-04-26T08:26:02.306Z</time>
      </trkpt>
      <trkpt lat="51.19995" lon="6.74926">
        <ele>79.434401</ele>
        <time>2023-04-26T08:26:04.291Z</time>
      </trkpt>
      <trkpt lat="51.19999" lon="6.74941">
        <ele>79.364173</ele>
        <time>2023-04-26T08:26:06.305Z</time>
      </trkpt>
      <trkpt lat="51.20002" lon="6.74957">
        <ele>79.292912</ele>
        <time>2023-04-26T08:26:08.306Z</time>
      </trkpt>
      <trkpt lat="51.20006" lon="6.74973">
        <ele>79.219655</ele>
        <time>2023-04-26T08:26:10.298Z</time>
      </trkpt>
      <trkpt lat="51.2001" lon="6.74989">
        <ele>79.147076</ele>
        <time>2023-04-26T08:26:12.301Z</time>
      </trkpt>
      <trkpt lat="51.20014" lon="6.75004">
        <ele>79.075017</ele>
        <time>2023-04-26T08:26:14.288Z</time>
      </trkpt>
      <trkpt lat="51.20018" lon="6.7502">
        <ele>79.00086</ele>
        <time>2023-04-26T08:26:16.304Z</time>
      </trkpt>
      <trkpt lat="51.20022" lon="6.75035">
        <ele>78.931029</ele>
        <time>2023-04-26T08:26:18.294Z</time>
      </trkpt>
      <trkpt lat="51.20026" lon="6.7505">
        <ele>78.86278</ele>
        <time>2023-04-26T08:26:20.295Z</time>
      </trkpt>
      <trkpt lat="51.2003" lon="6.75065">
        <ele>78.793877</ele>
        <time>2023-04-26T08:26:22.299Z</time>
      </trkpt>
      <trkpt lat="51.20032" lon="6.75081">
        <ele>78.726311</ele>
        <time>2023-04-26T08:26:24.340Z</time>
      </trkpt>
      <trkpt lat="51.20032" lon="6.75098">
        <ele>78.650756</ele>
        <time>2023-04-26T08:26:26.314Z</time>
      </trkpt>
      <trkpt lat="51.20036" lon="6.75118">
        <ele>78.562599</ele>
        <time>2023-04-26T08:26:28.295Z</time>
      </trkpt>
      <trkpt lat="51.20041" lon="6.75134">
        <ele>78.486035</ele>
        <time>2023-04-26T08:26:30.290Z</time>
      </trkpt>
      <trkpt lat="51.20045" lon="6.7515">
        <ele>78.411867</ele>
        <time>2023-04-26T08:26:32.308Z</time>
      </trkpt>
      <trkpt lat="51.20049" lon="6.75166">
        <ele>78.340529</ele>
        <time>2023-04-26T08:26:34.301Z</time>
      </trkpt>
      <trkpt lat="51.20052" lon="6.75184">
        <ele>78.426848</ele>
        <time>2023-04-26T08:26:36.286Z</time>
      </trkpt>
      <trkpt lat="51.20055" lon="6.752">
        <ele>78.604864</ele>
        <time>2023-04-26T08:26:38.296Z</time>
      </trkpt>
      <trkpt lat="51.20058" lon="6.75216">
        <ele>78.785093</ele>
        <time>2023-04-26T08:26:40.312Z</time>
      </trkpt>
      <trkpt lat="51.20061" lon="6.75233">
        <ele>78.968109</ele>
        <time>2023-04-26T08:26:42.288Z</time>
      </trkpt>
      <trkpt lat="51.20064" lon="6.7525">
        <ele>79.155734</ele>
        <time>2023-04-26T08:26:44.307Z</time>
      </trkpt>
      <trkpt lat="51.20067" lon="6.75266">
        <ele>79.331897</ele>
        <time>2023-04-26T08:26:46.288Z</time>
      </trkpt>
      <trkpt lat="51.20069" lon="6.75281">
        <ele>79.486206</ele>
        <time>2023-04-26T08:26:48.290Z</time>
      </trkpt>
      <trkpt lat="51.20071" lon="6.75295">
        <ele>79.639824</ele>
        <time>2023-04-26T08:26:50.293Z</time>
      </trkpt>
      <trkpt lat="51.20072" lon="6.75313">
        <ele>79.824179</ele>
        <time>2023-04-26T08:26:53.301Z</time>
      </trkpt>
      <trkpt lat="51.20074" lon="6.75329">
        <ele>79.995487</ele>
        <time>2023-04-26T08:26:56.301Z</time>
      </trkpt>
      <trkpt lat="51.20076" lon="6.75345">
        <ele>80.176144</ele>
        <time>2023-04-26T08:26:59.296Z</time>
      </trkpt>
      <trkpt lat="51.20077" lon="6.75364">
        <ele>80.372838</ele>
        <time>2023-04-26T08:27:02.301Z</time>
      </trkpt>
      <trkpt lat="51.20077" lon="6.75382">
        <ele>80.563166</ele>
        <time>2023-04-26T08:27:05.288Z</time>
      </trkpt>
      <trkpt lat="51.20077" lon="6.75398">
        <ele>80.730467</ele>
        <time>2023-04-26T08:27:08.296Z</time>
      </trkpt>
      <trkpt lat="51.20073" lon="6.75414">
        <ele>80.910522</ele>
        <time>2023-04-26T08:27:11.306Z</time>
      </trkpt>
      <trkpt lat="51.2007" lon="6.7543">
        <ele>81.082063</ele>
        <time>2023-04-26T08:27:14.277Z</time>
      </trkpt>
      <trkpt lat="51.2007" lon="6.75445">
        <ele>81.240889</ele>
        <time>2023-04-26T08:27:17.295Z</time>
      </trkpt>
      <trkpt lat="51.20072" lon="6.75461">
        <ele>81.364104</ele>
        <time>2023-04-26T08:27:20.279Z</time>
      </trkpt>
      <trkpt lat="51.20075" lon="6.75478">
        <ele>81.442749</ele>
        <time>2023-04-26T08:27:23.285Z</time>
      </trkpt>
      <trkpt lat="51.20078" lon="6.75493">
        <ele>81.511081</ele>
        <time>2023-04-26T08:27:26.294Z</time>
      </trkpt>
      <trkpt lat="51.20079" lon="6.75507">
        <ele>81.574842</ele>
        <time>2023-04-26T08:27:29.294Z</time>
      </trkpt>
      <trkpt lat="51.20079" lon="6.75525">
        <ele>81.656025</ele>
        <time>2023-04-26T08:27:33.285Z</time>
      </trkpt>
      <trkpt lat="51.20079" lon="6.75541">
        <ele>81.723767</ele>
        <time>2023-04-26T08:27:37.307Z</time>
      </trkpt>
      <trkpt lat="51.20087" lon="6.75549">
        <ele>81.792944</ele>
        <time>2023-04-26T08:27:45.302Z</time>
      </trkpt>
      <trkpt lat="51.20097" lon="6.75558">
        <ele>81.870523</ele>
        <time>2023-04-26T08:27:49.308Z</time>
      </trkpt>
      <trkpt lat="51.2011" lon="6.75573">
        <ele>81.985744</ele>
        <time>2023-04-26T08:28:24.301Z</time>
      </trkpt>
      <trkpt lat="51.20118" lon="6.7558">
        <ele>82.049225</ele>
        <time>2023-04-26T08:28:27.302Z</time>
      </trkpt>
      <trkpt lat="51.20126" lon="6.75591">
        <ele>82.120993</ele>
        <time>2023-04-26T08:28:30.274Z</time>
      </trkpt>
      <trkpt lat="51.20133" lon="6.75601">
        <ele>82.187873</ele>
        <time>2023-04-26T08:28:33.307Z</time>
      </trkpt>
      <trkpt lat="51.20143" lon="6.75607">
        <ele>82.261837</ele>
        <time>2023-04-26T08:28:36.283Z</time>
      </trkpt>
      <trkpt lat="51.20154" lon="6.75611">
        <ele>82.34193</ele>
        <time>2023-04-26T08:28:39.293Z</time>
      </trkpt>
      <trkpt lat="51.20163" lon="6.75613">
        <ele>82.4101</ele>
        <time>2023-04-26T08:28:41.299Z</time>
      </trkpt>
      <trkpt lat="51.20172" lon="6.75615">
        <ele>82.475677</ele>
        <time>2023-04-26T08:28:43.299Z</time>
      </trkpt>
      <trkpt lat="51.20182" lon="6.75617">
        <ele>82.544054</ele>
        <time>2023-04-26T08:28:45.310Z</time>
      </trkpt>
      <trkpt lat="51.20192" lon="6.75619">
        <ele>82.604585</ele>
        <time>2023-04-26T08:28:47.298Z</time>
      </trkpt>
      <trkpt lat="51.20201" lon="6.75623">
        <ele>82.632677</ele>
        <time>2023-04-26T08:28:49.313Z</time>
      </trkpt>
      <trkpt lat="51.20211" lon="6.75625">
        <ele>82.661753</ele>
        <time>2023-04-26T08:28:51.303Z</time>
      </trkpt>
      <trkpt lat="51.20221" lon="6.75628">
        <ele>82.690675</ele>
        <time>2023-04-26T08:28:53.315Z</time>
      </trkpt>
      <trkpt lat="51.2023" lon="6.7563">
        <ele>82.720045</ele>
        <time>2023-04-26T08:28:55.307Z</time>
      </trkpt>
      <trkpt lat="51.2024" lon="6.75632">
        <ele>82.749073</ele>
        <time>2023-04-26T08:28:57.306Z</time>
      </trkpt>
      <trkpt lat="51.20249" lon="6.75634">
        <ele>82.776824</ele>
        <time>2023-04-26T08:28:59.301Z</time>
      </trkpt>
      <trkpt lat="51.20258" lon="6.75637">
        <ele>82.803964</ele>
        <time>2023-04-26T08:29:01.292Z</time>
      </trkpt>
      <trkpt lat="51.20267" lon="6.7564">
        <ele>82.831568</ele>
        <time>2023-04-26T08:29:03.296Z</time>
      </trkpt>
      <trkpt lat="51.20277" lon="6.75642">
        <ele>82.86046</ele>
        <time>2023-04-26T08:29:05.303Z</time>
      </trkpt>
      <trkpt lat="51.20287" lon="6.75644">
        <ele>82.890764</ele>
        <time>2023-04-26T08:29:07.299Z</time>
      </trkpt>
      <trkpt lat="51.20297" lon="6.75647">
        <ele>82.919458</ele>
        <time>2023-04-26T08:29:09.301Z</time>
      </trkpt>
      <trkpt lat="51.20306" lon="6.7565">
        <ele>82.949425</ele>
        <time>2023-04-26T08:29:11.299Z</time>
      </trkpt>
      <trkpt lat="51.20316" lon="6.75653">
        <ele>82.978226</ele>
        <time>2023-04-26T08:29:13.306Z</time>
      </trkpt>
      <trkpt lat="51.20326" lon="6.75655">
        <ele>83.007232</ele>
        <time>2023-04-26T08:29:15.299Z</time>
      </trkpt>
      <trkpt lat="51.20335" lon="6.75658">
        <ele>83.035537</ele>
        <time>2023-04-26T08:29:17.315Z</time>
      </trkpt>
      <trkpt lat="51.20345" lon="6.75661">
        <ele>83.065868</ele>
        <time>2023-04-26T08:29:19.305Z</time>
      </trkpt>
      <trkpt lat="51.20355" lon="6.75664">
        <ele>83.095367</ele>
        <time>2023-04-26T08:29:21.307Z</time>
      </trkpt>
      <trkpt lat="51.20364" lon="6.75667">
        <ele>83.124061</ele>
        <time>2023-04-26T08:29:23.295Z</time>
      </trkpt>
      <trkpt lat="51.20374" lon="6.75669">
        <ele>83.210731</ele>
        <time>2023-04-26T08:29:25.301Z</time>
      </trkpt>
      <trkpt lat="51.20383" lon="6.75671">
        <ele>83.310298</ele>
        <time>2023-04-26T08:29:27.309Z</time>
      </trkpt>
      <trkpt lat="51.20393" lon="6.75673">
        <ele>83.414483</ele>
        <time>2023-04-26T08:29:29.300Z</time>
      </trkpt>
      <trkpt lat="51.20403" lon="6.75676">
        <ele>83.524611</ele>
        <time>2023-04-26T08:29:31.309Z</time>
      </trkpt>
      <trkpt lat="51.20414" lon="6.75679">
        <ele>83.634824</ele>
        <time>2023-04-26T08:29:33.303Z</time>
      </trkpt>
      <trkpt lat="51.20424" lon="6.75681">
        <ele>83.750068</ele>
        <time>2023-04-26T08:29:35.312Z</time>
      </trkpt>
      <trkpt lat="51.20434" lon="6.75684">
        <ele>83.858194</ele>
        <time>2023-04-26T08:29:37.291Z</time>
      </trkpt>
      <trkpt lat="51.20445" lon="6.75686">
        <ele>83.973263</ele>
        <time>2023-04-26T08:29:39.298Z</time>
      </trkpt>
      <trkpt lat="51.20456" lon="6.75689">
        <ele>84.086119</ele>
        <time>2023-04-26T08:29:41.316Z</time>
      </trkpt>
      <trkpt lat="51.20466" lon="6.75693">
        <ele>84.199499</ele>
        <time>2023-04-26T08:29:43.310Z</time>
      </trkpt>
      <trkpt lat="51.20477" lon="6.75697">
        <ele>84.317277</ele>
        <time>2023-04-26T08:29:45.300Z</time>
      </trkpt>
      <trkpt lat="51.20487" lon="6.757">
        <ele>84.427595</ele>
        <time>2023-04-26T08:29:47.300Z</time>
      </trkpt>
      <trkpt lat="51.20498" lon="6.75702">
        <ele>84.537706</ele>
        <time>2023-04-26T08:29:49.297Z</time>
      </trkpt>
      <trkpt lat="51.20508" lon="6.75705">
        <ele>84.653453</ele>
        <time>2023-04-26T08:29:51.303Z</time>
      </trkpt>
      <trkpt lat="51.20519" lon="6.75708">
        <ele>84.764356</ele>
        <time>2023-04-26T08:29:53.306Z</time>
      </trkpt>
      <trkpt lat="51.20529" lon="6.75711">
        <ele>84.879291</ele>
        <time>2023-04-26T08:29:55.319Z</time>
      </trkpt>
      <trkpt lat="51.2054" lon="6.75714">
        <ele>84.994536</ele>
        <time>2023-04-26T08:29:57.301Z</time>
      </trkpt>
      <trkpt lat="51.20551" lon="6.75715">
        <ele>84.98171</ele>
        <time>2023-04-26T08:29:59.308Z</time>
      </trkpt>
      <trkpt lat="51.20561" lon="6.75717">
        <ele>84.907496</ele>
        <time>2023-04-26T08:30:01.304Z</time>
      </trkpt>
      <trkpt lat="51.20571" lon="6.75721">
        <ele>84.831544</ele>
        <time>2023-04-26T08:30:03.314Z</time>
      </trkpt>
      <trkpt lat="51.20581" lon="6.75725">
        <ele>84.754122</ele>
        <time>2023-04-26T08:30:05.299Z</time>
      </trkpt>
      <trkpt lat="51.20592" lon="6.75729">
        <ele>84.676417</ele>
        <time>2023-04-26T08:30:07.302Z</time>
      </trkpt>
      <trkpt lat="51.20601" lon="6.75731">
        <ele>84.604998</ele>
        <time>2023-04-26T08:30:09.308Z</time>
      </trkpt>
      <trkpt lat="51.20611" lon="6.75734">
        <ele>84.532542</ele>
        <time>2023-04-26T08:30:11.299Z</time>
      </trkpt>
      <trkpt lat="51.2062" lon="6.75737">
        <ele>84.464536</ele>
        <time>2023-04-26T08:30:13.292Z</time>
      </trkpt>
      <trkpt lat="51.2063" lon="6.75739">
        <ele>84.397177</ele>
        <time>2023-04-26T08:30:15.290Z</time>
      </trkpt>
      <trkpt lat="51.20639" lon="6.7574">
        <ele>84.32665</ele>
        <time>2023-04-26T08:30:17.294Z</time>
      </trkpt>
      <trkpt lat="51.2065" lon="6.75743">
        <ele>84.250858</ele>
        <time>2023-04-26T08:30:19.308Z</time>
      </trkpt>
      <trkpt lat="51.20659" lon="6.75745">
        <ele>84.177854</ele>
        <time>2023-04-26T08:30:21.281Z</time>
      </trkpt>
      <trkpt lat="51.2067" lon="6.75748">
        <ele>84.100897</ele>
        <time>2023-04-26T08:30:23.284Z</time>
      </trkpt>
      <trkpt lat="51.20679" lon="6.75749">
        <ele>84.033025</ele>
        <time>2023-04-26T08:30:25.299Z</time>
      </trkpt>
      <trkpt lat="51.20692" lon="6.75751">
        <ele>83.942656</ele>
        <time>2023-04-26T08:30:28.299Z</time>
      </trkpt>
      <trkpt lat="51.20704" lon="6.75751">
        <ele>83.851164</ele>
        <time>2023-04-26T08:30:31.307Z</time>
      </trkpt>
      <trkpt lat="51.20715" lon="6.75749">
        <ele>83.775254</ele>
        <time>2023-04-26T08:30:34.283Z</time>
      </trkpt>
      <trkpt lat="51.20726" lon="6.75747">
        <ele>83.797988</ele>
        <time>2023-04-26T08:30:37.293Z</time>
      </trkpt>
      <trkpt lat="51.20737" lon="6.75751">
        <ele>83.971883</ele>
        <time>2023-04-26T08:30:40.294Z</time>
      </trkpt>
      <trkpt lat="51.20748" lon="6.75754">
        <ele>84.138817</ele>
        <time>2023-04-26T08:30:43.297Z</time>
      </trkpt>
      <trkpt lat="51.2076" lon="6.75756">
        <ele>84.330031</ele>
        <time>2023-04-26T08:30:46.320Z</time>
      </trkpt>
      <trkpt lat="51.20771" lon="6.75763">
        <ele>84.511008</ele>
        <time>2023-04-26T08:30:49.297Z</time>
      </trkpt>
      <trkpt lat="51.20784" lon="6.75769">
        <ele>84.708541</ele>
        <time>2023-04-26T08:30:52.297Z</time>
      </trkpt>
      <trkpt lat="51.20792" lon="6.75774">
        <ele>84.848487</ele>
        <time>2023-04-26T08:30:54.314Z</time>
      </trkpt>
      <trkpt lat="51.20802" lon="6.75778">
        <ele>85.000876</ele>
        <time>2023-04-26T08:30:56.295Z</time>
      </trkpt>
      <trkpt lat="51.20811" lon="6.75782">
        <ele>85.142659</ele>
        <time>2023-04-26T08:30:58.303Z</time>
      </trkpt>
      <trkpt lat="51.2082" lon="6.75785">
        <ele>85.286197</ele>
        <time>2023-04-26T08:31:00.295Z</time>
      </trkpt>
      <trkpt lat="51.2083" lon="6.7579">
        <ele>85.446489</ele>
        <time>2023-04-26T08:31:02.271Z</time>
      </trkpt>
      <trkpt lat="51.2084" lon="6.75794">
        <ele>85.607031</ele>
        <time>2023-04-26T08:31:04.308Z</time>
      </trkpt>
      <trkpt lat="51.20849" lon="6.75798">
        <ele>85.752755</ele>
        <time>2023-04-26T08:31:06.288Z</time>
      </trkpt>
      <trkpt lat="51.20859" lon="6.75802">
        <ele>85.907403</ele>
        <time>2023-04-26T08:31:08.311Z</time>
      </trkpt>
      <trkpt lat="51.20868" lon="6.75806">
        <ele>86.05322</ele>
        <time>2023-04-26T08:31:10.292Z</time>
      </trkpt>
      <trkpt lat="51.20879" lon="6.75811">
        <ele>86.219446</ele>
        <time>2023-04-26T08:31:12.294Z</time>
      </trkpt>
      <trkpt lat="51.20889" lon="6.75814">
        <ele>86.386559</ele>
        <time>2023-04-26T08:31:14.306Z</time>
      </trkpt>
      <trkpt lat="51.209" lon="6.75819">
        <ele>86.424005</ele>
        <time>2023-04-26T08:31:16.292Z</time>
      </trkpt>
      <trkpt lat="51.2091" lon="6.75824">
        <ele>86.287447</ele>
        <time>2023-04-26T08:31:18.297Z</time>
      </trkpt>
      <trkpt lat="51.2092" lon="6.75825">
        <ele>86.143568</ele>
        <time>2023-04-26T08:31:20.284Z</time>
      </trkpt>
      <trkpt lat="51.2093" lon="6.75831">
        <ele>86.007753</ele>
        <time>2023-04-26T08:31:22.266Z</time>
      </trkpt>
      <trkpt lat="51.20941" lon="6.75835">
        <ele>85.85901</ele>
        <time>2023-04-26T08:31:24.299Z</time>
      </trkpt>
      <trkpt lat="51.20952" lon="6.75838">
        <ele>85.713259</ele>
        <time>2023-04-26T08:31:26.288Z</time>
      </trkpt>
      <trkpt lat="51.20963" lon="6.75843">
        <ele>85.561355</ele>
        <time>2023-04-26T08:31:28.302Z</time>
      </trkpt>
      <trkpt lat="51.20975" lon="6.75849">
        <ele>85.404213</ele>
        <time>2023-04-26T08:31:30.304Z</time>
      </trkpt>
      <trkpt lat="51.20985" lon="6.75856">
        <ele>85.252421</ele>
        <time>2023-04-26T08:31:32.300Z</time>
      </trkpt>
      <trkpt lat="51.20996" lon="6.75863">
        <ele>85.101244</ele>
        <time>2023-04-26T08:31:34.289Z</time>
      </trkpt>
      <trkpt lat="51.21005" lon="6.75867">
        <ele>84.977696</ele>
        <time>2023-04-26T08:31:36.298Z</time>
      </trkpt>
      <trkpt lat="51.21016" lon="6.75867">
        <ele>84.836979</ele>
        <time>2023-04-26T08:31:38.276Z</time>
      </trkpt>
      <trkpt lat="51.21026" lon="6.75866">
        <ele>84.698477</ele>
        <time>2023-04-26T08:31:40.299Z</time>
      </trkpt>
      <trkpt lat="51.21037" lon="6.75866">
        <ele>84.549849</ele>
        <time>2023-04-26T08:31:42.298Z</time>
      </trkpt>
      <trkpt lat="51.21048" lon="6.75866">
        <ele>84.406493</ele>
        <time>2023-04-26T08:31:44.284Z</time>
      </trkpt>
      <trkpt lat="51.21059" lon="6.75866">
        <ele>84.260513</ele>
        <time>2023-04-26T08:31:46.302Z</time>
      </trkpt>
      <trkpt lat="51.21071" lon="6.75875">
        <ele>84.1198</ele>
        <time>2023-04-26T08:31:48.319Z</time>
      </trkpt>
      <trkpt lat="51.21079" lon="6.7589">
        <ele>84.133934</ele>
        <time>2023-04-26T08:31:50.298Z</time>
      </trkpt>
      <trkpt lat="51.21089" lon="6.75899">
        <ele>84.14577</ele>
        <time>2023-04-26T08:31:52.294Z</time>
      </trkpt>
      <trkpt lat="51.21098" lon="6.75905">
        <ele>84.157425</ele>
        <time>2023-04-26T08:31:54.299Z</time>
      </trkpt>
      <trkpt lat="51.21108" lon="6.75911">
        <ele>84.168248</ele>
        <time>2023-04-26T08:31:56.306Z</time>
      </trkpt>
      <trkpt lat="51.21117" lon="6.75914">
        <ele>84.178469</ele>
        <time>2023-04-26T08:31:58.284Z</time>
      </trkpt>
      <trkpt lat="51.2113" lon="6.75917">
        <ele>84.192756</ele>
        <time>2023-04-26T08:32:01.311Z</time>
      </trkpt>
      <trkpt lat="51.2114" lon="6.75921">
        <ele>84.204668</ele>
        <time>2023-04-26T08:32:04.308Z</time>
      </trkpt>
      <trkpt lat="51.21152" lon="6.75926">
        <ele>84.21802</ele>
        <time>2023-04-26T08:32:07.290Z</time>
      </trkpt>
      <trkpt lat="51.21165" lon="6.75929">
        <ele>84.23206</ele>
        <time>2023-04-26T08:32:10.267Z</time>
      </trkpt>
      <trkpt lat="51.21175" lon="6.75932">
        <ele>84.243424</ele>
        <time>2023-04-26T08:32:13.288Z</time>
      </trkpt>
      <trkpt lat="51.21186" lon="6.75935">
        <ele>84.255398</ele>
        <time>2023-04-26T08:32:16.273Z</time>
      </trkpt>
      <trkpt lat="51.21195" lon="6.7594">
        <ele>84.26559</ele>
        <time>2023-04-26T08:32:19.299Z</time>
      </trkpt>
      <trkpt lat="51.21202" lon="6.75948">
        <ele>84.275713</ele>
        <time>2023-04-26T08:32:24.301Z</time>
      </trkpt>
      <trkpt lat="51.21213" lon="6.75954">
        <ele>84.288071</ele>
        <time>2023-04-26T08:32:33.299Z</time>
      </trkpt>
      <trkpt lat="51.2122" lon="6.75963">
        <ele>84.298081</ele>
        <time>2023-04-26T08:32:36.309Z</time>
      </trkpt>
      <trkpt lat="51.21229" lon="6.75971">
        <ele>84.309143</ele>
        <time>2023-04-26T08:32:39.294Z</time>
      </trkpt>
      <trkpt lat="51.21237" lon="6.7598">
        <ele>84.30318</ele>
        <time>2023-04-26T08:32:42.292Z</time>
      </trkpt>
      <trkpt lat="51.21247" lon="6.75986">
        <ele>84.278021</ele>
        <time>2023-04-26T08:32:45.313Z</time>
      </trkpt>
      <trkpt lat="51.21258" lon="6.75998">
        <ele>84.247766</ele>
        <time>2023-04-26T08:32:48.285Z</time>
      </trkpt>
      <trkpt lat="51.21269" lon="6.7601">
        <ele>84.216215</ele>
        <time>2023-04-26T08:32:51.301Z</time>
      </trkpt>
      <trkpt lat="51.21277" lon="6.76018">
        <ele>84.193759</ele>
        <time>2023-04-26T08:32:53.294Z</time>
      </trkpt>
      <trkpt lat="51.21285" lon="6.76026">
        <ele>84.171047</ele>
        <time>2023-04-26T08:32:55.314Z</time>
      </trkpt>
      <trkpt lat="51.21293" lon="6.76034">
        <ele>84.148704</ele>
        <time>2023-04-26T08:32:57.293Z</time>
      </trkpt>
      <trkpt lat="51.21305" lon="6.76045">
        <ele>84.116656</ele>
        <time>2023-04-26T08:33:00.284Z</time>
      </trkpt>
      <trkpt lat="51.21313" lon="6.76054">
        <ele>84.09392</ele>
        <time>2023-04-26T08:33:02.293Z</time>
      </trkpt>
      <trkpt lat="51.21321" lon="6.76061">
        <ele>84.071014</ele>
        <time>2023-04-26T08:33:04.300Z</time>
      </trkpt>
      <trkpt lat="51.21331" lon="6.76067">
        <ele>84.047055</ele>
        <time>2023-04-26T08:33:06.303Z</time>
      </trkpt>
      <trkpt lat="51.2134" lon="6.76069">
        <ele>84.024262</ele>
        <time>2023-04-26T08:33:08.295Z</time>
      </trkpt>
      <trkpt lat="51.21352" lon="6.76071">
        <ele>83.995548</ele>
        <time>2023-04-26T08:33:10.287Z</time>
      </trkpt>
      <trkpt lat="51.21362" lon="6.76075">
        <ele>83.970929</ele>
        <time>2023-04-26T08:33:12.304Z</time>
      </trkpt>
      <trkpt lat="51.21372" lon="6.7608">
        <ele>83.946199</ele>
        <time>2023-04-26T08:33:14.298Z</time>
      </trkpt>
      <trkpt lat="51.21382" lon="6.76085">
        <ele>83.921301</ele>
        <time>2023-04-26T08:33:16.302Z</time>
      </trkpt>
      <trkpt lat="51.21391" lon="6.76092">
        <ele>83.898268</ele>
        <time>2023-04-26T08:33:18.297Z</time>
      </trkpt>
      <trkpt lat="51.21401" lon="6.76096">
        <ele>83.979907</ele>
        <time>2023-04-26T08:33:20.323Z</time>
      </trkpt>
      <trkpt lat="51.21411" lon="6.761">
        <ele>84.117582</ele>
        <time>2023-04-26T08:33:22.300Z</time>
      </trkpt>
      <trkpt lat="51.21421" lon="6.76104">
        <ele>84.26139</ele>
        <time>2023-04-26T08:33:24.295Z</time>
      </trkpt>
      <trkpt lat="51.21432" lon="6.76108">
        <ele>84.405422</ele>
        <time>2023-04-26T08:33:26.306Z</time>
      </trkpt>
      <trkpt lat="51.21442" lon="6.76113">
        <ele>84.550113</ele>
        <time>2023-04-26T08:33:28.313Z</time>
      </trkpt>
      <trkpt lat="51.21452" lon="6.76117">
        <ele>84.686906</ele>
        <time>2023-04-26T08:33:30.299Z</time>
      </trkpt>
      <trkpt lat="51.21464" lon="6.76125">
        <ele>84.868993</ele>
        <time>2023-04-26T08:33:33.296Z</time>
      </trkpt>
      <trkpt lat="51.21475" lon="6.76132">
        <ele>85.030166</ele>
        <time>2023-04-26T08:33:36.300Z</time>
      </trkpt>
      <trkpt lat="51.21485" lon="6.76138">
        <ele>85.172064</ele>
        <time>2023-04-26T08:33:39.303Z</time>
      </trkpt>
      <trkpt lat="51.21493" lon="6.76146">
        <ele>85.303839</ele>
        <time>2023-04-26T08:33:42.305Z</time>
      </trkpt>
      <trkpt lat="51.21503" lon="6.76153">
        <ele>85.450066</ele>
        <time>2023-04-26T08:33:46.293Z</time>
      </trkpt>
      <trkpt lat="51.21511" lon="6.76163">
        <ele>85.588083</ele>
        <time>2023-04-26T08:33:49.269Z</time>
      </trkpt>
      <trkpt lat="51.21521" lon="6.76167">
        <ele>85.729727</ele>
        <time>2023-04-26T08:33:51.293Z</time>
      </trkpt>
      <trkpt lat="51.21533" lon="6.76175">
        <ele>85.901713</ele>
        <time>2023-04-26T08:33:54.301Z</time>
      </trkpt>
      <trkpt lat="51.21538" lon="6.7619">
        <ele>86.046989</ele>
        <time>2023-04-26T08:33:57.308Z</time>
      </trkpt>
      <trkpt lat="51.21546" lon="6.76204">
        <ele>86.208272</ele>
        <time>2023-04-26T08:34:00.294Z</time>
      </trkpt>
      <trkpt lat="51.21555" lon="6.76214">
        <ele>86.311974</ele>
        <time>2023-04-26T08:34:03.294Z</time>
      </trkpt>
      <trkpt lat="51.21563" lon="6.76227">
        <ele>86.130541</ele>
        <time>2023-04-26T08:34:06.304Z</time>
      </trkpt>
      <trkpt lat="51.21572" lon="6.76235">
        <ele>85.961808</ele>
        <time>2023-04-26T08:34:09.297Z</time>
      </trkpt>
      <trkpt lat="51.21576" lon="6.76221">
        <ele>85.798685</ele>
        <time>2023-04-26T08:34:26.298Z</time>
      </trkpt>
      <trkpt lat="51.21575" lon="6.76207">
        <ele>85.650765</ele>
        <time>2023-04-26T08:34:29.302Z</time>
      </trkpt>
      <trkpt lat="51.21574" lon="6.76189">
        <ele>85.469814</ele>
        <time>2023-04-26T08:34:32.287Z</time>
      </trkpt>
      <trkpt lat="51.21574" lon="6.76175">
        <ele>85.320055</ele>
        <time>2023-04-26T08:34:36.277Z</time>
      </trkpt>
      <trkpt lat="51.2157" lon="6.7619">
        <ele>85.150982</ele>
        <time>2023-04-26T08:34:54.293Z</time>
      </trkpt>
      <trkpt lat="51.21568" lon="6.76208">
        <ele>84.957136</ele>
        <time>2023-04-26T08:34:58.292Z</time>
      </trkpt>
      <trkpt lat="51.21568" lon="6.76224">
        <ele>84.799276</ele>
        <time>2023-04-26T08:35:01.295Z</time>
      </trkpt>
      <trkpt lat="51.21561" lon="6.76236">
        <ele>84.631984</ele>
        <time>2023-04-26T08:35:05.299Z</time>
      </trkpt>
      <trkpt lat="51.21551" lon="6.76229">
        <ele>84.446866</ele>
        <time>2023-04-26T08:35:09.297Z</time>
      </trkpt>
      <trkpt lat="51.21542" lon="6.76218">
        <ele>84.266057</ele>
        <time>2023-04-26T08:35:14.308Z</time>
      </trkpt>
      <trkpt lat="51.21536" lon="6.76206">
        <ele>84.093241</ele>
        <time>2023-04-26T08:35:17.300Z</time>
      </trkpt>
      <trkpt lat="51.2153" lon="6.76192">
        <ele>83.928924</ele>
        <time>2023-04-26T08:35:20.300Z</time>
      </trkpt>
      <trkpt lat="51.21526" lon="6.76177">
        <ele>83.760555</ele>
        <time>2023-04-26T08:35:23.292Z</time>
      </trkpt>
      <trkpt lat="51.21518" lon="6.76167">
        <ele>83.592579</ele>
        <time>2023-04-26T08:35:27.285Z</time>
      </trkpt>
      <trkpt lat="51.21509" lon="6.76157">
        <ele>83.416683</ele>
        <time>2023-04-26T08:35:31.303Z</time>
      </trkpt>
      <trkpt lat="51.21501" lon="6.76147">
        <ele>83.359892</ele>
        <time>2023-04-26T08:35:36.288Z</time>
      </trkpt>
      <trkpt lat="51.21511" lon="6.76146">
        <ele>83.339877</ele>
        <time>2023-04-26T08:35:42.278Z</time>
      </trkpt>
      <trkpt lat="51.21521" lon="6.76152">
        <ele>83.31721</ele>
        <time>2023-04-26T08:35:45.312Z</time>
      </trkpt>
      <trkpt lat="51.21531" lon="6.76155">
        <ele>83.296866</ele>
        <time>2023-04-26T08:35:48.278Z</time>
      </trkpt>
      <trkpt lat="51.2154" lon="6.7616">
        <ele>83.277179</ele>
        <time>2023-04-26T08:35:51.290Z</time>
      </trkpt>
      <trkpt lat="51.21549" lon="6.76163">
        <ele>83.25827</ele>
        <time>2023-04-26T08:35:54.306Z</time>
      </trkpt>
      <trkpt lat="51.21559" lon="6.76168">
        <ele>83.235419</ele>
        <time>2023-04-26T08:35:58.275Z</time>
      </trkpt>
      <trkpt lat="51.21569" lon="6.76169">
        <ele>83.215029</ele>
        <time>2023-04-26T08:36:03.291Z</time>
      </trkpt>
      <trkpt lat="51.21578" lon="6.76164">
        <ele>83.195045</ele>
        <time>2023-04-26T08:36:07.285Z</time>
      </trkpt>
      <trkpt lat="51.21588" lon="6.76167">
        <ele>83.175708</ele>
        <time>2023-04-26T08:36:10.279Z</time>
      </trkpt>
      <trkpt lat="51.21597" lon="6.76169">
        <ele>83.15686</ele>
        <time>2023-04-26T08:36:13.296Z</time>
      </trkpt>
      <trkpt lat="51.21606" lon="6.76174">
        <ele>83.136729</ele>
        <time>2023-04-26T08:36:16.287Z</time>
      </trkpt>
      <trkpt lat="51.21615" lon="6.76179">
        <ele>83.117866</ele>
        <time>2023-04-26T08:36:19.292Z</time>
      </trkpt>
      <trkpt lat="51.21624" lon="6.76186">
        <ele>83.096991</ele>
        <time>2023-04-26T08:36:22.306Z</time>
      </trkpt>
      <trkpt lat="51.21635" lon="6.76193">
        <ele>83.072833</ele>
        <time>2023-04-26T08:36:25.296Z</time>
      </trkpt>
      <trkpt lat="51.21646" lon="6.76203">
        <ele>83.046241</ele>
        <time>2023-04-26T08:36:28.285Z</time>
      </trkpt>
      <trkpt lat="51.21655" lon="6.76209">
        <ele>83.027206</ele>
        <time>2023-04-26T08:36:30.263Z</time>
      </trkpt>
      <trkpt lat="51.21664" lon="6.76217">
        <ele>83.000174</ele>
        <time>2023-04-26T08:36:32.313Z</time>
      </trkpt>
      <trkpt lat="51.21675" lon="6.76223">
        <ele>82.920139</ele>
        <time>2023-04-26T08:36:34.306Z</time>
      </trkpt>
      <trkpt lat="51.21686" lon="6.76231">
        <ele>82.830284</ele>
        <time>2023-04-26T08:36:36.294Z</time>
      </trkpt>
      <trkpt lat="51.21699" lon="6.7624">
        <ele>82.731647</ele>
        <time>2023-04-26T08:36:38.306Z</time>
      </trkpt>
      <trkpt lat="51.21711" lon="6.76251">
        <ele>82.630572</ele>
        <time>2023-04-26T08:36:40.298Z</time>
      </trkpt>
      <trkpt lat="51.21724" lon="6.76262">
        <ele>82.526603</ele>
        <time>2023-04-26T08:36:42.294Z</time>
      </trkpt>
      <trkpt lat="51.21738" lon="6.7627">
        <ele>82.421596</ele>
        <time>2023-04-26T08:36:44.284Z</time>
      </trkpt>
      <trkpt lat="51.21751" lon="6.76275">
        <ele>82.325978</ele>
        <time>2023-04-26T08:36:46.294Z</time>
      </trkpt>
      <trkpt lat="51.21764" lon="6.76276">
        <ele>82.231298</ele>
        <time>2023-04-26T08:36:48.304Z</time>
      </trkpt>
      <trkpt lat="51.21776" lon="6.76278">
        <ele>82.143316</ele>
        <time>2023-04-26T08:36:50.293Z</time>
      </trkpt>
      <trkpt lat="51.21786" lon="6.76287">
        <ele>82.060427</ele>
        <time>2023-04-26T08:36:52.289Z</time>
      </trkpt>
      <trkpt lat="51.21793" lon="6.763">
        <ele>81.984862</ele>
        <time>2023-04-26T08:36:54.288Z</time>
      </trkpt>
      <trkpt lat="51.21797" lon="6.76314">
        <ele>81.915492</ele>
        <time>2023-04-26T08:36:56.298Z</time>
      </trkpt>
      <trkpt lat="51.21803" lon="6.7633">
        <ele>81.831422</ele>
        <time>2023-04-26T08:36:59.308Z</time>
      </trkpt>
      <trkpt lat="51.21808" lon="6.76347">
        <ele>81.745494</ele>
        <time>2023-04-26T08:37:02.279Z</time>
      </trkpt>
      <trkpt lat="51.21812" lon="6.76363">
        <ele>81.684634</ele>
        <time>2023-04-26T08:37:05.295Z</time>
      </trkpt>
      <trkpt lat="51.21814" lon="6.76383">
        <ele>81.621801</ele>
        <time>2023-04-26T08:37:08.290Z</time>
      </trkpt>
      <trkpt lat="51.21818" lon="6.76402">
        <ele>81.557418</ele>
        <time>2023-04-26T08:37:11.294Z</time>
      </trkpt>
      <trkpt lat="51.21822" lon="6.76421">
        <ele>81.493366</ele>
        <time>2023-04-26T08:37:14.287Z</time>
      </trkpt>
      <trkpt lat="51.21827" lon="6.76435">
        <ele>81.443306</ele>
        <time>2023-04-26T08:37:16.299Z</time>
      </trkpt>
      <trkpt lat="51.21831" lon="6.76449">
        <ele>81.392678</ele>
        <time>2023-04-26T08:37:18.303Z</time>
      </trkpt>
      <trkpt lat="51.21836" lon="6.76465">
        <ele>81.337534</ele>
        <time>2023-04-26T08:37:20.299Z</time>
      </trkpt>
      <trkpt lat="51.21842" lon="6.76481">
        <ele>81.278473</ele>
        <time>2023-04-26T08:37:22.298Z</time>
      </trkpt>
      <trkpt lat="51.21847" lon="6.76499">
        <ele>81.217395</ele>
        <time>2023-04-26T08:37:24.294Z</time>
      </trkpt>
      <trkpt lat="51.21854" lon="6.76515">
        <ele>81.154442</ele>
        <time>2023-04-26T08:37:26.306Z</time>
      </trkpt>
      <trkpt lat="51.21861" lon="6.7653">
        <ele>81.094727</ele>
        <time>2023-04-26T08:37:28.298Z</time>
      </trkpt>
      <trkpt lat="51.21868" lon="6.76545">
        <ele>81.035666</ele>
        <time>2023-04-26T08:37:30.302Z</time>
      </trkpt>
      <trkpt lat="51.21876" lon="6.76559">
        <ele>80.977601</ele>
        <time>2023-04-26T08:37:32.272Z</time>
      </trkpt>
      <trkpt lat="51.21883" lon="6.76571">
        <ele>80.923899</ele>
        <time>2023-04-26T08:37:34.288Z</time>
      </trkpt>
      <trkpt lat="51.21891" lon="6.76583">
        <ele>80.870236</ele>
        <time>2023-04-26T08:37:36.320Z</time>
      </trkpt>
      <trkpt lat="51.21898" lon="6.76594">
        <ele>80.819944</ele>
        <time>2023-04-26T08:37:38.290Z</time>
      </trkpt>
      <trkpt lat="51.21905" lon="6.76604">
        <ele>80.836747</ele>
        <time>2023-04-26T08:37:40.290Z</time>
      </trkpt>
      <trkpt lat="51.21914" lon="6.76614">
        <ele>80.876076</ele>
        <time>2023-04-26T08:37:42.284Z</time>
      </trkpt>
      <trkpt lat="51.21923" lon="6.76615">
        <ele>80.909315</ele>
        <time>2023-04-26T08:37:44.277Z</time>
      </trkpt>
      <trkpt lat="51.21936" lon="6.76615">
        <ele>80.953412</ele>
        <time>2023-04-26T08:37:47.290Z</time>
      </trkpt>
      <trkpt lat="51.21945" lon="6.7662">
        <ele>80.988576</ele>
        <time>2023-04-26T08:37:49.278Z</time>
      </trkpt>
      <trkpt lat="51.21954" lon="6.76627">
        <ele>81.021994</ele>
        <time>2023-04-26T08:37:51.292Z</time>
      </trkpt>
      <trkpt lat="51.21963" lon="6.76633">
        <ele>81.057307</ele>
        <time>2023-04-26T08:37:53.267Z</time>
      </trkpt>
      <trkpt lat="51.21972" lon="6.7664">
        <ele>81.092269</ele>
        <time>2023-04-26T08:37:55.307Z</time>
      </trkpt>
      <trkpt lat="51.2198" lon="6.76648">
        <ele>81.12544</ele>
        <time>2023-04-26T08:37:57.305Z</time>
      </trkpt>
      <trkpt lat="51.21988" lon="6.76655">
        <ele>81.157898</ele>
        <time>2023-04-26T08:37:59.283Z</time>
      </trkpt>
      <trkpt lat="51.21999" lon="6.76664">
        <ele>81.204694</ele>
        <time>2023-04-26T08:38:02.288Z</time>
      </trkpt>
      <trkpt lat="51.22011" lon="6.76673">
        <ele>81.25184</ele>
        <time>2023-04-26T08:38:05.299Z</time>
      </trkpt>
      <trkpt lat="51.22024" lon="6.76681">
        <ele>81.298825</ele>
        <time>2023-04-26T08:38:08.282Z</time>
      </trkpt>
      <trkpt lat="51.22032" lon="6.76688">
        <ele>81.331373</ele>
        <time>2023-04-26T08:38:10.311Z</time>
      </trkpt>
      <trkpt lat="51.22044" lon="6.76696">
        <ele>81.379344</ele>
        <time>2023-04-26T08:38:13.296Z</time>
      </trkpt>
      <trkpt lat="51.22053" lon="6.76701">
        <ele>81.412077</ele>
        <time>2023-04-26T08:38:15.303Z</time>
      </trkpt>
      <trkpt lat="51.22061" lon="6.76709">
        <ele>81.446439</ele>
        <time>2023-04-26T08:38:17.301Z</time>
      </trkpt>
      <trkpt lat="51.22069" lon="6.7672">
        <ele>81.625912</ele>
        <time>2023-04-26T08:38:19.291Z</time>
      </trkpt>
      <trkpt lat="51.22077" lon="6.76731">
        <ele>81.818816</ele>
        <time>2023-04-26T08:38:21.282Z</time>
      </trkpt>
      <trkpt lat="51.22084" lon="6.76742">
        <ele>82.007057</ele>
        <time>2023-04-26T08:38:23.311Z</time>
      </trkpt>
      <trkpt lat="51.22093" lon="6.76751">
        <ele>82.207574</ele>
        <time>2023-04-26T08:38:25.288Z</time>
      </trkpt>
      <trkpt lat="51.22102" lon="6.76757">
        <ele>82.395009</ele>
        <time>2023-04-26T08:38:27.278Z</time>
      </trkpt>
      <trkpt lat="51.22111" lon="6.76762">
        <ele>82.574146</ele>
        <time>2023-04-26T08:38:29.288Z</time>
      </trkpt>
      <trkpt lat="51.22121" lon="6.76767">
        <ele>82.771495</ele>
        <time>2023-04-26T08:38:31.311Z</time>
      </trkpt>
      <trkpt lat="51.22131" lon="6.76773">
        <ele>82.965911</ele>
        <time>2023-04-26T08:38:33.290Z</time>
      </trkpt>
      <trkpt lat="51.2214" lon="6.76779">
        <ele>83.153406</ele>
        <time>2023-04-26T08:38:35.285Z</time>
      </trkpt>
      <trkpt lat="51.2215" lon="6.76786">
        <ele>83.341365</ele>
        <time>2023-04-26T08:38:37.293Z</time>
      </trkpt>
      <trkpt lat="51.22159" lon="6.76792">
        <ele>83.529236</ele>
        <time>2023-04-26T08:38:39.312Z</time>
      </trkpt>
      <trkpt lat="51.22168" lon="6.76797">
        <ele>83.712324</ele>
        <time>2023-04-26T08:38:41.295Z</time>
      </trkpt>
      <trkpt lat="51.22177" lon="6.76804">
        <ele>83.902207</ele>
        <time>2023-04-26T08:38:43.301Z</time>
      </trkpt>
      <trkpt lat="51.22186" lon="6.76811">
        <ele>84.085029</ele>
        <time>2023-04-26T08:38:45.293Z</time>
      </trkpt>
      <trkpt lat="51.22195" lon="6.76817">
        <ele>84.268618</ele>
        <time>2023-04-26T08:38:47.306Z</time>
      </trkpt>
      <trkpt lat="51.22204" lon="6.76824">
        <ele>84.458321</ele>
        <time>2023-04-26T08:38:49.287Z</time>
      </trkpt>
      <trkpt lat="51.22213" lon="6.7683">
        <ele>84.631649</ele>
        <time>2023-04-26T08:38:51.298Z</time>
      </trkpt>
      <trkpt lat="51.22222" lon="6.76836">
        <ele>84.816061</ele>
        <time>2023-04-26T08:38:53.304Z</time>
      </trkpt>
      <trkpt lat="51.22231" lon="6.76841">
        <ele>84.859679</ele>
        <time>2023-04-26T08:38:55.304Z</time>
      </trkpt>
      <trkpt lat="51.2224" lon="6.76848">
        <ele>84.902131</ele>
        <time>2023-04-26T08:38:57.299Z</time>
      </trkpt>
      <trkpt lat="51.2225" lon="6.76853">
        <ele>84.944676</ele>
        <time>2023-04-26T08:38:59.290Z</time>
      </trkpt>
      <trkpt lat="51.22259" lon="6.76858">
        <ele>84.984735</ele>
        <time>2023-04-26T08:39:01.291Z</time>
      </trkpt>
      <trkpt lat="51.22268" lon="6.76865">
        <ele>85.027782</ele>
        <time>2023-04-26T08:39:03.261Z</time>
      </trkpt>
      <trkpt lat="51.22278" lon="6.76871">
        <ele>85.070107</ele>
        <time>2023-04-26T08:39:05.281Z</time>
      </trkpt>
      <trkpt lat="51.22287" lon="6.76877">
        <ele>85.112531</ele>
        <time>2023-04-26T08:39:07.304Z</time>
      </trkpt>
      <trkpt lat="51.22297" lon="6.76881">
        <ele>85.153178</ele>
        <time>2023-04-26T08:39:09.289Z</time>
      </trkpt>
      <trkpt lat="51.22306" lon="6.76887">
        <ele>85.195634</ele>
        <time>2023-04-26T08:39:11.298Z</time>
      </trkpt>
      <trkpt lat="51.22316" lon="6.76894">
        <ele>85.240101</ele>
        <time>2023-04-26T08:39:13.281Z</time>
      </trkpt>
      <trkpt lat="51.22325" lon="6.76901">
        <ele>85.283041</ele>
        <time>2023-04-26T08:39:15.282Z</time>
      </trkpt>
      <trkpt lat="51.22334" lon="6.76907">
        <ele>85.320833</ele>
        <time>2023-04-26T08:39:17.279Z</time>
      </trkpt>
      <trkpt lat="51.22342" lon="6.76913">
        <ele>85.360681</ele>
        <time>2023-04-26T08:39:19.288Z</time>
      </trkpt>
      <trkpt lat="51.22351" lon="6.76919">
        <ele>85.400489</ele>
        <time>2023-04-26T08:39:21.277Z</time>
      </trkpt>
      <trkpt lat="51.2236" lon="6.76924">
        <ele>85.440633</ele>
        <time>2023-04-26T08:39:23.290Z</time>
      </trkpt>
      <trkpt lat="51.2237" lon="6.7693">
        <ele>85.482473</ele>
        <time>2023-04-26T08:39:25.283Z</time>
      </trkpt>
      <trkpt lat="51.22379" lon="6.76936">
        <ele>85.525032</ele>
        <time>2023-04-26T08:39:27.283Z</time>
      </trkpt>
      <trkpt lat="51.22388" lon="6.76942">
        <ele>85.565516</ele>
        <time>2023-04-26T08:39:29.286Z</time>
      </trkpt>
      <trkpt lat="51.22397" lon="6.76948">
        <ele>85.466618</ele>
        <time>2023-04-26T08:39:31.304Z</time>
      </trkpt>
      <trkpt lat="51.22407" lon="6.76953">
        <ele>85.357354</ele>
        <time>2023-04-26T08:39:33.293Z</time>
      </trkpt>
      <trkpt lat="51.22416" lon="6.76959">
        <ele>85.24932</ele>
        <time>2023-04-26T08:39:35.282Z</time>
      </trkpt>
      <trkpt lat="51.22425" lon="6.76965">
        <ele>85.148303</ele>
        <time>2023-04-26T08:39:37.286Z</time>
      </trkpt>
      <trkpt lat="51.22436" lon="6.76971">
        <ele>85.019123</ele>
        <time>2023-04-26T08:39:40.297Z</time>
      </trkpt>
      <trkpt lat="51.22446" lon="6.76977">
        <ele>84.908761</ele>
        <time>2023-04-26T08:39:43.315Z</time>
      </trkpt>
      <trkpt lat="51.22456" lon="6.76983">
        <ele>84.789891</ele>
        <time>2023-04-26T08:39:47.309Z</time>
      </trkpt>
      <trkpt lat="51.22454" lon="6.76998">
        <ele>84.686848</ele>
        <time>2023-04-26T08:40:03.280Z</time>
      </trkpt>
      <trkpt lat="51.22455" lon="6.76996">
        <ele>84.675173</ele>
        <time>2023-04-26T08:40:13.551Z</time>
      </trkpt>
      <trkpt lat="51.22464" lon="6.76989">
        <ele>84.561961</ele>
        <time>2023-04-26T08:54:23.293Z</time>
      </trkpt>
      <trkpt lat="51.22473" lon="6.76993">
        <ele>84.463997</ele>
        <time>2023-04-26T08:54:26.294Z</time>
      </trkpt>
      <trkpt lat="51.22483" lon="6.76999">
        <ele>84.34536</ele>
        <time>2023-04-26T08:54:30.305Z</time>
      </trkpt>
      <trkpt lat="51.22493" lon="6.77004">
        <ele>84.229812</ele>
        <time>2023-04-26T08:54:35.311Z</time>
      </trkpt>
      <trkpt lat="51.22503" lon="6.77008">
        <ele>84.118796</ele>
        <time>2023-04-26T08:54:40.304Z</time>
      </trkpt>
      <trkpt lat="51.22515" lon="6.77011">
        <ele>83.993431</ele>
        <time>2023-04-26T08:54:45.300Z</time>
      </trkpt>
      <trkpt lat="51.22525" lon="6.77018">
        <ele>83.878363</ele>
        <time>2023-04-26T08:54:48.283Z</time>
      </trkpt>
      <trkpt lat="51.22537" lon="6.77022">
        <ele>83.736092</ele>
        <time>2023-04-26T08:54:51.298Z</time>
      </trkpt>
      <trkpt lat="51.22549" lon="6.7703">
        <ele>83.659208</ele>
        <time>2023-04-26T08:54:54.311Z</time>
      </trkpt>
      <trkpt lat="51.22561" lon="6.77037">
        <ele>83.908542</ele>
        <time>2023-04-26T08:54:57.329Z</time>
      </trkpt>
      <trkpt lat="51.22572" lon="6.77042">
        <ele>84.142663</ele>
        <time>2023-04-26T08:55:00.283Z</time>
      </trkpt>
      <trkpt lat="51.22584" lon="6.77045">
        <ele>84.375349</ele>
        <time>2023-04-26T08:55:03.317Z</time>
      </trkpt>
      <trkpt lat="51.22596" lon="6.7705">
        <ele>84.619473</ele>
        <time>2023-04-26T08:55:06.295Z</time>
      </trkpt>
      <trkpt lat="51.2261" lon="6.77054">
        <ele>84.88043</ele>
        <time>2023-04-26T08:55:09.297Z</time>
      </trkpt>
      <trkpt lat="51.22621" lon="6.77059">
        <ele>85.110199</ele>
        <time>2023-04-26T08:55:12.300Z</time>
      </trkpt>
      <trkpt lat="51.22631" lon="6.77062">
        <ele>85.299674</ele>
        <time>2023-04-26T08:55:14.290Z</time>
      </trkpt>
      <trkpt lat="51.2264" lon="6.77069">
        <ele>85.502884</ele>
        <time>2023-04-26T08:55:16.278Z</time>
      </trkpt>
      <trkpt lat="51.2265" lon="6.77074">
        <ele>85.703285</ele>
        <time>2023-04-26T08:55:18.301Z</time>
      </trkpt>
      <trkpt lat="51.2266" lon="6.77078">
        <ele>85.89677</ele>
        <time>2023-04-26T08:55:20.308Z</time>
      </trkpt>
      <trkpt lat="51.22669" lon="6.77081">
        <ele>86.082557</ele>
        <time>2023-04-26T08:55:22.301Z</time>
      </trkpt>
      <trkpt lat="51.22683" lon="6.77083">
        <ele>86.347592</ele>
        <time>2023-04-26T08:55:25.302Z</time>
      </trkpt>
      <trkpt lat="51.22695" lon="6.77084">
        <ele>86.59076</ele>
        <time>2023-04-26T08:55:28.282Z</time>
      </trkpt>
      <trkpt lat="51.22707" lon="6.77085">
        <ele>86.81807</ele>
        <time>2023-04-26T08:55:31.296Z</time>
      </trkpt>
      <trkpt lat="51.22719" lon="6.77086">
        <ele>87.051142</ele>
        <time>2023-04-26T08:55:34.309Z</time>
      </trkpt>
      <trkpt lat="51.22728" lon="6.77086">
        <ele>87.02569</ele>
        <time>2023-04-26T08:55:36.315Z</time>
      </trkpt>
      <trkpt lat="51.22741" lon="6.77085">
        <ele>86.833709</ele>
        <time>2023-04-26T08:55:39.278Z</time>
      </trkpt>
      <trkpt lat="51.22753" lon="6.77087">
        <ele>86.639444</ele>
        <time>2023-04-26T08:55:42.294Z</time>
      </trkpt>
      <trkpt lat="51.22763" lon="6.77087">
        <ele>86.498889</ele>
        <time>2023-04-26T08:55:44.298Z</time>
      </trkpt>
      <trkpt lat="51.22772" lon="6.77085">
        <ele>86.356739</ele>
        <time>2023-04-26T08:55:46.282Z</time>
      </trkpt>
      <trkpt lat="51.22785" lon="6.77085">
        <ele>86.155664</ele>
        <time>2023-04-26T08:55:49.294Z</time>
      </trkpt>
      <trkpt lat="51.22795" lon="6.77085">
        <ele>86.01516</ele>
        <time>2023-04-26T08:55:51.298Z</time>
      </trkpt>
      <trkpt lat="51.22807" lon="6.77088">
        <ele>85.8211</ele>
        <time>2023-04-26T08:55:54.295Z</time>
      </trkpt>
      <trkpt lat="51.2282" lon="6.77089">
        <ele>85.629154</ele>
        <time>2023-04-26T08:55:57.286Z</time>
      </trkpt>
      <trkpt lat="51.22833" lon="6.77091">
        <ele>85.435064</ele>
        <time>2023-04-26T08:56:00.289Z</time>
      </trkpt>
      <trkpt lat="51.22846" lon="6.77092">
        <ele>85.241534</ele>
        <time>2023-04-26T08:56:03.313Z</time>
      </trkpt>
      <trkpt lat="51.22858" lon="6.77093">
        <ele>85.060076</ele>
        <time>2023-04-26T08:56:06.300Z</time>
      </trkpt>
      <trkpt lat="51.22867" lon="6.77094">
        <ele>84.922297</ele>
        <time>2023-04-26T08:56:08.314Z</time>
      </trkpt>
      <trkpt lat="51.2288" lon="6.77095">
        <ele>84.719254</ele>
        <time>2023-04-26T08:56:11.311Z</time>
      </trkpt>
      <trkpt lat="51.22893" lon="6.77097">
        <ele>84.51779</ele>
        <time>2023-04-26T08:56:14.308Z</time>
      </trkpt>
      <trkpt lat="51.22907" lon="6.77098">
        <ele>84.356388</ele>
        <time>2023-04-26T08:56:17.294Z</time>
      </trkpt>
      <trkpt lat="51.22916" lon="6.771">
        <ele>84.283648</ele>
        <time>2023-04-26T08:56:19.270Z</time>
      </trkpt>
      <trkpt lat="51.22926" lon="6.77101">
        <ele>84.20554</ele>
        <time>2023-04-26T08:56:21.302Z</time>
      </trkpt>
      <trkpt lat="51.22935" lon="6.77102">
        <ele>84.135141</ele>
        <time>2023-04-26T08:56:23.303Z</time>
      </trkpt>
      <trkpt lat="51.22944" lon="6.77103">
        <ele>84.065481</ele>
        <time>2023-04-26T08:56:25.285Z</time>
      </trkpt>
      <trkpt lat="51.22953" lon="6.77104">
        <ele>83.995852</ele>
        <time>2023-04-26T08:56:27.294Z</time>
      </trkpt>
      <trkpt lat="51.22962" lon="6.77105">
        <ele>83.925527</ele>
        <time>2023-04-26T08:56:29.313Z</time>
      </trkpt>
      <trkpt lat="51.22975" lon="6.77106">
        <ele>83.824851</ele>
        <time>2023-04-26T08:56:32.309Z</time>
      </trkpt>
      <trkpt lat="51.22988" lon="6.77107">
        <ele>83.72515</ele>
        <time>2023-04-26T08:56:35.290Z</time>
      </trkpt>
      <trkpt lat="51.23001" lon="6.77108">
        <ele>83.624698</ele>
        <time>2023-04-26T08:56:38.297Z</time>
      </trkpt>
      <trkpt lat="51.23014" lon="6.77109">
        <ele>83.528777</ele>
        <time>2023-04-26T08:56:41.413Z</time>
      </trkpt>
      <trkpt lat="51.23026" lon="6.77111">
        <ele>83.428871</ele>
        <time>2023-04-26T08:56:44.317Z</time>
      </trkpt>
      <trkpt lat="51.23039" lon="6.77114">
        <ele>83.332646</ele>
        <time>2023-04-26T08:56:47.299Z</time>
      </trkpt>
      <trkpt lat="51.23048" lon="6.77116">
        <ele>83.263179</ele>
        <time>2023-04-26T08:56:49.315Z</time>
      </trkpt>
      <trkpt lat="51.23057" lon="6.77119">
        <ele>83.191882</ele>
        <time>2023-04-26T08:56:51.300Z</time>
      </trkpt>
      <trkpt lat="51.23066" lon="6.77121">
        <ele>83.119425</ele>
        <time>2023-04-26T08:56:53.298Z</time>
      </trkpt>
      <trkpt lat="51.23076" lon="6.77123">
        <ele>83.041957</ele>
        <time>2023-04-26T08:56:55.296Z</time>
      </trkpt>
      <trkpt lat="51.23086" lon="6.77126">
        <ele>82.954897</ele>
        <time>2023-04-26T08:56:57.288Z</time>
      </trkpt>
      <trkpt lat="51.23097" lon="6.77126">
        <ele>82.853466</ele>
        <time>2023-04-26T08:56:59.286Z</time>
      </trkpt>
      <trkpt lat="51.23108" lon="6.77128">
        <ele>82.751751</ele>
        <time>2023-04-26T08:57:01.317Z</time>
      </trkpt>
      <trkpt lat="51.23119" lon="6.7713">
        <ele>82.65241</ele>
        <time>2023-04-26T08:57:03.321Z</time>
      </trkpt>
      <trkpt lat="51.2313" lon="6.77133">
        <ele>82.555113</ele>
        <time>2023-04-26T08:57:05.294Z</time>
      </trkpt>
      <trkpt lat="51.23139" lon="6.77138">
        <ele>82.464302</ele>
        <time>2023-04-26T08:57:07.281Z</time>
      </trkpt>
      <trkpt lat="51.23149" lon="6.7714">
        <ele>82.3725</ele>
        <time>2023-04-26T08:57:09.294Z</time>
      </trkpt>
      <trkpt lat="51.23159" lon="6.77141">
        <ele>82.277368</ele>
        <time>2023-04-26T08:57:11.291Z</time>
      </trkpt>
      <trkpt lat="51.2317" lon="6.77142">
        <ele>82.176848</ele>
        <time>2023-04-26T08:57:13.307Z</time>
      </trkpt>
      <trkpt lat="51.23181" lon="6.77146">
        <ele>82.072948</ele>
        <time>2023-04-26T08:57:15.316Z</time>
      </trkpt>
      <trkpt lat="51.23191" lon="6.7715">
        <ele>81.984544</ele>
        <time>2023-04-26T08:57:17.275Z</time>
      </trkpt>
      <trkpt lat="51.232" lon="6.77153">
        <ele>81.898919</ele>
        <time>2023-04-26T08:57:19.305Z</time>
      </trkpt>
      <trkpt lat="51.2321" lon="6.77155">
        <ele>81.809754</ele>
        <time>2023-04-26T08:57:21.308Z</time>
      </trkpt>
      <trkpt lat="51.23219" lon="6.77157">
        <ele>81.72226</ele>
        <time>2023-04-26T08:57:23.297Z</time>
      </trkpt>
      <trkpt lat="51.23229" lon="6.77158">
        <ele>81.632596</ele>
        <time>2023-04-26T08:57:25.289Z</time>
      </trkpt>
      <trkpt lat="51.2324" lon="6.77156">
        <ele>81.5306</ele>
        <time>2023-04-26T08:57:27.292Z</time>
      </trkpt>
      <trkpt lat="51.2325" lon="6.77155">
        <ele>81.439851</ele>
        <time>2023-04-26T08:57:29.310Z</time>
      </trkpt>
      <trkpt lat="51.2326" lon="6.77155">
        <ele>81.422335</ele>
        <time>2023-04-26T08:57:31.301Z</time>
      </trkpt>
      <trkpt lat="51.23271" lon="6.77156">
        <ele>81.68652</ele>
        <time>2023-04-26T08:57:33.297Z</time>
      </trkpt>
      <trkpt lat="51.23281" lon="6.77157">
        <ele>81.933035</ele>
        <time>2023-04-26T08:57:35.298Z</time>
      </trkpt>
      <trkpt lat="51.23292" lon="6.77157">
        <ele>82.181609</ele>
        <time>2023-04-26T08:57:37.309Z</time>
      </trkpt>
      <trkpt lat="51.23302" lon="6.77157">
        <ele>82.43753</ele>
        <time>2023-04-26T08:57:39.294Z</time>
      </trkpt>
      <trkpt lat="51.23312" lon="6.77158">
        <ele>82.67659</ele>
        <time>2023-04-26T08:57:41.314Z</time>
      </trkpt>
      <trkpt lat="51.23322" lon="6.77158">
        <ele>82.927713</ele>
        <time>2023-04-26T08:57:43.305Z</time>
      </trkpt>
      <trkpt lat="51.23333" lon="6.77157">
        <ele>83.186678</ele>
        <time>2023-04-26T08:57:45.307Z</time>
      </trkpt>
      <trkpt lat="51.23343" lon="6.77154">
        <ele>83.44902</ele>
        <time>2023-04-26T08:57:47.293Z</time>
      </trkpt>
      <trkpt lat="51.23353" lon="6.77154">
        <ele>83.695152</ele>
        <time>2023-04-26T08:57:49.302Z</time>
      </trkpt>
      <trkpt lat="51.23364" lon="6.77155">
        <ele>83.948889</ele>
        <time>2023-04-26T08:57:51.316Z</time>
      </trkpt>
      <trkpt lat="51.23375" lon="6.77154">
        <ele>84.21009</ele>
        <time>2023-04-26T08:57:53.311Z</time>
      </trkpt>
      <trkpt lat="51.23384" lon="6.77153">
        <ele>84.439894</ele>
        <time>2023-04-26T08:57:55.297Z</time>
      </trkpt>
      <trkpt lat="51.23393" lon="6.77153">
        <ele>84.664099</ele>
        <time>2023-04-26T08:57:58.283Z</time>
      </trkpt>
      <trkpt lat="51.23403" lon="6.77152">
        <ele>84.905377</ele>
        <time>2023-04-26T08:58:02.304Z</time>
      </trkpt>
      <trkpt lat="51.23413" lon="6.77152">
        <ele>85.14432</ele>
        <time>2023-04-26T08:58:05.290Z</time>
      </trkpt>
      <trkpt lat="51.23424" lon="6.77152">
        <ele>85.405079</ele>
        <time>2023-04-26T08:58:08.303Z</time>
      </trkpt>
      <trkpt lat="51.23435" lon="6.77153">
        <ele>85.673422</ele>
        <time>2023-04-26T08:58:11.310Z</time>
      </trkpt>
      <trkpt lat="51.23447" lon="6.77154">
        <ele>85.739989</ele>
        <time>2023-04-26T08:58:14.315Z</time>
      </trkpt>
      <trkpt lat="51.2346" lon="6.77151">
        <ele>85.727499</ele>
        <time>2023-04-26T08:58:17.300Z</time>
      </trkpt>
      <trkpt lat="51.23469" lon="6.77153">
        <ele>85.71892</ele>
        <time>2023-04-26T08:58:19.309Z</time>
      </trkpt>
      <trkpt lat="51.2348" lon="6.77154">
        <ele>85.709455</ele>
        <time>2023-04-26T08:58:21.317Z</time>
      </trkpt>
      <trkpt lat="51.23489" lon="6.77154">
        <ele>85.700654</ele>
        <time>2023-04-26T08:58:23.303Z</time>
      </trkpt>
      <trkpt lat="51.23499" lon="6.77154">
        <ele>85.691475</ele>
        <time>2023-04-26T08:58:25.299Z</time>
      </trkpt>
      <trkpt lat="51.23509" lon="6.77153">
        <ele>85.68249</ele>
        <time>2023-04-26T08:58:27.299Z</time>
      </trkpt>
      <trkpt lat="51.23518" lon="6.77153">
        <ele>85.67369</ele>
        <time>2023-04-26T08:58:29.291Z</time>
      </trkpt>
      <trkpt lat="51.23531" lon="6.77155">
        <ele>85.661617</ele>
        <time>2023-04-26T08:58:32.288Z</time>
      </trkpt>
      <trkpt lat="51.23541" lon="6.77155">
        <ele>85.653001</ele>
        <time>2023-04-26T08:58:34.298Z</time>
      </trkpt>
      <trkpt lat="51.2355" lon="6.77155">
        <ele>85.644202</ele>
        <time>2023-04-26T08:58:36.308Z</time>
      </trkpt>
      <trkpt lat="51.23561" lon="6.77155">
        <ele>85.634475</ele>
        <time>2023-04-26T08:58:38.274Z</time>
      </trkpt>
      <trkpt lat="51.2357" lon="6.77153">
        <ele>85.625232</ele>
        <time>2023-04-26T08:58:40.303Z</time>
      </trkpt>
      <trkpt lat="51.2358" lon="6.77152">
        <ele>85.616455</ele>
        <time>2023-04-26T08:58:42.266Z</time>
      </trkpt>
      <trkpt lat="51.23593" lon="6.77151">
        <ele>85.604683</ele>
        <time>2023-04-26T08:58:45.302Z</time>
      </trkpt>
      <trkpt lat="51.23606" lon="6.7715">
        <ele>85.592162</ele>
        <time>2023-04-26T08:58:48.301Z</time>
      </trkpt>
      <trkpt lat="51.23619" lon="6.77149">
        <ele>85.527642</ele>
        <time>2023-04-26T08:58:51.324Z</time>
      </trkpt>
      <trkpt lat="51.23628" lon="6.7715">
        <ele>85.32113</ele>
        <time>2023-04-26T08:58:53.304Z</time>
      </trkpt>
      <trkpt lat="51.2364" lon="6.77154">
        <ele>85.053095</ele>
        <time>2023-04-26T08:58:56.286Z</time>
      </trkpt>
      <trkpt lat="51.2365" lon="6.77157">
        <ele>84.822755</ele>
        <time>2023-04-26T08:58:59.292Z</time>
      </trkpt>
      <trkpt lat="51.23659" lon="6.77159">
        <ele>84.603581</ele>
        <time>2023-04-26T08:59:02.298Z</time>
      </trkpt>
      <trkpt lat="51.23669" lon="6.77163">
        <ele>84.377045</ele>
        <time>2023-04-26T08:59:05.291Z</time>
      </trkpt>
      <trkpt lat="51.23679" lon="6.77169">
        <ele>84.120341</ele>
        <time>2023-04-26T08:59:08.306Z</time>
      </trkpt>
      <trkpt lat="51.23691" lon="6.77176">
        <ele>83.836247</ele>
        <time>2023-04-26T08:59:11.303Z</time>
      </trkpt>
      <trkpt lat="51.23702" lon="6.77182">
        <ele>83.576909</ele>
        <time>2023-04-26T08:59:14.296Z</time>
      </trkpt>
      <trkpt lat="51.23714" lon="6.77189">
        <ele>83.273994</ele>
        <time>2023-04-26T08:59:17.308Z</time>
      </trkpt>
      <trkpt lat="51.23723" lon="6.77192">
        <ele>83.058581</ele>
        <time>2023-04-26T08:59:19.316Z</time>
      </trkpt>
      <trkpt lat="51.23732" lon="6.7719">
        <ele>82.84899</ele>
        <time>2023-04-26T08:59:21.288Z</time>
      </trkpt>
      <trkpt lat="51.23742" lon="6.77189">
        <ele>82.637821</ele>
        <time>2023-04-26T08:59:23.293Z</time>
      </trkpt>
      <trkpt lat="51.23751" lon="6.77188">
        <ele>82.419376</ele>
        <time>2023-04-26T08:59:25.296Z</time>
      </trkpt>
      <trkpt lat="51.23761" lon="6.77186">
        <ele>82.201507</ele>
        <time>2023-04-26T08:59:27.296Z</time>
      </trkpt>
      <trkpt lat="51.2377" lon="6.77184">
        <ele>81.991432</ele>
        <time>2023-04-26T08:59:29.290Z</time>
      </trkpt>
      <trkpt lat="51.23783" lon="6.7718">
        <ele>81.677125</ele>
        <time>2023-04-26T08:59:32.305Z</time>
      </trkpt>
      <trkpt lat="51.23797" lon="6.77178">
        <ele>81.542632</ele>
        <time>2023-04-26T08:59:35.305Z</time>
      </trkpt>
      <trkpt lat="51.23806" lon="6.77175">
        <ele>81.721151</ele>
        <time>2023-04-26T08:59:37.310Z</time>
      </trkpt>
      <trkpt lat="51.23815" lon="6.77175">
        <ele>81.906563</ele>
        <time>2023-04-26T08:59:39.306Z</time>
      </trkpt>
      <trkpt lat="51.23825" lon="6.77172">
        <ele>82.095234</ele>
        <time>2023-04-26T08:59:41.301Z</time>
      </trkpt>
      <trkpt lat="51.23835" lon="6.77167">
        <ele>82.300672</ele>
        <time>2023-04-26T08:59:43.301Z</time>
      </trkpt>
      <trkpt lat="51.23848" lon="6.77164">
        <ele>82.540139</ele>
        <time>2023-04-26T08:59:46.300Z</time>
      </trkpt>
      <trkpt lat="51.23856" lon="6.77162">
        <ele>82.714227</ele>
        <time>2023-04-26T08:59:48.314Z</time>
      </trkpt>
      <trkpt lat="51.23869" lon="6.77161">
        <ele>82.961181</ele>
        <time>2023-04-26T08:59:51.308Z</time>
      </trkpt>
      <trkpt lat="51.23883" lon="6.77158">
        <ele>83.232588</ele>
        <time>2023-04-26T08:59:54.277Z</time>
      </trkpt>
      <trkpt lat="51.23893" lon="6.77155">
        <ele>83.423152</ele>
        <time>2023-04-26T08:59:56.309Z</time>
      </trkpt>
      <trkpt lat="51.23903" lon="6.77153">
        <ele>83.616876</ele>
        <time>2023-04-26T08:59:58.315Z</time>
      </trkpt>
      <trkpt lat="51.23912" lon="6.7715">
        <ele>83.792316</ele>
        <time>2023-04-26T09:00:00.315Z</time>
      </trkpt>
      <trkpt lat="51.23922" lon="6.77146">
        <ele>83.996208</ele>
        <time>2023-04-26T09:00:03.313Z</time>
      </trkpt>
      <trkpt lat="51.23934" lon="6.77143">
        <ele>84.230476</ele>
        <time>2023-04-26T09:00:06.310Z</time>
      </trkpt>
      <trkpt lat="51.23944" lon="6.77139">
        <ele>84.438296</ele>
        <time>2023-04-26T09:00:09.295Z</time>
      </trkpt>
      <trkpt lat="51.23955" lon="6.77134">
        <ele>84.648617</ele>
        <time>2023-04-26T09:00:13.308Z</time>
      </trkpt>
      <trkpt lat="51.23965" lon="6.77131">
        <ele>84.843198</ele>
        <time>2023-04-26T09:00:17.294Z</time>
      </trkpt>
      <trkpt lat="51.23973" lon="6.77139">
        <ele>84.917726</ele>
        <time>2023-04-26T09:00:24.289Z</time>
      </trkpt>
      <trkpt lat="51.23973" lon="6.77154">
        <ele>84.893495</ele>
        <time>2023-04-26T09:00:34.290Z</time>
      </trkpt>
      <trkpt lat="51.23969" lon="6.77167">
        <ele>84.870319</ele>
        <time>2023-04-26T09:00:38.307Z</time>
      </trkpt>
      <trkpt lat="51.23954" lon="6.77176">
        <ele>84.830909</ele>
        <time>2023-04-26T09:00:59.314Z</time>
      </trkpt>
      <trkpt lat="51.23946" lon="6.77188">
        <ele>84.80085</ele>
        <time>2023-04-26T09:01:03.299Z</time>
      </trkpt>
      <trkpt lat="51.23945" lon="6.77204">
        <ele>84.775159</ele>
        <time>2023-04-26T09:01:06.289Z</time>
      </trkpt>
      <trkpt lat="51.23948" lon="6.77223">
        <ele>84.743378</ele>
        <time>2023-04-26T09:01:09.283Z</time>
      </trkpt>
      <trkpt lat="51.23949" lon="6.77241">
        <ele>84.71405</ele>
        <time>2023-04-26T09:01:12.287Z</time>
      </trkpt>
      <trkpt lat="51.23953" lon="6.77261">
        <ele>84.681493</ele>
        <time>2023-04-26T09:01:15.304Z</time>
      </trkpt>
      <trkpt lat="51.23954" lon="6.7728">
        <ele>84.650056</ele>
        <time>2023-04-26T09:01:18.292Z</time>
      </trkpt>
      <trkpt lat="51.23956" lon="6.77299">
        <ele>84.619277</ele>
        <time>2023-04-26T09:01:21.298Z</time>
      </trkpt>
      <trkpt lat="51.2396" lon="6.77317">
        <ele>84.588986</ele>
        <time>2023-04-26T09:01:24.303Z</time>
      </trkpt>
      <trkpt lat="51.23964" lon="6.77335">
        <ele>84.558022</ele>
        <time>2023-04-26T09:01:27.297Z</time>
      </trkpt>
      <trkpt lat="51.23968" lon="6.77355">
        <ele>84.522645</ele>
        <time>2023-04-26T09:01:30.301Z</time>
      </trkpt>
      <trkpt lat="51.23971" lon="6.77369">
        <ele>84.499217</ele>
        <time>2023-04-26T09:01:32.309Z</time>
      </trkpt>
      <trkpt lat="51.23975" lon="6.77389">
        <ele>84.46766</ele>
        <time>2023-04-26T09:01:35.297Z</time>
      </trkpt>
      <trkpt lat="51.23978" lon="6.77406">
        <ele>84.665643</ele>
        <time>2023-04-26T09:01:38.296Z</time>
      </trkpt>
      <trkpt lat="51.23981" lon="6.77422">
        <ele>84.839927</ele>
        <time>2023-04-26T09:01:42.312Z</time>
      </trkpt>
      <trkpt lat="51.23985" lon="6.77439">
        <ele>85.040576</ele>
        <time>2023-04-26T09:02:21.305Z</time>
      </trkpt>
      <trkpt lat="51.23989" lon="6.77457">
        <ele>85.24889</ele>
        <time>2023-04-26T09:02:25.301Z</time>
      </trkpt>
      <trkpt lat="51.23993" lon="6.77472">
        <ele>85.423834</ele>
        <time>2023-04-26T09:02:28.296Z</time>
      </trkpt>
      <trkpt lat="51.23996" lon="6.77488">
        <ele>85.604262</ele>
        <time>2023-04-26T09:02:31.293Z</time>
      </trkpt>
      <trkpt lat="51.24002" lon="6.77506">
        <ele>85.830617</ele>
        <time>2023-04-26T09:02:34.300Z</time>
      </trkpt>
      <trkpt lat="51.24007" lon="6.77524">
        <ele>86.035899</ele>
        <time>2023-04-26T09:02:37.279Z</time>
      </trkpt>
      <trkpt lat="51.24011" lon="6.77543">
        <ele>86.252498</ele>
        <time>2023-04-26T09:02:40.289Z</time>
      </trkpt>
      <trkpt lat="51.24016" lon="6.77558">
        <ele>86.438135</ele>
        <time>2023-04-26T09:02:43.293Z</time>
      </trkpt>
      <trkpt lat="51.24021" lon="6.77572">
        <ele>86.617127</ele>
        <time>2023-04-26T09:02:46.306Z</time>
      </trkpt>
      <trkpt lat="51.24017" lon="6.77587">
        <ele>86.782441</ele>
        <time>2023-04-26T09:02:49.291Z</time>
      </trkpt>
      <trkpt lat="51.24008" lon="6.77599">
        <ele>86.996097</ele>
        <time>2023-04-26T09:02:52.293Z</time>
      </trkpt>
      <trkpt lat="51.24" lon="6.77608">
        <ele>87.15972</ele>
        <time>2023-04-26T09:02:54.315Z</time>
      </trkpt>
      <trkpt lat="51.23992" lon="6.77619">
        <ele>87.340262</ele>
        <time>2023-04-26T09:02:56.296Z</time>
      </trkpt>
      <trkpt lat="51.23985" lon="6.77629">
        <ele>87.506579</ele>
        <time>2023-04-26T09:02:58.307Z</time>
      </trkpt>
      <trkpt lat="51.23977" lon="6.77637">
        <ele>87.666094</ele>
        <time>2023-04-26T09:03:00.301Z</time>
      </trkpt>
      <trkpt lat="51.23969" lon="6.77646">
        <ele>87.845765</ele>
        <time>2023-04-26T09:03:02.299Z</time>
      </trkpt>
      <trkpt lat="51.23958" lon="6.77659">
        <ele>88.087767</ele>
        <time>2023-04-26T09:03:05.299Z</time>
      </trkpt>
      <trkpt lat="51.23951" lon="6.7767">
        <ele>88.259788</ele>
        <time>2023-04-26T09:03:07.292Z</time>
      </trkpt>
      <trkpt lat="51.23951" lon="6.7769">
        <ele>88.480406</ele>
        <time>2023-04-26T09:03:10.285Z</time>
      </trkpt>
      <trkpt lat="51.23956" lon="6.77702">
        <ele>88.64285</ele>
        <time>2023-04-26T09:03:12.294Z</time>
      </trkpt>
      <trkpt lat="51.23962" lon="6.77714">
        <ele>88.813097</ele>
        <time>2023-04-26T09:03:14.298Z</time>
      </trkpt>
      <trkpt lat="51.23968" lon="6.77726">
        <ele>88.990788</ele>
        <time>2023-04-26T09:03:16.295Z</time>
      </trkpt>
      <trkpt lat="51.23973" lon="6.7774">
        <ele>89.166689</ele>
        <time>2023-04-26T09:03:18.293Z</time>
      </trkpt>
      <trkpt lat="51.23977" lon="6.77753">
        <ele>89.330331</ele>
        <time>2023-04-26T09:03:20.291Z</time>
      </trkpt>
      <trkpt lat="51.23982" lon="6.77772">
        <ele>89.557302</ele>
        <time>2023-04-26T09:03:23.296Z</time>
      </trkpt>
      <trkpt lat="51.23987" lon="6.77785">
        <ele>89.726886</ele>
        <time>2023-04-26T09:03:25.293Z</time>
      </trkpt>
      <trkpt lat="51.23992" lon="6.77799">
        <ele>89.901612</ele>
        <time>2023-04-26T09:03:27.298Z</time>
      </trkpt>
      <trkpt lat="51.23998" lon="6.77812">
        <ele>90.083234</ele>
        <time>2023-04-26T09:03:29.312Z</time>
      </trkpt>
      <trkpt lat="51.24002" lon="6.77825">
        <ele>90.251467</ele>
        <time>2023-04-26T09:03:31.294Z</time>
      </trkpt>
      <trkpt lat="51.24008" lon="6.77843">
        <ele>90.479425</ele>
        <time>2023-04-26T09:03:34.292Z</time>
      </trkpt>
      <trkpt lat="51.24015" lon="6.77859">
        <ele>90.68849</ele>
        <time>2023-04-26T09:03:37.295Z</time>
      </trkpt>
      <trkpt lat="51.24018" lon="6.77872">
        <ele>90.718044</ele>
        <time>2023-04-26T09:03:39.308Z</time>
      </trkpt>
      <trkpt lat="51.24023" lon="6.77893">
        <ele>90.505882</ele>
        <time>2023-04-26T09:03:42.282Z</time>
      </trkpt>
      <trkpt lat="51.24027" lon="6.77906">
        <ele>90.363103</ele>
        <time>2023-04-26T09:03:44.294Z</time>
      </trkpt>
      <trkpt lat="51.24031" lon="6.7792">
        <ele>90.215441</ele>
        <time>2023-04-26T09:03:46.302Z</time>
      </trkpt>
      <trkpt lat="51.24035" lon="6.77933">
        <ele>90.066198</ele>
        <time>2023-04-26T09:03:48.290Z</time>
      </trkpt>
      <trkpt lat="51.24041" lon="6.77949">
        <ele>89.897259</ele>
        <time>2023-04-26T09:03:50.294Z</time>
      </trkpt>
      <trkpt lat="51.24045" lon="6.77964">
        <ele>89.734766</ele>
        <time>2023-04-26T09:03:52.282Z</time>
      </trkpt>
      <trkpt lat="51.24048" lon="6.77979">
        <ele>89.579122</ele>
        <time>2023-04-26T09:03:54.313Z</time>
      </trkpt>
      <trkpt lat="51.24053" lon="6.77994">
        <ele>89.416557</ele>
        <time>2023-04-26T09:03:56.272Z</time>
      </trkpt>
      <trkpt lat="51.24058" lon="6.78009">
        <ele>89.252119</ele>
        <time>2023-04-26T09:03:58.309Z</time>
      </trkpt>
      <trkpt lat="51.24062" lon="6.78024">
        <ele>89.091045</ele>
        <time>2023-04-26T09:04:00.309Z</time>
      </trkpt>
      <trkpt lat="51.24068" lon="6.78042">
        <ele>88.891005</ele>
        <time>2023-04-26T09:04:03.288Z</time>
      </trkpt>
      <trkpt lat="51.24074" lon="6.78055">
        <ele>88.738365</ele>
        <time>2023-04-26T09:04:05.302Z</time>
      </trkpt>
      <trkpt lat="51.24079" lon="6.78069">
        <ele>88.583546</ele>
        <time>2023-04-26T09:04:07.304Z</time>
      </trkpt>
      <trkpt lat="51.24084" lon="6.78082">
        <ele>88.433702</ele>
        <time>2023-04-26T09:04:09.296Z</time>
      </trkpt>
      <trkpt lat="51.24089" lon="6.78095">
        <ele>88.286779</ele>
        <time>2023-04-26T09:04:11.303Z</time>
      </trkpt>
      <trkpt lat="51.24095" lon="6.78113">
        <ele>88.087294</ele>
        <time>2023-04-26T09:04:14.288Z</time>
      </trkpt>
      <trkpt lat="51.24098" lon="6.78127">
        <ele>88.166375</ele>
        <time>2023-04-26T09:04:16.299Z</time>
      </trkpt>
      <trkpt lat="51.24103" lon="6.78146">
        <ele>88.912622</ele>
        <time>2023-04-26T09:04:19.304Z</time>
      </trkpt>
      <trkpt lat="51.24108" lon="6.78162">
        <ele>89.573953</ele>
        <time>2023-04-26T09:04:22.311Z</time>
      </trkpt>
      <trkpt lat="51.24113" lon="6.78176">
        <ele>90.184232</ele>
        <time>2023-04-26T09:04:25.301Z</time>
      </trkpt>
      <trkpt lat="51.2411" lon="6.7819">
        <ele>90.715081</ele>
        <time>2023-04-26T09:04:28.299Z</time>
      </trkpt>
      <trkpt lat="51.241" lon="6.78197">
        <ele>91.366762</ele>
        <time>2023-04-26T09:04:31.297Z</time>
      </trkpt>
      <trkpt lat="51.2409" lon="6.78204">
        <ele>92.031336</ele>
        <time>2023-04-26T09:04:34.282Z</time>
      </trkpt>
      <trkpt lat="51.24082" lon="6.78217">
        <ele>92.668465</ele>
        <time>2023-04-26T09:04:37.271Z</time>
      </trkpt>
      <trkpt lat="51.24086" lon="6.78231">
        <ele>93.234931</ele>
        <time>2023-04-26T09:04:40.281Z</time>
      </trkpt>
      <trkpt lat="51.24094" lon="6.78241">
        <ele>93.796311</ele>
        <time>2023-04-26T09:04:43.292Z</time>
      </trkpt>
      <trkpt lat="51.24103" lon="6.78248">
        <ele>94.406512</ele>
        <time>2023-04-26T09:04:46.324Z</time>
      </trkpt>
      <trkpt lat="51.24112" lon="6.78258">
        <ele>95.039267</ele>
        <time>2023-04-26T09:04:49.276Z</time>
      </trkpt>
      <trkpt lat="51.24119" lon="6.78271">
        <ele>95.664094</ele>
        <time>2023-04-26T09:04:52.279Z</time>
      </trkpt>
      <trkpt lat="51.24126" lon="6.78281">
        <ele>96.237659</ele>
        <time>2023-04-26T09:04:55.294Z</time>
      </trkpt>
      <trkpt lat="51.24137" lon="6.78292">
        <ele>96.999932</ele>
        <time>2023-04-26T09:04:58.278Z</time>
      </trkpt>
      <trkpt lat="51.24145" lon="6.783">
        <ele>97.549017</ele>
        <time>2023-04-26T09:05:00.290Z</time>
      </trkpt>
      <trkpt lat="51.24155" lon="6.7831">
        <ele>98.22987</ele>
        <time>2023-04-26T09:05:02.297Z</time>
      </trkpt>
      <trkpt lat="51.24163" lon="6.78322">
        <ele>98.380803</ele>
        <time>2023-04-26T09:05:04.294Z</time>
      </trkpt>
      <trkpt lat="51.2417" lon="6.7833">
        <ele>98.002023</ele>
        <time>2023-04-26T09:05:06.281Z</time>
      </trkpt>
      <trkpt lat="51.2418" lon="6.78338">
        <ele>97.537301</ele>
        <time>2023-04-26T09:05:08.309Z</time>
      </trkpt>
      <trkpt lat="51.2419" lon="6.78346">
        <ele>97.069576</ele>
        <time>2023-04-26T09:05:10.281Z</time>
      </trkpt>
      <trkpt lat="51.24199" lon="6.78355">
        <ele>96.629294</ele>
        <time>2023-04-26T09:05:12.268Z</time>
      </trkpt>
      <trkpt lat="51.24207" lon="6.78364">
        <ele>96.211196</ele>
        <time>2023-04-26T09:05:14.300Z</time>
      </trkpt>
      <trkpt lat="51.24217" lon="6.78378">
        <ele>95.672685</ele>
        <time>2023-04-26T09:05:17.308Z</time>
      </trkpt>
      <trkpt lat="51.24226" lon="6.7839">
        <ele>95.179934</ele>
        <time>2023-04-26T09:05:20.297Z</time>
      </trkpt>
      <trkpt lat="51.24235" lon="6.78402">
        <ele>94.690892</ele>
        <time>2023-04-26T09:05:23.278Z</time>
      </trkpt>
      <trkpt lat="51.24241" lon="6.78414">
        <ele>94.306196</ele>
        <time>2023-04-26T09:05:26.291Z</time>
      </trkpt>
      <trkpt lat="51.24241" lon="6.78431">
        <ele>93.844948</ele>
        <time>2023-04-26T09:05:29.292Z</time>
      </trkpt>
      <trkpt lat="51.24244" lon="6.78446">
        <ele>93.443434</ele>
        <time>2023-04-26T09:05:32.292Z</time>
      </trkpt>
      <trkpt lat="51.24248" lon="6.78462">
        <ele>92.985434</ele>
        <time>2023-04-26T09:05:36.300Z</time>
      </trkpt>
      <trkpt lat="51.24254" lon="6.78475">
        <ele>92.57701</ele>
        <time>2023-04-26T09:05:40.272Z</time>
      </trkpt>
      <trkpt lat="51.24258" lon="6.7849">
        <ele>92.152518</ele>
        <time>2023-04-26T09:06:18.291Z</time>
      </trkpt>
      <trkpt lat="51.24269" lon="6.78501">
        <ele>91.620882</ele>
        <time>2023-04-26T09:06:22.285Z</time>
      </trkpt>
      <trkpt lat="51.24278" lon="6.78504">
        <ele>91.21987</ele>
        <time>2023-04-26T09:06:25.288Z</time>
      </trkpt>
      <trkpt lat="51.24285" lon="6.78514">
        <ele>90.965294</ele>
        <time>2023-04-26T09:06:28.290Z</time>
      </trkpt>
      <trkpt lat="51.24294" lon="6.78527">
        <ele>90.751091</ele>
        <time>2023-04-26T09:06:31.300Z</time>
      </trkpt>
      <trkpt lat="51.24303" lon="6.78542">
        <ele>90.524747</ele>
        <time>2023-04-26T09:06:34.301Z</time>
      </trkpt>
      <trkpt lat="51.24311" lon="6.78554">
        <ele>90.333019</ele>
        <time>2023-04-26T09:06:37.316Z</time>
      </trkpt>
      <trkpt lat="51.24317" lon="6.78565">
        <ele>90.169278</ele>
        <time>2023-04-26T09:06:40.288Z</time>
      </trkpt>
      <trkpt lat="51.24324" lon="6.78575">
        <ele>89.995659</ele>
        <time>2023-04-26T09:06:43.293Z</time>
      </trkpt>
      <trkpt lat="51.24332" lon="6.78586">
        <ele>89.81558</ele>
        <time>2023-04-26T09:06:46.301Z</time>
      </trkpt>
      <trkpt lat="51.24338" lon="6.78596">
        <ele>89.652832</ele>
        <time>2023-04-26T09:06:49.284Z</time>
      </trkpt>
      <trkpt lat="51.24347" lon="6.78607">
        <ele>89.465322</ele>
        <time>2023-04-26T09:06:52.282Z</time>
      </trkpt>
      <trkpt lat="51.24355" lon="6.78619">
        <ele>89.263261</ele>
        <time>2023-04-26T09:06:55.295Z</time>
      </trkpt>
      <trkpt lat="51.24361" lon="6.78632">
        <ele>89.083166</ele>
        <time>2023-04-26T09:06:58.304Z</time>
      </trkpt>
      <trkpt lat="51.24368" lon="6.78644">
        <ele>88.901389</ele>
        <time>2023-04-26T09:07:00.290Z</time>
      </trkpt>
      <trkpt lat="51.24375" lon="6.78655">
        <ele>88.730226</ele>
        <time>2023-04-26T09:07:02.283Z</time>
      </trkpt>
      <trkpt lat="51.24383" lon="6.78666">
        <ele>88.544799</ele>
        <time>2023-04-26T09:07:05.304Z</time>
      </trkpt>
      <trkpt lat="51.24389" lon="6.78678">
        <ele>88.3704</ele>
        <time>2023-04-26T09:07:08.300Z</time>
      </trkpt>
      <trkpt lat="51.24392" lon="6.78703">
        <ele>88.083407</ele>
        <time>2023-04-26T09:08:12.289Z</time>
      </trkpt>
      <trkpt lat="51.24398" lon="6.78717">
        <ele>87.894078</ele>
        <time>2023-04-26T09:08:16.294Z</time>
      </trkpt>
      <trkpt lat="51.24407" lon="6.78728">
        <ele>88.001382</ele>
        <time>2023-04-26T09:08:20.293Z</time>
      </trkpt>
      <trkpt lat="51.24416" lon="6.7874">
        <ele>88.128892</ele>
        <time>2023-04-26T09:08:23.303Z</time>
      </trkpt>
      <trkpt lat="51.24422" lon="6.78755">
        <ele>88.256051</ele>
        <time>2023-04-26T09:08:26.283Z</time>
      </trkpt>
      <trkpt lat="51.24428" lon="6.78771">
        <ele>88.386714</ele>
        <time>2023-04-26T09:08:29.273Z</time>
      </trkpt>
      <trkpt lat="51.24435" lon="6.78785">
        <ele>88.517407</ele>
        <time>2023-04-26T09:08:32.289Z</time>
      </trkpt>
      <trkpt lat="51.24443" lon="6.78796">
        <ele>88.637855</ele>
        <time>2023-04-26T09:08:36.296Z</time>
      </trkpt>
      <trkpt lat="51.24455" lon="6.78806">
        <ele>88.785479</ele>
        <time>2023-04-26T09:08:39.295Z</time>
      </trkpt>
      <trkpt lat="51.24464" lon="6.7882">
        <ele>88.929833</ele>
        <time>2023-04-26T09:08:42.280Z</time>
      </trkpt>
      <trkpt lat="51.24475" lon="6.78833">
        <ele>89.081609</ele>
        <time>2023-04-26T09:08:45.310Z</time>
      </trkpt>
      <trkpt lat="51.24482" lon="6.78844">
        <ele>89.190894</ele>
        <time>2023-04-26T09:08:47.278Z</time>
      </trkpt>
      <trkpt lat="51.24489" lon="6.78853">
        <ele>89.30088</ele>
        <time>2023-04-26T09:08:49.297Z</time>
      </trkpt>
      <trkpt lat="51.24497" lon="6.78863">
        <ele>89.41261</ele>
        <time>2023-04-26T09:08:51.324Z</time>
      </trkpt>
      <trkpt lat="51.24508" lon="6.78875">
        <ele>89.560652</ele>
        <time>2023-04-26T09:08:54.276Z</time>
      </trkpt>
      <trkpt lat="51.24517" lon="6.78883">
        <ele>89.672562</ele>
        <time>2023-04-26T09:08:56.272Z</time>
      </trkpt>
      <trkpt lat="51.24524" lon="6.78893">
        <ele>89.784188</ele>
        <time>2023-04-26T09:08:58.267Z</time>
      </trkpt>
      <trkpt lat="51.24532" lon="6.7891">
        <ele>89.932233</ele>
        <time>2023-04-26T09:09:01.279Z</time>
      </trkpt>
      <trkpt lat="51.24538" lon="6.78922">
        <ele>90.034218</ele>
        <time>2023-04-26T09:09:03.309Z</time>
      </trkpt>
      <trkpt lat="51.24543" lon="6.78936">
        <ele>90.144426</ele>
        <time>2023-04-26T09:09:05.292Z</time>
      </trkpt>
      <trkpt lat="51.24547" lon="6.7895">
        <ele>90.247428</ele>
        <time>2023-04-26T09:09:07.313Z</time>
      </trkpt>
      <trkpt lat="51.24551" lon="6.78965">
        <ele>90.351614</ele>
        <time>2023-04-26T09:09:09.285Z</time>
      </trkpt>
      <trkpt lat="51.24555" lon="6.78983">
        <ele>90.478635</ele>
        <time>2023-04-26T09:09:11.309Z</time>
      </trkpt>
      <trkpt lat="51.2456" lon="6.78996">
        <ele>90.583143</ele>
        <time>2023-04-26T09:09:13.311Z</time>
      </trkpt>
      <trkpt lat="51.24566" lon="6.7901">
        <ele>90.692865</ele>
        <time>2023-04-26T09:09:15.309Z</time>
      </trkpt>
      <trkpt lat="51.24571" lon="6.79024">
        <ele>90.802497</ele>
        <time>2023-04-26T09:09:17.290Z</time>
      </trkpt>
      <trkpt lat="51.24577" lon="6.79038">
        <ele>90.910956</ele>
        <time>2023-04-26T09:09:19.317Z</time>
      </trkpt>
      <trkpt lat="51.24583" lon="6.79053">
        <ele>91.035225</ele>
        <time>2023-04-26T09:09:21.296Z</time>
      </trkpt>
      <trkpt lat="51.24589" lon="6.79068">
        <ele>91.151095</ele>
        <time>2023-04-26T09:09:23.296Z</time>
      </trkpt>
      <trkpt lat="51.24594" lon="6.79082">
        <ele>91.261351</ele>
        <time>2023-04-26T09:09:25.308Z</time>
      </trkpt>
      <trkpt lat="51.24599" lon="6.79096">
        <ele>91.367608</ele>
        <time>2023-04-26T09:09:27.296Z</time>
      </trkpt>
      <trkpt lat="51.24605" lon="6.79111">
        <ele>91.485237</ele>
        <time>2023-04-26T09:09:29.290Z</time>
      </trkpt>
      <trkpt lat="51.24609" lon="6.79126">
        <ele>91.597617</ele>
        <time>2023-04-26T09:09:31.305Z</time>
      </trkpt>
      <trkpt lat="51.24614" lon="6.79142">
        <ele>91.712465</ele>
        <time>2023-04-26T09:09:33.293Z</time>
      </trkpt>
      <trkpt lat="51.2462" lon="6.79157">
        <ele>91.82697</ele>
        <time>2023-04-26T09:09:35.306Z</time>
      </trkpt>
      <trkpt lat="51.24625" lon="6.7917">
        <ele>91.863919</ele>
        <time>2023-04-26T09:09:37.295Z</time>
      </trkpt>
      <trkpt lat="51.2463" lon="6.79184">
        <ele>91.899865</ele>
        <time>2023-04-26T09:09:39.311Z</time>
      </trkpt>
      <trkpt lat="51.24635" lon="6.79197">
        <ele>91.936652</ele>
        <time>2023-04-26T09:09:41.292Z</time>
      </trkpt>
      <trkpt lat="51.24639" lon="6.79211">
        <ele>91.972469</ele>
        <time>2023-04-26T09:09:43.265Z</time>
      </trkpt>
      <trkpt lat="51.24644" lon="6.79225">
        <ele>92.008116</ele>
        <time>2023-04-26T09:09:45.304Z</time>
      </trkpt>
      <trkpt lat="51.24647" lon="6.79239">
        <ele>92.044187</ele>
        <time>2023-04-26T09:09:47.296Z</time>
      </trkpt>
      <trkpt lat="51.24654" lon="6.79257">
        <ele>92.090986</ele>
        <time>2023-04-26T09:09:50.299Z</time>
      </trkpt>
      <trkpt lat="51.24659" lon="6.79273">
        <ele>92.133818</ele>
        <time>2023-04-26T09:09:53.300Z</time>
      </trkpt>
      <trkpt lat="51.24664" lon="6.79288">
        <ele>92.172482</ele>
        <time>2023-04-26T09:09:56.294Z</time>
      </trkpt>
      <trkpt lat="51.24669" lon="6.79305">
        <ele>92.215704</ele>
        <time>2023-04-26T09:09:59.301Z</time>
      </trkpt>
      <trkpt lat="51.24673" lon="6.79318">
        <ele>92.249643</ele>
        <time>2023-04-26T09:10:01.304Z</time>
      </trkpt>
      <trkpt lat="51.24677" lon="6.79332">
        <ele>92.285618</ele>
        <time>2023-04-26T09:10:03.299Z</time>
      </trkpt>
      <trkpt lat="51.24683" lon="6.79347">
        <ele>92.326673</ele>
        <time>2023-04-26T09:10:06.300Z</time>
      </trkpt>
      <trkpt lat="51.24688" lon="6.79362">
        <ele>92.36661</ele>
        <time>2023-04-26T09:10:10.294Z</time>
      </trkpt>
      <trkpt lat="51.24696" lon="6.79383">
        <ele>92.423972</ele>
        <time>2023-04-26T09:10:38.309Z</time>
      </trkpt>
      <trkpt lat="51.24702" lon="6.79395">
        <ele>92.458328</ele>
        <time>2023-04-26T09:10:41.302Z</time>
      </trkpt>
      <trkpt lat="51.24707" lon="6.79409">
        <ele>92.47439</ele>
        <time>2023-04-26T09:10:44.286Z</time>
      </trkpt>
      <trkpt lat="51.24712" lon="6.79422">
        <ele>92.263199</ele>
        <time>2023-04-26T09:10:47.294Z</time>
      </trkpt>
      <trkpt lat="51.24717" lon="6.79436">
        <ele>92.057505</ele>
        <time>2023-04-26T09:10:50.300Z</time>
      </trkpt>
      <trkpt lat="51.24723" lon="6.79448">
        <ele>91.853648</ele>
        <time>2023-04-26T09:10:53.302Z</time>
      </trkpt>
      <trkpt lat="51.2473" lon="6.79463">
        <ele>91.610012</ele>
        <time>2023-04-26T09:10:56.284Z</time>
      </trkpt>
      <trkpt lat="51.24735" lon="6.79475">
        <ele>91.413275</ele>
        <time>2023-04-26T09:10:58.287Z</time>
      </trkpt>
      <trkpt lat="51.2474" lon="6.79488">
        <ele>91.224187</ele>
        <time>2023-04-26T09:11:00.279Z</time>
      </trkpt>
      <trkpt lat="51.24746" lon="6.795">
        <ele>91.021391</ele>
        <time>2023-04-26T09:11:02.310Z</time>
      </trkpt>
      <trkpt lat="51.24751" lon="6.79514">
        <ele>90.804647</ele>
        <time>2023-04-26T09:11:04.269Z</time>
      </trkpt>
      <trkpt lat="51.24756" lon="6.79526">
        <ele>90.613429</ele>
        <time>2023-04-26T09:11:06.298Z</time>
      </trkpt>
      <trkpt lat="51.24762" lon="6.79539">
        <ele>90.40791</ele>
        <time>2023-04-26T09:11:08.307Z</time>
      </trkpt>
      <trkpt lat="51.24769" lon="6.79553">
        <ele>90.171578</ele>
        <time>2023-04-26T09:11:10.300Z</time>
      </trkpt>
      <trkpt lat="51.24774" lon="6.79568">
        <ele>89.942596</ele>
        <time>2023-04-26T09:11:12.298Z</time>
      </trkpt>
      <trkpt lat="51.24781" lon="6.79582">
        <ele>89.714862</ele>
        <time>2023-04-26T09:11:14.312Z</time>
      </trkpt>
      <trkpt lat="51.24788" lon="6.79596">
        <ele>89.485239</ele>
        <time>2023-04-26T09:11:16.294Z</time>
      </trkpt>
      <trkpt lat="51.24793" lon="6.79611">
        <ele>89.260716</ele>
        <time>2023-04-26T09:11:18.293Z</time>
      </trkpt>
      <trkpt lat="51.24799" lon="6.79624">
        <ele>89.048419</ele>
        <time>2023-04-26T09:11:20.278Z</time>
      </trkpt>
      <trkpt lat="51.24805" lon="6.7964">
        <ele>88.801416</ele>
        <time>2023-04-26T09:11:22.269Z</time>
      </trkpt>
      <trkpt lat="51.24812" lon="6.79655">
        <ele>88.667422</ele>
        <time>2023-04-26T09:11:24.292Z</time>
      </trkpt>
      <trkpt lat="51.24817" lon="6.79671">
        <ele>88.592353</ele>
        <time>2023-04-26T09:11:27.273Z</time>
      </trkpt>
      <trkpt lat="51.24827" lon="6.79695">
        <ele>88.468511</ele>
        <time>2023-04-26T09:12:13.309Z</time>
      </trkpt>
      <trkpt lat="51.24833" lon="6.79706">
        <ele>88.404637</ele>
        <time>2023-04-26T09:12:15.313Z</time>
      </trkpt>
      <trkpt lat="51.2484" lon="6.79717">
        <ele>88.335492</ele>
        <time>2023-04-26T09:12:17.302Z</time>
      </trkpt>
      <trkpt lat="51.24846" lon="6.7973">
        <ele>88.264156</ele>
        <time>2023-04-26T09:12:19.294Z</time>
      </trkpt>
      <trkpt lat="51.24852" lon="6.79745">
        <ele>88.188023</ele>
        <time>2023-04-26T09:12:21.299Z</time>
      </trkpt>
      <trkpt lat="51.24858" lon="6.7976">
        <ele>88.112622</ele>
        <time>2023-04-26T09:12:23.296Z</time>
      </trkpt>
      <trkpt lat="51.24865" lon="6.79773">
        <ele>88.038733</ele>
        <time>2023-04-26T09:12:25.287Z</time>
      </trkpt>
      <trkpt lat="51.2487" lon="6.79786">
        <ele>87.970978</ele>
        <time>2023-04-26T09:12:27.307Z</time>
      </trkpt>
      <trkpt lat="51.24876" lon="6.79799">
        <ele>87.902743</ele>
        <time>2023-04-26T09:12:29.319Z</time>
      </trkpt>
      <trkpt lat="51.24884" lon="6.79816">
        <ele>87.80862</ele>
        <time>2023-04-26T09:12:32.288Z</time>
      </trkpt>
      <trkpt lat="51.2489" lon="6.79828">
        <ele>87.746542</ele>
        <time>2023-04-26T09:12:34.291Z</time>
      </trkpt>
      <trkpt lat="51.24896" lon="6.79842">
        <ele>87.673664</ele>
        <time>2023-04-26T09:12:36.299Z</time>
      </trkpt>
      <trkpt lat="51.24902" lon="6.79855">
        <ele>87.604195</ele>
        <time>2023-04-26T09:12:38.299Z</time>
      </trkpt>
      <trkpt lat="51.24907" lon="6.79868">
        <ele>87.536114</ele>
        <time>2023-04-26T09:12:40.299Z</time>
      </trkpt>
      <trkpt lat="51.2491" lon="6.79882">
        <ele>87.480685</ele>
        <time>2023-04-26T09:12:42.291Z</time>
      </trkpt>
      <trkpt lat="51.24914" lon="6.79895">
        <ele>87.467849</ele>
        <time>2023-04-26T09:12:44.293Z</time>
      </trkpt>
      <trkpt lat="51.24918" lon="6.79908">
        <ele>87.455</ele>
        <time>2023-04-26T09:12:46.353Z</time>
      </trkpt>
      <trkpt lat="51.24923" lon="6.7992">
        <ele>87.442193</ele>
        <time>2023-04-26T09:12:48.300Z</time>
      </trkpt>
      <trkpt lat="51.24929" lon="6.79931">
        <ele>87.429277</ele>
        <time>2023-04-26T09:12:50.274Z</time>
      </trkpt>
      <trkpt lat="51.24937" lon="6.79941">
        <ele>87.415214</ele>
        <time>2023-04-26T09:12:52.286Z</time>
      </trkpt>
      <trkpt lat="51.24945" lon="6.79949">
        <ele>87.402219</ele>
        <time>2023-04-26T09:12:54.310Z</time>
      </trkpt>
      <trkpt lat="51.24953" lon="6.79957">
        <ele>87.38889</ele>
        <time>2023-04-26T09:12:56.283Z</time>
      </trkpt>
      <trkpt lat="51.2496" lon="6.79967">
        <ele>87.37543</ele>
        <time>2023-04-26T09:12:58.291Z</time>
      </trkpt>
      <trkpt lat="51.24967" lon="6.79975">
        <ele>87.362782</ele>
        <time>2023-04-26T09:13:00.296Z</time>
      </trkpt>
      <trkpt lat="51.24974" lon="6.79986">
        <ele>87.349303</ele>
        <time>2023-04-26T09:13:02.311Z</time>
      </trkpt>
      <trkpt lat="51.24982" lon="6.79996">
        <ele>87.335506</ele>
        <time>2023-04-26T09:13:04.297Z</time>
      </trkpt>
      <trkpt lat="51.24988" lon="6.80006">
        <ele>87.322339</ele>
        <time>2023-04-26T09:13:06.312Z</time>
      </trkpt>
      <trkpt lat="51.24996" lon="6.80018">
        <ele>87.307252</ele>
        <time>2023-04-26T09:13:08.295Z</time>
      </trkpt>
      <trkpt lat="51.25004" lon="6.80033">
        <ele>87.290055</ele>
        <time>2023-04-26T09:13:10.280Z</time>
      </trkpt>
      <trkpt lat="51.25011" lon="6.80047">
        <ele>87.274133</ele>
        <time>2023-04-26T09:13:12.301Z</time>
      </trkpt>
      <trkpt lat="51.25019" lon="6.80057">
        <ele>87.25957</ele>
        <time>2023-04-26T09:13:14.303Z</time>
      </trkpt>
      <trkpt lat="51.25028" lon="6.80067">
        <ele>87.244492</ele>
        <time>2023-04-26T09:13:16.286Z</time>
      </trkpt>
      <trkpt lat="51.25036" lon="6.80074">
        <ele>87.231549</ele>
        <time>2023-04-26T09:13:18.311Z</time>
      </trkpt>
      <trkpt lat="51.25047" lon="6.80085">
        <ele>87.270661</ele>
        <time>2023-04-26T09:13:21.313Z</time>
      </trkpt>
      <trkpt lat="51.25055" lon="6.80092">
        <ele>87.308544</ele>
        <time>2023-04-26T09:13:24.298Z</time>
      </trkpt>
      <trkpt lat="51.25068" lon="6.80101">
        <ele>87.362661</ele>
        <time>2023-04-26T09:14:30.277Z</time>
      </trkpt>
      <trkpt lat="51.25078" lon="6.80104">
        <ele>87.400598</ele>
        <time>2023-04-26T09:14:33.305Z</time>
      </trkpt>
      <trkpt lat="51.25089" lon="6.80113">
        <ele>87.451388</ele>
        <time>2023-04-26T09:14:36.283Z</time>
      </trkpt>
      <trkpt lat="51.25101" lon="6.8012">
        <ele>87.501054</ele>
        <time>2023-04-26T09:14:39.296Z</time>
      </trkpt>
      <trkpt lat="51.25111" lon="6.80122">
        <ele>87.538701</ele>
        <time>2023-04-26T09:14:41.302Z</time>
      </trkpt>
      <trkpt lat="51.2512" lon="6.80126">
        <ele>87.574743</ele>
        <time>2023-04-26T09:14:43.308Z</time>
      </trkpt>
      <trkpt lat="51.25129" lon="6.8013">
        <ele>87.611912</ele>
        <time>2023-04-26T09:14:45.283Z</time>
      </trkpt>
      <trkpt lat="51.25138" lon="6.80135">
        <ele>87.647144</ele>
        <time>2023-04-26T09:14:47.276Z</time>
      </trkpt>
      <trkpt lat="51.25146" lon="6.80142">
        <ele>87.683382</ele>
        <time>2023-04-26T09:14:49.297Z</time>
      </trkpt>
      <trkpt lat="51.25155" lon="6.80147">
        <ele>87.72103</ele>
        <time>2023-04-26T09:14:51.294Z</time>
      </trkpt>
      <trkpt lat="51.25165" lon="6.80153">
        <ele>87.760301</ele>
        <time>2023-04-26T09:14:53.293Z</time>
      </trkpt>
      <trkpt lat="51.25173" lon="6.80159">
        <ele>87.796696</ele>
        <time>2023-04-26T09:14:55.301Z</time>
      </trkpt>
      <trkpt lat="51.25182" lon="6.80166">
        <ele>87.833188</ele>
        <time>2023-04-26T09:14:57.287Z</time>
      </trkpt>
      <trkpt lat="51.2519" lon="6.80172">
        <ele>87.870436</ele>
        <time>2023-04-26T09:14:59.305Z</time>
      </trkpt>
      <trkpt lat="51.252" lon="6.80179">
        <ele>87.911064</ele>
        <time>2023-04-26T09:15:01.293Z</time>
      </trkpt>
      <trkpt lat="51.2521" lon="6.80184">
        <ele>88.105418</ele>
        <time>2023-04-26T09:15:03.300Z</time>
      </trkpt>
      <trkpt lat="51.25218" lon="6.8019">
        <ele>88.359517</ele>
        <time>2023-04-26T09:15:05.305Z</time>
      </trkpt>
      <trkpt lat="51.25228" lon="6.80198">
        <ele>88.659701</ele>
        <time>2023-04-26T09:15:07.301Z</time>
      </trkpt>
      <trkpt lat="51.25237" lon="6.80203">
        <ele>88.924951</ele>
        <time>2023-04-26T09:15:09.293Z</time>
      </trkpt>
      <trkpt lat="51.25245" lon="6.80208">
        <ele>89.177305</ele>
        <time>2023-04-26T09:15:11.294Z</time>
      </trkpt>
      <trkpt lat="51.25254" lon="6.80213">
        <ele>89.45078</ele>
        <time>2023-04-26T09:15:13.293Z</time>
      </trkpt>
      <trkpt lat="51.25264" lon="6.80216">
        <ele>89.710624</ele>
        <time>2023-04-26T09:15:15.273Z</time>
      </trkpt>
      <trkpt lat="51.25273" lon="6.80219">
        <ele>89.966356</ele>
        <time>2023-04-26T09:15:17.286Z</time>
      </trkpt>
      <trkpt lat="51.25281" lon="6.80224">
        <ele>90.219874</ele>
        <time>2023-04-26T09:15:19.296Z</time>
      </trkpt>
      <trkpt lat="51.25292" lon="6.80226">
        <ele>90.534798</ele>
        <time>2023-04-26T09:15:22.301Z</time>
      </trkpt>
      <trkpt lat="51.25302" lon="6.80229">
        <ele>90.809766</ele>
        <time>2023-04-26T09:15:24.307Z</time>
      </trkpt>
      <trkpt lat="51.2531" lon="6.80234">
        <ele>91.063036</ele>
        <time>2023-04-26T09:15:26.271Z</time>
      </trkpt>
      <trkpt lat="51.2532" lon="6.80239">
        <ele>91.338198</ele>
        <time>2023-04-26T09:15:28.309Z</time>
      </trkpt>
      <trkpt lat="51.25329" lon="6.80244">
        <ele>91.620724</ele>
        <time>2023-04-26T09:15:30.297Z</time>
      </trkpt>
      <trkpt lat="51.25339" lon="6.80248">
        <ele>91.902766</ele>
        <time>2023-04-26T09:15:32.296Z</time>
      </trkpt>
      <trkpt lat="51.25349" lon="6.80253">
        <ele>92.206608</ele>
        <time>2023-04-26T09:15:34.299Z</time>
      </trkpt>
      <trkpt lat="51.25359" lon="6.8026">
        <ele>92.487358</ele>
        <time>2023-04-26T09:15:36.291Z</time>
      </trkpt>
      <trkpt lat="51.25368" lon="6.80267">
        <ele>92.783521</ele>
        <time>2023-04-26T09:15:38.301Z</time>
      </trkpt>
      <trkpt lat="51.25377" lon="6.80273">
        <ele>92.949905</ele>
        <time>2023-04-26T09:15:40.294Z</time>
      </trkpt>
      <trkpt lat="51.25388" lon="6.80282">
        <ele>92.951893</ele>
        <time>2023-04-26T09:15:43.294Z</time>
      </trkpt>
      <trkpt lat="51.25399" lon="6.80291">
        <ele>92.953906</ele>
        <time>2023-04-26T09:15:46.292Z</time>
      </trkpt>
      <trkpt lat="51.25409" lon="6.80296">
        <ele>92.955427</ele>
        <time>2023-04-26T09:15:48.264Z</time>
      </trkpt>
      <trkpt lat="51.25421" lon="6.80303">
        <ele>92.957533</ele>
        <time>2023-04-26T09:15:51.307Z</time>
      </trkpt>
      <trkpt lat="51.25431" lon="6.80307">
        <ele>92.959023</ele>
        <time>2023-04-26T09:15:53.301Z</time>
      </trkpt>
      <trkpt lat="51.25444" lon="6.8031">
        <ele>92.961143</ele>
        <time>2023-04-26T09:15:56.277Z</time>
      </trkpt>
      <trkpt lat="51.25453" lon="6.80315">
        <ele>92.962623</ele>
        <time>2023-04-26T09:15:58.295Z</time>
      </trkpt>
      <trkpt lat="51.25462" lon="6.80321">
        <ele>92.964101</ele>
        <time>2023-04-26T09:16:00.272Z</time>
      </trkpt>
      <trkpt lat="51.25471" lon="6.80327">
        <ele>92.96566</ele>
        <time>2023-04-26T09:16:02.283Z</time>
      </trkpt>
      <trkpt lat="51.25481" lon="6.80334">
        <ele>92.967339</ele>
        <time>2023-04-26T09:16:04.285Z</time>
      </trkpt>
      <trkpt lat="51.2549" lon="6.80341">
        <ele>92.968984</ele>
        <time>2023-04-26T09:16:06.297Z</time>
      </trkpt>
      <trkpt lat="51.255" lon="6.80346">
        <ele>92.970651</ele>
        <time>2023-04-26T09:16:08.284Z</time>
      </trkpt>
      <trkpt lat="51.2551" lon="6.80353">
        <ele>92.972261</ele>
        <time>2023-04-26T09:16:10.292Z</time>
      </trkpt>
      <trkpt lat="51.25518" lon="6.8036">
        <ele>92.973788</ele>
        <time>2023-04-26T09:16:12.293Z</time>
      </trkpt>
      <trkpt lat="51.25527" lon="6.80366">
        <ele>92.975344</ele>
        <time>2023-04-26T09:16:14.285Z</time>
      </trkpt>
      <trkpt lat="51.25537" lon="6.80369">
        <ele>92.97687</ele>
        <time>2023-04-26T09:16:16.291Z</time>
      </trkpt>
      <trkpt lat="51.25546" lon="6.80375">
        <ele>92.886711</ele>
        <time>2023-04-26T09:16:18.306Z</time>
      </trkpt>
      <trkpt lat="51.25556" lon="6.80382">
        <ele>92.695895</ele>
        <time>2023-04-26T09:16:20.289Z</time>
      </trkpt>
      <trkpt lat="51.25565" lon="6.80389">
        <ele>92.529248</ele>
        <time>2023-04-26T09:16:22.307Z</time>
      </trkpt>
      <trkpt lat="51.25573" lon="6.80397">
        <ele>92.360953</ele>
        <time>2023-04-26T09:16:24.302Z</time>
      </trkpt>
      <trkpt lat="51.25582" lon="6.80405">
        <ele>92.193028</ele>
        <time>2023-04-26T09:16:26.289Z</time>
      </trkpt>
      <trkpt lat="51.25591" lon="6.80413">
        <ele>92.004046</ele>
        <time>2023-04-26T09:16:28.299Z</time>
      </trkpt>
      <trkpt lat="51.25599" lon="6.80424">
        <ele>91.821198</ele>
        <time>2023-04-26T09:16:30.281Z</time>
      </trkpt>
      <trkpt lat="51.25607" lon="6.80432">
        <ele>91.657354</ele>
        <time>2023-04-26T09:16:32.280Z</time>
      </trkpt>
      <trkpt lat="51.25615" lon="6.80442">
        <ele>91.481978</ele>
        <time>2023-04-26T09:16:34.287Z</time>
      </trkpt>
      <trkpt lat="51.25624" lon="6.80452">
        <ele>91.307562</ele>
        <time>2023-04-26T09:16:36.304Z</time>
      </trkpt>
      <trkpt lat="51.25633" lon="6.80461">
        <ele>91.119513</ele>
        <time>2023-04-26T09:16:38.291Z</time>
      </trkpt>
      <trkpt lat="51.25641" lon="6.80471">
        <ele>90.936342</ele>
        <time>2023-04-26T09:16:40.292Z</time>
      </trkpt>
      <trkpt lat="51.25649" lon="6.80481">
        <ele>90.765626</ele>
        <time>2023-04-26T09:16:42.299Z</time>
      </trkpt>
      <trkpt lat="51.25657" lon="6.8049">
        <ele>90.600136</ele>
        <time>2023-04-26T09:16:44.298Z</time>
      </trkpt>
      <trkpt lat="51.25666" lon="6.80499">
        <ele>90.415333</ele>
        <time>2023-04-26T09:16:46.311Z</time>
      </trkpt>
      <trkpt lat="51.25675" lon="6.80509">
        <ele>90.229761</ele>
        <time>2023-04-26T09:16:48.290Z</time>
      </trkpt>
      <trkpt lat="51.25683" lon="6.8052">
        <ele>90.044913</ele>
        <time>2023-04-26T09:16:50.306Z</time>
      </trkpt>
      <trkpt lat="51.25692" lon="6.8053">
        <ele>89.865619</ele>
        <time>2023-04-26T09:16:52.307Z</time>
      </trkpt>
      <trkpt lat="51.25701" lon="6.80539">
        <ele>89.790654</ele>
        <time>2023-04-26T09:16:54.293Z</time>
      </trkpt>
      <trkpt lat="51.25711" lon="6.80548">
        <ele>89.714357</ele>
        <time>2023-04-26T09:16:56.303Z</time>
      </trkpt>
      <trkpt lat="51.2572" lon="6.80558">
        <ele>89.640781</ele>
        <time>2023-04-26T09:16:58.290Z</time>
      </trkpt>
      <trkpt lat="51.25729" lon="6.80567">
        <ele>89.567437</ele>
        <time>2023-04-26T09:17:00.290Z</time>
      </trkpt>
      <trkpt lat="51.25736" lon="6.80576">
        <ele>89.502439</ele>
        <time>2023-04-26T09:17:02.292Z</time>
      </trkpt>
      <trkpt lat="51.25744" lon="6.80584">
        <ele>89.439877</ele>
        <time>2023-04-26T09:17:04.285Z</time>
      </trkpt>
      <trkpt lat="51.25752" lon="6.80593">
        <ele>89.37181</ele>
        <time>2023-04-26T09:17:06.287Z</time>
      </trkpt>
      <trkpt lat="51.25761" lon="6.806">
        <ele>89.304868</ele>
        <time>2023-04-26T09:17:08.289Z</time>
      </trkpt>
      <trkpt lat="51.25768" lon="6.80609">
        <ele>89.241343</ele>
        <time>2023-04-26T09:17:10.286Z</time>
      </trkpt>
      <trkpt lat="51.25776" lon="6.80617">
        <ele>89.177008</ele>
        <time>2023-04-26T09:17:12.289Z</time>
      </trkpt>
      <trkpt lat="51.25783" lon="6.80626">
        <ele>89.111203</ele>
        <time>2023-04-26T09:17:14.290Z</time>
      </trkpt>
      <trkpt lat="51.25792" lon="6.80636">
        <ele>89.040459</ele>
        <time>2023-04-26T09:17:16.268Z</time>
      </trkpt>
      <trkpt lat="51.258" lon="6.80645">
        <ele>88.973127</ele>
        <time>2023-04-26T09:17:18.291Z</time>
      </trkpt>
      <trkpt lat="51.25809" lon="6.80654">
        <ele>88.901881</ele>
        <time>2023-04-26T09:17:20.295Z</time>
      </trkpt>
      <trkpt lat="51.25819" lon="6.80665">
        <ele>88.814418</ele>
        <time>2023-04-26T09:17:23.302Z</time>
      </trkpt>
      <trkpt lat="51.25827" lon="6.80674">
        <ele>88.749391</ele>
        <time>2023-04-26T09:17:26.288Z</time>
      </trkpt>
      <trkpt lat="51.25836" lon="6.80682">
        <ele>88.678028</ele>
        <time>2023-04-26T09:17:29.302Z</time>
      </trkpt>
      <trkpt lat="51.25846" lon="6.80694">
        <ele>88.584518</ele>
        <time>2023-04-26T09:17:32.295Z</time>
      </trkpt>
      <trkpt lat="51.25857" lon="6.80705">
        <ele>88.470399</ele>
        <time>2023-04-26T09:17:35.316Z</time>
      </trkpt>
      <trkpt lat="51.25865" lon="6.80714">
        <ele>88.386278</ele>
        <time>2023-04-26T09:17:37.283Z</time>
      </trkpt>
      <trkpt lat="51.25872" lon="6.80722">
        <ele>88.303985</ele>
        <time>2023-04-26T09:17:39.303Z</time>
      </trkpt>
      <trkpt lat="51.25883" lon="6.80735">
        <ele>88.190426</ele>
        <time>2023-04-26T09:17:42.290Z</time>
      </trkpt>
      <trkpt lat="51.25891" lon="6.80743">
        <ele>88.109685</ele>
        <time>2023-04-26T09:17:44.292Z</time>
      </trkpt>
      <trkpt lat="51.25899" lon="6.80751">
        <ele>88.023931</ele>
        <time>2023-04-26T09:17:46.290Z</time>
      </trkpt>
      <trkpt lat="51.25906" lon="6.8076">
        <ele>87.944467</ele>
        <time>2023-04-26T09:17:48.286Z</time>
      </trkpt>
      <trkpt lat="51.25914" lon="6.80768">
        <ele>87.863602</ele>
        <time>2023-04-26T09:17:50.285Z</time>
      </trkpt>
      <trkpt lat="51.25922" lon="6.80776">
        <ele>87.780811</ele>
        <time>2023-04-26T09:17:52.296Z</time>
      </trkpt>
      <trkpt lat="51.2593" lon="6.80784">
        <ele>87.699906</ele>
        <time>2023-04-26T09:17:54.302Z</time>
      </trkpt>
      <trkpt lat="51.25938" lon="6.80793">
        <ele>87.612711</ele>
        <time>2023-04-26T09:17:56.283Z</time>
      </trkpt>
      <trkpt lat="51.25948" lon="6.80802">
        <ele>87.518477</ele>
        <time>2023-04-26T09:17:58.299Z</time>
      </trkpt>
      <trkpt lat="51.25956" lon="6.80811">
        <ele>87.432189</ele>
        <time>2023-04-26T09:18:00.309Z</time>
      </trkpt>
      <trkpt lat="51.25964" lon="6.80819">
        <ele>87.346197</ele>
        <time>2023-04-26T09:18:02.301Z</time>
      </trkpt>
      <trkpt lat="51.25972" lon="6.80829">
        <ele>87.258531</ele>
        <time>2023-04-26T09:18:04.310Z</time>
      </trkpt>
      <trkpt lat="51.2598" lon="6.80838">
        <ele>87.176691</ele>
        <time>2023-04-26T09:18:06.285Z</time>
      </trkpt>
      <trkpt lat="51.2599" lon="6.8085">
        <ele>87.070781</ele>
        <time>2023-04-26T09:18:09.289Z</time>
      </trkpt>
      <trkpt lat="51.25998" lon="6.80861">
        <ele>87.056326</ele>
        <time>2023-04-26T09:18:11.309Z</time>
      </trkpt>
      <trkpt lat="51.26007" lon="6.8087">
        <ele>87.040942</ele>
        <time>2023-04-26T09:18:13.314Z</time>
      </trkpt>
      <trkpt lat="51.26016" lon="6.80879">
        <ele>87.025693</ele>
        <time>2023-04-26T09:18:15.294Z</time>
      </trkpt>
      <trkpt lat="51.26023" lon="6.80888">
        <ele>87.012167</ele>
        <time>2023-04-26T09:18:17.288Z</time>
      </trkpt>
      <trkpt lat="51.26032" lon="6.80896">
        <ele>86.997445</ele>
        <time>2023-04-26T09:18:19.295Z</time>
      </trkpt>
      <trkpt lat="51.26043" lon="6.80908">
        <ele>86.977633</ele>
        <time>2023-04-26T09:18:22.309Z</time>
      </trkpt>
      <trkpt lat="51.26051" lon="6.80917">
        <ele>86.964239</ele>
        <time>2023-04-26T09:18:24.299Z</time>
      </trkpt>
      <trkpt lat="51.2606" lon="6.80926">
        <ele>86.949358</ele>
        <time>2023-04-26T09:18:26.281Z</time>
      </trkpt>
      <trkpt lat="51.26068" lon="6.80935">
        <ele>86.933889</ele>
        <time>2023-04-26T09:18:28.427Z</time>
      </trkpt>
      <trkpt lat="51.26078" lon="6.80945">
        <ele>86.917839</ele>
        <time>2023-04-26T09:18:30.300Z</time>
      </trkpt>
      <trkpt lat="51.26087" lon="6.80951">
        <ele>86.903506</ele>
        <time>2023-04-26T09:18:32.284Z</time>
      </trkpt>
      <trkpt lat="51.26098" lon="6.80957">
        <ele>86.885884</ele>
        <time>2023-04-26T09:18:34.289Z</time>
      </trkpt>
      <trkpt lat="51.26109" lon="6.80967">
        <ele>86.868513</ele>
        <time>2023-04-26T09:18:36.286Z</time>
      </trkpt>
      <trkpt lat="51.2612" lon="6.80975">
        <ele>86.851046</ele>
        <time>2023-04-26T09:18:38.274Z</time>
      </trkpt>
      <trkpt lat="51.26129" lon="6.80982">
        <ele>86.836075</ele>
        <time>2023-04-26T09:18:40.283Z</time>
      </trkpt>
      <trkpt lat="51.2614" lon="6.80988">
        <ele>86.819498</ele>
        <time>2023-04-26T09:18:42.298Z</time>
      </trkpt>
      <trkpt lat="51.2615" lon="6.80996">
        <ele>86.811258</ele>
        <time>2023-04-26T09:18:44.269Z</time>
      </trkpt>
      <trkpt lat="51.26158" lon="6.81002">
        <ele>86.809777</ele>
        <time>2023-04-26T09:18:46.315Z</time>
      </trkpt>
      <trkpt lat="51.26167" lon="6.81007">
        <ele>86.808384</ele>
        <time>2023-04-26T09:18:48.294Z</time>
      </trkpt>
      <trkpt lat="51.26177" lon="6.81015">
        <ele>86.80675</ele>
        <time>2023-04-26T09:18:50.291Z</time>
      </trkpt>
      <trkpt lat="51.26184" lon="6.81024">
        <ele>86.805292</ele>
        <time>2023-04-26T09:18:52.290Z</time>
      </trkpt>
      <trkpt lat="51.26192" lon="6.81032">
        <ele>86.803879</ele>
        <time>2023-04-26T09:18:54.295Z</time>
      </trkpt>
      <trkpt lat="51.26202" lon="6.81045">
        <ele>86.802023</ele>
        <time>2023-04-26T09:18:57.305Z</time>
      </trkpt>
      <trkpt lat="51.26209" lon="6.81055">
        <ele>86.800561</ele>
        <time>2023-04-26T09:18:59.293Z</time>
      </trkpt>
      <trkpt lat="51.26213" lon="6.8107">
        <ele>86.798977</ele>
        <time>2023-04-26T09:19:03.290Z</time>
      </trkpt>
      <trkpt lat="51.2622" lon="6.81086">
        <ele>86.797124</ele>
        <time>2023-04-26T09:19:49.302Z</time>
      </trkpt>
      <trkpt lat="51.26223" lon="6.81101">
        <ele>86.795628</ele>
        <time>2023-04-26T09:19:52.288Z</time>
      </trkpt>
      <trkpt lat="51.26225" lon="6.81118">
        <ele>86.793953</ele>
        <time>2023-04-26T09:19:55.302Z</time>
      </trkpt>
      <trkpt lat="51.26229" lon="6.81139">
        <ele>86.791936</ele>
        <time>2023-04-26T09:19:58.284Z</time>
      </trkpt>
      <trkpt lat="51.26232" lon="6.81158">
        <ele>86.790085</ele>
        <time>2023-04-26T09:20:01.288Z</time>
      </trkpt>
      <trkpt lat="51.26233" lon="6.81176">
        <ele>86.788414</ele>
        <time>2023-04-26T09:20:04.283Z</time>
      </trkpt>
      <trkpt lat="51.26236" lon="6.81194">
        <ele>86.786564</ele>
        <time>2023-04-26T09:20:07.291Z</time>
      </trkpt>
      <trkpt lat="51.26239" lon="6.81213">
        <ele>86.785059</ele>
        <time>2023-04-26T09:20:10.265Z</time>
      </trkpt>
      <trkpt lat="51.26241" lon="6.81232">
        <ele>86.789846</ele>
        <time>2023-04-26T09:20:13.283Z</time>
      </trkpt>
      <trkpt lat="51.26245" lon="6.81252">
        <ele>86.794815</ele>
        <time>2023-04-26T09:20:16.300Z</time>
      </trkpt>
      <trkpt lat="51.26248" lon="6.81271">
        <ele>86.799677</ele>
        <time>2023-04-26T09:20:19.293Z</time>
      </trkpt>
      <trkpt lat="51.26251" lon="6.81291">
        <ele>86.804647</ele>
        <time>2023-04-26T09:20:22.293Z</time>
      </trkpt>
      <trkpt lat="51.26254" lon="6.81305">
        <ele>86.808174</ele>
        <time>2023-04-26T09:20:24.284Z</time>
      </trkpt>
      <trkpt lat="51.26256" lon="6.81324">
        <ele>86.812819</ele>
        <time>2023-04-26T09:20:27.293Z</time>
      </trkpt>
      <trkpt lat="51.26259" lon="6.81344">
        <ele>86.817795</ele>
        <time>2023-04-26T09:20:30.304Z</time>
      </trkpt>
      <trkpt lat="51.26262" lon="6.81362">
        <ele>86.822454</ele>
        <time>2023-04-26T09:20:33.302Z</time>
      </trkpt>
      <trkpt lat="51.26266" lon="6.81382">
        <ele>86.82737</ele>
        <time>2023-04-26T09:20:36.292Z</time>
      </trkpt>
      <trkpt lat="51.2627" lon="6.81402">
        <ele>86.83244</ele>
        <time>2023-04-26T09:20:39.283Z</time>
      </trkpt>
      <trkpt lat="51.26273" lon="6.81422">
        <ele>86.837509</ele>
        <time>2023-04-26T09:20:42.293Z</time>
      </trkpt>
      <trkpt lat="51.26276" lon="6.81441">
        <ele>86.842291</ele>
        <time>2023-04-26T09:20:45.288Z</time>
      </trkpt>
      <trkpt lat="51.26278" lon="6.81459">
        <ele>86.846776</ele>
        <time>2023-04-26T09:20:48.275Z</time>
      </trkpt>
      <trkpt lat="51.2628" lon="6.81474">
        <ele>86.850303</ele>
        <time>2023-04-26T09:20:51.309Z</time>
      </trkpt>
      <trkpt lat="51.26282" lon="6.81489">
        <ele>86.854172</ele>
        <time>2023-04-26T09:20:54.313Z</time>
      </trkpt>
      <trkpt lat="51.26285" lon="6.81507">
        <ele>86.852571</ele>
        <time>2023-04-26T09:20:57.312Z</time>
      </trkpt>
      <trkpt lat="51.26286" lon="6.81522">
        <ele>86.850882</ele>
        <time>2023-04-26T09:21:00.274Z</time>
      </trkpt>
      <trkpt lat="51.26288" lon="6.81541">
        <ele>86.848754</ele>
        <time>2023-04-26T09:21:03.289Z</time>
      </trkpt>
      <trkpt lat="51.26291" lon="6.8156">
        <ele>86.846545</ele>
        <time>2023-04-26T09:21:06.281Z</time>
      </trkpt>
      <trkpt lat="51.26293" lon="6.81581">
        <ele>86.844168</ele>
        <time>2023-04-26T09:21:09.303Z</time>
      </trkpt>
      <trkpt lat="51.26295" lon="6.81596">
        <ele>86.842476</ele>
        <time>2023-04-26T09:21:11.288Z</time>
      </trkpt>
      <trkpt lat="51.26296" lon="6.8161">
        <ele>86.840831</ele>
        <time>2023-04-26T09:21:13.309Z</time>
      </trkpt>
      <trkpt lat="51.26298" lon="6.81631">
        <ele>86.838533</ele>
        <time>2023-04-26T09:21:16.297Z</time>
      </trkpt>
      <trkpt lat="51.26302" lon="6.8165">
        <ele>86.836229</ele>
        <time>2023-04-26T09:21:19.284Z</time>
      </trkpt>
      <trkpt lat="51.26304" lon="6.81665">
        <ele>86.834587</ele>
        <time>2023-04-26T09:21:21.292Z</time>
      </trkpt>
      <trkpt lat="51.26306" lon="6.81685">
        <ele>86.832252</ele>
        <time>2023-04-26T09:21:24.293Z</time>
      </trkpt>
      <trkpt lat="51.26309" lon="6.81705">
        <ele>86.829924</ele>
        <time>2023-04-26T09:21:27.300Z</time>
      </trkpt>
      <trkpt lat="51.26313" lon="6.81726">
        <ele>86.827432</ele>
        <time>2023-04-26T09:21:30.293Z</time>
      </trkpt>
      <trkpt lat="51.26317" lon="6.81746">
        <ele>86.825096</ele>
        <time>2023-04-26T09:21:33.301Z</time>
      </trkpt>
      <trkpt lat="51.26321" lon="6.81766">
        <ele>86.822718</ele>
        <time>2023-04-26T09:21:36.308Z</time>
      </trkpt>
      <trkpt lat="51.26325" lon="6.81787">
        <ele>86.816327</ele>
        <time>2023-04-26T09:21:39.293Z</time>
      </trkpt>
      <trkpt lat="51.26328" lon="6.81807">
        <ele>86.809185</ele>
        <time>2023-04-26T09:21:42.298Z</time>
      </trkpt>
      <trkpt lat="51.26329" lon="6.81826">
        <ele>86.802678</ele>
        <time>2023-04-26T09:21:45.293Z</time>
      </trkpt>
      <trkpt lat="51.26332" lon="6.81846">
        <ele>86.795849</ele>
        <time>2023-04-26T09:21:48.295Z</time>
      </trkpt>
      <trkpt lat="51.26333" lon="6.81867">
        <ele>86.788396</ele>
        <time>2023-04-26T09:21:51.281Z</time>
      </trkpt>
      <trkpt lat="51.26335" lon="6.81888">
        <ele>86.781296</ele>
        <time>2023-04-26T09:21:54.299Z</time>
      </trkpt>
      <trkpt lat="51.26338" lon="6.81902">
        <ele>86.776245</ele>
        <time>2023-04-26T09:21:56.287Z</time>
      </trkpt>
      <trkpt lat="51.2634" lon="6.81916">
        <ele>86.771167</ele>
        <time>2023-04-26T09:21:58.285Z</time>
      </trkpt>
      <trkpt lat="51.26343" lon="6.8193">
        <ele>86.766214</ele>
        <time>2023-04-26T09:22:00.290Z</time>
      </trkpt>
      <trkpt lat="51.26345" lon="6.81944">
        <ele>86.761179</ele>
        <time>2023-04-26T09:22:02.291Z</time>
      </trkpt>
      <trkpt lat="51.26348" lon="6.81958">
        <ele>86.75614</ele>
        <time>2023-04-26T09:22:04.308Z</time>
      </trkpt>
      <trkpt lat="51.26351" lon="6.81978">
        <ele>86.749116</ele>
        <time>2023-04-26T09:22:07.298Z</time>
      </trkpt>
      <trkpt lat="51.26353" lon="6.81999">
        <ele>86.741789</ele>
        <time>2023-04-26T09:22:10.299Z</time>
      </trkpt>
      <trkpt lat="51.26356" lon="6.8202">
        <ele>86.734702</ele>
        <time>2023-04-26T09:22:13.295Z</time>
      </trkpt>
      <trkpt lat="51.2636" lon="6.82033">
        <ele>86.729703</ele>
        <time>2023-04-26T09:22:15.290Z</time>
      </trkpt>
      <trkpt lat="51.26366" lon="6.82046">
        <ele>86.724124</ele>
        <time>2023-04-26T09:22:17.310Z</time>
      </trkpt>
      <trkpt lat="51.2637" lon="6.82061">
        <ele>86.775107</ele>
        <time>2023-04-26T09:22:19.298Z</time>
      </trkpt>
      <trkpt lat="51.26376" lon="6.82078">
        <ele>86.839135</ele>
        <time>2023-04-26T09:22:21.288Z</time>
      </trkpt>
      <trkpt lat="51.26373" lon="6.82102">
        <ele>86.91727</ele>
        <time>2023-04-26T09:22:23.260Z</time>
      </trkpt>
      <trkpt lat="51.26379" lon="6.82123">
        <ele>86.991946</ele>
        <time>2023-04-26T09:22:25.276Z</time>
      </trkpt>
      <trkpt lat="51.26383" lon="6.82144">
        <ele>87.061969</ele>
        <time>2023-04-26T09:22:27.287Z</time>
      </trkpt>
      <trkpt lat="51.26385" lon="6.82163">
        <ele>87.125551</ele>
        <time>2023-04-26T09:22:29.297Z</time>
      </trkpt>
      <trkpt lat="51.26386" lon="6.82179">
        <ele>87.177662</ele>
        <time>2023-04-26T09:22:31.279Z</time>
      </trkpt>
      <trkpt lat="51.26385" lon="6.82194">
        <ele>87.226915</ele>
        <time>2023-04-26T09:22:33.303Z</time>
      </trkpt>
      <trkpt lat="51.26388" lon="6.82209">
        <ele>87.278539</ele>
        <time>2023-04-26T09:22:36.287Z</time>
      </trkpt>
      <trkpt lat="51.2639" lon="6.82225">
        <ele>87.331018</ele>
        <time>2023-04-26T09:22:40.292Z</time>
      </trkpt>
      <trkpt lat="51.26393" lon="6.82241">
        <ele>87.385053</ele>
        <time>2023-04-26T09:22:44.293Z</time>
      </trkpt>
      <trkpt lat="51.26396" lon="6.82257">
        <ele>87.438788</ele>
        <time>2023-04-26T09:22:47.302Z</time>
      </trkpt>
      <trkpt lat="51.26398" lon="6.82274">
        <ele>87.494736</ele>
        <time>2023-04-26T09:22:50.312Z</time>
      </trkpt>
      <trkpt lat="51.26399" lon="6.82294">
        <ele>87.562168</ele>
        <time>2023-04-26T09:22:53.289Z</time>
      </trkpt>
      <trkpt lat="51.26404" lon="6.82311">
        <ele>87.623369</ele>
        <time>2023-04-26T09:22:56.296Z</time>
      </trkpt>
      <trkpt lat="51.26413" lon="6.82326">
        <ele>87.805172</ele>
        <time>2023-04-26T09:22:59.298Z</time>
      </trkpt>
      <trkpt lat="51.26423" lon="6.8234">
        <ele>88.117142</ele>
        <time>2023-04-26T09:23:02.300Z</time>
      </trkpt>
      <trkpt lat="51.26431" lon="6.82353">
        <ele>88.398632</ele>
        <time>2023-04-26T09:23:05.299Z</time>
      </trkpt>
      <trkpt lat="51.2644" lon="6.82365">
        <ele>88.680829</ele>
        <time>2023-04-26T09:23:08.294Z</time>
      </trkpt>
      <trkpt lat="51.26449" lon="6.8238">
        <ele>88.988877</ele>
        <time>2023-04-26T09:23:11.304Z</time>
      </trkpt>
      <trkpt lat="51.26459" lon="6.82395">
        <ele>89.314497</ele>
        <time>2023-04-26T09:23:14.294Z</time>
      </trkpt>
      <trkpt lat="51.26469" lon="6.82406">
        <ele>89.612158</ele>
        <time>2023-04-26T09:23:17.285Z</time>
      </trkpt>
      <trkpt lat="51.26477" lon="6.82416">
        <ele>89.856682</ele>
        <time>2023-04-26T09:23:21.312Z</time>
      </trkpt>
      <trkpt lat="51.26484" lon="6.82429">
        <ele>90.112115</ele>
        <time>2023-04-26T09:23:25.292Z</time>
      </trkpt>
      <trkpt lat="51.26491" lon="6.8244">
        <ele>90.338891</ele>
        <time>2023-04-26T09:23:28.309Z</time>
      </trkpt>
      <trkpt lat="51.26498" lon="6.8245">
        <ele>90.563948</ele>
        <time>2023-04-26T09:23:31.292Z</time>
      </trkpt>
      <trkpt lat="51.26505" lon="6.82461">
        <ele>90.810379</ele>
        <time>2023-04-26T09:23:34.292Z</time>
      </trkpt>
      <trkpt lat="51.26514" lon="6.82472">
        <ele>91.08125</ele>
        <time>2023-04-26T09:23:37.307Z</time>
      </trkpt>
      <trkpt lat="51.26522" lon="6.82483">
        <ele>91.324166</ele>
        <time>2023-04-26T09:23:40.311Z</time>
      </trkpt>
      <trkpt lat="51.2653" lon="6.82495">
        <ele>91.589441</ele>
        <time>2023-04-26T09:23:44.290Z</time>
      </trkpt>
      <trkpt lat="51.26538" lon="6.82505">
        <ele>91.836823</ele>
        <time>2023-04-26T09:23:47.277Z</time>
      </trkpt>
      <trkpt lat="51.26546" lon="6.82515">
        <ele>91.889883</ele>
        <time>2023-04-26T09:23:50.286Z</time>
      </trkpt>
      <trkpt lat="51.26553" lon="6.82524">
        <ele>91.697102</ele>
        <time>2023-04-26T09:23:53.301Z</time>
      </trkpt>
      <trkpt lat="51.2656" lon="6.82534">
        <ele>91.505812</ele>
        <time>2023-04-26T09:23:57.283Z</time>
      </trkpt>
      <trkpt lat="51.26566" lon="6.82545">
        <ele>91.317995</ele>
        <time>2023-04-26T09:24:00.280Z</time>
      </trkpt>
      <trkpt lat="51.26574" lon="6.82557">
        <ele>91.081503</ele>
        <time>2023-04-26T09:24:03.296Z</time>
      </trkpt>
      <trkpt lat="51.26583" lon="6.82568">
        <ele>90.848759</ele>
        <time>2023-04-26T09:24:06.282Z</time>
      </trkpt>
      <trkpt lat="51.26591" lon="6.82579">
        <ele>90.635265</ele>
        <time>2023-04-26T09:24:09.302Z</time>
      </trkpt>
      <trkpt lat="51.26599" lon="6.8259">
        <ele>90.407476</ele>
        <time>2023-04-26T09:24:12.293Z</time>
      </trkpt>
      <trkpt lat="51.26607" lon="6.82602">
        <ele>90.181379</ele>
        <time>2023-04-26T09:24:15.300Z</time>
      </trkpt>
      <trkpt lat="51.26616" lon="6.82614">
        <ele>89.941853</ele>
        <time>2023-04-26T09:24:18.284Z</time>
      </trkpt>
      <trkpt lat="51.26625" lon="6.82625">
        <ele>89.706904</ele>
        <time>2023-04-26T09:24:21.282Z</time>
      </trkpt>
      <trkpt lat="51.26633" lon="6.82637">
        <ele>89.476989</ele>
        <time>2023-04-26T09:24:24.290Z</time>
      </trkpt>
      <trkpt lat="51.26641" lon="6.82647">
        <ele>89.259011</ele>
        <time>2023-04-26T09:24:27.295Z</time>
      </trkpt>
      <trkpt lat="51.2665" lon="6.82657">
        <ele>89.040144</ele>
        <time>2023-04-26T09:24:30.286Z</time>
      </trkpt>
      <trkpt lat="51.26658" lon="6.82668">
        <ele>88.817399</ele>
        <time>2023-04-26T09:24:33.298Z</time>
      </trkpt>
      <trkpt lat="51.26667" lon="6.82681">
        <ele>88.573064</ele>
        <time>2023-04-26T09:24:36.291Z</time>
      </trkpt>
      <trkpt lat="51.26676" lon="6.82691">
        <ele>88.340333</ele>
        <time>2023-04-26T09:24:39.279Z</time>
      </trkpt>
      <trkpt lat="51.26687" lon="6.82702">
        <ele>88.280343</ele>
        <time>2023-04-26T09:24:42.276Z</time>
      </trkpt>
      <trkpt lat="51.26697" lon="6.82712">
        <ele>88.329914</ele>
        <time>2023-04-26T09:24:45.305Z</time>
      </trkpt>
      <trkpt lat="51.26705" lon="6.82723">
        <ele>88.378784</ele>
        <time>2023-04-26T09:24:48.293Z</time>
      </trkpt>
      <trkpt lat="51.26716" lon="6.8273">
        <ele>88.429857</ele>
        <time>2023-04-26T09:24:52.276Z</time>
      </trkpt>
      <trkpt lat="51.26725" lon="6.82738">
        <ele>88.475852</ele>
        <time>2023-04-26T09:24:55.305Z</time>
      </trkpt>
      <trkpt lat="51.26735" lon="6.82748">
        <ele>88.526974</ele>
        <time>2023-04-26T09:24:58.305Z</time>
      </trkpt>
      <trkpt lat="51.26745" lon="6.82758">
        <ele>88.575427</ele>
        <time>2023-04-26T09:25:01.321Z</time>
      </trkpt>
      <trkpt lat="51.26754" lon="6.82767">
        <ele>88.625838</ele>
        <time>2023-04-26T09:25:04.427Z</time>
      </trkpt>
      <trkpt lat="51.26765" lon="6.82775">
        <ele>88.675202</ele>
        <time>2023-04-26T09:25:07.331Z</time>
      </trkpt>
      <trkpt lat="51.26773" lon="6.82787">
        <ele>88.726192</ele>
        <time>2023-04-26T09:25:10.284Z</time>
      </trkpt>
      <trkpt lat="51.26784" lon="6.82798">
        <ele>88.781156</ele>
        <time>2023-04-26T09:25:13.315Z</time>
      </trkpt>
      <trkpt lat="51.26794" lon="6.8281">
        <ele>88.836218</ele>
        <time>2023-04-26T09:25:16.296Z</time>
      </trkpt>
      <trkpt lat="51.26805" lon="6.82819">
        <ele>88.892944</ele>
        <time>2023-04-26T09:25:19.300Z</time>
      </trkpt>
      <trkpt lat="51.26816" lon="6.82829">
        <ele>88.948219</ele>
        <time>2023-04-26T09:25:22.308Z</time>
      </trkpt>
      <trkpt lat="51.26827" lon="6.82839">
        <ele>89.004465</ele>
        <time>2023-04-26T09:25:25.302Z</time>
      </trkpt>
      <trkpt lat="51.26839" lon="6.82849">
        <ele>89.139314</ele>
        <time>2023-04-26T09:25:28.294Z</time>
      </trkpt>
      <trkpt lat="51.2685" lon="6.82859">
        <ele>89.354807</ele>
        <time>2023-04-26T09:25:31.305Z</time>
      </trkpt>
      <trkpt lat="51.26862" lon="6.82869">
        <ele>89.573032</ele>
        <time>2023-04-26T09:25:34.291Z</time>
      </trkpt>
      <trkpt lat="51.26873" lon="6.82878">
        <ele>89.775688</ele>
        <time>2023-04-26T09:25:37.293Z</time>
      </trkpt>
      <trkpt lat="51.26881" lon="6.82887">
        <ele>89.937842</ele>
        <time>2023-04-26T09:25:39.274Z</time>
      </trkpt>
      <trkpt lat="51.26889" lon="6.82894">
        <ele>90.094414</ele>
        <time>2023-04-26T09:25:41.306Z</time>
      </trkpt>
      <trkpt lat="51.26898" lon="6.829">
        <ele>90.251626</ele>
        <time>2023-04-26T09:25:43.294Z</time>
      </trkpt>
      <trkpt lat="51.26906" lon="6.82907">
        <ele>90.402838</ele>
        <time>2023-04-26T09:25:45.306Z</time>
      </trkpt>
      <trkpt lat="51.26914" lon="6.82915">
        <ele>90.551958</ele>
        <time>2023-04-26T09:25:47.295Z</time>
      </trkpt>
      <trkpt lat="51.26923" lon="6.82922">
        <ele>90.712986</ele>
        <time>2023-04-26T09:25:49.304Z</time>
      </trkpt>
      <trkpt lat="51.26931" lon="6.82929">
        <ele>90.874879</ele>
        <time>2023-04-26T09:25:51.312Z</time>
      </trkpt>
      <trkpt lat="51.2694" lon="6.82937">
        <ele>91.041156</ele>
        <time>2023-04-26T09:25:53.294Z</time>
      </trkpt>
      <trkpt lat="51.26949" lon="6.82944">
        <ele>91.199368</ele>
        <time>2023-04-26T09:25:55.312Z</time>
      </trkpt>
      <trkpt lat="51.26957" lon="6.82951">
        <ele>91.35449</ele>
        <time>2023-04-26T09:25:57.303Z</time>
      </trkpt>
      <trkpt lat="51.26966" lon="6.82957">
        <ele>91.512923</ele>
        <time>2023-04-26T09:25:59.292Z</time>
      </trkpt>
      <trkpt lat="51.26974" lon="6.82965">
        <ele>91.67756</ele>
        <time>2023-04-26T09:26:01.295Z</time>
      </trkpt>
      <trkpt lat="51.26984" lon="6.82973">
        <ele>91.849168</ele>
        <time>2023-04-26T09:26:03.293Z</time>
      </trkpt>
      <trkpt lat="51.26993" lon="6.8298">
        <ele>91.99545</ele>
        <time>2023-04-26T09:26:05.297Z</time>
      </trkpt>
      <trkpt lat="51.27001" lon="6.82986">
        <ele>91.994692</ele>
        <time>2023-04-26T09:26:07.313Z</time>
      </trkpt>
      <trkpt lat="51.27009" lon="6.82994">
        <ele>91.993901</ele>
        <time>2023-04-26T09:26:09.307Z</time>
      </trkpt>
      <trkpt lat="51.27017" lon="6.83002">
        <ele>91.993097</ele>
        <time>2023-04-26T09:26:11.293Z</time>
      </trkpt>
      <trkpt lat="51.27026" lon="6.83009">
        <ele>91.992292</ele>
        <time>2023-04-26T09:26:13.301Z</time>
      </trkpt>
      <trkpt lat="51.27034" lon="6.83017">
        <ele>91.991511</ele>
        <time>2023-04-26T09:26:15.295Z</time>
      </trkpt>
      <trkpt lat="51.27042" lon="6.83024">
        <ele>91.990721</ele>
        <time>2023-04-26T09:26:17.292Z</time>
      </trkpt>
      <trkpt lat="51.2705" lon="6.83031">
        <ele>91.989935</ele>
        <time>2023-04-26T09:26:19.297Z</time>
      </trkpt>
      <trkpt lat="51.27061" lon="6.83041">
        <ele>91.988881</ele>
        <time>2023-04-26T09:26:22.289Z</time>
      </trkpt>
      <trkpt lat="51.2707" lon="6.83048">
        <ele>91.988086</ele>
        <time>2023-04-26T09:26:24.312Z</time>
      </trkpt>
      <trkpt lat="51.27081" lon="6.83058">
        <ele>91.986995</ele>
        <time>2023-04-26T09:26:27.300Z</time>
      </trkpt>
      <trkpt lat="51.2709" lon="6.83065">
        <ele>91.986193</ele>
        <time>2023-04-26T09:26:29.288Z</time>
      </trkpt>
      <trkpt lat="51.27101" lon="6.83075">
        <ele>91.985142</ele>
        <time>2023-04-26T09:26:32.295Z</time>
      </trkpt>
      <trkpt lat="51.27112" lon="6.83085">
        <ele>91.984069</ele>
        <time>2023-04-26T09:26:35.302Z</time>
      </trkpt>
      <trkpt lat="51.2712" lon="6.83093">
        <ele>91.983266</ele>
        <time>2023-04-26T09:26:37.299Z</time>
      </trkpt>
      <trkpt lat="51.27128" lon="6.83101">
        <ele>91.982488</ele>
        <time>2023-04-26T09:26:39.292Z</time>
      </trkpt>
      <trkpt lat="51.27136" lon="6.8311">
        <ele>91.981685</ele>
        <time>2023-04-26T09:26:41.308Z</time>
      </trkpt>
      <trkpt lat="51.27144" lon="6.83117">
        <ele>91.980904</ele>
        <time>2023-04-26T09:26:43.305Z</time>
      </trkpt>
      <trkpt lat="51.27152" lon="6.83124">
        <ele>91.99768</ele>
        <time>2023-04-26T09:26:45.292Z</time>
      </trkpt>
      <trkpt lat="51.27164" lon="6.83137">
        <ele>92.046587</ele>
        <time>2023-04-26T09:26:48.312Z</time>
      </trkpt>
      <trkpt lat="51.27172" lon="6.83144">
        <ele>92.079232</ele>
        <time>2023-04-26T09:26:50.315Z</time>
      </trkpt>
      <trkpt lat="51.27181" lon="6.83151">
        <ele>92.113377</ele>
        <time>2023-04-26T09:26:52.308Z</time>
      </trkpt>
      <trkpt lat="51.27189" lon="6.83157">
        <ele>92.144957</ele>
        <time>2023-04-26T09:26:54.290Z</time>
      </trkpt>
      <trkpt lat="51.27197" lon="6.83165">
        <ele>92.178473</ele>
        <time>2023-04-26T09:26:56.291Z</time>
      </trkpt>
      <trkpt lat="51.27205" lon="6.83174">
        <ele>92.211934</ele>
        <time>2023-04-26T09:26:58.290Z</time>
      </trkpt>
      <trkpt lat="51.27216" lon="6.83187">
        <ele>92.258899</ele>
        <time>2023-04-26T09:27:01.296Z</time>
      </trkpt>
      <trkpt lat="51.27227" lon="6.83197">
        <ele>92.305357</ele>
        <time>2023-04-26T09:27:04.311Z</time>
      </trkpt>
      <trkpt lat="51.27235" lon="6.83205">
        <ele>92.337278</ele>
        <time>2023-04-26T09:27:06.288Z</time>
      </trkpt>
      <trkpt lat="51.27243" lon="6.83212">
        <ele>92.369701</ele>
        <time>2023-04-26T09:27:08.296Z</time>
      </trkpt>
      <trkpt lat="51.27254" lon="6.83223">
        <ele>92.415441</ele>
        <time>2023-04-26T09:27:11.295Z</time>
      </trkpt>
      <trkpt lat="51.27265" lon="6.83233">
        <ele>92.459301</ele>
        <time>2023-04-26T09:27:14.302Z</time>
      </trkpt>
      <trkpt lat="51.27275" lon="6.83245">
        <ele>92.502296</ele>
        <time>2023-04-26T09:27:17.294Z</time>
      </trkpt>
      <trkpt lat="51.27284" lon="6.83258">
        <ele>92.547557</ele>
        <time>2023-04-26T09:27:20.292Z</time>
      </trkpt>
      <trkpt lat="51.27293" lon="6.83271">
        <ele>92.588672</ele>
        <time>2023-04-26T09:27:23.282Z</time>
      </trkpt>
      <trkpt lat="51.27302" lon="6.83283">
        <ele>92.632089</ele>
        <time>2023-04-26T09:27:26.307Z</time>
      </trkpt>
      <trkpt lat="51.2731" lon="6.83294">
        <ele>92.675783</ele>
        <time>2023-04-26T09:27:29.297Z</time>
      </trkpt>
      <trkpt lat="51.27318" lon="6.83305">
        <ele>92.71985</ele>
        <time>2023-04-26T09:27:32.286Z</time>
      </trkpt>
      <trkpt lat="51.27326" lon="6.83318">
        <ele>92.765245</ele>
        <time>2023-04-26T09:27:35.296Z</time>
      </trkpt>
      <trkpt lat="51.27334" lon="6.8333">
        <ele>92.809749</ele>
        <time>2023-04-26T09:27:38.305Z</time>
      </trkpt>
      <trkpt lat="51.27343" lon="6.83342">
        <ele>92.856471</ele>
        <time>2023-04-26T09:27:41.284Z</time>
      </trkpt>
      <trkpt lat="51.27351" lon="6.83354">
        <ele>92.903108</ele>
        <time>2023-04-26T09:27:44.295Z</time>
      </trkpt>
      <trkpt lat="51.27359" lon="6.83367">
        <ele>92.949728</ele>
        <time>2023-04-26T09:27:47.294Z</time>
      </trkpt>
      <trkpt lat="51.27368" lon="6.83378">
        <ele>92.995643</ele>
        <time>2023-04-26T09:27:50.286Z</time>
      </trkpt>
      <trkpt lat="51.27377" lon="6.83389">
        <ele>93.041082</ele>
        <time>2023-04-26T09:27:53.298Z</time>
      </trkpt>
      <trkpt lat="51.27387" lon="6.834">
        <ele>93.091117</ele>
        <time>2023-04-26T09:27:56.292Z</time>
      </trkpt>
      <trkpt lat="51.27397" lon="6.8341">
        <ele>93.136994</ele>
        <time>2023-04-26T09:27:59.286Z</time>
      </trkpt>
      <trkpt lat="51.27407" lon="6.83419">
        <ele>93.186892</ele>
        <time>2023-04-26T09:28:02.301Z</time>
      </trkpt>
      <trkpt lat="51.27418" lon="6.83428">
        <ele>93.236701</ele>
        <time>2023-04-26T09:28:05.295Z</time>
      </trkpt>
      <trkpt lat="51.27428" lon="6.83436">
        <ele>93.28063</ele>
        <time>2023-04-26T09:28:08.312Z</time>
      </trkpt>
      <trkpt lat="51.27438" lon="6.83443">
        <ele>93.324167</ele>
        <time>2023-04-26T09:28:11.295Z</time>
      </trkpt>
      <trkpt lat="51.27448" lon="6.8345">
        <ele>93.385483</ele>
        <time>2023-04-26T09:28:14.292Z</time>
      </trkpt>
      <trkpt lat="51.27458" lon="6.83456">
        <ele>93.463755</ele>
        <time>2023-04-26T09:28:17.315Z</time>
      </trkpt>
      <trkpt lat="51.2747" lon="6.83461">
        <ele>93.546748</ele>
        <time>2023-04-26T09:28:20.296Z</time>
      </trkpt>
      <trkpt lat="51.27482" lon="6.83466">
        <ele>93.632974</ele>
        <time>2023-04-26T09:28:23.295Z</time>
      </trkpt>
      <trkpt lat="51.27494" lon="6.83473">
        <ele>93.723776</ele>
        <time>2023-04-26T09:28:26.296Z</time>
      </trkpt>
      <trkpt lat="51.27507" lon="6.83478">
        <ele>93.811824</ele>
        <time>2023-04-26T09:28:29.301Z</time>
      </trkpt>
      <trkpt lat="51.27519" lon="6.83484">
        <ele>93.899998</ele>
        <time>2023-04-26T09:28:32.295Z</time>
      </trkpt>
      <trkpt lat="51.27531" lon="6.83491">
        <ele>93.987114</ele>
        <time>2023-04-26T09:28:35.293Z</time>
      </trkpt>
      <trkpt lat="51.27542" lon="6.83496">
        <ele>94.071074</ele>
        <time>2023-04-26T09:28:38.290Z</time>
      </trkpt>
      <trkpt lat="51.27554" lon="6.83502">
        <ele>94.155693</ele>
        <time>2023-04-26T09:28:41.300Z</time>
      </trkpt>
      <trkpt lat="51.27565" lon="6.8351">
        <ele>94.240084</ele>
        <time>2023-04-26T09:28:44.288Z</time>
      </trkpt>
      <trkpt lat="51.27577" lon="6.83521">
        <ele>94.33059</ele>
        <time>2023-04-26T09:28:47.308Z</time>
      </trkpt>
      <trkpt lat="51.27585" lon="6.83528">
        <ele>94.396067</ele>
        <time>2023-04-26T09:28:49.278Z</time>
      </trkpt>
      <trkpt lat="51.27593" lon="6.83535">
        <ele>94.458048</ele>
        <time>2023-04-26T09:28:51.372Z</time>
      </trkpt>
      <trkpt lat="51.27602" lon="6.83543">
        <ele>94.529008</ele>
        <time>2023-04-26T09:28:53.279Z</time>
      </trkpt>
      <trkpt lat="51.2761" lon="6.83551">
        <ele>94.541685</ele>
        <time>2023-04-26T09:28:55.301Z</time>
      </trkpt>
      <trkpt lat="51.2762" lon="6.83558">
        <ele>94.299028</ele>
        <time>2023-04-26T09:28:57.302Z</time>
      </trkpt>
      <trkpt lat="51.27629" lon="6.83564">
        <ele>94.053048</ele>
        <time>2023-04-26T09:28:59.297Z</time>
      </trkpt>
      <trkpt lat="51.27639" lon="6.83569">
        <ele>93.803407</ele>
        <time>2023-04-26T09:29:01.287Z</time>
      </trkpt>
      <trkpt lat="51.2765" lon="6.83572">
        <ele>93.554838</ele>
        <time>2023-04-26T09:29:03.290Z</time>
      </trkpt>
      <trkpt lat="51.2766" lon="6.83575">
        <ele>93.297619</ele>
        <time>2023-04-26T09:29:05.277Z</time>
      </trkpt>
      <trkpt lat="51.27672" lon="6.83577">
        <ele>93.017382</ele>
        <time>2023-04-26T09:29:07.303Z</time>
      </trkpt>
      <trkpt lat="51.27684" lon="6.8358">
        <ele>92.725944</ele>
        <time>2023-04-26T09:29:09.301Z</time>
      </trkpt>
      <trkpt lat="51.27698" lon="6.83579">
        <ele>92.40048</ele>
        <time>2023-04-26T09:29:11.298Z</time>
      </trkpt>
      <trkpt lat="51.27711" lon="6.83575">
        <ele>92.085931</ele>
        <time>2023-04-26T09:29:13.281Z</time>
      </trkpt>
      <trkpt lat="51.27724" lon="6.83566">
        <ele>91.754094</ele>
        <time>2023-04-26T09:29:15.289Z</time>
      </trkpt>
      <trkpt lat="51.27735" lon="6.83555">
        <ele>91.434933</ele>
        <time>2023-04-26T09:29:17.298Z</time>
      </trkpt>
      <trkpt lat="51.27747" lon="6.83543">
        <ele>91.110253</ele>
        <time>2023-04-26T09:29:19.298Z</time>
      </trkpt>
      <trkpt lat="51.27758" lon="6.83532">
        <ele>90.799901</ele>
        <time>2023-04-26T09:29:21.302Z</time>
      </trkpt>
      <trkpt lat="51.27768" lon="6.83521">
        <ele>90.506317</ele>
        <time>2023-04-26T09:29:23.294Z</time>
      </trkpt>
      <trkpt lat="51.27778" lon="6.8351">
        <ele>90.263439</ele>
        <time>2023-04-26T09:29:25.304Z</time>
      </trkpt>
      <trkpt lat="51.27788" lon="6.835">
        <ele>90.102545</ele>
        <time>2023-04-26T09:29:27.309Z</time>
      </trkpt>
      <trkpt lat="51.27798" lon="6.8349">
        <ele>89.945312</ele>
        <time>2023-04-26T09:29:29.295Z</time>
      </trkpt>
      <trkpt lat="51.27808" lon="6.83481">
        <ele>89.794175</ele>
        <time>2023-04-26T09:29:31.302Z</time>
      </trkpt>
      <trkpt lat="51.27817" lon="6.83471">
        <ele>89.647767</ele>
        <time>2023-04-26T09:29:33.297Z</time>
      </trkpt>
      <trkpt lat="51.27825" lon="6.83463">
        <ele>89.510228</ele>
        <time>2023-04-26T09:29:35.295Z</time>
      </trkpt>
      <trkpt lat="51.27835" lon="6.83454">
        <ele>89.364301</ele>
        <time>2023-04-26T09:29:37.299Z</time>
      </trkpt>
      <trkpt lat="51.27844" lon="6.83445">
        <ele>89.222994</ele>
        <time>2023-04-26T09:29:39.293Z</time>
      </trkpt>
      <trkpt lat="51.27852" lon="6.83435">
        <ele>89.084241</ele>
        <time>2023-04-26T09:29:41.287Z</time>
      </trkpt>
      <trkpt lat="51.27861" lon="6.83427">
        <ele>88.938858</ele>
        <time>2023-04-26T09:29:43.307Z</time>
      </trkpt>
      <trkpt lat="51.27872" lon="6.83427">
        <ele>88.790325</ele>
        <time>2023-04-26T09:29:45.291Z</time>
      </trkpt>
      <trkpt lat="51.27883" lon="6.83433">
        <ele>88.641107</ele>
        <time>2023-04-26T09:29:47.284Z</time>
      </trkpt>
      <trkpt lat="51.27892" lon="6.8344">
        <ele>88.500047</ele>
        <time>2023-04-26T09:29:49.300Z</time>
      </trkpt>
      <trkpt lat="51.27902" lon="6.83445">
        <ele>88.361073</ele>
        <time>2023-04-26T09:29:51.291Z</time>
      </trkpt>
      <trkpt lat="51.27912" lon="6.83449">
        <ele>88.222281</ele>
        <time>2023-04-26T09:29:53.299Z</time>
      </trkpt>
      <trkpt lat="51.27922" lon="6.83454">
        <ele>88.08514</ele>
        <time>2023-04-26T09:29:55.289Z</time>
      </trkpt>
      <trkpt lat="51.27931" lon="6.8346">
        <ele>87.950652</ele>
        <time>2023-04-26T09:29:57.298Z</time>
      </trkpt>
      <trkpt lat="51.27941" lon="6.83466">
        <ele>87.87257</ele>
        <time>2023-04-26T09:29:59.296Z</time>
      </trkpt>
      <trkpt lat="51.2795" lon="6.83472">
        <ele>87.837703</ele>
        <time>2023-04-26T09:30:01.293Z</time>
      </trkpt>
      <trkpt lat="51.27959" lon="6.83479">
        <ele>87.802987</ele>
        <time>2023-04-26T09:30:03.291Z</time>
      </trkpt>
      <trkpt lat="51.27969" lon="6.83484">
        <ele>87.767013</ele>
        <time>2023-04-26T09:30:05.295Z</time>
      </trkpt>
      <trkpt lat="51.27979" lon="6.8349">
        <ele>87.731208</ele>
        <time>2023-04-26T09:30:07.298Z</time>
      </trkpt>
      <trkpt lat="51.27988" lon="6.83497">
        <ele>87.696227</ele>
        <time>2023-04-26T09:30:09.298Z</time>
      </trkpt>
      <trkpt lat="51.27997" lon="6.83505">
        <ele>87.661599</ele>
        <time>2023-04-26T09:30:11.310Z</time>
      </trkpt>
      <trkpt lat="51.28006" lon="6.83511">
        <ele>87.627991</ele>
        <time>2023-04-26T09:30:13.298Z</time>
      </trkpt>
      <trkpt lat="51.28016" lon="6.83517">
        <ele>87.593591</ele>
        <time>2023-04-26T09:30:15.285Z</time>
      </trkpt>
      <trkpt lat="51.28025" lon="6.83522">
        <ele>87.558971</ele>
        <time>2023-04-26T09:30:17.290Z</time>
      </trkpt>
      <trkpt lat="51.28034" lon="6.83526">
        <ele>87.527156</ele>
        <time>2023-04-26T09:30:19.300Z</time>
      </trkpt>
      <trkpt lat="51.28044" lon="6.83532">
        <ele>87.493791</ele>
        <time>2023-04-26T09:30:21.296Z</time>
      </trkpt>
      <trkpt lat="51.28054" lon="6.83537">
        <ele>87.456603</ele>
        <time>2023-04-26T09:30:23.312Z</time>
      </trkpt>
      <trkpt lat="51.28065" lon="6.83542">
        <ele>87.418298</ele>
        <time>2023-04-26T09:30:25.290Z</time>
      </trkpt>
      <trkpt lat="51.28075" lon="6.83544">
        <ele>87.381709</ele>
        <time>2023-04-26T09:30:27.281Z</time>
      </trkpt>
      <trkpt lat="51.28086" lon="6.83547">
        <ele>87.344233</ele>
        <time>2023-04-26T09:30:29.296Z</time>
      </trkpt>
      <trkpt lat="51.28097" lon="6.83551">
        <ele>87.308167</ele>
        <time>2023-04-26T09:30:31.292Z</time>
      </trkpt>
      <trkpt lat="51.28107" lon="6.83556">
        <ele>87.278171</ele>
        <time>2023-04-26T09:30:33.304Z</time>
      </trkpt>
      <trkpt lat="51.28116" lon="6.83561">
        <ele>87.269268</ele>
        <time>2023-04-26T09:30:35.296Z</time>
      </trkpt>
      <trkpt lat="51.28127" lon="6.83566">
        <ele>87.259905</ele>
        <time>2023-04-26T09:30:37.295Z</time>
      </trkpt>
      <trkpt lat="51.28137" lon="6.83572">
        <ele>87.250327</ele>
        <time>2023-04-26T09:30:39.295Z</time>
      </trkpt>
      <trkpt lat="51.28147" lon="6.83578">
        <ele>87.241443</ele>
        <time>2023-04-26T09:30:41.294Z</time>
      </trkpt>
      <trkpt lat="51.28157" lon="6.83583">
        <ele>87.232557</ele>
        <time>2023-04-26T09:30:43.293Z</time>
      </trkpt>
      <trkpt lat="51.28166" lon="6.83588">
        <ele>87.223792</ele>
        <time>2023-04-26T09:30:45.292Z</time>
      </trkpt>
      <trkpt lat="51.28176" lon="6.83594">
        <ele>87.214838</ele>
        <time>2023-04-26T09:30:47.294Z</time>
      </trkpt>
      <trkpt lat="51.28186" lon="6.83599">
        <ele>87.205457</ele>
        <time>2023-04-26T09:30:49.299Z</time>
      </trkpt>
      <trkpt lat="51.28196" lon="6.83605">
        <ele>87.196473</ele>
        <time>2023-04-26T09:30:51.292Z</time>
      </trkpt>
      <trkpt lat="51.28206" lon="6.8361">
        <ele>87.187565</ele>
        <time>2023-04-26T09:30:53.291Z</time>
      </trkpt>
      <trkpt lat="51.28215" lon="6.83617">
        <ele>87.17866</ele>
        <time>2023-04-26T09:30:55.291Z</time>
      </trkpt>
      <trkpt lat="51.28226" lon="6.83622">
        <ele>87.169377</ele>
        <time>2023-04-26T09:30:57.295Z</time>
      </trkpt>
      <trkpt lat="51.28236" lon="6.83627">
        <ele>87.160079</ele>
        <time>2023-04-26T09:30:59.294Z</time>
      </trkpt>
      <trkpt lat="51.28246" lon="6.83633">
        <ele>87.150752</ele>
        <time>2023-04-26T09:31:01.299Z</time>
      </trkpt>
      <trkpt lat="51.28256" lon="6.83639">
        <ele>87.141437</ele>
        <time>2023-04-26T09:31:03.294Z</time>
      </trkpt>
      <trkpt lat="51.28266" lon="6.83645">
        <ele>87.132071</ele>
        <time>2023-04-26T09:31:05.293Z</time>
      </trkpt>
      <trkpt lat="51.28276" lon="6.83651">
        <ele>87.109325</ele>
        <time>2023-04-26T09:31:07.291Z</time>
      </trkpt>
      <trkpt lat="51.28286" lon="6.83657">
        <ele>87.019542</ele>
        <time>2023-04-26T09:31:09.291Z</time>
      </trkpt>
      <trkpt lat="51.28296" lon="6.83662">
        <ele>86.927997</ele>
        <time>2023-04-26T09:31:11.299Z</time>
      </trkpt>
      <trkpt lat="51.28307" lon="6.83668">
        <ele>86.830422</ele>
        <time>2023-04-26T09:31:13.298Z</time>
      </trkpt>
      <trkpt lat="51.28317" lon="6.83675">
        <ele>86.737639</ele>
        <time>2023-04-26T09:31:15.303Z</time>
      </trkpt>
      <trkpt lat="51.28326" lon="6.83681">
        <ele>86.649034</ele>
        <time>2023-04-26T09:31:17.303Z</time>
      </trkpt>
      <trkpt lat="51.28336" lon="6.83686">
        <ele>86.560263</ele>
        <time>2023-04-26T09:31:19.300Z</time>
      </trkpt>
      <trkpt lat="51.28346" lon="6.83693">
        <ele>86.468889</ele>
        <time>2023-04-26T09:31:21.294Z</time>
      </trkpt>
      <trkpt lat="51.28356" lon="6.837">
        <ele>86.380001</ele>
        <time>2023-04-26T09:31:23.293Z</time>
      </trkpt>
      <trkpt lat="51.28365" lon="6.83707">
        <ele>86.293543</ele>
        <time>2023-04-26T09:31:25.280Z</time>
      </trkpt>
      <trkpt lat="51.28374" lon="6.83715">
        <ele>86.204818</ele>
        <time>2023-04-26T09:31:27.284Z</time>
      </trkpt>
      <trkpt lat="51.28383" lon="6.83724">
        <ele>86.113296</ele>
        <time>2023-04-26T09:31:29.308Z</time>
      </trkpt>
      <trkpt lat="51.28392" lon="6.83734">
        <ele>86.018411</ele>
        <time>2023-04-26T09:31:31.272Z</time>
      </trkpt>
      <trkpt lat="51.28401" lon="6.83744">
        <ele>85.929195</ele>
        <time>2023-04-26T09:31:33.302Z</time>
      </trkpt>
      <trkpt lat="51.28408" lon="6.83755">
        <ele>85.839797</ele>
        <time>2023-04-26T09:31:35.281Z</time>
      </trkpt>
      <trkpt lat="51.28416" lon="6.83767">
        <ele>85.750532</ele>
        <time>2023-04-26T09:31:37.286Z</time>
      </trkpt>
      <trkpt lat="51.28423" lon="6.8378">
        <ele>85.658808</ele>
        <time>2023-04-26T09:31:39.293Z</time>
      </trkpt>
      <trkpt lat="51.28431" lon="6.83793">
        <ele>85.680695</ele>
        <time>2023-04-26T09:31:41.304Z</time>
      </trkpt>
      <trkpt lat="51.28438" lon="6.83806">
        <ele>85.990695</ele>
        <time>2023-04-26T09:31:43.294Z</time>
      </trkpt>
      <trkpt lat="51.28447" lon="6.83818">
        <ele>86.300153</ele>
        <time>2023-04-26T09:31:45.296Z</time>
      </trkpt>
      <trkpt lat="51.28455" lon="6.83829">
        <ele>86.604632</ele>
        <time>2023-04-26T09:31:47.297Z</time>
      </trkpt>
      <trkpt lat="51.28464" lon="6.83839">
        <ele>86.89119</ele>
        <time>2023-04-26T09:31:49.301Z</time>
      </trkpt>
      <trkpt lat="51.28472" lon="6.83849">
        <ele>87.16566</ele>
        <time>2023-04-26T09:31:51.287Z</time>
      </trkpt>
      <trkpt lat="51.2848" lon="6.83858">
        <ele>87.427373</ele>
        <time>2023-04-26T09:31:53.316Z</time>
      </trkpt>
      <trkpt lat="51.28488" lon="6.83865">
        <ele>87.683596</ele>
        <time>2023-04-26T09:31:55.304Z</time>
      </trkpt>
      <trkpt lat="51.28498" lon="6.83877">
        <ele>88.027433</ele>
        <time>2023-04-26T09:31:58.291Z</time>
      </trkpt>
      <trkpt lat="51.28506" lon="6.83883">
        <ele>88.279242</ele>
        <time>2023-04-26T09:32:00.307Z</time>
      </trkpt>
      <trkpt lat="51.28517" lon="6.83894">
        <ele>88.630182</ele>
        <time>2023-04-26T09:32:03.286Z</time>
      </trkpt>
      <trkpt lat="51.28527" lon="6.83907">
        <ele>88.979477</ele>
        <time>2023-04-26T09:32:06.289Z</time>
      </trkpt>
      <trkpt lat="51.28537" lon="6.83918">
        <ele>89.311388</ele>
        <time>2023-04-26T09:32:09.307Z</time>
      </trkpt>
      <trkpt lat="51.28548" lon="6.83927">
        <ele>89.638792</ele>
        <time>2023-04-26T09:32:12.295Z</time>
      </trkpt>
      <trkpt lat="51.28559" lon="6.83934">
        <ele>89.98348</ele>
        <time>2023-04-26T09:32:15.290Z</time>
      </trkpt>
      <trkpt lat="51.28571" lon="6.83939">
        <ele>90.311755</ele>
        <time>2023-04-26T09:32:18.286Z</time>
      </trkpt>
      <trkpt lat="51.28582" lon="6.83941">
        <ele>90.690358</ele>
        <time>2023-04-26T09:32:21.305Z</time>
      </trkpt>
      <trkpt lat="51.28593" lon="6.83944">
        <ele>91.249832</ele>
        <time>2023-04-26T09:32:24.295Z</time>
      </trkpt>
      <trkpt lat="51.28606" lon="6.83947">
        <ele>91.860636</ele>
        <time>2023-04-26T09:32:27.297Z</time>
      </trkpt>
      <trkpt lat="51.28618" lon="6.83951">
        <ele>92.441741</ele>
        <time>2023-04-26T09:32:30.290Z</time>
      </trkpt>
      <trkpt lat="51.28629" lon="6.83953">
        <ele>92.977442</ele>
        <time>2023-04-26T09:32:33.289Z</time>
      </trkpt>
      <trkpt lat="51.2864" lon="6.83958">
        <ele>93.507181</ele>
        <time>2023-04-26T09:32:36.283Z</time>
      </trkpt>
      <trkpt lat="51.28651" lon="6.83961">
        <ele>94.052947</ele>
        <time>2023-04-26T09:32:39.342Z</time>
      </trkpt>
      <trkpt lat="51.28663" lon="6.83964">
        <ele>94.63186</ele>
        <time>2023-04-26T09:32:42.300Z</time>
      </trkpt>
      <trkpt lat="51.28674" lon="6.83965">
        <ele>95.157158</ele>
        <time>2023-04-26T09:32:45.302Z</time>
      </trkpt>
      <trkpt lat="51.28685" lon="6.83967">
        <ele>95.702413</ele>
        <time>2023-04-26T09:32:48.290Z</time>
      </trkpt>
      <trkpt lat="51.28696" lon="6.83969">
        <ele>96.228878</ele>
        <time>2023-04-26T09:32:51.311Z</time>
      </trkpt>
      <trkpt lat="51.28708" lon="6.83971">
        <ele>96.814312</ele>
        <time>2023-04-26T09:32:54.296Z</time>
      </trkpt>
      <trkpt lat="51.2872" lon="6.83973">
        <ele>97.39331</ele>
        <time>2023-04-26T09:32:57.306Z</time>
      </trkpt>
      <trkpt lat="51.28731" lon="6.83975">
        <ele>97.943966</ele>
        <time>2023-04-26T09:33:00.300Z</time>
      </trkpt>
      <trkpt lat="51.28741" lon="6.83972">
        <ele>98.427776</ele>
        <time>2023-04-26T09:33:03.275Z</time>
      </trkpt>
      <trkpt lat="51.28757" lon="6.83972">
        <ele>99.1404</ele>
        <time>2023-04-26T09:33:48.300Z</time>
      </trkpt>
      <trkpt lat="51.28767" lon="6.83982">
        <ele>98.953641</ele>
        <time>2023-04-26T09:33:52.305Z</time>
      </trkpt>
      <trkpt lat="51.28778" lon="6.83982">
        <ele>98.776222</ele>
        <time>2023-04-26T09:33:56.300Z</time>
      </trkpt>
      <trkpt lat="51.28788" lon="6.8398">
        <ele>98.611298</ele>
        <time>2023-04-26T09:33:59.318Z</time>
      </trkpt>
      <trkpt lat="51.28798" lon="6.83979">
        <ele>98.457851</ele>
        <time>2023-04-26T09:34:02.292Z</time>
      </trkpt>
      <trkpt lat="51.28808" lon="6.83978">
        <ele>98.290047</ele>
        <time>2023-04-26T09:34:05.295Z</time>
      </trkpt>
      <trkpt lat="51.28821" lon="6.83975">
        <ele>98.080418</ele>
        <time>2023-04-26T09:34:08.314Z</time>
      </trkpt>
      <trkpt lat="51.28835" lon="6.8397">
        <ele>97.857816</ele>
        <time>2023-04-26T09:34:11.308Z</time>
      </trkpt>
      <trkpt lat="51.28844" lon="6.83968">
        <ele>97.704683</ele>
        <time>2023-04-26T09:34:13.311Z</time>
      </trkpt>
      <trkpt lat="51.28853" lon="6.83965">
        <ele>97.556713</ele>
        <time>2023-04-26T09:34:15.307Z</time>
      </trkpt>
      <trkpt lat="51.28863" lon="6.83961">
        <ele>97.398307</ele>
        <time>2023-04-26T09:34:17.271Z</time>
      </trkpt>
      <trkpt lat="51.28875" lon="6.83957">
        <ele>97.19286</ele>
        <time>2023-04-26T09:34:20.302Z</time>
      </trkpt>
      <trkpt lat="51.28889" lon="6.83953">
        <ele>96.971816</ele>
        <time>2023-04-26T09:34:23.273Z</time>
      </trkpt>
      <trkpt lat="51.28899" lon="6.8395">
        <ele>96.810771</ele>
        <time>2023-04-26T09:34:25.294Z</time>
      </trkpt>
      <trkpt lat="51.28909" lon="6.83949">
        <ele>96.653144</ele>
        <time>2023-04-26T09:34:27.294Z</time>
      </trkpt>
      <trkpt lat="51.28919" lon="6.83947">
        <ele>96.494157</ele>
        <time>2023-04-26T09:34:29.299Z</time>
      </trkpt>
      <trkpt lat="51.28929" lon="6.83945">
        <ele>96.325193</ele>
        <time>2023-04-26T09:34:31.294Z</time>
      </trkpt>
      <trkpt lat="51.28943" lon="6.83943">
        <ele>96.079798</ele>
        <time>2023-04-26T09:34:34.298Z</time>
      </trkpt>
      <trkpt lat="51.28953" lon="6.8394">
        <ele>95.895797</ele>
        <time>2023-04-26T09:34:36.277Z</time>
      </trkpt>
      <trkpt lat="51.28963" lon="6.83938">
        <ele>95.720322</ele>
        <time>2023-04-26T09:34:38.293Z</time>
      </trkpt>
      <trkpt lat="51.28973" lon="6.83937">
        <ele>95.54311</ele>
        <time>2023-04-26T09:34:40.307Z</time>
      </trkpt>
      <trkpt lat="51.28983" lon="6.83935">
        <ele>95.366034</ele>
        <time>2023-04-26T09:34:42.305Z</time>
      </trkpt>
      <trkpt lat="51.28995" lon="6.83932">
        <ele>95.151878</ele>
        <time>2023-04-26T09:34:45.302Z</time>
      </trkpt>
      <trkpt lat="51.29003" lon="6.83925">
        <ele>94.978583</ele>
        <time>2023-04-26T09:34:49.290Z</time>
      </trkpt>
      <trkpt lat="51.29012" lon="6.83924">
        <ele>94.81525</ele>
        <time>2023-04-26T09:34:53.298Z</time>
      </trkpt>
      <trkpt lat="51.29022" lon="6.83919">
        <ele>94.642925</ele>
        <time>2023-04-26T09:35:06.293Z</time>
      </trkpt>
      <trkpt lat="51.29031" lon="6.83925">
        <ele>94.461131</ele>
        <time>2023-04-26T09:35:10.296Z</time>
      </trkpt>
      <trkpt lat="51.2904" lon="6.83936">
        <ele>94.266269</ele>
        <time>2023-04-26T09:35:13.296Z</time>
      </trkpt>
      <trkpt lat="51.2905" lon="6.83945">
        <ele>94.051711</ele>
        <time>2023-04-26T09:35:16.288Z</time>
      </trkpt>
      <trkpt lat="51.29063" lon="6.8395">
        <ele>93.81447</ele>
        <time>2023-04-26T09:35:19.277Z</time>
      </trkpt>
      <trkpt lat="51.29072" lon="6.83956">
        <ele>93.637676</ele>
        <time>2023-04-26T09:35:21.319Z</time>
      </trkpt>
      <trkpt lat="51.29083" lon="6.83961">
        <ele>93.444769</ele>
        <time>2023-04-26T09:35:23.300Z</time>
      </trkpt>
      <trkpt lat="51.29091" lon="6.83966">
        <ele>93.278765</ele>
        <time>2023-04-26T09:35:25.298Z</time>
      </trkpt>
      <trkpt lat="51.291" lon="6.83972">
        <ele>93.114293</ele>
        <time>2023-04-26T09:35:27.300Z</time>
      </trkpt>
      <trkpt lat="51.29109" lon="6.83981">
        <ele>93.030197</ele>
        <time>2023-04-26T09:35:30.293Z</time>
      </trkpt>
      <trkpt lat="51.29118" lon="6.83977">
        <ele>92.995403</ele>
        <time>2023-04-26T09:35:36.297Z</time>
      </trkpt>
      <trkpt lat="51.29122" lon="6.83994">
        <ele>92.953712</ele>
        <time>2023-04-26T09:35:44.293Z</time>
      </trkpt>
      <trkpt lat="51.29126" lon="6.84008">
        <ele>92.915715</ele>
        <time>2023-04-26T09:35:47.297Z</time>
      </trkpt>
      <trkpt lat="51.29136" lon="6.8402">
        <ele>92.867332</ele>
        <time>2023-04-26T09:35:50.307Z</time>
      </trkpt>
      <trkpt lat="51.29147" lon="6.84031">
        <ele>92.819519</ele>
        <time>2023-04-26T09:35:53.304Z</time>
      </trkpt>
      <trkpt lat="51.29157" lon="6.84041">
        <ele>92.773388</ele>
        <time>2023-04-26T09:35:56.296Z</time>
      </trkpt>
      <trkpt lat="51.29168" lon="6.84053">
        <ele>92.723137</ele>
        <time>2023-04-26T09:35:59.298Z</time>
      </trkpt>
      <trkpt lat="51.29177" lon="6.84064">
        <ele>92.678212</ele>
        <time>2023-04-26T09:36:02.281Z</time>
      </trkpt>
      <trkpt lat="51.29186" lon="6.84072">
        <ele>92.642056</ele>
        <time>2023-04-26T09:36:04.304Z</time>
      </trkpt>
      <trkpt lat="51.29196" lon="6.84083">
        <ele>92.592983</ele>
        <time>2023-04-26T09:36:07.308Z</time>
      </trkpt>
      <trkpt lat="51.29206" lon="6.84094">
        <ele>92.547156</ele>
        <time>2023-04-26T09:36:10.311Z</time>
      </trkpt>
      <trkpt lat="51.29216" lon="6.84106">
        <ele>92.499185</ele>
        <time>2023-04-26T09:36:13.311Z</time>
      </trkpt>
      <trkpt lat="51.29227" lon="6.84115">
        <ele>92.450805</ele>
        <time>2023-04-26T09:36:16.297Z</time>
      </trkpt>
      <trkpt lat="51.29236" lon="6.84122">
        <ele>92.415034</ele>
        <time>2023-04-26T09:36:19.286Z</time>
      </trkpt>
      <trkpt lat="51.29246" lon="6.84131">
        <ele>92.374915</ele>
        <time>2023-04-26T09:36:41.295Z</time>
      </trkpt>
      <trkpt lat="51.29256" lon="6.84142">
        <ele>92.415767</ele>
        <time>2023-04-26T09:36:45.304Z</time>
      </trkpt>
      <trkpt lat="51.29265" lon="6.8415">
        <ele>92.450135</ele>
        <time>2023-04-26T09:36:48.296Z</time>
      </trkpt>
      <trkpt lat="51.29275" lon="6.84157">
        <ele>92.488184</ele>
        <time>2023-04-26T09:36:51.296Z</time>
      </trkpt>
      <trkpt lat="51.29284" lon="6.84167">
        <ele>92.525881</ele>
        <time>2023-04-26T09:36:54.303Z</time>
      </trkpt>
      <trkpt lat="51.29295" lon="6.84176">
        <ele>92.570256</ele>
        <time>2023-04-26T09:36:57.296Z</time>
      </trkpt>
      <trkpt lat="51.29304" lon="6.84188">
        <ele>92.610304</ele>
        <time>2023-04-26T09:37:00.299Z</time>
      </trkpt>
      <trkpt lat="51.29313" lon="6.84198">
        <ele>92.649689</ele>
        <time>2023-04-26T09:37:03.301Z</time>
      </trkpt>
      <trkpt lat="51.29322" lon="6.84212">
        <ele>92.691699</ele>
        <time>2023-04-26T09:37:06.310Z</time>
      </trkpt>
      <trkpt lat="51.29331" lon="6.84224">
        <ele>92.732666</ele>
        <time>2023-04-26T09:37:09.292Z</time>
      </trkpt>
      <trkpt lat="51.29341" lon="6.84236">
        <ele>92.777301</ele>
        <time>2023-04-26T09:37:12.293Z</time>
      </trkpt>
      <trkpt lat="51.29349" lon="6.84249">
        <ele>92.818023</ele>
        <time>2023-04-26T09:37:15.314Z</time>
      </trkpt>
      <trkpt lat="51.29358" lon="6.84263">
        <ele>92.859387</ele>
        <time>2023-04-26T09:37:18.301Z</time>
      </trkpt>
      <trkpt lat="51.29366" lon="6.84274">
        <ele>92.895366</ele>
        <time>2023-04-26T09:37:21.281Z</time>
      </trkpt>
      <trkpt lat="51.29373" lon="6.84283">
        <ele>92.92903</ele>
        <time>2023-04-26T09:37:24.297Z</time>
      </trkpt>
      <trkpt lat="51.29382" lon="6.8429">
        <ele>92.961442</ele>
        <time>2023-04-26T09:37:27.289Z</time>
      </trkpt>
      <trkpt lat="51.29395" lon="6.84306">
        <ele>93.337734</ele>
        <time>2023-04-26T09:37:54.294Z</time>
      </trkpt>
      <trkpt lat="51.29401" lon="6.84319">
        <ele>93.871318</ele>
        <time>2023-04-26T09:37:58.288Z</time>
      </trkpt>
      <trkpt lat="51.29399" lon="6.84349">
        <ele>94.85675</ele>
        <time>2023-04-26T09:39:54.297Z</time>
      </trkpt>
      <trkpt lat="51.29406" lon="6.84363">
        <ele>95.43667</ele>
        <time>2023-04-26T09:39:57.294Z</time>
      </trkpt>
      <trkpt lat="51.29413" lon="6.84379">
        <ele>96.066321</ele>
        <time>2023-04-26T09:40:00.278Z</time>
      </trkpt>
      <trkpt lat="51.29421" lon="6.84395">
        <ele>96.756525</ele>
        <time>2023-04-26T09:40:03.296Z</time>
      </trkpt>
      <trkpt lat="51.2943" lon="6.84405">
        <ele>97.318141</ele>
        <time>2023-04-26T09:40:06.294Z</time>
      </trkpt>
      <trkpt lat="51.2944" lon="6.84418">
        <ele>97.986215</ele>
        <time>2023-04-26T09:40:09.290Z</time>
      </trkpt>
      <trkpt lat="51.2945" lon="6.84431">
        <ele>98.660755</ele>
        <time>2023-04-26T09:40:12.291Z</time>
      </trkpt>
      <trkpt lat="51.29458" lon="6.84447">
        <ele>99.340035</ele>
        <time>2023-04-26T09:40:15.279Z</time>
      </trkpt>
      <trkpt lat="51.29467" lon="6.84461">
        <ele>99.979521</ele>
        <time>2023-04-26T09:40:18.272Z</time>
      </trkpt>
      <trkpt lat="51.29475" lon="6.84476">
        <ele>100.642131</ele>
        <time>2023-04-26T09:40:21.302Z</time>
      </trkpt>
      <trkpt lat="51.29483" lon="6.8449">
        <ele>101.264958</ele>
        <time>2023-04-26T09:40:24.291Z</time>
      </trkpt>
      <trkpt lat="51.29492" lon="6.84504">
        <ele>101.902308</ele>
        <time>2023-04-26T09:40:27.293Z</time>
      </trkpt>
      <trkpt lat="51.29499" lon="6.8452">
        <ele>102.449322</ele>
        <time>2023-04-26T09:40:30.288Z</time>
      </trkpt>
      <trkpt lat="51.29507" lon="6.84536">
        <ele>102.615873</ele>
        <time>2023-04-26T09:40:33.298Z</time>
      </trkpt>
      <trkpt lat="51.29515" lon="6.84548">
        <ele>102.770263</ele>
        <time>2023-04-26T09:40:36.294Z</time>
      </trkpt>
      <trkpt lat="51.29523" lon="6.84562">
        <ele>102.934959</ele>
        <time>2023-04-26T09:40:39.293Z</time>
      </trkpt>
      <trkpt lat="51.29531" lon="6.84576">
        <ele>103.099981</ele>
        <time>2023-04-26T09:40:42.307Z</time>
      </trkpt>
      <trkpt lat="51.29539" lon="6.84589">
        <ele>103.252424</ele>
        <time>2023-04-26T09:40:45.292Z</time>
      </trkpt>
      <trkpt lat="51.29547" lon="6.84603">
        <ele>103.418715</ele>
        <time>2023-04-26T09:40:48.312Z</time>
      </trkpt>
      <trkpt lat="51.29556" lon="6.84617">
        <ele>103.594161</ele>
        <time>2023-04-26T09:40:51.296Z</time>
      </trkpt>
      <trkpt lat="51.29565" lon="6.84632">
        <ele>103.774568</ele>
        <time>2023-04-26T09:40:54.294Z</time>
      </trkpt>
      <trkpt lat="51.29573" lon="6.84647">
        <ele>103.944249</ele>
        <time>2023-04-26T09:40:57.287Z</time>
      </trkpt>
      <trkpt lat="51.2958" lon="6.84658">
        <ele>104.078458</ele>
        <time>2023-04-26T09:40:59.299Z</time>
      </trkpt>
      <trkpt lat="51.29587" lon="6.84671">
        <ele>104.219457</ele>
        <time>2023-04-26T09:41:02.297Z</time>
      </trkpt>
      <trkpt lat="51.29593" lon="6.84683">
        <ele>104.356289</ele>
        <time>2023-04-26T09:41:05.311Z</time>
      </trkpt>
      <trkpt lat="51.29599" lon="6.84695">
        <ele>104.490736</ele>
        <time>2023-04-26T09:41:08.286Z</time>
      </trkpt>
      <trkpt lat="51.29606" lon="6.84707">
        <ele>104.629033</ele>
        <time>2023-04-26T09:41:11.277Z</time>
      </trkpt>
      <trkpt lat="51.29612" lon="6.84719">
        <ele>104.765193</ele>
        <time>2023-04-26T09:41:14.298Z</time>
      </trkpt>
      <trkpt lat="51.2962" lon="6.8473">
        <ele>104.885674</ele>
        <time>2023-04-26T09:41:17.295Z</time>
      </trkpt>
      <trkpt lat="51.29627" lon="6.8474">
        <ele>104.889284</ele>
        <time>2023-04-26T09:41:20.264Z</time>
      </trkpt>
      <trkpt lat="51.29646" lon="6.84747">
        <ele>104.896109</ele>
        <time>2023-04-26T09:41:47.306Z</time>
      </trkpt>
      <trkpt lat="51.29656" lon="6.84737">
        <ele>104.900362</ele>
        <time>2023-04-26T09:41:50.289Z</time>
      </trkpt>
      <trkpt lat="51.29668" lon="6.8473">
        <ele>104.904853</ele>
        <time>2023-04-26T09:41:53.305Z</time>
      </trkpt>
      <trkpt lat="51.2968" lon="6.84723">
        <ele>104.909228</ele>
        <time>2023-04-26T09:41:56.281Z</time>
      </trkpt>
      <trkpt lat="51.29692" lon="6.84717">
        <ele>104.913758</ele>
        <time>2023-04-26T09:41:59.297Z</time>
      </trkpt>
      <trkpt lat="51.29697" lon="6.84731">
        <ele>104.917429</ele>
        <time>2023-04-26T09:42:02.282Z</time>
      </trkpt>
      <trkpt lat="51.29703" lon="6.84745">
        <ele>104.921256</ele>
        <time>2023-04-26T09:42:06.307Z</time>
      </trkpt>
      <trkpt lat="51.29708" lon="6.8476">
        <ele>104.92496</ele>
        <time>2023-04-26T09:42:10.311Z</time>
      </trkpt>
      <trkpt lat="51.29711" lon="6.84776">
        <ele>104.928667</ele>
        <time>2023-04-26T09:42:14.302Z</time>
      </trkpt>
      <trkpt lat="51.29715" lon="6.84792">
        <ele>104.932432</ele>
        <time>2023-04-26T09:42:18.298Z</time>
      </trkpt>
      <trkpt lat="51.29719" lon="6.84807">
        <ele>104.936161</ele>
        <time>2023-04-26T09:42:22.305Z</time>
      </trkpt>
      <trkpt lat="51.29723" lon="6.84823">
        <ele>104.940117</ele>
        <time>2023-04-26T09:42:26.284Z</time>
      </trkpt>
      <trkpt lat="51.29728" lon="6.8484">
        <ele>104.944266</ele>
        <time>2023-04-26T09:42:30.314Z</time>
      </trkpt>
      <trkpt lat="51.29733" lon="6.84857">
        <ele>104.948307</ele>
        <time>2023-04-26T09:42:34.295Z</time>
      </trkpt>
      <trkpt lat="51.29738" lon="6.84869">
        <ele>105.066259</ele>
        <time>2023-04-26T09:42:37.304Z</time>
      </trkpt>
      <trkpt lat="51.29742" lon="6.84881">
        <ele>105.240212</ele>
        <time>2023-04-26T09:42:40.305Z</time>
      </trkpt>
      <trkpt lat="51.29746" lon="6.84897">
        <ele>105.444596</ele>
        <time>2023-04-26T09:42:44.275Z</time>
      </trkpt>
      <trkpt lat="51.29748" lon="6.84912">
        <ele>105.61918</ele>
        <time>2023-04-26T09:42:47.298Z</time>
      </trkpt>
      <trkpt lat="51.29752" lon="6.84926">
        <ele>105.804683</ele>
        <time>2023-04-26T09:42:50.302Z</time>
      </trkpt>
      <trkpt lat="51.29757" lon="6.84939">
        <ele>105.98876</ele>
        <time>2023-04-26T09:42:53.305Z</time>
      </trkpt>
      <trkpt lat="51.29762" lon="6.84954">
        <ele>106.193097</ele>
        <time>2023-04-26T09:42:57.279Z</time>
      </trkpt>
      <trkpt lat="51.29768" lon="6.84967">
        <ele>106.384432</ele>
        <time>2023-04-26T09:43:01.314Z</time>
      </trkpt>
      <trkpt lat="51.29773" lon="6.84981">
        <ele>106.577468</ele>
        <time>2023-04-26T09:43:05.309Z</time>
      </trkpt>
      <trkpt lat="51.29777" lon="6.84995">
        <ele>106.765669</ele>
        <time>2023-04-26T09:43:10.276Z</time>
      </trkpt>
      <trkpt lat="51.29784" lon="6.85009">
        <ele>106.983251</ele>
        <time>2023-04-26T09:43:15.298Z</time>
      </trkpt>
      <trkpt lat="51.29789" lon="6.85027">
        <ele>107.207408</ele>
        <time>2023-04-26T09:43:19.284Z</time>
      </trkpt>
      <trkpt lat="51.29792" lon="6.85041">
        <ele>107.387782</ele>
        <time>2023-04-26T09:43:22.303Z</time>
      </trkpt>
      <trkpt lat="51.29795" lon="6.85056">
        <ele>107.582207</ele>
        <time>2023-04-26T09:43:25.269Z</time>
      </trkpt>
      <trkpt lat="51.29799" lon="6.85073">
        <ele>107.80076</ele>
        <time>2023-04-26T09:43:28.292Z</time>
      </trkpt>
      <trkpt lat="51.29802" lon="6.85089">
        <ele>108.004354</ele>
        <time>2023-04-26T09:43:31.296Z</time>
      </trkpt>
      <trkpt lat="51.29807" lon="6.85104">
        <ele>108.197021</ele>
        <time>2023-04-26T09:43:34.291Z</time>
      </trkpt>
      <trkpt lat="51.29811" lon="6.8512">
        <ele>108.415481</ele>
        <time>2023-04-26T09:43:37.289Z</time>
      </trkpt>
      <trkpt lat="51.29814" lon="6.85136">
        <ele>108.869823</ele>
        <time>2023-04-26T09:43:40.301Z</time>
      </trkpt>
      <trkpt lat="51.29817" lon="6.85152">
        <ele>109.321318</ele>
        <time>2023-04-26T09:43:43.283Z</time>
      </trkpt>
      <trkpt lat="51.2982" lon="6.85168">
        <ele>109.748763</ele>
        <time>2023-04-26T09:43:46.284Z</time>
      </trkpt>
      <trkpt lat="51.29823" lon="6.85185">
        <ele>110.235964</ele>
        <time>2023-04-26T09:43:50.292Z</time>
      </trkpt>
      <trkpt lat="51.29825" lon="6.85204">
        <ele>110.756277</ele>
        <time>2023-04-26T09:43:54.290Z</time>
      </trkpt>
      <trkpt lat="51.29826" lon="6.85221">
        <ele>111.19324</ele>
        <time>2023-04-26T09:43:57.289Z</time>
      </trkpt>
      <trkpt lat="51.29828" lon="6.85236">
        <ele>111.624425</ele>
        <time>2023-04-26T09:44:00.274Z</time>
      </trkpt>
      <trkpt lat="51.29832" lon="6.85252">
        <ele>112.076359</ele>
        <time>2023-04-26T09:44:03.293Z</time>
      </trkpt>
      <trkpt lat="51.29835" lon="6.85268">
        <ele>112.519301</ele>
        <time>2023-04-26T09:44:06.279Z</time>
      </trkpt>
      <trkpt lat="51.2984" lon="6.85283">
        <ele>112.962735</ele>
        <time>2023-04-26T09:44:09.300Z</time>
      </trkpt>
      <trkpt lat="51.29844" lon="6.853">
        <ele>113.444172</ele>
        <time>2023-04-26T09:44:13.286Z</time>
      </trkpt>
      <trkpt lat="51.29848" lon="6.85313">
        <ele>113.838599</ele>
        <time>2023-04-26T09:44:16.291Z</time>
      </trkpt>
      <trkpt lat="51.29853" lon="6.85329">
        <ele>114.322167</ele>
        <time>2023-04-26T09:44:20.269Z</time>
      </trkpt>
      <trkpt lat="51.29859" lon="6.85342">
        <ele>114.762125</ele>
        <time>2023-04-26T09:44:23.299Z</time>
      </trkpt>
      <trkpt lat="51.29864" lon="6.85356">
        <ele>115.199469</ele>
        <time>2023-04-26T09:44:26.292Z</time>
      </trkpt>
      <trkpt lat="51.29872" lon="6.85364">
        <ele>115.584792</ele>
        <time>2023-04-26T09:44:31.287Z</time>
      </trkpt>
      <trkpt lat="51.29884" lon="6.85365">
        <ele>116.087927</ele>
        <time>2023-04-26T09:44:36.296Z</time>
      </trkpt>
      <trkpt lat="51.29895" lon="6.85366">
        <ele>116.193491</ele>
        <time>2023-04-26T09:44:39.330Z</time>
      </trkpt>
      <trkpt lat="51.29904" lon="6.85368">
        <ele>116.292218</ele>
        <time>2023-04-26T09:44:42.278Z</time>
      </trkpt>
      <trkpt lat="51.29915" lon="6.8537">
        <ele>116.40118</ele>
        <time>2023-04-26T09:44:45.271Z</time>
      </trkpt>
      <trkpt lat="51.29929" lon="6.85373">
        <ele>116.532389</ele>
        <time>2023-04-26T09:44:48.296Z</time>
      </trkpt>
      <trkpt lat="51.29942" lon="6.85375">
        <ele>116.663308</ele>
        <time>2023-04-26T09:44:51.313Z</time>
      </trkpt>
      <trkpt lat="51.29951" lon="6.85378">
        <ele>116.75685</ele>
        <time>2023-04-26T09:44:53.301Z</time>
      </trkpt>
      <trkpt lat="51.29961" lon="6.85382">
        <ele>116.854664</ele>
        <time>2023-04-26T09:44:55.296Z</time>
      </trkpt>
      <trkpt lat="51.29971" lon="6.85386">
        <ele>116.963149</ele>
        <time>2023-04-26T09:44:57.304Z</time>
      </trkpt>
      <trkpt lat="51.29983" lon="6.85391">
        <ele>117.083994</ele>
        <time>2023-04-26T09:44:59.301Z</time>
      </trkpt>
      <trkpt lat="51.29993" lon="6.85393">
        <ele>117.185047</ele>
        <time>2023-04-26T09:45:01.297Z</time>
      </trkpt>
      <trkpt lat="51.30004" lon="6.85396">
        <ele>117.290106</ele>
        <time>2023-04-26T09:45:03.293Z</time>
      </trkpt>
      <trkpt lat="51.30014" lon="6.85398">
        <ele>117.388656</ele>
        <time>2023-04-26T09:45:05.297Z</time>
      </trkpt>
      <trkpt lat="51.30023" lon="6.85402">
        <ele>117.486002</ele>
        <time>2023-04-26T09:45:07.294Z</time>
      </trkpt>
      <trkpt lat="51.30035" lon="6.85401">
        <ele>117.598608</ele>
        <time>2023-04-26T09:45:10.282Z</time>
      </trkpt>
      <trkpt lat="51.30048" lon="6.85405">
        <ele>117.730434</ele>
        <time>2023-04-26T09:45:13.290Z</time>
      </trkpt>
      <trkpt lat="51.30059" lon="6.85409">
        <ele>117.845918</ele>
        <time>2023-04-26T09:45:15.297Z</time>
      </trkpt>
      <trkpt lat="51.30072" lon="6.85413">
        <ele>117.801003</ele>
        <time>2023-04-26T09:45:18.302Z</time>
      </trkpt>
      <trkpt lat="51.30083" lon="6.85417">
        <ele>117.745545</ele>
        <time>2023-04-26T09:45:21.276Z</time>
      </trkpt>
      <trkpt lat="51.30093" lon="6.85416">
        <ele>117.699438</ele>
        <time>2023-04-26T09:45:23.306Z</time>
      </trkpt>
      <trkpt lat="51.30103" lon="6.85414">
        <ele>117.652093</ele>
        <time>2023-04-26T09:45:25.294Z</time>
      </trkpt>
      <trkpt lat="51.30115" lon="6.85418">
        <ele>117.594955</ele>
        <time>2023-04-26T09:45:28.298Z</time>
      </trkpt>
      <trkpt lat="51.30123" lon="6.85425">
        <ele>117.551749</ele>
        <time>2023-04-26T09:45:30.281Z</time>
      </trkpt>
      <trkpt lat="51.30132" lon="6.85429">
        <ele>117.508437</ele>
        <time>2023-04-26T09:45:32.276Z</time>
      </trkpt>
      <trkpt lat="51.30144" lon="6.85438">
        <ele>117.442311</ele>
        <time>2023-04-26T09:45:35.283Z</time>
      </trkpt>
      <trkpt lat="51.30154" lon="6.85444">
        <ele>117.394434</ele>
        <time>2023-04-26T09:45:37.302Z</time>
      </trkpt>
      <trkpt lat="51.30162" lon="6.8545">
        <ele>117.350841</ele>
        <time>2023-04-26T09:45:39.297Z</time>
      </trkpt>
      <trkpt lat="51.30172" lon="6.85458">
        <ele>117.298693</ele>
        <time>2023-04-26T09:45:41.294Z</time>
      </trkpt>
      <trkpt lat="51.3018" lon="6.85467">
        <ele>117.24897</ele>
        <time>2023-04-26T09:45:43.332Z</time>
      </trkpt>
      <trkpt lat="51.3019" lon="6.85475">
        <ele>117.199744</ele>
        <time>2023-04-26T09:45:45.289Z</time>
      </trkpt>
      <trkpt lat="51.30202" lon="6.85484">
        <ele>117.137497</ele>
        <time>2023-04-26T09:45:48.300Z</time>
      </trkpt>
      <trkpt lat="51.30213" lon="6.85493">
        <ele>117.078362</ele>
        <time>2023-04-26T09:45:51.311Z</time>
      </trkpt>
      <trkpt lat="51.30224" lon="6.85501">
        <ele>117.019152</ele>
        <time>2023-04-26T09:45:54.297Z</time>
      </trkpt>
      <trkpt lat="51.30234" lon="6.85511">
        <ele>116.6833</ele>
        <time>2023-04-26T09:45:57.306Z</time>
      </trkpt>
      <trkpt lat="51.3024" lon="6.85526">
        <ele>116.279342</ele>
        <time>2023-04-26T09:46:00.276Z</time>
      </trkpt>
      <trkpt lat="51.30249" lon="6.85536">
        <ele>115.890537</ele>
        <time>2023-04-26T09:46:03.275Z</time>
      </trkpt>
      <trkpt lat="51.30258" lon="6.85544">
        <ele>115.50593</ele>
        <time>2023-04-26T09:46:06.281Z</time>
      </trkpt>
      <trkpt lat="51.30269" lon="6.85545">
        <ele>115.085099</ele>
        <time>2023-04-26T09:46:09.294Z</time>
      </trkpt>
      <trkpt lat="51.3028" lon="6.85543">
        <ele>114.685906</ele>
        <time>2023-04-26T09:46:12.288Z</time>
      </trkpt>
      <trkpt lat="51.30292" lon="6.85552">
        <ele>114.182268</ele>
        <time>2023-04-26T09:46:15.290Z</time>
      </trkpt>
      <trkpt lat="51.30301" lon="6.85558">
        <ele>113.816648</ele>
        <time>2023-04-26T09:46:17.315Z</time>
      </trkpt>
      <trkpt lat="51.30311" lon="6.85564">
        <ele>113.43198</ele>
        <time>2023-04-26T09:46:19.307Z</time>
      </trkpt>
      <trkpt lat="51.30321" lon="6.85569">
        <ele>113.04634</ele>
        <time>2023-04-26T09:46:21.289Z</time>
      </trkpt>
      <trkpt lat="51.30331" lon="6.85576">
        <ele>112.644267</ele>
        <time>2023-04-26T09:46:23.293Z</time>
      </trkpt>
      <trkpt lat="51.30341" lon="6.85581">
        <ele>112.254973</ele>
        <time>2023-04-26T09:46:25.305Z</time>
      </trkpt>
      <trkpt lat="51.30351" lon="6.85588">
        <ele>111.841943</ele>
        <time>2023-04-26T09:46:27.291Z</time>
      </trkpt>
      <trkpt lat="51.30361" lon="6.85593">
        <ele>111.438584</ele>
        <time>2023-04-26T09:46:29.292Z</time>
      </trkpt>
      <trkpt lat="51.30371" lon="6.85599">
        <ele>111.047741</ele>
        <time>2023-04-26T09:46:31.313Z</time>
      </trkpt>
      <trkpt lat="51.30381" lon="6.85603">
        <ele>110.658903</ele>
        <time>2023-04-26T09:46:33.300Z</time>
      </trkpt>
      <trkpt lat="51.30391" lon="6.85607">
        <ele>110.311242</ele>
        <time>2023-04-26T09:46:35.316Z</time>
      </trkpt>
      <trkpt lat="51.304" lon="6.85612">
        <ele>110.087449</ele>
        <time>2023-04-26T09:46:37.297Z</time>
      </trkpt>
      <trkpt lat="51.3041" lon="6.85615">
        <ele>109.865498</ele>
        <time>2023-04-26T09:46:39.296Z</time>
      </trkpt>
      <trkpt lat="51.3042" lon="6.85619">
        <ele>109.635969</ele>
        <time>2023-04-26T09:46:41.292Z</time>
      </trkpt>
      <trkpt lat="51.3043" lon="6.85623">
        <ele>109.410635</ele>
        <time>2023-04-26T09:46:43.312Z</time>
      </trkpt>
      <trkpt lat="51.30439" lon="6.85626">
        <ele>109.187484</ele>
        <time>2023-04-26T09:46:45.292Z</time>
      </trkpt>
      <trkpt lat="51.30449" lon="6.85629">
        <ele>108.963881</ele>
        <time>2023-04-26T09:46:47.295Z</time>
      </trkpt>
      <trkpt lat="51.30459" lon="6.85631">
        <ele>108.739043</ele>
        <time>2023-04-26T09:46:49.291Z</time>
      </trkpt>
      <trkpt lat="51.3047" lon="6.85633">
        <ele>108.503951</ele>
        <time>2023-04-26T09:46:51.321Z</time>
      </trkpt>
      <trkpt lat="51.30481" lon="6.85635">
        <ele>108.244719</ele>
        <time>2023-04-26T09:46:53.295Z</time>
      </trkpt>
      <trkpt lat="51.30492" lon="6.85636">
        <ele>107.990728</ele>
        <time>2023-04-26T09:46:55.287Z</time>
      </trkpt>
      <trkpt lat="51.30502" lon="6.85637">
        <ele>107.766192</ele>
        <time>2023-04-26T09:46:57.299Z</time>
      </trkpt>
      <trkpt lat="51.30513" lon="6.85639">
        <ele>107.518904</ele>
        <time>2023-04-26T09:46:59.313Z</time>
      </trkpt>
      <trkpt lat="51.30524" lon="6.8564">
        <ele>107.278427</ele>
        <time>2023-04-26T09:47:01.303Z</time>
      </trkpt>
      <trkpt lat="51.30536" lon="6.85636">
        <ele>107.001537</ele>
        <time>2023-04-26T09:47:03.295Z</time>
      </trkpt>
      <trkpt lat="51.30548" lon="6.85632">
        <ele>106.723523</ele>
        <time>2023-04-26T09:47:05.302Z</time>
      </trkpt>
      <trkpt lat="51.30561" lon="6.85628">
        <ele>106.426854</ele>
        <time>2023-04-26T09:47:07.289Z</time>
      </trkpt>
      <trkpt lat="51.30573" lon="6.85624">
        <ele>106.201489</ele>
        <time>2023-04-26T09:47:09.298Z</time>
      </trkpt>
      <trkpt lat="51.30584" lon="6.8562">
        <ele>106.042206</ele>
        <time>2023-04-26T09:47:11.283Z</time>
      </trkpt>
      <trkpt lat="51.30594" lon="6.85617">
        <ele>105.902894</ele>
        <time>2023-04-26T09:47:13.308Z</time>
      </trkpt>
      <trkpt lat="51.30605" lon="6.85614">
        <ele>105.73725</ele>
        <time>2023-04-26T09:47:16.280Z</time>
      </trkpt>
      <trkpt lat="51.30615" lon="6.85609">
        <ele>105.584149</ele>
        <time>2023-04-26T09:47:20.277Z</time>
      </trkpt>
      <trkpt lat="51.30623" lon="6.85602">
        <ele>105.454109</ele>
        <time>2023-04-26T09:47:25.274Z</time>
      </trkpt>
      <trkpt lat="51.30631" lon="6.85593">
        <ele>105.317951</ele>
        <time>2023-04-26T09:47:31.304Z</time>
      </trkpt>
      <trkpt lat="51.3062" lon="6.8559">
        <ele>105.160654</ele>
        <time>2023-04-26T09:47:35.279Z</time>
      </trkpt>
      <trkpt lat="51.30627" lon="6.85579">
        <ele>105.020972</ele>
        <time>2023-04-26T09:47:45.296Z</time>
      </trkpt>
      <trkpt lat="51.30636" lon="6.85573">
        <ele>104.879999</ele>
        <time>2023-04-26T09:47:48.278Z</time>
      </trkpt>
      <trkpt lat="51.30646" lon="6.85566">
        <ele>104.725745</ele>
        <time>2023-04-26T09:47:51.302Z</time>
      </trkpt>
      <trkpt lat="51.30656" lon="6.85558">
        <ele>104.566986</ele>
        <time>2023-04-26T09:47:54.284Z</time>
      </trkpt>
      <trkpt lat="51.30666" lon="6.85552">
        <ele>104.406063</ele>
        <time>2023-04-26T09:47:57.302Z</time>
      </trkpt>
      <trkpt lat="51.30676" lon="6.85547">
        <ele>104.262434</ele>
        <time>2023-04-26T09:48:00.288Z</time>
      </trkpt>
      <trkpt lat="51.30685" lon="6.85541">
        <ele>104.117534</ele>
        <time>2023-04-26T09:48:03.284Z</time>
      </trkpt>
      <trkpt lat="51.30696" lon="6.85534">
        <ele>103.959613</ele>
        <time>2023-04-26T09:48:06.280Z</time>
      </trkpt>
      <trkpt lat="51.30706" lon="6.85528">
        <ele>103.798048</ele>
        <time>2023-04-26T09:48:09.284Z</time>
      </trkpt>
      <trkpt lat="51.30718" lon="6.8552">
        <ele>103.889073</ele>
        <time>2023-04-26T09:48:12.279Z</time>
      </trkpt>
      <trkpt lat="51.30728" lon="6.85512">
        <ele>104.190158</ele>
        <time>2023-04-26T09:48:15.287Z</time>
      </trkpt>
      <trkpt lat="51.30741" lon="6.85506">
        <ele>104.544181</ele>
        <time>2023-04-26T09:48:18.284Z</time>
      </trkpt>
      <trkpt lat="51.30752" lon="6.85499">
        <ele>104.850108</ele>
        <time>2023-04-26T09:48:21.293Z</time>
      </trkpt>
      <trkpt lat="51.30763" lon="6.85494">
        <ele>105.154515</ele>
        <time>2023-04-26T09:48:24.290Z</time>
      </trkpt>
      <trkpt lat="51.30774" lon="6.85489">
        <ele>105.441233</ele>
        <time>2023-04-26T09:48:27.278Z</time>
      </trkpt>
      <trkpt lat="51.30783" lon="6.85485">
        <ele>105.707821</ele>
        <time>2023-04-26T09:48:30.298Z</time>
      </trkpt>
      <trkpt lat="51.30793" lon="6.85482">
        <ele>105.969214</ele>
        <time>2023-04-26T09:48:33.301Z</time>
      </trkpt>
      <trkpt lat="51.30803" lon="6.85479">
        <ele>106.233187</ele>
        <time>2023-04-26T09:48:36.305Z</time>
      </trkpt>
      <trkpt lat="51.30812" lon="6.85476">
        <ele>106.487806</ele>
        <time>2023-04-26T09:48:39.298Z</time>
      </trkpt>
      <trkpt lat="51.30823" lon="6.85474">
        <ele>106.776995</ele>
        <time>2023-04-26T09:48:42.304Z</time>
      </trkpt>
      <trkpt lat="51.30834" lon="6.85473">
        <ele>107.065098</ele>
        <time>2023-04-26T09:48:45.299Z</time>
      </trkpt>
      <trkpt lat="51.30845" lon="6.85472">
        <ele>107.355418</ele>
        <time>2023-04-26T09:48:48.291Z</time>
      </trkpt>
      <trkpt lat="51.30856" lon="6.85472">
        <ele>107.650636</ele>
        <time>2023-04-26T09:48:51.293Z</time>
      </trkpt>
      <trkpt lat="51.30867" lon="6.85472">
        <ele>107.919617</ele>
        <time>2023-04-26T09:48:54.309Z</time>
      </trkpt>
      <trkpt lat="51.30877" lon="6.85472">
        <ele>108.193922</ele>
        <time>2023-04-26T09:48:57.305Z</time>
      </trkpt>
      <trkpt lat="51.30887" lon="6.85475">
        <ele>108.457419</ele>
        <time>2023-04-26T09:49:00.284Z</time>
      </trkpt>
      <trkpt lat="51.30897" lon="6.85478">
        <ele>108.660272</ele>
        <time>2023-04-26T09:49:03.300Z</time>
      </trkpt>
      <trkpt lat="51.30907" lon="6.85482">
        <ele>108.87909</ele>
        <time>2023-04-26T09:49:06.316Z</time>
      </trkpt>
      <trkpt lat="51.30917" lon="6.85487">
        <ele>109.100626</ele>
        <time>2023-04-26T09:49:09.290Z</time>
      </trkpt>
      <trkpt lat="51.30928" lon="6.85493">
        <ele>109.323812</ele>
        <time>2023-04-26T09:49:12.291Z</time>
      </trkpt>
      <trkpt lat="51.30937" lon="6.85499">
        <ele>109.52935</ele>
        <time>2023-04-26T09:49:15.308Z</time>
      </trkpt>
      <trkpt lat="51.30947" lon="6.85506">
        <ele>109.750032</ele>
        <time>2023-04-26T09:49:18.305Z</time>
      </trkpt>
      <trkpt lat="51.30956" lon="6.85513">
        <ele>109.963196</ele>
        <time>2023-04-26T09:49:21.302Z</time>
      </trkpt>
      <trkpt lat="51.30966" lon="6.85521">
        <ele>110.186415</ele>
        <time>2023-04-26T09:49:24.300Z</time>
      </trkpt>
      <trkpt lat="51.30975" lon="6.85531">
        <ele>110.398677</ele>
        <time>2023-04-26T09:49:27.308Z</time>
      </trkpt>
      <trkpt lat="51.30984" lon="6.85541">
        <ele>110.620352</ele>
        <time>2023-04-26T09:49:30.273Z</time>
      </trkpt>
      <trkpt lat="51.30992" lon="6.8555">
        <ele>110.833352</ele>
        <time>2023-04-26T09:49:33.292Z</time>
      </trkpt>
      <trkpt lat="51.31001" lon="6.85561">
        <ele>111.058001</ele>
        <time>2023-04-26T09:49:36.286Z</time>
      </trkpt>
      <trkpt lat="51.31008" lon="6.85573">
        <ele>111.273173</ele>
        <time>2023-04-26T09:49:39.297Z</time>
      </trkpt>
      <trkpt lat="51.31016" lon="6.85584">
        <ele>111.486992</ele>
        <time>2023-04-26T09:49:42.312Z</time>
      </trkpt>
      <trkpt lat="51.31023" lon="6.85597">
        <ele>111.707006</ele>
        <time>2023-04-26T09:49:45.301Z</time>
      </trkpt>
      <trkpt lat="51.31031" lon="6.85611">
        <ele>111.946574</ele>
        <time>2023-04-26T09:49:48.276Z</time>
      </trkpt>
      <trkpt lat="51.3104" lon="6.85625">
        <ele>112.175784</ele>
        <time>2023-04-26T09:49:51.293Z</time>
      </trkpt>
      <trkpt lat="51.31047" lon="6.85637">
        <ele>112.344186</ele>
        <time>2023-04-26T09:49:54.292Z</time>
      </trkpt>
      <trkpt lat="51.31055" lon="6.8565">
        <ele>112.524448</ele>
        <time>2023-04-26T09:49:57.278Z</time>
      </trkpt>
      <trkpt lat="51.31062" lon="6.85662">
        <ele>112.69721</ele>
        <time>2023-04-26T09:50:00.303Z</time>
      </trkpt>
      <trkpt lat="51.31069" lon="6.85676">
        <ele>112.86683</ele>
        <time>2023-04-26T09:50:03.290Z</time>
      </trkpt>
      <trkpt lat="51.31076" lon="6.85688">
        <ele>113.034095</ele>
        <time>2023-04-26T09:50:06.279Z</time>
      </trkpt>
      <trkpt lat="51.31084" lon="6.85702">
        <ele>113.218269</ele>
        <time>2023-04-26T09:50:09.302Z</time>
      </trkpt>
      <trkpt lat="51.31091" lon="6.85717">
        <ele>113.412914</ele>
        <time>2023-04-26T09:50:12.284Z</time>
      </trkpt>
      <trkpt lat="51.311" lon="6.8573">
        <ele>113.59718</ele>
        <time>2023-04-26T09:50:15.279Z</time>
      </trkpt>
      <trkpt lat="51.31107" lon="6.85743">
        <ele>113.774143</ele>
        <time>2023-04-26T09:50:18.310Z</time>
      </trkpt>
      <trkpt lat="51.31116" lon="6.85754">
        <ele>113.94438</ele>
        <time>2023-04-26T09:50:21.284Z</time>
      </trkpt>
      <trkpt lat="51.31124" lon="6.85766">
        <ele>114.120825</ele>
        <time>2023-04-26T09:50:24.281Z</time>
      </trkpt>
      <trkpt lat="51.31133" lon="6.85777">
        <ele>114.297767</ele>
        <time>2023-04-26T09:50:27.298Z</time>
      </trkpt>
      <trkpt lat="51.31141" lon="6.85787">
        <ele>114.457379</ele>
        <time>2023-04-26T09:50:30.287Z</time>
      </trkpt>
      <trkpt lat="51.3115" lon="6.85796">
        <ele>114.632598</ele>
        <time>2023-04-26T09:50:33.277Z</time>
      </trkpt>
      <trkpt lat="51.3116" lon="6.85805">
        <ele>114.807149</ele>
        <time>2023-04-26T09:50:36.288Z</time>
      </trkpt>
      <trkpt lat="51.31169" lon="6.85814">
        <ele>114.987399</ele>
        <time>2023-04-26T09:50:39.289Z</time>
      </trkpt>
      <trkpt lat="51.31179" lon="6.85822">
        <ele>115.239648</ele>
        <time>2023-04-26T09:50:42.298Z</time>
      </trkpt>
      <trkpt lat="51.31189" lon="6.85829">
        <ele>115.48896</ele>
        <time>2023-04-26T09:50:45.283Z</time>
      </trkpt>
      <trkpt lat="51.31199" lon="6.85836">
        <ele>115.739731</ele>
        <time>2023-04-26T09:50:48.300Z</time>
      </trkpt>
      <trkpt lat="51.31209" lon="6.85844">
        <ele>115.996432</ele>
        <time>2023-04-26T09:50:51.301Z</time>
      </trkpt>
      <trkpt lat="51.31219" lon="6.85852">
        <ele>116.23959</ele>
        <time>2023-04-26T09:50:54.305Z</time>
      </trkpt>
      <trkpt lat="51.31228" lon="6.85858">
        <ele>116.472051</ele>
        <time>2023-04-26T09:50:57.292Z</time>
      </trkpt>
      <trkpt lat="51.31238" lon="6.85864">
        <ele>116.714636</ele>
        <time>2023-04-26T09:51:00.302Z</time>
      </trkpt>
      <trkpt lat="51.31247" lon="6.85871">
        <ele>116.938317</ele>
        <time>2023-04-26T09:51:04.278Z</time>
      </trkpt>
      <trkpt lat="51.31256" lon="6.85875">
        <ele>117.162047</ele>
        <time>2023-04-26T09:51:09.293Z</time>
      </trkpt>
      <trkpt lat="51.31266" lon="6.85881">
        <ele>117.386611</ele>
        <time>2023-04-26T09:51:14.299Z</time>
      </trkpt>
      <trkpt lat="51.31274" lon="6.85885">
        <ele>117.594827</ele>
        <time>2023-04-26T09:51:18.297Z</time>
      </trkpt>
      <trkpt lat="51.31284" lon="6.85891">
        <ele>117.828891</ele>
        <time>2023-04-26T09:51:22.286Z</time>
      </trkpt>
      <trkpt lat="51.31293" lon="6.85897">
        <ele>118.054569</ele>
        <time>2023-04-26T09:51:26.291Z</time>
      </trkpt>
      <trkpt lat="51.31303" lon="6.85903">
        <ele>118.292889</ele>
        <time>2023-04-26T09:51:30.298Z</time>
      </trkpt>
      <trkpt lat="51.31313" lon="6.8591">
        <ele>118.547015</ele>
        <time>2023-04-26T09:51:34.289Z</time>
      </trkpt>
      <trkpt lat="51.31323" lon="6.85916">
        <ele>118.786372</ele>
        <time>2023-04-26T09:51:38.292Z</time>
      </trkpt>
      <trkpt lat="51.31333" lon="6.85923">
        <ele>119.034686</ele>
        <time>2023-04-26T09:51:42.298Z</time>
      </trkpt>
      <trkpt lat="51.31344" lon="6.85931">
        <ele>119.483701</ele>
        <time>2023-04-26T09:51:46.290Z</time>
      </trkpt>
      <trkpt lat="51.31354" lon="6.85938">
        <ele>119.956719</ele>
        <time>2023-04-26T09:51:50.303Z</time>
      </trkpt>
      <trkpt lat="51.31363" lon="6.85945">
        <ele>120.337493</ele>
        <time>2023-04-26T09:51:53.310Z</time>
      </trkpt>
      <trkpt lat="51.31371" lon="6.85951">
        <ele>120.728401</ele>
        <time>2023-04-26T09:51:56.300Z</time>
      </trkpt>
      <trkpt lat="51.3138" lon="6.85957">
        <ele>121.122503</ele>
        <time>2023-04-26T09:51:59.297Z</time>
      </trkpt>
      <trkpt lat="51.31388" lon="6.85965">
        <ele>121.499543</ele>
        <time>2023-04-26T09:52:02.301Z</time>
      </trkpt>
      <trkpt lat="51.31396" lon="6.85972">
        <ele>121.894299</ele>
        <time>2023-04-26T09:52:05.313Z</time>
      </trkpt>
      <trkpt lat="51.31405" lon="6.85979">
        <ele>122.276989</ele>
        <time>2023-04-26T09:52:08.288Z</time>
      </trkpt>
      <trkpt lat="51.31413" lon="6.85986">
        <ele>122.671091</ele>
        <time>2023-04-26T09:52:11.304Z</time>
      </trkpt>
      <trkpt lat="51.31421" lon="6.85993">
        <ele>123.051415</ele>
        <time>2023-04-26T09:52:14.300Z</time>
      </trkpt>
      <trkpt lat="51.31431" lon="6.86002">
        <ele>123.524879</ele>
        <time>2023-04-26T09:52:18.289Z</time>
      </trkpt>
      <trkpt lat="51.31441" lon="6.86012">
        <ele>124.004464</ele>
        <time>2023-04-26T09:52:22.309Z</time>
      </trkpt>
      <trkpt lat="51.31451" lon="6.86022">
        <ele>124.485727</ele>
        <time>2023-04-26T09:52:26.302Z</time>
      </trkpt>
      <trkpt lat="51.31461" lon="6.86032">
        <ele>124.951909</ele>
        <time>2023-04-26T09:52:30.296Z</time>
      </trkpt>
      <trkpt lat="51.31471" lon="6.86042">
        <ele>125.435213</ele>
        <time>2023-04-26T09:52:34.304Z</time>
      </trkpt>
      <trkpt lat="51.3148" lon="6.86053">
        <ele>125.925095</ele>
        <time>2023-04-26T09:52:38.295Z</time>
      </trkpt>
      <trkpt lat="51.31488" lon="6.86062">
        <ele>126.300495</ele>
        <time>2023-04-26T09:52:41.294Z</time>
      </trkpt>
      <trkpt lat="51.31497" lon="6.86071">
        <ele>126.712051</ele>
        <time>2023-04-26T09:52:45.300Z</time>
      </trkpt>
      <trkpt lat="51.31506" lon="6.86082">
        <ele>127.113199</ele>
        <time>2023-04-26T09:52:49.287Z</time>
      </trkpt>
      <trkpt lat="51.31515" lon="6.86093">
        <ele>127.520399</ele>
        <time>2023-04-26T09:52:53.296Z</time>
      </trkpt>
      <trkpt lat="51.31523" lon="6.86101">
        <ele>127.854404</ele>
        <time>2023-04-26T09:52:56.288Z</time>
      </trkpt>
      <trkpt lat="51.31532" lon="6.86113">
        <ele>128.272849</ele>
        <time>2023-04-26T09:53:00.291Z</time>
      </trkpt>
      <trkpt lat="51.31538" lon="6.86123">
        <ele>128.597085</ele>
        <time>2023-04-26T09:53:03.296Z</time>
      </trkpt>
      <trkpt lat="51.31545" lon="6.86132">
        <ele>128.918989</ele>
        <time>2023-04-26T09:53:06.294Z</time>
      </trkpt>
      <trkpt lat="51.31552" lon="6.86142">
        <ele>129.254822</ele>
        <time>2023-04-26T09:53:09.299Z</time>
      </trkpt>
      <trkpt lat="51.3156" lon="6.86151">
        <ele>129.587865</ele>
        <time>2023-04-26T09:53:12.290Z</time>
      </trkpt>
      <trkpt lat="51.31567" lon="6.8616">
        <ele>129.919526</ele>
        <time>2023-04-26T09:53:15.292Z</time>
      </trkpt>
      <trkpt lat="51.31574" lon="6.8617">
        <ele>130.257056</ele>
        <time>2023-04-26T09:53:18.287Z</time>
      </trkpt>
      <trkpt lat="51.31581" lon="6.8618">
        <ele>130.586556</ele>
        <time>2023-04-26T09:53:21.289Z</time>
      </trkpt>
      <trkpt lat="51.31588" lon="6.8619">
        <ele>130.928078</ele>
        <time>2023-04-26T09:53:24.318Z</time>
      </trkpt>
      <trkpt lat="51.31595" lon="6.862">
        <ele>131.254936</ele>
        <time>2023-04-26T09:53:27.311Z</time>
      </trkpt>
      <trkpt lat="51.31601" lon="6.8621">
        <ele>131.588307</ele>
        <time>2023-04-26T09:53:30.309Z</time>
      </trkpt>
      <trkpt lat="51.31608" lon="6.86221">
        <ele>131.929142</ele>
        <time>2023-04-26T09:53:33.311Z</time>
      </trkpt>
      <trkpt lat="51.31615" lon="6.86231">
        <ele>132.267833</ele>
        <time>2023-04-26T09:53:36.299Z</time>
      </trkpt>
      <trkpt lat="51.31622" lon="6.86243">
        <ele>132.625808</ele>
        <time>2023-04-26T09:53:39.309Z</time>
      </trkpt>
      <trkpt lat="51.31631" lon="6.86255">
        <ele>132.864768</ele>
        <time>2023-04-26T09:53:43.311Z</time>
      </trkpt>
      <trkpt lat="51.31638" lon="6.86267">
        <ele>132.778317</ele>
        <time>2023-04-26T09:53:46.301Z</time>
      </trkpt>
      <trkpt lat="51.31644" lon="6.86278">
        <ele>132.695448</ele>
        <time>2023-04-26T09:53:49.292Z</time>
      </trkpt>
      <trkpt lat="51.31651" lon="6.86288">
        <ele>132.614941</ele>
        <time>2023-04-26T09:53:52.292Z</time>
      </trkpt>
      <trkpt lat="51.31658" lon="6.86299">
        <ele>132.529284</ele>
        <time>2023-04-26T09:53:55.300Z</time>
      </trkpt>
      <trkpt lat="51.31665" lon="6.86311">
        <ele>132.443341</ele>
        <time>2023-04-26T09:53:58.296Z</time>
      </trkpt>
      <trkpt lat="51.31673" lon="6.86324">
        <ele>132.337559</ele>
        <time>2023-04-26T09:54:02.303Z</time>
      </trkpt>
      <trkpt lat="51.3168" lon="6.86336">
        <ele>132.249125</ele>
        <time>2023-04-26T09:54:05.309Z</time>
      </trkpt>
      <trkpt lat="51.31688" lon="6.86348">
        <ele>132.15572</ele>
        <time>2023-04-26T09:54:08.295Z</time>
      </trkpt>
      <trkpt lat="51.31695" lon="6.86359">
        <ele>132.068413</ele>
        <time>2023-04-26T09:54:11.310Z</time>
      </trkpt>
      <trkpt lat="51.31702" lon="6.8637">
        <ele>131.981885</ele>
        <time>2023-04-26T09:54:14.313Z</time>
      </trkpt>
      <trkpt lat="51.3171" lon="6.86382">
        <ele>131.888865</ele>
        <time>2023-04-26T09:54:17.286Z</time>
      </trkpt>
      <trkpt lat="51.31718" lon="6.86394">
        <ele>131.794543</ele>
        <time>2023-04-26T09:54:20.293Z</time>
      </trkpt>
      <trkpt lat="51.31726" lon="6.86406">
        <ele>131.697202</ele>
        <time>2023-04-26T09:54:23.311Z</time>
      </trkpt>
      <trkpt lat="51.31734" lon="6.86418">
        <ele>131.606134</ele>
        <time>2023-04-26T09:54:26.294Z</time>
      </trkpt>
      <trkpt lat="51.31741" lon="6.86431">
        <ele>131.50973</ele>
        <time>2023-04-26T09:54:29.305Z</time>
      </trkpt>
      <trkpt lat="51.31748" lon="6.86445">
        <ele>131.410164</ele>
        <time>2023-04-26T09:54:32.285Z</time>
      </trkpt>
      <trkpt lat="51.31758" lon="6.86458">
        <ele>131.211222</ele>
        <time>2023-04-26T09:54:35.297Z</time>
      </trkpt>
      <trkpt lat="51.31767" lon="6.8647">
        <ele>130.803789</ele>
        <time>2023-04-26T09:54:38.296Z</time>
      </trkpt>
      <trkpt lat="51.31776" lon="6.86484">
        <ele>130.369989</ele>
        <time>2023-04-26T09:54:41.307Z</time>
      </trkpt>
      <trkpt lat="51.31786" lon="6.86498">
        <ele>129.916448</ele>
        <time>2023-04-26T09:54:44.311Z</time>
      </trkpt>
      <trkpt lat="51.31796" lon="6.86512">
        <ele>129.454391</ele>
        <time>2023-04-26T09:54:47.298Z</time>
      </trkpt>
      <trkpt lat="51.31803" lon="6.86522">
        <ele>129.14549</ele>
        <time>2023-04-26T09:54:49.296Z</time>
      </trkpt>
      <trkpt lat="51.31811" lon="6.86531">
        <ele>128.814056</ele>
        <time>2023-04-26T09:54:51.298Z</time>
      </trkpt>
      <trkpt lat="51.31819" lon="6.8654">
        <ele>128.482698</ele>
        <time>2023-04-26T09:54:53.315Z</time>
      </trkpt>
      <trkpt lat="51.31827" lon="6.8655">
        <ele>128.132348</ele>
        <time>2023-04-26T09:54:55.299Z</time>
      </trkpt>
      <trkpt lat="51.31835" lon="6.8656">
        <ele>127.783612</ele>
        <time>2023-04-26T09:54:57.296Z</time>
      </trkpt>
      <trkpt lat="51.31844" lon="6.86569">
        <ele>127.41609</ele>
        <time>2023-04-26T09:54:59.290Z</time>
      </trkpt>
      <trkpt lat="51.31854" lon="6.86579">
        <ele>127.03176</ele>
        <time>2023-04-26T09:55:01.291Z</time>
      </trkpt>
      <trkpt lat="51.31863" lon="6.86589">
        <ele>126.646472</ele>
        <time>2023-04-26T09:55:03.315Z</time>
      </trkpt>
      <trkpt lat="51.31873" lon="6.86599">
        <ele>126.254294</ele>
        <time>2023-04-26T09:55:05.305Z</time>
      </trkpt>
      <trkpt lat="51.31882" lon="6.86606">
        <ele>125.895066</ele>
        <time>2023-04-26T09:55:07.307Z</time>
      </trkpt>
      <trkpt lat="51.31892" lon="6.8661">
        <ele>125.540909</ele>
        <time>2023-04-26T09:55:09.285Z</time>
      </trkpt>
      <trkpt lat="51.31903" lon="6.8661">
        <ele>125.170297</ele>
        <time>2023-04-26T09:55:11.292Z</time>
      </trkpt>
      <trkpt lat="51.31914" lon="6.86618">
        <ele>124.738445</ele>
        <time>2023-04-26T09:55:13.289Z</time>
      </trkpt>
      <trkpt lat="51.31924" lon="6.86631">
        <ele>124.261088</ele>
        <time>2023-04-26T09:55:15.286Z</time>
      </trkpt>
      <trkpt lat="51.31936" lon="6.86641">
        <ele>123.764551</ele>
        <time>2023-04-26T09:55:17.294Z</time>
      </trkpt>
      <trkpt lat="51.3195" lon="6.86648">
        <ele>123.237374</ele>
        <time>2023-04-26T09:55:19.288Z</time>
      </trkpt>
      <trkpt lat="51.31963" lon="6.86656">
        <ele>122.701371</ele>
        <time>2023-04-26T09:55:21.302Z</time>
      </trkpt>
      <trkpt lat="51.31974" lon="6.86672">
        <ele>122.154265</ele>
        <time>2023-04-26T09:55:23.293Z</time>
      </trkpt>
      <trkpt lat="51.31988" lon="6.86683">
        <ele>121.5921</ele>
        <time>2023-04-26T09:55:25.296Z</time>
      </trkpt>
      <trkpt lat="51.32004" lon="6.86691">
        <ele>120.973411</ele>
        <time>2023-04-26T09:55:27.296Z</time>
      </trkpt>
      <trkpt lat="51.3202" lon="6.86701">
        <ele>120.364338</ele>
        <time>2023-04-26T09:55:29.293Z</time>
      </trkpt>
      <trkpt lat="51.32036" lon="6.8671">
        <ele>119.749147</ele>
        <time>2023-04-26T09:55:31.293Z</time>
      </trkpt>
      <trkpt lat="51.32051" lon="6.86719">
        <ele>119.137882</ele>
        <time>2023-04-26T09:55:33.293Z</time>
      </trkpt>
      <trkpt lat="51.32066" lon="6.86728">
        <ele>118.59173</ele>
        <time>2023-04-26T09:55:35.299Z</time>
      </trkpt>
      <trkpt lat="51.32081" lon="6.86735">
        <ele>118.443479</ele>
        <time>2023-04-26T09:55:37.313Z</time>
      </trkpt>
      <trkpt lat="51.32094" lon="6.86744">
        <ele>118.305901</ele>
        <time>2023-04-26T09:55:39.287Z</time>
      </trkpt>
      <trkpt lat="51.32108" lon="6.86752">
        <ele>118.167819</ele>
        <time>2023-04-26T09:55:41.290Z</time>
      </trkpt>
      <trkpt lat="51.32122" lon="6.8676">
        <ele>118.030459</ele>
        <time>2023-04-26T09:55:43.293Z</time>
      </trkpt>
      <trkpt lat="51.32135" lon="6.86767">
        <ele>117.897711</ele>
        <time>2023-04-26T09:55:45.298Z</time>
      </trkpt>
      <trkpt lat="51.32148" lon="6.86774">
        <ele>117.763884</ele>
        <time>2023-04-26T09:55:47.307Z</time>
      </trkpt>
      <trkpt lat="51.32161" lon="6.86781">
        <ele>117.638687</ele>
        <time>2023-04-26T09:55:49.290Z</time>
      </trkpt>
      <trkpt lat="51.32174" lon="6.86788">
        <ele>117.511313</ele>
        <time>2023-04-26T09:55:51.292Z</time>
      </trkpt>
      <trkpt lat="51.32186" lon="6.86794">
        <ele>117.389378</ele>
        <time>2023-04-26T09:55:53.301Z</time>
      </trkpt>
      <trkpt lat="51.32198" lon="6.86802">
        <ele>117.267148</ele>
        <time>2023-04-26T09:55:55.301Z</time>
      </trkpt>
      <trkpt lat="51.32209" lon="6.86805">
        <ele>117.158597</ele>
        <time>2023-04-26T09:55:57.291Z</time>
      </trkpt>
      <trkpt lat="51.32221" lon="6.86806">
        <ele>117.045621</ele>
        <time>2023-04-26T09:55:59.296Z</time>
      </trkpt>
      <trkpt lat="51.32232" lon="6.86812">
        <ele>116.940056</ele>
        <time>2023-04-26T09:56:01.300Z</time>
      </trkpt>
      <trkpt lat="51.32241" lon="6.86822">
        <ele>116.84652</ele>
        <time>2023-04-26T09:56:03.284Z</time>
      </trkpt>
      <trkpt lat="51.3225" lon="6.86831">
        <ele>116.762633</ele>
        <time>2023-04-26T09:56:05.301Z</time>
      </trkpt>
      <trkpt lat="51.32261" lon="6.86836">
        <ele>116.674055</ele>
        <time>2023-04-26T09:56:07.288Z</time>
      </trkpt>
      <trkpt lat="51.32272" lon="6.86842">
        <ele>116.58561</ele>
        <time>2023-04-26T09:56:09.289Z</time>
      </trkpt>
      <trkpt lat="51.32283" lon="6.86847">
        <ele>116.495834</ele>
        <time>2023-04-26T09:56:11.308Z</time>
      </trkpt>
      <trkpt lat="51.32294" lon="6.86852">
        <ele>116.408425</ele>
        <time>2023-04-26T09:56:13.298Z</time>
      </trkpt>
      <trkpt lat="51.32305" lon="6.86858">
        <ele>116.321175</ele>
        <time>2023-04-26T09:56:15.300Z</time>
      </trkpt>
      <trkpt lat="51.32315" lon="6.86865">
        <ele>116.231928</ele>
        <time>2023-04-26T09:56:17.305Z</time>
      </trkpt>
      <trkpt lat="51.32326" lon="6.86871">
        <ele>116.143204</ele>
        <time>2023-04-26T09:56:19.296Z</time>
      </trkpt>
      <trkpt lat="51.32337" lon="6.86877">
        <ele>116.053777</ele>
        <time>2023-04-26T09:56:21.311Z</time>
      </trkpt>
      <trkpt lat="51.32347" lon="6.86883">
        <ele>115.967563</ele>
        <time>2023-04-26T09:56:23.314Z</time>
      </trkpt>
      <trkpt lat="51.32358" lon="6.86888">
        <ele>115.879683</ele>
        <time>2023-04-26T09:56:25.305Z</time>
      </trkpt>
      <trkpt lat="51.32369" lon="6.86893">
        <ele>115.795374</ele>
        <time>2023-04-26T09:56:27.296Z</time>
      </trkpt>
      <trkpt lat="51.32379" lon="6.86899">
        <ele>115.708394</ele>
        <time>2023-04-26T09:56:29.317Z</time>
      </trkpt>
      <trkpt lat="51.3239" lon="6.86905">
        <ele>115.623038</ele>
        <time>2023-04-26T09:56:31.309Z</time>
      </trkpt>
      <trkpt lat="51.324" lon="6.86909">
        <ele>115.538167</ele>
        <time>2023-04-26T09:56:33.295Z</time>
      </trkpt>
      <trkpt lat="51.3241" lon="6.86914">
        <ele>115.528207</ele>
        <time>2023-04-26T09:56:35.290Z</time>
      </trkpt>
      <trkpt lat="51.3242" lon="6.86919">
        <ele>115.565771</ele>
        <time>2023-04-26T09:56:37.303Z</time>
      </trkpt>
      <trkpt lat="51.32429" lon="6.86923">
        <ele>115.602508</ele>
        <time>2023-04-26T09:56:39.296Z</time>
      </trkpt>
      <trkpt lat="51.32438" lon="6.86926">
        <ele>115.638017</ele>
        <time>2023-04-26T09:56:41.286Z</time>
      </trkpt>
      <trkpt lat="51.32448" lon="6.8693">
        <ele>115.675312</ele>
        <time>2023-04-26T09:56:43.296Z</time>
      </trkpt>
      <trkpt lat="51.32457" lon="6.86933">
        <ele>115.711817</ele>
        <time>2023-04-26T09:56:45.289Z</time>
      </trkpt>
      <trkpt lat="51.32467" lon="6.86936">
        <ele>115.749193</ele>
        <time>2023-04-26T09:56:47.300Z</time>
      </trkpt>
      <trkpt lat="51.32476" lon="6.8694">
        <ele>115.785869</ele>
        <time>2023-04-26T09:56:49.297Z</time>
      </trkpt>
      <trkpt lat="51.32485" lon="6.86942">
        <ele>115.820039</ele>
        <time>2023-04-26T09:56:51.290Z</time>
      </trkpt>
      <trkpt lat="51.32495" lon="6.86943">
        <ele>115.855982</ele>
        <time>2023-04-26T09:56:53.310Z</time>
      </trkpt>
      <trkpt lat="51.32508" lon="6.86946">
        <ele>115.907053</ele>
        <time>2023-04-26T09:56:56.307Z</time>
      </trkpt>
      <trkpt lat="51.32517" lon="6.86947">
        <ele>115.941981</ele>
        <time>2023-04-26T09:56:58.308Z</time>
      </trkpt>
      <trkpt lat="51.32527" lon="6.86948">
        <ele>115.977134</ele>
        <time>2023-04-26T09:57:00.282Z</time>
      </trkpt>
      <trkpt lat="51.3254" lon="6.86949">
        <ele>116.027758</ele>
        <time>2023-04-26T09:57:03.280Z</time>
      </trkpt>
      <trkpt lat="51.32553" lon="6.86948">
        <ele>116.077991</ele>
        <time>2023-04-26T09:57:06.286Z</time>
      </trkpt>
      <trkpt lat="51.32566" lon="6.86949">
        <ele>116.126715</ele>
        <time>2023-04-26T09:57:09.306Z</time>
      </trkpt>
      <trkpt lat="51.32575" lon="6.86949">
        <ele>116.160708</ele>
        <time>2023-04-26T09:57:11.307Z</time>
      </trkpt>
      <trkpt lat="51.32584" lon="6.86948">
        <ele>116.179164</ele>
        <time>2023-04-26T09:57:13.269Z</time>
      </trkpt>
      <trkpt lat="51.32594" lon="6.86948">
        <ele>116.161462</ele>
        <time>2023-04-26T09:57:15.289Z</time>
      </trkpt>
      <trkpt lat="51.32603" lon="6.86948">
        <ele>116.143572</ele>
        <time>2023-04-26T09:57:17.290Z</time>
      </trkpt>
      <trkpt lat="51.32613" lon="6.86947">
        <ele>116.126052</ele>
        <time>2023-04-26T09:57:19.298Z</time>
      </trkpt>
      <trkpt lat="51.32622" lon="6.86946">
        <ele>116.108652</ele>
        <time>2023-04-26T09:57:21.290Z</time>
      </trkpt>
      <trkpt lat="51.32635" lon="6.86945">
        <ele>116.084152</ele>
        <time>2023-04-26T09:57:24.288Z</time>
      </trkpt>
      <trkpt lat="51.32648" lon="6.86943">
        <ele>116.059772</ele>
        <time>2023-04-26T09:57:27.293Z</time>
      </trkpt>
      <trkpt lat="51.32657" lon="6.86942">
        <ele>116.042605</ele>
        <time>2023-04-26T09:57:29.296Z</time>
      </trkpt>
      <trkpt lat="51.32666" lon="6.86941">
        <ele>116.024841</ele>
        <time>2023-04-26T09:57:31.292Z</time>
      </trkpt>
      <trkpt lat="51.32678" lon="6.86939">
        <ele>116.001899</ele>
        <time>2023-04-26T09:57:34.311Z</time>
      </trkpt>
      <trkpt lat="51.32691" lon="6.86938">
        <ele>115.977211</ele>
        <time>2023-04-26T09:57:37.297Z</time>
      </trkpt>
      <trkpt lat="51.32705" lon="6.86937">
        <ele>115.951371</ele>
        <time>2023-04-26T09:57:40.293Z</time>
      </trkpt>
      <trkpt lat="51.32719" lon="6.86934">
        <ele>115.925834</ele>
        <time>2023-04-26T09:57:43.300Z</time>
      </trkpt>
      <trkpt lat="51.32728" lon="6.86933">
        <ele>115.908096</ele>
        <time>2023-04-26T09:57:45.293Z</time>
      </trkpt>
      <trkpt lat="51.32738" lon="6.86933">
        <ele>115.889626</ele>
        <time>2023-04-26T09:57:47.291Z</time>
      </trkpt>
      <trkpt lat="51.32747" lon="6.86931">
        <ele>115.872601</ele>
        <time>2023-04-26T09:57:49.309Z</time>
      </trkpt>
      <trkpt lat="51.32761" lon="6.86929">
        <ele>115.8467</ele>
        <time>2023-04-26T09:57:52.303Z</time>
      </trkpt>
      <trkpt lat="51.3277" lon="6.86929">
        <ele>115.805726</ele>
        <time>2023-04-26T09:57:54.307Z</time>
      </trkpt>
      <trkpt lat="51.3278" lon="6.86928">
        <ele>115.765244</ele>
        <time>2023-04-26T09:57:56.317Z</time>
      </trkpt>
      <trkpt lat="51.32789" lon="6.86927">
        <ele>115.724378</ele>
        <time>2023-04-26T09:57:58.300Z</time>
      </trkpt>
      <trkpt lat="51.32799" lon="6.86926">
        <ele>115.683728</ele>
        <time>2023-04-26T09:58:00.295Z</time>
      </trkpt>
      <trkpt lat="51.32808" lon="6.86925">
        <ele>115.642389</ele>
        <time>2023-04-26T09:58:02.298Z</time>
      </trkpt>
      <trkpt lat="51.32818" lon="6.86924">
        <ele>115.598975</ele>
        <time>2023-04-26T09:58:04.288Z</time>
      </trkpt>
      <trkpt lat="51.32828" lon="6.86923">
        <ele>115.555862</ele>
        <time>2023-04-26T09:58:06.283Z</time>
      </trkpt>
      <trkpt lat="51.32838" lon="6.86923">
        <ele>115.512884</ele>
        <time>2023-04-26T09:58:08.285Z</time>
      </trkpt>
      <trkpt lat="51.32848" lon="6.86921">
        <ele>115.469215</ele>
        <time>2023-04-26T09:58:10.299Z</time>
      </trkpt>
      <trkpt lat="51.32859" lon="6.86921">
        <ele>115.425371</ele>
        <time>2023-04-26T09:58:12.297Z</time>
      </trkpt>
      <trkpt lat="51.32869" lon="6.8692">
        <ele>115.380642</ele>
        <time>2023-04-26T09:58:14.289Z</time>
      </trkpt>
      <trkpt lat="51.3288" lon="6.86919">
        <ele>115.334184</ele>
        <time>2023-04-26T09:58:16.295Z</time>
      </trkpt>
      <trkpt lat="51.32891" lon="6.86918">
        <ele>115.286766</ele>
        <time>2023-04-26T09:58:18.287Z</time>
      </trkpt>
      <trkpt lat="51.32902" lon="6.86918">
        <ele>115.237343</ele>
        <time>2023-04-26T09:58:20.301Z</time>
      </trkpt>
      <trkpt lat="51.32913" lon="6.86918">
        <ele>115.190063</ele>
        <time>2023-04-26T09:58:22.284Z</time>
      </trkpt>
      <trkpt lat="51.32925" lon="6.86918">
        <ele>115.141935</ele>
        <time>2023-04-26T09:58:24.304Z</time>
      </trkpt>
      <trkpt lat="51.32936" lon="6.86917">
        <ele>115.093759</ele>
        <time>2023-04-26T09:58:26.294Z</time>
      </trkpt>
      <trkpt lat="51.32947" lon="6.86917">
        <ele>115.030325</ele>
        <time>2023-04-26T09:58:28.295Z</time>
      </trkpt>
      <trkpt lat="51.32958" lon="6.86918">
        <ele>114.959043</ele>
        <time>2023-04-26T09:58:30.293Z</time>
      </trkpt>
      <trkpt lat="51.32968" lon="6.86919">
        <ele>114.889494</ele>
        <time>2023-04-26T09:58:32.309Z</time>
      </trkpt>
      <trkpt lat="51.32979" lon="6.8692">
        <ele>114.816187</ele>
        <time>2023-04-26T09:58:34.284Z</time>
      </trkpt>
      <trkpt lat="51.3299" lon="6.86922">
        <ele>114.746707</ele>
        <time>2023-04-26T09:58:36.296Z</time>
      </trkpt>
      <trkpt lat="51.33" lon="6.86922">
        <ele>114.680721</ele>
        <time>2023-04-26T09:58:38.294Z</time>
      </trkpt>
      <trkpt lat="51.33011" lon="6.8692">
        <ele>114.607192</ele>
        <time>2023-04-26T09:58:40.294Z</time>
      </trkpt>
      <trkpt lat="51.33022" lon="6.86919">
        <ele>114.536426</ele>
        <time>2023-04-26T09:58:42.304Z</time>
      </trkpt>
      <trkpt lat="51.33033" lon="6.86921">
        <ele>114.463591</ele>
        <time>2023-04-26T09:58:44.290Z</time>
      </trkpt>
      <trkpt lat="51.33043" lon="6.86925">
        <ele>114.392382</ele>
        <time>2023-04-26T09:58:46.281Z</time>
      </trkpt>
      <trkpt lat="51.33054" lon="6.86929">
        <ele>114.315992</ele>
        <time>2023-04-26T09:58:48.298Z</time>
      </trkpt>
      <trkpt lat="51.33065" lon="6.86933">
        <ele>114.243452</ele>
        <time>2023-04-26T09:58:50.293Z</time>
      </trkpt>
      <trkpt lat="51.33076" lon="6.86935">
        <ele>114.173035</ele>
        <time>2023-04-26T09:58:52.298Z</time>
      </trkpt>
      <trkpt lat="51.33087" lon="6.86935">
        <ele>114.097751</ele>
        <time>2023-04-26T09:58:54.293Z</time>
      </trkpt>
      <trkpt lat="51.33099" lon="6.86938">
        <ele>114.022599</ele>
        <time>2023-04-26T09:58:56.296Z</time>
      </trkpt>
      <trkpt lat="51.3311" lon="6.8694">
        <ele>113.943957</ele>
        <time>2023-04-26T09:58:58.288Z</time>
      </trkpt>
      <trkpt lat="51.33122" lon="6.86943">
        <ele>113.905094</ele>
        <time>2023-04-26T09:59:00.312Z</time>
      </trkpt>
      <trkpt lat="51.33135" lon="6.86946">
        <ele>113.975129</ele>
        <time>2023-04-26T09:59:02.298Z</time>
      </trkpt>
      <trkpt lat="51.33146" lon="6.86948">
        <ele>114.040177</ele>
        <time>2023-04-26T09:59:04.300Z</time>
      </trkpt>
      <trkpt lat="51.33157" lon="6.86951">
        <ele>114.102861</ele>
        <time>2023-04-26T09:59:06.298Z</time>
      </trkpt>
      <trkpt lat="51.33168" lon="6.86953">
        <ele>114.164262</ele>
        <time>2023-04-26T09:59:08.299Z</time>
      </trkpt>
      <trkpt lat="51.33178" lon="6.86956">
        <ele>114.220587</ele>
        <time>2023-04-26T09:59:10.310Z</time>
      </trkpt>
      <trkpt lat="51.33188" lon="6.86958">
        <ele>114.276019</ele>
        <time>2023-04-26T09:59:12.287Z</time>
      </trkpt>
      <trkpt lat="51.33198" lon="6.8696">
        <ele>114.333018</ele>
        <time>2023-04-26T09:59:14.285Z</time>
      </trkpt>
      <trkpt lat="51.33207" lon="6.86961">
        <ele>114.385792</ele>
        <time>2023-04-26T09:59:16.287Z</time>
      </trkpt>
      <trkpt lat="51.33217" lon="6.86963">
        <ele>114.441515</ele>
        <time>2023-04-26T09:59:18.296Z</time>
      </trkpt>
      <trkpt lat="51.33227" lon="6.86965">
        <ele>114.494631</ele>
        <time>2023-04-26T09:59:20.287Z</time>
      </trkpt>
      <trkpt lat="51.33236" lon="6.86967">
        <ele>114.545828</ele>
        <time>2023-04-26T09:59:22.294Z</time>
      </trkpt>
      <trkpt lat="51.33245" lon="6.86969">
        <ele>114.597887</ele>
        <time>2023-04-26T09:59:24.293Z</time>
      </trkpt>
      <trkpt lat="51.33254" lon="6.86971">
        <ele>114.651159</ele>
        <time>2023-04-26T09:59:26.285Z</time>
      </trkpt>
      <trkpt lat="51.33268" lon="6.86973">
        <ele>114.72466</ele>
        <time>2023-04-26T09:59:29.290Z</time>
      </trkpt>
      <trkpt lat="51.33281" lon="6.86975">
        <ele>114.800011</ele>
        <time>2023-04-26T09:59:32.301Z</time>
      </trkpt>
      <trkpt lat="51.3329" lon="6.86976">
        <ele>114.851083</ele>
        <time>2023-04-26T09:59:34.304Z</time>
      </trkpt>
      <trkpt lat="51.33303" lon="6.86979">
        <ele>114.890481</ele>
        <time>2023-04-26T09:59:37.305Z</time>
      </trkpt>
      <trkpt lat="51.33316" lon="6.86981">
        <ele>114.884813</ele>
        <time>2023-04-26T09:59:40.285Z</time>
      </trkpt>
      <trkpt lat="51.33329" lon="6.86983">
        <ele>114.878976</ele>
        <time>2023-04-26T09:59:43.306Z</time>
      </trkpt>
      <trkpt lat="51.33342" lon="6.86985">
        <ele>114.873299</ele>
        <time>2023-04-26T09:59:46.270Z</time>
      </trkpt>
      <trkpt lat="51.33355" lon="6.86985">
        <ele>114.867572</ele>
        <time>2023-04-26T09:59:49.280Z</time>
      </trkpt>
      <trkpt lat="51.33368" lon="6.86987">
        <ele>114.86201</ele>
        <time>2023-04-26T09:59:52.303Z</time>
      </trkpt>
      <trkpt lat="51.33381" lon="6.86988">
        <ele>114.856318</ele>
        <time>2023-04-26T09:59:55.294Z</time>
      </trkpt>
      <trkpt lat="51.3339" lon="6.86989">
        <ele>114.852378</ele>
        <time>2023-04-26T09:59:57.303Z</time>
      </trkpt>
      <trkpt lat="51.33399" lon="6.86989">
        <ele>114.848135</ele>
        <time>2023-04-26T09:59:59.301Z</time>
      </trkpt>
      <trkpt lat="51.33409" lon="6.86991">
        <ele>114.84388</ele>
        <time>2023-04-26T10:00:01.293Z</time>
      </trkpt>
      <trkpt lat="51.33419" lon="6.86991">
        <ele>114.839462</ele>
        <time>2023-04-26T10:00:03.293Z</time>
      </trkpt>
      <trkpt lat="51.33429" lon="6.86991">
        <ele>114.835178</ele>
        <time>2023-04-26T10:00:05.304Z</time>
      </trkpt>
      <trkpt lat="51.33439" lon="6.8699">
        <ele>114.830884</ele>
        <time>2023-04-26T10:00:07.305Z</time>
      </trkpt>
      <trkpt lat="51.33448" lon="6.86991">
        <ele>114.826768</ele>
        <time>2023-04-26T10:00:09.295Z</time>
      </trkpt>
      <trkpt lat="51.33457" lon="6.86991">
        <ele>114.822746</ele>
        <time>2023-04-26T10:00:11.270Z</time>
      </trkpt>
      <trkpt lat="51.33467" lon="6.8699">
        <ele>114.818501</ele>
        <time>2023-04-26T10:00:13.281Z</time>
      </trkpt>
      <trkpt lat="51.33478" lon="6.86991">
        <ele>114.803825</ele>
        <time>2023-04-26T10:00:15.301Z</time>
      </trkpt>
      <trkpt lat="51.33488" lon="6.8699">
        <ele>114.637191</ele>
        <time>2023-04-26T10:00:17.302Z</time>
      </trkpt>
      <trkpt lat="51.33499" lon="6.8699">
        <ele>114.461112</ele>
        <time>2023-04-26T10:00:19.290Z</time>
      </trkpt>
      <trkpt lat="51.3351" lon="6.86989">
        <ele>114.295406</ele>
        <time>2023-04-26T10:00:21.288Z</time>
      </trkpt>
      <trkpt lat="51.3352" lon="6.86988">
        <ele>114.130063</ele>
        <time>2023-04-26T10:00:23.293Z</time>
      </trkpt>
      <trkpt lat="51.33531" lon="6.86987">
        <ele>113.960286</ele>
        <time>2023-04-26T10:00:25.300Z</time>
      </trkpt>
      <trkpt lat="51.33542" lon="6.86986">
        <ele>113.785406</ele>
        <time>2023-04-26T10:00:27.289Z</time>
      </trkpt>
      <trkpt lat="51.33553" lon="6.86985">
        <ele>113.612025</ele>
        <time>2023-04-26T10:00:29.270Z</time>
      </trkpt>
      <trkpt lat="51.33564" lon="6.86983">
        <ele>113.440137</ele>
        <time>2023-04-26T10:00:31.266Z</time>
      </trkpt>
      <trkpt lat="51.33575" lon="6.86982">
        <ele>113.262239</ele>
        <time>2023-04-26T10:00:33.304Z</time>
      </trkpt>
      <trkpt lat="51.33586" lon="6.86981">
        <ele>113.093759</ele>
        <time>2023-04-26T10:00:35.301Z</time>
      </trkpt>
      <trkpt lat="51.33597" lon="6.86981">
        <ele>112.92399</ele>
        <time>2023-04-26T10:00:37.269Z</time>
      </trkpt>
      <trkpt lat="51.33609" lon="6.8698">
        <ele>112.739487</ele>
        <time>2023-04-26T10:00:39.266Z</time>
      </trkpt>
      <trkpt lat="51.3362" lon="6.86979">
        <ele>112.567921</ele>
        <time>2023-04-26T10:00:41.297Z</time>
      </trkpt>
      <trkpt lat="51.33631" lon="6.86977">
        <ele>112.389318</ele>
        <time>2023-04-26T10:00:43.284Z</time>
      </trkpt>
      <trkpt lat="51.33642" lon="6.86975">
        <ele>112.210003</ele>
        <time>2023-04-26T10:00:45.298Z</time>
      </trkpt>
      <trkpt lat="51.33654" lon="6.86974">
        <ele>112.030763</ele>
        <time>2023-04-26T10:00:47.288Z</time>
      </trkpt>
      <trkpt lat="51.33665" lon="6.86974">
        <ele>111.834056</ele>
        <time>2023-04-26T10:00:49.290Z</time>
      </trkpt>
      <trkpt lat="51.33677" lon="6.86974">
        <ele>111.622805</ele>
        <time>2023-04-26T10:00:51.306Z</time>
      </trkpt>
      <trkpt lat="51.33689" lon="6.86973">
        <ele>111.407596</ele>
        <time>2023-04-26T10:00:53.297Z</time>
      </trkpt>
      <trkpt lat="51.33701" lon="6.86972">
        <ele>111.197702</ele>
        <time>2023-04-26T10:00:55.295Z</time>
      </trkpt>
      <trkpt lat="51.33714" lon="6.8697">
        <ele>110.960562</ele>
        <time>2023-04-26T10:00:57.277Z</time>
      </trkpt>
      <trkpt lat="51.33727" lon="6.86967">
        <ele>110.720946</ele>
        <time>2023-04-26T10:00:59.292Z</time>
      </trkpt>
      <trkpt lat="51.33741" lon="6.86964">
        <ele>110.473868</ele>
        <time>2023-04-26T10:01:01.311Z</time>
      </trkpt>
      <trkpt lat="51.33755" lon="6.86961">
        <ele>110.218821</ele>
        <time>2023-04-26T10:01:03.292Z</time>
      </trkpt>
      <trkpt lat="51.33768" lon="6.86958">
        <ele>109.992686</ele>
        <time>2023-04-26T10:01:05.291Z</time>
      </trkpt>
      <trkpt lat="51.3378" lon="6.86954">
        <ele>109.775318</ele>
        <time>2023-04-26T10:01:07.268Z</time>
      </trkpt>
      <trkpt lat="51.33792" lon="6.86951">
        <ele>109.558788</ele>
        <time>2023-04-26T10:01:09.299Z</time>
      </trkpt>
      <trkpt lat="51.33803" lon="6.86947">
        <ele>109.361217</ele>
        <time>2023-04-26T10:01:11.313Z</time>
      </trkpt>
      <trkpt lat="51.33814" lon="6.86944">
        <ele>109.156801</ele>
        <time>2023-04-26T10:01:13.300Z</time>
      </trkpt>
      <trkpt lat="51.33824" lon="6.86943">
        <ele>108.97723</ele>
        <time>2023-04-26T10:01:15.290Z</time>
      </trkpt>
      <trkpt lat="51.33834" lon="6.86941">
        <ele>108.812936</ele>
        <time>2023-04-26T10:01:17.292Z</time>
      </trkpt>
      <trkpt lat="51.33842" lon="6.86951">
        <ele>109.000077</ele>
        <time>2023-04-26T10:01:22.277Z</time>
      </trkpt>
      <trkpt lat="51.33846" lon="6.86969">
        <ele>109.266097</ele>
        <time>2023-04-26T10:01:26.288Z</time>
      </trkpt>
      <trkpt lat="51.33854" lon="6.86981">
        <ele>109.503749</ele>
        <time>2023-04-26T10:01:30.286Z</time>
      </trkpt>
      <trkpt lat="51.3386" lon="6.86995">
        <ele>109.740661</ele>
        <time>2023-04-26T10:01:34.293Z</time>
      </trkpt>
      <trkpt lat="51.33865" lon="6.87006">
        <ele>109.940967</ele>
        <time>2023-04-26T10:01:37.289Z</time>
      </trkpt>
      <trkpt lat="51.3387" lon="6.87019">
        <ele>110.141196</ele>
        <time>2023-04-26T10:01:40.293Z</time>
      </trkpt>
      <trkpt lat="51.33874" lon="6.87031">
        <ele>110.341239</ele>
        <time>2023-04-26T10:01:43.304Z</time>
      </trkpt>
      <trkpt lat="51.33879" lon="6.87044">
        <ele>110.549468</ele>
        <time>2023-04-26T10:01:46.383Z</time>
      </trkpt>
      <trkpt lat="51.33885" lon="6.87059">
        <ele>110.795346</ele>
        <time>2023-04-26T10:01:50.296Z</time>
      </trkpt>
      <trkpt lat="51.33891" lon="6.87075">
        <ele>111.053013</ele>
        <time>2023-04-26T10:01:54.281Z</time>
      </trkpt>
      <trkpt lat="51.33897" lon="6.87086">
        <ele>111.257463</ele>
        <time>2023-04-26T10:01:57.294Z</time>
      </trkpt>
      <trkpt lat="51.33904" lon="6.871">
        <ele>111.503477</ele>
        <time>2023-04-26T10:02:01.308Z</time>
      </trkpt>
      <trkpt lat="51.33911" lon="6.87114">
        <ele>111.751213</ele>
        <time>2023-04-26T10:02:05.306Z</time>
      </trkpt>
      <trkpt lat="51.33918" lon="6.87127">
        <ele>111.988535</ele>
        <time>2023-04-26T10:02:09.291Z</time>
      </trkpt>
      <trkpt lat="51.33926" lon="6.8714">
        <ele>112.240669</ele>
        <time>2023-04-26T10:02:13.296Z</time>
      </trkpt>
      <trkpt lat="51.33932" lon="6.87154">
        <ele>112.47552</ele>
        <time>2023-04-26T10:02:17.313Z</time>
      </trkpt>
      <trkpt lat="51.3394" lon="6.87167">
        <ele>112.727653</ele>
        <time>2023-04-26T10:02:21.284Z</time>
      </trkpt>
      <trkpt lat="51.33947" lon="6.87181">
        <ele>113.097627</ele>
        <time>2023-04-26T10:02:25.287Z</time>
      </trkpt>
      <trkpt lat="51.33953" lon="6.87195">
        <ele>113.466927</ele>
        <time>2023-04-26T10:02:29.300Z</time>
      </trkpt>
      <trkpt lat="51.3396" lon="6.8721">
        <ele>113.86993</ele>
        <time>2023-04-26T10:02:33.299Z</time>
      </trkpt>
      <trkpt lat="51.33966" lon="6.87222">
        <ele>114.217042</ele>
        <time>2023-04-26T10:02:37.310Z</time>
      </trkpt>
      <trkpt lat="51.33973" lon="6.87236">
        <ele>114.609176</ele>
        <time>2023-04-26T10:02:41.291Z</time>
      </trkpt>
      <trkpt lat="51.33981" lon="6.87249">
        <ele>114.99508</ele>
        <time>2023-04-26T10:02:45.281Z</time>
      </trkpt>
      <trkpt lat="51.33987" lon="6.87264">
        <ele>115.387719</ele>
        <time>2023-04-26T10:02:49.300Z</time>
      </trkpt>
      <trkpt lat="51.33993" lon="6.87278">
        <ele>115.760791</ele>
        <time>2023-04-26T10:02:53.289Z</time>
      </trkpt>
      <trkpt lat="51.34001" lon="6.87292">
        <ele>116.171926</ele>
        <time>2023-04-26T10:02:57.287Z</time>
      </trkpt>
      <trkpt lat="51.34007" lon="6.87304">
        <ele>116.514317</ele>
        <time>2023-04-26T10:03:00.298Z</time>
      </trkpt>
      <trkpt lat="51.34014" lon="6.87315">
        <ele>116.850221</ele>
        <time>2023-04-26T10:03:03.303Z</time>
      </trkpt>
      <trkpt lat="51.3402" lon="6.87327">
        <ele>117.190906</ele>
        <time>2023-04-26T10:03:06.292Z</time>
      </trkpt>
      <trkpt lat="51.34026" lon="6.87339">
        <ele>117.527037</ele>
        <time>2023-04-26T10:03:09.294Z</time>
      </trkpt>
      <trkpt lat="51.34032" lon="6.87349">
        <ele>117.845662</ele>
        <time>2023-04-26T10:03:12.288Z</time>
      </trkpt>
      <trkpt lat="51.34038" lon="6.87361">
        <ele>118.174991</ele>
        <time>2023-04-26T10:03:15.290Z</time>
      </trkpt>
      <trkpt lat="51.34044" lon="6.87373">
        <ele>118.499043</ele>
        <time>2023-04-26T10:03:18.309Z</time>
      </trkpt>
      <trkpt lat="51.3405" lon="6.87386">
        <ele>118.868309</ele>
        <time>2023-04-26T10:03:21.300Z</time>
      </trkpt>
      <trkpt lat="51.34057" lon="6.87402">
        <ele>119.196371</ele>
        <time>2023-04-26T10:03:25.292Z</time>
      </trkpt>
      <trkpt lat="51.34063" lon="6.87414">
        <ele>119.376774</ele>
        <time>2023-04-26T10:03:28.286Z</time>
      </trkpt>
      <trkpt lat="51.3407" lon="6.87429">
        <ele>119.602009</ele>
        <time>2023-04-26T10:03:32.305Z</time>
      </trkpt>
      <trkpt lat="51.34076" lon="6.87441">
        <ele>119.777897</ele>
        <time>2023-04-26T10:03:35.310Z</time>
      </trkpt>
      <trkpt lat="51.34083" lon="6.87453">
        <ele>119.96131</ele>
        <time>2023-04-26T10:03:38.291Z</time>
      </trkpt>
      <trkpt lat="51.3409" lon="6.87465">
        <ele>120.153951</ele>
        <time>2023-04-26T10:03:41.294Z</time>
      </trkpt>
      <trkpt lat="51.34096" lon="6.87479">
        <ele>120.353821</ele>
        <time>2023-04-26T10:03:44.297Z</time>
      </trkpt>
      <trkpt lat="51.34102" lon="6.87492">
        <ele>120.549145</ele>
        <time>2023-04-26T10:03:47.299Z</time>
      </trkpt>
      <trkpt lat="51.34109" lon="6.87505">
        <ele>120.756067</ele>
        <time>2023-04-26T10:03:50.293Z</time>
      </trkpt>
      <trkpt lat="51.34115" lon="6.87519">
        <ele>120.954984</ele>
        <time>2023-04-26T10:03:53.287Z</time>
      </trkpt>
      <trkpt lat="51.34122" lon="6.87531">
        <ele>121.14976</ele>
        <time>2023-04-26T10:03:56.299Z</time>
      </trkpt>
      <trkpt lat="51.3413" lon="6.87543">
        <ele>121.353386</ele>
        <time>2023-04-26T10:03:59.312Z</time>
      </trkpt>
      <trkpt lat="51.34137" lon="6.87556">
        <ele>121.549523</ele>
        <time>2023-04-26T10:04:02.286Z</time>
      </trkpt>
      <trkpt lat="51.34144" lon="6.87569">
        <ele>121.750166</ele>
        <time>2023-04-26T10:04:05.277Z</time>
      </trkpt>
      <trkpt lat="51.34152" lon="6.87584">
        <ele>121.99004</ele>
        <time>2023-04-26T10:04:08.284Z</time>
      </trkpt>
      <trkpt lat="51.34158" lon="6.87597">
        <ele>122.175251</ele>
        <time>2023-04-26T10:04:10.277Z</time>
      </trkpt>
      <trkpt lat="51.34165" lon="6.8761">
        <ele>122.380995</ele>
        <time>2023-04-26T10:04:12.284Z</time>
      </trkpt>
      <trkpt lat="51.34173" lon="6.87626">
        <ele>122.594443</ele>
        <time>2023-04-26T10:04:14.266Z</time>
      </trkpt>
      <trkpt lat="51.34182" lon="6.87642">
        <ele>122.822105</ele>
        <time>2023-04-26T10:04:16.281Z</time>
      </trkpt>
      <trkpt lat="51.3419" lon="6.8766">
        <ele>123.0581</ele>
        <time>2023-04-26T10:04:18.289Z</time>
      </trkpt>
      <trkpt lat="51.34198" lon="6.87676">
        <ele>123.267787</ele>
        <time>2023-04-26T10:04:20.288Z</time>
      </trkpt>
      <trkpt lat="51.34205" lon="6.87691">
        <ele>123.466729</ele>
        <time>2023-04-26T10:04:22.283Z</time>
      </trkpt>
      <trkpt lat="51.34211" lon="6.87705">
        <ele>123.644005</ele>
        <time>2023-04-26T10:04:24.282Z</time>
      </trkpt>
      <trkpt lat="51.34217" lon="6.87717">
        <ele>123.801223</ele>
        <time>2023-04-26T10:04:26.281Z</time>
      </trkpt>
      <trkpt lat="51.34225" lon="6.87733">
        <ele>124.01886</ele>
        <time>2023-04-26T10:04:29.301Z</time>
      </trkpt>
      <trkpt lat="51.34232" lon="6.87747">
        <ele>124.202165</ele>
        <time>2023-04-26T10:04:32.289Z</time>
      </trkpt>
      <trkpt lat="51.34239" lon="6.87761">
        <ele>124.380353</ele>
        <time>2023-04-26T10:04:35.315Z</time>
      </trkpt>
      <trkpt lat="51.34245" lon="6.87773">
        <ele>124.54917</ele>
        <time>2023-04-26T10:04:38.272Z</time>
      </trkpt>
      <trkpt lat="51.34252" lon="6.87786">
        <ele>124.720658</ele>
        <time>2023-04-26T10:04:41.291Z</time>
      </trkpt>
      <trkpt lat="51.34258" lon="6.87798">
        <ele>124.883064</ele>
        <time>2023-04-26T10:04:44.289Z</time>
      </trkpt>
      <trkpt lat="51.34264" lon="6.8781">
        <ele>125.05188</ele>
        <time>2023-04-26T10:04:47.293Z</time>
      </trkpt>
      <trkpt lat="51.3427" lon="6.87823">
        <ele>125.216939</ele>
        <time>2023-04-26T10:04:50.286Z</time>
      </trkpt>
      <trkpt lat="51.34277" lon="6.87834">
        <ele>125.380231</ele>
        <time>2023-04-26T10:04:53.291Z</time>
      </trkpt>
      <trkpt lat="51.34283" lon="6.87847">
        <ele>125.527051</ele>
        <time>2023-04-26T10:04:56.293Z</time>
      </trkpt>
      <trkpt lat="51.34289" lon="6.87859">
        <ele>125.645156</ele>
        <time>2023-04-26T10:04:59.285Z</time>
      </trkpt>
      <trkpt lat="51.34295" lon="6.87869">
        <ele>125.75711</ele>
        <time>2023-04-26T10:05:02.299Z</time>
      </trkpt>
      <trkpt lat="51.34302" lon="6.87884">
        <ele>125.902644</ele>
        <time>2023-04-26T10:05:06.295Z</time>
      </trkpt>
      <trkpt lat="51.34308" lon="6.87895">
        <ele>126.014835</ele>
        <time>2023-04-26T10:05:09.289Z</time>
      </trkpt>
      <trkpt lat="51.34314" lon="6.87906">
        <ele>126.127577</ele>
        <time>2023-04-26T10:05:12.297Z</time>
      </trkpt>
      <trkpt lat="51.3432" lon="6.87918">
        <ele>126.249848</ele>
        <time>2023-04-26T10:05:15.309Z</time>
      </trkpt>
      <trkpt lat="51.34328" lon="6.8793">
        <ele>126.379091</ele>
        <time>2023-04-26T10:05:18.289Z</time>
      </trkpt>
      <trkpt lat="51.34334" lon="6.87944">
        <ele>126.519715</ele>
        <time>2023-04-26T10:05:21.306Z</time>
      </trkpt>
      <trkpt lat="51.34342" lon="6.8796">
        <ele>126.67145</ele>
        <time>2023-04-26T10:05:24.292Z</time>
      </trkpt>
      <trkpt lat="51.34349" lon="6.87974">
        <ele>126.811709</ele>
        <time>2023-04-26T10:05:27.302Z</time>
      </trkpt>
      <trkpt lat="51.34357" lon="6.87989">
        <ele>126.964826</ele>
        <time>2023-04-26T10:05:30.278Z</time>
      </trkpt>
      <trkpt lat="51.34364" lon="6.88007">
        <ele>127.1336</ele>
        <time>2023-04-26T10:05:33.306Z</time>
      </trkpt>
      <trkpt lat="51.3437" lon="6.88021">
        <ele>127.263296</ele>
        <time>2023-04-26T10:05:35.302Z</time>
      </trkpt>
      <trkpt lat="51.34376" lon="6.88034">
        <ele>127.389956</ele>
        <time>2023-04-26T10:05:37.298Z</time>
      </trkpt>
      <trkpt lat="51.34383" lon="6.88046">
        <ele>127.517219</ele>
        <time>2023-04-26T10:05:39.296Z</time>
      </trkpt>
      <trkpt lat="51.3439" lon="6.88059">
        <ele>127.649636</ele>
        <time>2023-04-26T10:05:41.306Z</time>
      </trkpt>
      <trkpt lat="51.34397" lon="6.88072">
        <ele>127.848083</ele>
        <time>2023-04-26T10:05:43.303Z</time>
      </trkpt>
      <trkpt lat="51.34404" lon="6.88086">
        <ele>128.111266</ele>
        <time>2023-04-26T10:05:45.304Z</time>
      </trkpt>
      <trkpt lat="51.34411" lon="6.881">
        <ele>128.359964</ele>
        <time>2023-04-26T10:05:47.292Z</time>
      </trkpt>
      <trkpt lat="51.34418" lon="6.88113">
        <ele>128.609806</ele>
        <time>2023-04-26T10:05:49.300Z</time>
      </trkpt>
      <trkpt lat="51.34424" lon="6.88126">
        <ele>128.846213</ele>
        <time>2023-04-26T10:05:51.285Z</time>
      </trkpt>
      <trkpt lat="51.34429" lon="6.88139">
        <ele>129.072611</ele>
        <time>2023-04-26T10:05:53.282Z</time>
      </trkpt>
      <trkpt lat="51.34437" lon="6.88156">
        <ele>129.382787</ele>
        <time>2023-04-26T10:05:56.314Z</time>
      </trkpt>
      <trkpt lat="51.34444" lon="6.88173">
        <ele>129.672401</ele>
        <time>2023-04-26T10:05:59.281Z</time>
      </trkpt>
      <trkpt lat="51.34451" lon="6.8819">
        <ele>129.95923</ele>
        <time>2023-04-26T10:06:02.285Z</time>
      </trkpt>
      <trkpt lat="51.34456" lon="6.88206">
        <ele>130.237694</ele>
        <time>2023-04-26T10:06:05.285Z</time>
      </trkpt>
      <trkpt lat="51.34462" lon="6.88224">
        <ele>130.525293</ele>
        <time>2023-04-26T10:06:08.308Z</time>
      </trkpt>
      <trkpt lat="51.34467" lon="6.8824">
        <ele>130.786091</ele>
        <time>2023-04-26T10:06:11.294Z</time>
      </trkpt>
      <trkpt lat="51.34471" lon="6.88258">
        <ele>131.064199</ele>
        <time>2023-04-26T10:06:14.291Z</time>
      </trkpt>
      <trkpt lat="51.34475" lon="6.88276">
        <ele>131.339418</ele>
        <time>2023-04-26T10:06:17.295Z</time>
      </trkpt>
      <trkpt lat="51.34479" lon="6.88294">
        <ele>131.615099</ele>
        <time>2023-04-26T10:06:20.280Z</time>
      </trkpt>
      <trkpt lat="51.34482" lon="6.88312">
        <ele>131.881772</ele>
        <time>2023-04-26T10:06:23.286Z</time>
      </trkpt>
      <trkpt lat="51.34484" lon="6.88329">
        <ele>132.117455</ele>
        <time>2023-04-26T10:06:26.292Z</time>
      </trkpt>
      <trkpt lat="51.34487" lon="6.88347">
        <ele>132.360881</ele>
        <time>2023-04-26T10:06:29.292Z</time>
      </trkpt>
      <trkpt lat="51.34489" lon="6.88365">
        <ele>132.602945</ele>
        <time>2023-04-26T10:06:32.294Z</time>
      </trkpt>
      <trkpt lat="51.34491" lon="6.88382">
        <ele>132.83099</ele>
        <time>2023-04-26T10:06:35.304Z</time>
      </trkpt>
      <trkpt lat="51.34492" lon="6.88397">
        <ele>133.038435</ele>
        <time>2023-04-26T10:06:38.284Z</time>
      </trkpt>
      <trkpt lat="51.34495" lon="6.88415">
        <ele>133.270989</ele>
        <time>2023-04-26T10:06:42.304Z</time>
      </trkpt>
      <trkpt lat="51.34494" lon="6.8843">
        <ele>133.473749</ele>
        <time>2023-04-26T10:06:46.276Z</time>
      </trkpt>
      <trkpt lat="51.34505" lon="6.88438">
        <ele>133.723617</ele>
        <time>2023-04-26T10:07:37.300Z</time>
      </trkpt>
      <trkpt lat="51.34515" lon="6.88438">
        <ele>133.925111</ele>
        <time>2023-04-26T10:07:43.291Z</time>
      </trkpt>
      <trkpt lat="51.34525" lon="6.88447">
        <ele>134.172066</ele>
        <time>2023-04-26T10:08:12.285Z</time>
      </trkpt>
      <trkpt lat="51.34534" lon="6.88443">
        <ele>134.368826</ele>
        <time>2023-04-26T10:08:15.289Z</time>
      </trkpt>
      <trkpt lat="51.34544" lon="6.8844">
        <ele>134.579476</ele>
        <time>2023-04-26T10:08:18.300Z</time>
      </trkpt>
      <trkpt lat="51.34554" lon="6.88445">
        <ele>134.804925</ele>
        <time>2023-04-26T10:08:21.283Z</time>
      </trkpt>
      <trkpt lat="51.34564" lon="6.8845">
        <ele>135.035195</ele>
        <time>2023-04-26T10:08:24.280Z</time>
      </trkpt>
      <trkpt lat="51.34574" lon="6.88456">
        <ele>135.263185</ele>
        <time>2023-04-26T10:08:27.306Z</time>
      </trkpt>
      <trkpt lat="51.34584" lon="6.88463">
        <ele>135.497358</ele>
        <time>2023-04-26T10:08:30.273Z</time>
      </trkpt>
      <trkpt lat="51.34594" lon="6.88473">
        <ele>135.785603</ele>
        <time>2023-04-26T10:08:33.286Z</time>
      </trkpt>
      <trkpt lat="51.34604" lon="6.88484">
        <ele>136.205618</ele>
        <time>2023-04-26T10:08:36.286Z</time>
      </trkpt>
      <trkpt lat="51.34613" lon="6.88496">
        <ele>136.654497</ele>
        <time>2023-04-26T10:08:39.296Z</time>
      </trkpt>
      <trkpt lat="51.34621" lon="6.88509">
        <ele>137.08521</ele>
        <time>2023-04-26T10:08:42.302Z</time>
      </trkpt>
      <trkpt lat="51.34628" lon="6.88524">
        <ele>137.501413</ele>
        <time>2023-04-26T10:08:45.290Z</time>
      </trkpt>
      <trkpt lat="51.34634" lon="6.88538">
        <ele>137.914921</ele>
        <time>2023-04-26T10:08:48.280Z</time>
      </trkpt>
      <trkpt lat="51.34642" lon="6.88551">
        <ele>138.329523</ele>
        <time>2023-04-26T10:08:51.276Z</time>
      </trkpt>
      <trkpt lat="51.34649" lon="6.88566">
        <ele>138.77134</ele>
        <time>2023-04-26T10:08:54.288Z</time>
      </trkpt>
      <trkpt lat="51.34656" lon="6.88581">
        <ele>139.206799</ele>
        <time>2023-04-26T10:08:57.309Z</time>
      </trkpt>
      <trkpt lat="51.34664" lon="6.88596">
        <ele>139.650388</ele>
        <time>2023-04-26T10:09:00.290Z</time>
      </trkpt>
      <trkpt lat="51.34673" lon="6.88611">
        <ele>140.133659</ele>
        <time>2023-04-26T10:09:03.301Z</time>
      </trkpt>
      <trkpt lat="51.3468" lon="6.88625">
        <ele>140.559938</ele>
        <time>2023-04-26T10:09:06.295Z</time>
      </trkpt>
      <trkpt lat="51.34686" lon="6.88641">
        <ele>140.991985</ele>
        <time>2023-04-26T10:09:09.290Z</time>
      </trkpt>
      <trkpt lat="51.34694" lon="6.88656">
        <ele>141.461564</ele>
        <time>2023-04-26T10:09:12.278Z</time>
      </trkpt>
      <trkpt lat="51.34703" lon="6.88671">
        <ele>141.92702</ele>
        <time>2023-04-26T10:09:15.275Z</time>
      </trkpt>
      <trkpt lat="51.3471" lon="6.88686">
        <ele>142.37298</ele>
        <time>2023-04-26T10:09:18.289Z</time>
      </trkpt>
      <trkpt lat="51.34717" lon="6.887">
        <ele>142.500598</ele>
        <time>2023-04-26T10:09:21.305Z</time>
      </trkpt>
      <trkpt lat="51.34725" lon="6.88715">
        <ele>142.615793</ele>
        <time>2023-04-26T10:09:24.298Z</time>
      </trkpt>
      <trkpt lat="51.34732" lon="6.88728">
        <ele>142.726024</ele>
        <time>2023-04-26T10:09:27.288Z</time>
      </trkpt>
      <trkpt lat="51.34739" lon="6.88743">
        <ele>142.843365</ele>
        <time>2023-04-26T10:09:30.290Z</time>
      </trkpt>
      <trkpt lat="51.34746" lon="6.88757">
        <ele>142.956432</ele>
        <time>2023-04-26T10:09:33.310Z</time>
      </trkpt>
      <trkpt lat="51.34753" lon="6.88771">
        <ele>143.06941</ele>
        <time>2023-04-26T10:09:36.294Z</time>
      </trkpt>
      <trkpt lat="51.3476" lon="6.88786">
        <ele>143.188568</ele>
        <time>2023-04-26T10:09:39.295Z</time>
      </trkpt>
      <trkpt lat="51.34768" lon="6.88799">
        <ele>143.295561</ele>
        <time>2023-04-26T10:09:42.293Z</time>
      </trkpt>
      <trkpt lat="51.34775" lon="6.88811">
        <ele>143.405152</ele>
        <time>2023-04-26T10:09:45.290Z</time>
      </trkpt>
      <trkpt lat="51.34782" lon="6.88825">
        <ele>143.511518</ele>
        <time>2023-04-26T10:09:48.286Z</time>
      </trkpt>
      <trkpt lat="51.34788" lon="6.88839">
        <ele>143.620494</ele>
        <time>2023-04-26T10:09:51.311Z</time>
      </trkpt>
      <trkpt lat="51.34796" lon="6.88854">
        <ele>143.748325</ele>
        <time>2023-04-26T10:09:54.295Z</time>
      </trkpt>
      <trkpt lat="51.34803" lon="6.88867">
        <ele>143.85066</ele>
        <time>2023-04-26T10:09:56.291Z</time>
      </trkpt>
      <trkpt lat="51.34809" lon="6.8888">
        <ele>143.954525</ele>
        <time>2023-04-26T10:09:58.294Z</time>
      </trkpt>
      <trkpt lat="51.34815" lon="6.88893">
        <ele>144.054583</ele>
        <time>2023-04-26T10:10:00.305Z</time>
      </trkpt>
      <trkpt lat="51.34822" lon="6.88906">
        <ele>144.161412</ele>
        <time>2023-04-26T10:10:02.292Z</time>
      </trkpt>
      <trkpt lat="51.3483" lon="6.88919">
        <ele>143.912601</ele>
        <time>2023-04-26T10:10:04.297Z</time>
      </trkpt>
      <trkpt lat="51.34838" lon="6.88934">
        <ele>143.510412</ele>
        <time>2023-04-26T10:10:06.301Z</time>
      </trkpt>
      <trkpt lat="51.34845" lon="6.88951">
        <ele>143.092331</ele>
        <time>2023-04-26T10:10:08.271Z</time>
      </trkpt>
      <trkpt lat="51.34853" lon="6.88966">
        <ele>142.697587</ele>
        <time>2023-04-26T10:10:10.309Z</time>
      </trkpt>
      <trkpt lat="51.3486" lon="6.88982">
        <ele>142.290685</ele>
        <time>2023-04-26T10:10:12.291Z</time>
      </trkpt>
      <trkpt lat="51.34869" lon="6.88997">
        <ele>141.860789</ele>
        <time>2023-04-26T10:10:14.275Z</time>
      </trkpt>
      <trkpt lat="51.34877" lon="6.89013">
        <ele>141.442744</ele>
        <time>2023-04-26T10:10:16.287Z</time>
      </trkpt>
      <trkpt lat="51.34886" lon="6.89031">
        <ele>140.987652</ele>
        <time>2023-04-26T10:10:18.287Z</time>
      </trkpt>
      <trkpt lat="51.34895" lon="6.89049">
        <ele>140.511637</ele>
        <time>2023-04-26T10:10:20.290Z</time>
      </trkpt>
      <trkpt lat="51.34905" lon="6.89068">
        <ele>140.012667</ele>
        <time>2023-04-26T10:10:22.296Z</time>
      </trkpt>
      <trkpt lat="51.34916" lon="6.89087">
        <ele>139.484841</ele>
        <time>2023-04-26T10:10:24.302Z</time>
      </trkpt>
      <trkpt lat="51.34926" lon="6.89107">
        <ele>138.9527</ele>
        <time>2023-04-26T10:10:26.308Z</time>
      </trkpt>
      <trkpt lat="51.34936" lon="6.89127">
        <ele>138.42756</ele>
        <time>2023-04-26T10:10:28.296Z</time>
      </trkpt>
      <trkpt lat="51.34946" lon="6.89146">
        <ele>138.433763</ele>
        <time>2023-04-26T10:10:30.302Z</time>
      </trkpt>
      <trkpt lat="51.34955" lon="6.89163">
        <ele>138.575</ele>
        <time>2023-04-26T10:10:32.315Z</time>
      </trkpt>
      <trkpt lat="51.34964" lon="6.8918">
        <ele>138.710976</ele>
        <time>2023-04-26T10:10:34.301Z</time>
      </trkpt>
      <trkpt lat="51.34972" lon="6.89195">
        <ele>138.835639</ele>
        <time>2023-04-26T10:10:36.292Z</time>
      </trkpt>
      <trkpt lat="51.34979" lon="6.8921">
        <ele>138.955327</ele>
        <time>2023-04-26T10:10:38.292Z</time>
      </trkpt>
      <trkpt lat="51.34985" lon="6.89222">
        <ele>139.056206</ele>
        <time>2023-04-26T10:10:40.307Z</time>
      </trkpt>
      <trkpt lat="51.34991" lon="6.89233">
        <ele>139.150525</ele>
        <time>2023-04-26T10:10:42.292Z</time>
      </trkpt>
      <trkpt lat="51.34999" lon="6.89249">
        <ele>139.27973</ele>
        <time>2023-04-26T10:10:45.295Z</time>
      </trkpt>
      <trkpt lat="51.35007" lon="6.89265">
        <ele>139.407278</ele>
        <time>2023-04-26T10:10:48.305Z</time>
      </trkpt>
      <trkpt lat="51.35014" lon="6.89279">
        <ele>139.527494</ele>
        <time>2023-04-26T10:10:51.302Z</time>
      </trkpt>
      <trkpt lat="51.35022" lon="6.89294">
        <ele>139.648848</ele>
        <time>2023-04-26T10:10:54.295Z</time>
      </trkpt>
      <trkpt lat="51.3503" lon="6.8931">
        <ele>139.777556</ele>
        <time>2023-04-26T10:10:57.308Z</time>
      </trkpt>
      <trkpt lat="51.35038" lon="6.89325">
        <ele>139.907981</ele>
        <time>2023-04-26T10:11:00.287Z</time>
      </trkpt>
      <trkpt lat="51.35046" lon="6.8934">
        <ele>140.032757</ele>
        <time>2023-04-26T10:11:03.296Z</time>
      </trkpt>
      <trkpt lat="51.35054" lon="6.89355">
        <ele>140.158302</ele>
        <time>2023-04-26T10:11:06.288Z</time>
      </trkpt>
      <trkpt lat="51.35061" lon="6.89369">
        <ele>140.285185</ele>
        <time>2023-04-26T10:11:09.272Z</time>
      </trkpt>
      <trkpt lat="51.35069" lon="6.89384">
        <ele>140.412873</ele>
        <time>2023-04-26T10:11:12.296Z</time>
      </trkpt>
      <trkpt lat="51.35076" lon="6.89398">
        <ele>140.540018</ele>
        <time>2023-04-26T10:11:15.282Z</time>
      </trkpt>
      <trkpt lat="51.35084" lon="6.89412">
        <ele>140.665236</ele>
        <time>2023-04-26T10:11:18.285Z</time>
      </trkpt>
      <trkpt lat="51.35091" lon="6.89427">
        <ele>140.786894</ele>
        <time>2023-04-26T10:11:21.270Z</time>
      </trkpt>
      <trkpt lat="51.35099" lon="6.8944">
        <ele>140.915179</ele>
        <time>2023-04-26T10:11:24.269Z</time>
      </trkpt>
      <trkpt lat="51.35107" lon="6.89453">
        <ele>141.040717</ele>
        <time>2023-04-26T10:11:27.284Z</time>
      </trkpt>
      <trkpt lat="51.35116" lon="6.89467">
        <ele>141.179519</ele>
        <time>2023-04-26T10:11:30.278Z</time>
      </trkpt>
      <trkpt lat="51.35125" lon="6.89483">
        <ele>141.318742</ele>
        <time>2023-04-26T10:11:33.282Z</time>
      </trkpt>
      <trkpt lat="51.35132" lon="6.89501">
        <ele>141.464727</ele>
        <time>2023-04-26T10:11:36.285Z</time>
      </trkpt>
      <trkpt lat="51.35138" lon="6.89513">
        <ele>141.571913</ele>
        <time>2023-04-26T10:11:38.289Z</time>
      </trkpt>
      <trkpt lat="51.35144" lon="6.89526">
        <ele>141.682273</ele>
        <time>2023-04-26T10:11:40.282Z</time>
      </trkpt>
      <trkpt lat="51.35151" lon="6.89539">
        <ele>141.796007</ele>
        <time>2023-04-26T10:11:42.280Z</time>
      </trkpt>
      <trkpt lat="51.35156" lon="6.89552">
        <ele>141.90329</ele>
        <time>2023-04-26T10:11:44.294Z</time>
      </trkpt>
      <trkpt lat="51.35162" lon="6.89564">
        <ele>142.006777</ele>
        <time>2023-04-26T10:11:46.299Z</time>
      </trkpt>
      <trkpt lat="51.35168" lon="6.89577">
        <ele>142.127996</ele>
        <time>2023-04-26T10:11:48.298Z</time>
      </trkpt>
      <trkpt lat="51.35174" lon="6.8959">
        <ele>142.317466</ele>
        <time>2023-04-26T10:11:50.290Z</time>
      </trkpt>
      <trkpt lat="51.35182" lon="6.89606">
        <ele>142.546119</ele>
        <time>2023-04-26T10:11:53.299Z</time>
      </trkpt>
      <trkpt lat="51.35189" lon="6.89621">
        <ele>142.756364</ele>
        <time>2023-04-26T10:11:56.285Z</time>
      </trkpt>
      <trkpt lat="51.35196" lon="6.89634">
        <ele>142.956224</ele>
        <time>2023-04-26T10:11:59.290Z</time>
      </trkpt>
      <trkpt lat="51.35202" lon="6.89647">
        <ele>143.149441</ele>
        <time>2023-04-26T10:12:02.290Z</time>
      </trkpt>
      <trkpt lat="51.3521" lon="6.8966">
        <ele>143.346614</ele>
        <time>2023-04-26T10:12:05.303Z</time>
      </trkpt>
      <trkpt lat="51.35216" lon="6.89672">
        <ele>143.527807</ele>
        <time>2023-04-26T10:12:08.294Z</time>
      </trkpt>
      <trkpt lat="51.35222" lon="6.89684">
        <ele>143.701087</ele>
        <time>2023-04-26T10:12:11.292Z</time>
      </trkpt>
      <trkpt lat="51.35228" lon="6.89696">
        <ele>143.874767</ele>
        <time>2023-04-26T10:12:14.297Z</time>
      </trkpt>
      <trkpt lat="51.35234" lon="6.89708">
        <ele>144.052789</ele>
        <time>2023-04-26T10:12:17.309Z</time>
      </trkpt>
      <trkpt lat="51.3524" lon="6.8972">
        <ele>144.235155</ele>
        <time>2023-04-26T10:12:20.298Z</time>
      </trkpt>
      <trkpt lat="51.35247" lon="6.89733">
        <ele>144.428959</ele>
        <time>2023-04-26T10:12:23.303Z</time>
      </trkpt>
      <trkpt lat="51.35254" lon="6.89748">
        <ele>144.645123</ele>
        <time>2023-04-26T10:12:26.292Z</time>
      </trkpt>
      <trkpt lat="51.35261" lon="6.89763">
        <ele>144.861882</ele>
        <time>2023-04-26T10:12:29.305Z</time>
      </trkpt>
      <trkpt lat="51.3527" lon="6.89778">
        <ele>145.085406</ele>
        <time>2023-04-26T10:12:32.302Z</time>
      </trkpt>
      <trkpt lat="51.35277" lon="6.89792">
        <ele>145.300623</ele>
        <time>2023-04-26T10:12:35.305Z</time>
      </trkpt>
      <trkpt lat="51.35283" lon="6.89807">
        <ele>145.430189</ele>
        <time>2023-04-26T10:12:38.316Z</time>
      </trkpt>
      <trkpt lat="51.3529" lon="6.89821">
        <ele>145.495289</ele>
        <time>2023-04-26T10:12:41.293Z</time>
      </trkpt>
      <trkpt lat="51.35298" lon="6.89834">
        <ele>145.560442</ele>
        <time>2023-04-26T10:12:44.292Z</time>
      </trkpt>
      <trkpt lat="51.35305" lon="6.89847">
        <ele>145.621555</ele>
        <time>2023-04-26T10:12:47.294Z</time>
      </trkpt>
      <trkpt lat="51.35311" lon="6.89862">
        <ele>145.686227</ele>
        <time>2023-04-26T10:12:50.290Z</time>
      </trkpt>
      <trkpt lat="51.35319" lon="6.89876">
        <ele>145.75354</ele>
        <time>2023-04-26T10:12:53.297Z</time>
      </trkpt>
      <trkpt lat="51.35326" lon="6.89892">
        <ele>145.823703</ele>
        <time>2023-04-26T10:12:56.295Z</time>
      </trkpt>
      <trkpt lat="51.35334" lon="6.89907">
        <ele>145.894075</ele>
        <time>2023-04-26T10:12:59.298Z</time>
      </trkpt>
      <trkpt lat="51.3534" lon="6.89918">
        <ele>145.946859</ele>
        <time>2023-04-26T10:13:01.310Z</time>
      </trkpt>
      <trkpt lat="51.35346" lon="6.8993">
        <ele>146.005468</ele>
        <time>2023-04-26T10:13:03.305Z</time>
      </trkpt>
      <trkpt lat="51.35353" lon="6.89944">
        <ele>146.068999</ele>
        <time>2023-04-26T10:13:05.311Z</time>
      </trkpt>
      <trkpt lat="51.3536" lon="6.89958">
        <ele>146.134361</ele>
        <time>2023-04-26T10:13:07.298Z</time>
      </trkpt>
      <trkpt lat="51.35367" lon="6.89973">
        <ele>146.202961</ele>
        <time>2023-04-26T10:13:09.315Z</time>
      </trkpt>
      <trkpt lat="51.35375" lon="6.89988">
        <ele>146.272047</ele>
        <time>2023-04-26T10:13:11.304Z</time>
      </trkpt>
      <trkpt lat="51.35382" lon="6.90003">
        <ele>146.339209</ele>
        <time>2023-04-26T10:13:13.297Z</time>
      </trkpt>
      <trkpt lat="51.35389" lon="6.90016">
        <ele>146.403099</ele>
        <time>2023-04-26T10:13:15.299Z</time>
      </trkpt>
      <trkpt lat="51.35396" lon="6.90029">
        <ele>146.390328</ele>
        <time>2023-04-26T10:13:17.307Z</time>
      </trkpt>
      <trkpt lat="51.35403" lon="6.90043">
        <ele>146.287819</ele>
        <time>2023-04-26T10:13:19.297Z</time>
      </trkpt>
      <trkpt lat="51.35409" lon="6.90055">
        <ele>146.194756</ele>
        <time>2023-04-26T10:13:21.312Z</time>
      </trkpt>
      <trkpt lat="51.35415" lon="6.90067">
        <ele>146.103559</ele>
        <time>2023-04-26T10:13:23.311Z</time>
      </trkpt>
      <trkpt lat="51.35421" lon="6.90079">
        <ele>146.014539</ele>
        <time>2023-04-26T10:13:25.302Z</time>
      </trkpt>
      <trkpt lat="51.35427" lon="6.90091">
        <ele>145.929688</ele>
        <time>2023-04-26T10:13:27.300Z</time>
      </trkpt>
      <trkpt lat="51.35435" lon="6.90108">
        <ele>145.804595</ele>
        <time>2023-04-26T10:13:30.309Z</time>
      </trkpt>
      <trkpt lat="51.35441" lon="6.90119">
        <ele>145.718245</ele>
        <time>2023-04-26T10:13:32.301Z</time>
      </trkpt>
      <trkpt lat="51.35447" lon="6.90131">
        <ele>145.62953</ele>
        <time>2023-04-26T10:13:34.296Z</time>
      </trkpt>
      <trkpt lat="51.35453" lon="6.90143">
        <ele>145.539916</ele>
        <time>2023-04-26T10:13:36.295Z</time>
      </trkpt>
      <trkpt lat="51.35459" lon="6.90153">
        <ele>145.454954</ele>
        <time>2023-04-26T10:13:38.286Z</time>
      </trkpt>
      <trkpt lat="51.35465" lon="6.90165">
        <ele>145.367218</ele>
        <time>2023-04-26T10:13:40.304Z</time>
      </trkpt>
      <trkpt lat="51.35471" lon="6.90177">
        <ele>145.279244</ele>
        <time>2023-04-26T10:13:42.289Z</time>
      </trkpt>
      <trkpt lat="51.35477" lon="6.90188">
        <ele>145.18931</ele>
        <time>2023-04-26T10:13:44.295Z</time>
      </trkpt>
      <trkpt lat="51.35483" lon="6.90201">
        <ele>145.095926</ele>
        <time>2023-04-26T10:13:46.299Z</time>
      </trkpt>
      <trkpt lat="51.3549" lon="6.90214">
        <ele>144.998736</ele>
        <time>2023-04-26T10:13:48.316Z</time>
      </trkpt>
      <trkpt lat="51.35496" lon="6.90227">
        <ele>144.898898</ele>
        <time>2023-04-26T10:13:50.300Z</time>
      </trkpt>
      <trkpt lat="51.35503" lon="6.90241">
        <ele>144.795041</ele>
        <time>2023-04-26T10:13:52.303Z</time>
      </trkpt>
      <trkpt lat="51.35511" lon="6.90255">
        <ele>144.740404</ele>
        <time>2023-04-26T10:13:54.288Z</time>
      </trkpt>
      <trkpt lat="51.35519" lon="6.9027">
        <ele>144.719833</ele>
        <time>2023-04-26T10:13:56.305Z</time>
      </trkpt>
      <trkpt lat="51.35527" lon="6.90286">
        <ele>144.698534</ele>
        <time>2023-04-26T10:13:58.296Z</time>
      </trkpt>
      <trkpt lat="51.35535" lon="6.90302">
        <ele>144.677345</ele>
        <time>2023-04-26T10:14:00.296Z</time>
      </trkpt>
      <trkpt lat="51.35543" lon="6.90318">
        <ele>144.656321</ele>
        <time>2023-04-26T10:14:02.291Z</time>
      </trkpt>
      <trkpt lat="51.35551" lon="6.90333">
        <ele>144.635746</ele>
        <time>2023-04-26T10:14:04.293Z</time>
      </trkpt>
      <trkpt lat="51.35558" lon="6.90348">
        <ele>144.61611</ele>
        <time>2023-04-26T10:14:06.311Z</time>
      </trkpt>
      <trkpt lat="51.35565" lon="6.90363">
        <ele>144.596907</ele>
        <time>2023-04-26T10:14:08.286Z</time>
      </trkpt>
      <trkpt lat="51.35572" lon="6.90377">
        <ele>144.577183</ele>
        <time>2023-04-26T10:14:10.301Z</time>
      </trkpt>
      <trkpt lat="51.3558" lon="6.90392">
        <ele>144.55741</ele>
        <time>2023-04-26T10:14:12.298Z</time>
      </trkpt>
      <trkpt lat="51.35587" lon="6.90406">
        <ele>144.538142</ele>
        <time>2023-04-26T10:14:14.285Z</time>
      </trkpt>
      <trkpt lat="51.35595" lon="6.9042">
        <ele>144.519168</ele>
        <time>2023-04-26T10:14:16.290Z</time>
      </trkpt>
      <trkpt lat="51.35602" lon="6.90434">
        <ele>144.500988</ele>
        <time>2023-04-26T10:14:18.298Z</time>
      </trkpt>
      <trkpt lat="51.35608" lon="6.90447">
        <ele>144.483132</ele>
        <time>2023-04-26T10:14:20.282Z</time>
      </trkpt>
      <trkpt lat="51.35615" lon="6.90459">
        <ele>144.466501</ele>
        <time>2023-04-26T10:14:22.303Z</time>
      </trkpt>
      <trkpt lat="51.35621" lon="6.90472">
        <ele>144.49534</ele>
        <time>2023-04-26T10:14:24.297Z</time>
      </trkpt>
      <trkpt lat="51.35627" lon="6.90485">
        <ele>144.74756</ele>
        <time>2023-04-26T10:14:26.293Z</time>
      </trkpt>
      <trkpt lat="51.35633" lon="6.90497">
        <ele>144.996449</ele>
        <time>2023-04-26T10:14:28.292Z</time>
      </trkpt>
      <trkpt lat="51.35641" lon="6.90514">
        <ele>145.330922</ele>
        <time>2023-04-26T10:14:31.295Z</time>
      </trkpt>
      <trkpt lat="51.35648" lon="6.90529">
        <ele>145.628669</ele>
        <time>2023-04-26T10:14:34.284Z</time>
      </trkpt>
      <trkpt lat="51.35656" lon="6.90542">
        <ele>145.921478</ele>
        <time>2023-04-26T10:14:37.312Z</time>
      </trkpt>
      <trkpt lat="51.35663" lon="6.90557">
        <ele>146.213047</ele>
        <time>2023-04-26T10:14:40.285Z</time>
      </trkpt>
      <trkpt lat="51.3567" lon="6.9057">
        <ele>146.486176</ele>
        <time>2023-04-26T10:14:43.314Z</time>
      </trkpt>
      <trkpt lat="51.35678" lon="6.90583">
        <ele>146.771403</ele>
        <time>2023-04-26T10:14:46.296Z</time>
      </trkpt>
      <trkpt lat="51.35684" lon="6.90597">
        <ele>147.032691</ele>
        <time>2023-04-26T10:14:49.298Z</time>
      </trkpt>
      <trkpt lat="51.3569" lon="6.90608">
        <ele>147.276386</ele>
        <time>2023-04-26T10:14:52.315Z</time>
      </trkpt>
      <trkpt lat="51.35696" lon="6.90621">
        <ele>147.528304</ele>
        <time>2023-04-26T10:14:55.286Z</time>
      </trkpt>
      <trkpt lat="51.35703" lon="6.90633">
        <ele>147.783595</ele>
        <time>2023-04-26T10:14:58.295Z</time>
      </trkpt>
      <trkpt lat="51.3571" lon="6.90647">
        <ele>148.065486</ele>
        <time>2023-04-26T10:15:02.294Z</time>
      </trkpt>
      <trkpt lat="51.35716" lon="6.90659">
        <ele>148.303265</ele>
        <time>2023-04-26T10:15:06.294Z</time>
      </trkpt>
      <trkpt lat="51.35723" lon="6.90673">
        <ele>148.588357</ele>
        <time>2023-04-26T10:15:11.319Z</time>
      </trkpt>
      <trkpt lat="51.35729" lon="6.90687">
        <ele>148.864473</ele>
        <time>2023-04-26T10:15:16.296Z</time>
      </trkpt>
      <trkpt lat="51.35735" lon="6.907">
        <ele>148.904014</ele>
        <time>2023-04-26T10:15:21.293Z</time>
      </trkpt>
      <trkpt lat="51.35738" lon="6.90715">
        <ele>148.703615</ele>
        <time>2023-04-26T10:15:26.283Z</time>
      </trkpt>
      <trkpt lat="51.35743" lon="6.9073">
        <ele>148.480762</ele>
        <time>2023-04-26T10:15:31.293Z</time>
      </trkpt>
      <trkpt lat="51.35747" lon="6.90745">
        <ele>148.266244</ele>
        <time>2023-04-26T10:15:36.292Z</time>
      </trkpt>
      <trkpt lat="51.3575" lon="6.90759">
        <ele>148.076005</ele>
        <time>2023-04-26T10:15:41.300Z</time>
      </trkpt>
      <trkpt lat="51.35753" lon="6.90775">
        <ele>147.85677</ele>
        <time>2023-04-26T10:15:46.296Z</time>
      </trkpt>
      <trkpt lat="51.35759" lon="6.90796">
        <ele>147.570525</ele>
        <time>2023-04-26T10:17:11.309Z</time>
      </trkpt>
      <trkpt lat="51.35763" lon="6.90809">
        <ele>147.372787</ele>
        <time>2023-04-26T10:17:14.297Z</time>
      </trkpt>
      <trkpt lat="51.35767" lon="6.90828">
        <ele>147.116225</ele>
        <time>2023-04-26T10:17:17.269Z</time>
      </trkpt>
      <trkpt lat="51.3577" lon="6.90842">
        <ele>146.923063</ele>
        <time>2023-04-26T10:17:19.294Z</time>
      </trkpt>
      <trkpt lat="51.35773" lon="6.90856">
        <ele>146.724091</ele>
        <time>2023-04-26T10:17:21.315Z</time>
      </trkpt>
      <trkpt lat="51.35777" lon="6.90872">
        <ele>146.510503</ele>
        <time>2023-04-26T10:17:23.300Z</time>
      </trkpt>
      <trkpt lat="51.35781" lon="6.90888">
        <ele>146.284077</ele>
        <time>2023-04-26T10:17:25.291Z</time>
      </trkpt>
      <trkpt lat="51.35785" lon="6.90905">
        <ele>146.056665</ele>
        <time>2023-04-26T10:17:27.311Z</time>
      </trkpt>
      <trkpt lat="51.35788" lon="6.90922">
        <ele>145.812728</ele>
        <time>2023-04-26T10:17:29.305Z</time>
      </trkpt>
      <trkpt lat="51.35792" lon="6.9094">
        <ele>145.566258</ele>
        <time>2023-04-26T10:17:31.300Z</time>
      </trkpt>
      <trkpt lat="51.35797" lon="6.90959">
        <ele>145.299608</ele>
        <time>2023-04-26T10:17:33.305Z</time>
      </trkpt>
      <trkpt lat="51.35802" lon="6.90979">
        <ele>144.806379</ele>
        <time>2023-04-26T10:17:35.296Z</time>
      </trkpt>
      <trkpt lat="51.35807" lon="6.90998">
        <ele>144.288407</ele>
        <time>2023-04-26T10:17:37.297Z</time>
      </trkpt>
      <trkpt lat="51.35812" lon="6.91018">
        <ele>143.758271</ele>
        <time>2023-04-26T10:17:39.310Z</time>
      </trkpt>
      <trkpt lat="51.35818" lon="6.91038">
        <ele>143.196417</ele>
        <time>2023-04-26T10:17:41.312Z</time>
      </trkpt>
      <trkpt lat="51.35823" lon="6.91058">
        <ele>142.660901</ele>
        <time>2023-04-26T10:17:43.274Z</time>
      </trkpt>
      <trkpt lat="51.3583" lon="6.91077">
        <ele>142.12793</ele>
        <time>2023-04-26T10:17:45.293Z</time>
      </trkpt>
      <trkpt lat="51.3584" lon="6.91094">
        <ele>141.546603</ele>
        <time>2023-04-26T10:17:47.293Z</time>
      </trkpt>
      <trkpt lat="51.35849" lon="6.91113">
        <ele>140.938272</ele>
        <time>2023-04-26T10:17:49.280Z</time>
      </trkpt>
      <trkpt lat="51.35858" lon="6.91132">
        <ele>140.338708</ele>
        <time>2023-04-26T10:17:51.310Z</time>
      </trkpt>
      <trkpt lat="51.35865" lon="6.91156">
        <ele>139.687624</ele>
        <time>2023-04-26T10:17:53.289Z</time>
      </trkpt>
      <trkpt lat="51.35868" lon="6.91182">
        <ele>139.027061</ele>
        <time>2023-04-26T10:17:55.294Z</time>
      </trkpt>
      <trkpt lat="51.3587" lon="6.91207">
        <ele>138.394768</ele>
        <time>2023-04-26T10:17:57.286Z</time>
      </trkpt>
      <trkpt lat="51.35871" lon="6.91231">
        <ele>137.619623</ele>
        <time>2023-04-26T10:17:59.281Z</time>
      </trkpt>
      <trkpt lat="51.35873" lon="6.91254">
        <ele>136.712563</ele>
        <time>2023-04-26T10:18:01.296Z</time>
      </trkpt>
      <trkpt lat="51.35878" lon="6.91276">
        <ele>135.802023</ele>
        <time>2023-04-26T10:18:03.296Z</time>
      </trkpt>
      <trkpt lat="51.35888" lon="6.91293">
        <ele>134.891181</ele>
        <time>2023-04-26T10:18:05.286Z</time>
      </trkpt>
      <trkpt lat="51.35902" lon="6.91304">
        <ele>133.926916</ele>
        <time>2023-04-26T10:18:07.322Z</time>
      </trkpt>
      <trkpt lat="51.35917" lon="6.91311">
        <ele>132.943949</ele>
        <time>2023-04-26T10:18:09.297Z</time>
      </trkpt>
      <trkpt lat="51.35933" lon="6.91318">
        <ele>131.877314</ele>
        <time>2023-04-26T10:18:11.290Z</time>
      </trkpt>
      <trkpt lat="51.35949" lon="6.91325">
        <ele>130.82529</ele>
        <time>2023-04-26T10:18:13.279Z</time>
      </trkpt>
      <trkpt lat="51.35965" lon="6.91333">
        <ele>129.778722</ele>
        <time>2023-04-26T10:18:15.304Z</time>
      </trkpt>
      <trkpt lat="51.35981" lon="6.9134">
        <ele>128.728398</ele>
        <time>2023-04-26T10:18:17.301Z</time>
      </trkpt>
      <trkpt lat="51.35998" lon="6.91348">
        <ele>127.649439</ele>
        <time>2023-04-26T10:18:19.293Z</time>
      </trkpt>
      <trkpt lat="51.36014" lon="6.91356">
        <ele>126.653117</ele>
        <time>2023-04-26T10:18:21.292Z</time>
      </trkpt>
      <trkpt lat="51.3603" lon="6.91367">
        <ele>126.079071</ele>
        <time>2023-04-26T10:18:23.287Z</time>
      </trkpt>
      <trkpt lat="51.36044" lon="6.9138">
        <ele>125.534961</ele>
        <time>2023-04-26T10:18:25.294Z</time>
      </trkpt>
      <trkpt lat="51.36058" lon="6.91393">
        <ele>124.960527</ele>
        <time>2023-04-26T10:18:27.292Z</time>
      </trkpt>
      <trkpt lat="51.36069" lon="6.91407">
        <ele>124.495857</ele>
        <time>2023-04-26T10:18:29.296Z</time>
      </trkpt>
      <trkpt lat="51.36076" lon="6.91419">
        <ele>124.149086</ele>
        <time>2023-04-26T10:18:31.303Z</time>
      </trkpt>
      <trkpt lat="51.36084" lon="6.9143">
        <ele>123.783129</ele>
        <time>2023-04-26T10:18:33.292Z</time>
      </trkpt>
      <trkpt lat="51.36094" lon="6.91443">
        <ele>123.355559</ele>
        <time>2023-04-26T10:18:36.304Z</time>
      </trkpt>
      <trkpt lat="51.36103" lon="6.91452">
        <ele>122.998338</ele>
        <time>2023-04-26T10:18:39.293Z</time>
      </trkpt>
      <trkpt lat="51.36113" lon="6.91458">
        <ele>122.632868</ele>
        <time>2023-04-26T10:18:42.289Z</time>
      </trkpt>
      <trkpt lat="51.36122" lon="6.91449">
        <ele>122.274887</ele>
        <time>2023-04-26T10:18:45.284Z</time>
      </trkpt>
      <trkpt lat="51.36124" lon="6.91435">
        <ele>121.964723</ele>
        <time>2023-04-26T10:18:47.298Z</time>
      </trkpt>
      <trkpt lat="51.3612" lon="6.91415">
        <ele>121.51726</ele>
        <time>2023-04-26T10:18:50.285Z</time>
      </trkpt>
      <trkpt lat="51.36114" lon="6.91401">
        <ele>121.14879</ele>
        <time>2023-04-26T10:18:52.304Z</time>
      </trkpt>
      <trkpt lat="51.36106" lon="6.91385">
        <ele>120.726737</ele>
        <time>2023-04-26T10:18:54.294Z</time>
      </trkpt>
      <trkpt lat="51.36099" lon="6.91366">
        <ele>120.030314</ele>
        <time>2023-04-26T10:18:56.290Z</time>
      </trkpt>
      <trkpt lat="51.36091" lon="6.91347">
        <ele>119.244201</ele>
        <time>2023-04-26T10:18:58.303Z</time>
      </trkpt>
      <trkpt lat="51.36082" lon="6.91329">
        <ele>118.438923</ele>
        <time>2023-04-26T10:19:00.294Z</time>
      </trkpt>
      <trkpt lat="51.36069" lon="6.91314">
        <ele>117.589035</ele>
        <time>2023-04-26T10:19:02.277Z</time>
      </trkpt>
      <trkpt lat="51.36055" lon="6.91301">
        <ele>116.714499</ele>
        <time>2023-04-26T10:19:04.283Z</time>
      </trkpt>
      <trkpt lat="51.36039" lon="6.91293">
        <ele>115.818315</ele>
        <time>2023-04-26T10:19:06.290Z</time>
      </trkpt>
      <trkpt lat="51.36024" lon="6.91284">
        <ele>114.941534</ele>
        <time>2023-04-26T10:19:08.280Z</time>
      </trkpt>
      <trkpt lat="51.36009" lon="6.91273">
        <ele>114.091931</ele>
        <time>2023-04-26T10:19:10.287Z</time>
      </trkpt>
      <trkpt lat="51.36" lon="6.91259">
        <ele>113.389074</ele>
        <time>2023-04-26T10:19:12.286Z</time>
      </trkpt>
      <trkpt lat="51.35996" lon="6.9124">
        <ele>112.700441</ele>
        <time>2023-04-26T10:19:14.282Z</time>
      </trkpt>
      <trkpt lat="51.36004" lon="6.91222">
        <ele>111.987379</ele>
        <time>2023-04-26T10:19:16.276Z</time>
      </trkpt>
      <trkpt lat="51.36018" lon="6.91221">
        <ele>111.208517</ele>
        <time>2023-04-26T10:19:18.290Z</time>
      </trkpt>
      <trkpt lat="51.36031" lon="6.91233">
        <ele>110.133789</ele>
        <time>2023-04-26T10:19:20.272Z</time>
      </trkpt>
      <trkpt lat="51.36043" lon="6.91248">
        <ele>108.942548</ele>
        <time>2023-04-26T10:19:22.284Z</time>
      </trkpt>
      <trkpt lat="51.36057" lon="6.9126">
        <ele>107.676057</ele>
        <time>2023-04-26T10:19:24.286Z</time>
      </trkpt>
      <trkpt lat="51.36071" lon="6.91271">
        <ele>106.429398</ele>
        <time>2023-04-26T10:19:26.278Z</time>
      </trkpt>
      <trkpt lat="51.36086" lon="6.91282">
        <ele>105.069867</ele>
        <time>2023-04-26T10:19:28.289Z</time>
      </trkpt>
      <trkpt lat="51.36102" lon="6.91292">
        <ele>103.687218</ele>
        <time>2023-04-26T10:19:30.281Z</time>
      </trkpt>
      <trkpt lat="51.36119" lon="6.91302">
        <ele>102.219214</ele>
        <time>2023-04-26T10:19:32.297Z</time>
      </trkpt>
      <trkpt lat="51.36128" lon="6.91307">
        <ele>101.480944</ele>
        <time>2023-04-26T10:19:33.272Z</time>
      </trkpt>
      <trkpt lat="51.36144" lon="6.91318">
        <ele>100.014045</ele>
        <time>2023-04-26T10:19:35.300Z</time>
      </trkpt>
      <trkpt lat="51.36159" lon="6.9133">
        <ele>98.712044</ele>
        <time>2023-04-26T10:19:37.313Z</time>
      </trkpt>
      <trkpt lat="51.3617" lon="6.91342">
        <ele>97.601563</ele>
        <time>2023-04-26T10:19:39.287Z</time>
      </trkpt>
      <trkpt lat="51.3618" lon="6.91355">
        <ele>96.624154</ele>
        <time>2023-04-26T10:19:41.288Z</time>
      </trkpt>
      <trkpt lat="51.36185" lon="6.91368">
        <ele>96.095405</ele>
        <time>2023-04-26T10:19:44.290Z</time>
      </trkpt>
      <trkpt lat="51.36188" lon="6.91382">
        <ele>95.66095</ele>
        <time>2023-04-26T10:19:55.288Z</time>
      </trkpt>
      <trkpt lat="51.36191" lon="6.91395">
        <ele>95.218735</ele>
        <time>2023-04-26T10:20:01.277Z</time>
      </trkpt>
      <trkpt lat="51.36186" lon="6.9141">
        <ele>94.711031</ele>
        <time>2023-04-26T10:20:04.277Z</time>
      </trkpt>
      <trkpt lat="51.36182" lon="6.91424">
        <ele>94.258851</ele>
        <time>2023-04-26T10:20:06.336Z</time>
      </trkpt>
      <trkpt lat="51.36176" lon="6.91439">
        <ele>93.733381</ele>
        <time>2023-04-26T10:20:08.301Z</time>
      </trkpt>
      <trkpt lat="51.3617" lon="6.91454">
        <ele>93.179926</ele>
        <time>2023-04-26T10:20:10.292Z</time>
      </trkpt>
      <trkpt lat="51.36162" lon="6.9147">
        <ele>92.584847</ele>
        <time>2023-04-26T10:20:12.288Z</time>
      </trkpt>
      <trkpt lat="51.36155" lon="6.91484">
        <ele>92.028273</ele>
        <time>2023-04-26T10:20:14.283Z</time>
      </trkpt>
      <trkpt lat="51.36149" lon="6.91499">
        <ele>91.50255</ele>
        <time>2023-04-26T10:20:16.287Z</time>
      </trkpt>
      <trkpt lat="51.36143" lon="6.91515">
        <ele>90.93396</ele>
        <time>2023-04-26T10:20:18.288Z</time>
      </trkpt>
      <trkpt lat="51.36137" lon="6.91532">
        <ele>90.356863</ele>
        <time>2023-04-26T10:20:20.296Z</time>
      </trkpt>
      <trkpt lat="51.36131" lon="6.91549">
        <ele>89.762817</ele>
        <time>2023-04-26T10:20:22.286Z</time>
      </trkpt>
      <trkpt lat="51.36125" lon="6.91567">
        <ele>89.156176</ele>
        <time>2023-04-26T10:20:24.313Z</time>
      </trkpt>
      <trkpt lat="51.36119" lon="6.91585">
        <ele>88.564435</ele>
        <time>2023-04-26T10:20:26.303Z</time>
      </trkpt>
      <trkpt lat="51.36113" lon="6.91602">
        <ele>87.976817</ele>
        <time>2023-04-26T10:20:28.306Z</time>
      </trkpt>
      <trkpt lat="51.36107" lon="6.9162">
        <ele>87.902955</ele>
        <time>2023-04-26T10:20:30.294Z</time>
      </trkpt>
      <trkpt lat="51.36102" lon="6.91639">
        <ele>87.968576</ele>
        <time>2023-04-26T10:20:32.298Z</time>
      </trkpt>
      <trkpt lat="51.36096" lon="6.91656">
        <ele>88.028909</ele>
        <time>2023-04-26T10:20:34.289Z</time>
      </trkpt>
      <trkpt lat="51.3609" lon="6.91671">
        <ele>88.085348</ele>
        <time>2023-04-26T10:20:36.277Z</time>
      </trkpt>
      <trkpt lat="51.36085" lon="6.91686">
        <ele>88.140222</ele>
        <time>2023-04-26T10:20:38.262Z</time>
      </trkpt>
      <trkpt lat="51.3608" lon="6.91701">
        <ele>88.193606</ele>
        <time>2023-04-26T10:20:40.282Z</time>
      </trkpt>
      <trkpt lat="51.36074" lon="6.91718">
        <ele>88.255984</ele>
        <time>2023-04-26T10:20:42.284Z</time>
      </trkpt>
      <trkpt lat="51.36068" lon="6.91734">
        <ele>88.315903</ele>
        <time>2023-04-26T10:20:44.279Z</time>
      </trkpt>
      <trkpt lat="51.36062" lon="6.91752">
        <ele>88.377685</ele>
        <time>2023-04-26T10:20:46.283Z</time>
      </trkpt>
      <trkpt lat="51.36056" lon="6.91768">
        <ele>88.438697</ele>
        <time>2023-04-26T10:20:48.282Z</time>
      </trkpt>
      <trkpt lat="51.3605" lon="6.91785">
        <ele>88.499956</ele>
        <time>2023-04-26T10:20:50.286Z</time>
      </trkpt>
      <trkpt lat="51.36044" lon="6.91801">
        <ele>88.560154</ele>
        <time>2023-04-26T10:20:52.290Z</time>
      </trkpt>
      <trkpt lat="51.36038" lon="6.91818">
        <ele>88.618495</ele>
        <time>2023-04-26T10:20:54.296Z</time>
      </trkpt>
      <trkpt lat="51.36033" lon="6.91833">
        <ele>88.672537</ele>
        <time>2023-04-26T10:20:56.293Z</time>
      </trkpt>
      <trkpt lat="51.36028" lon="6.91847">
        <ele>88.723148</ele>
        <time>2023-04-26T10:20:58.302Z</time>
      </trkpt>
      <trkpt lat="51.36023" lon="6.9186">
        <ele>88.798738</ele>
        <time>2023-04-26T10:21:00.288Z</time>
      </trkpt>
      <trkpt lat="51.36018" lon="6.91873">
        <ele>88.981971</ele>
        <time>2023-04-26T10:21:02.296Z</time>
      </trkpt>
      <trkpt lat="51.3601" lon="6.9189">
        <ele>89.24309</ele>
        <time>2023-04-26T10:21:05.278Z</time>
      </trkpt>
      <trkpt lat="51.36004" lon="6.91903">
        <ele>89.425248</ele>
        <time>2023-04-26T10:21:07.292Z</time>
      </trkpt>
      <trkpt lat="51.35998" lon="6.91915">
        <ele>89.611228</ele>
        <time>2023-04-26T10:21:09.281Z</time>
      </trkpt>
      <trkpt lat="51.35993" lon="6.91929">
        <ele>89.799443</ele>
        <time>2023-04-26T10:21:11.299Z</time>
      </trkpt>
      <trkpt lat="51.35985" lon="6.91947">
        <ele>90.063199</ele>
        <time>2023-04-26T10:21:14.288Z</time>
      </trkpt>
      <trkpt lat="51.3598" lon="6.91959">
        <ele>90.236367</ele>
        <time>2023-04-26T10:21:16.290Z</time>
      </trkpt>
      <trkpt lat="51.35971" lon="6.91976">
        <ele>90.494833</ele>
        <time>2023-04-26T10:21:19.287Z</time>
      </trkpt>
      <trkpt lat="51.35964" lon="6.91992">
        <ele>90.730576</ele>
        <time>2023-04-26T10:21:22.277Z</time>
      </trkpt>
      <trkpt lat="51.35957" lon="6.92007">
        <ele>90.959608</ele>
        <time>2023-04-26T10:21:25.294Z</time>
      </trkpt>
      <trkpt lat="51.35949" lon="6.92024">
        <ele>91.19949</ele>
        <time>2023-04-26T10:21:28.285Z</time>
      </trkpt>
      <trkpt lat="51.35942" lon="6.9204">
        <ele>91.430022</ele>
        <time>2023-04-26T10:21:31.295Z</time>
      </trkpt>
      <trkpt lat="51.35935" lon="6.92055">
        <ele>91.662736</ele>
        <time>2023-04-26T10:21:34.281Z</time>
      </trkpt>
      <trkpt lat="51.35928" lon="6.92071">
        <ele>91.890818</ele>
        <time>2023-04-26T10:21:37.294Z</time>
      </trkpt>
      <trkpt lat="51.35922" lon="6.92085">
        <ele>92.097045</ele>
        <time>2023-04-26T10:21:40.284Z</time>
      </trkpt>
      <trkpt lat="51.35915" lon="6.921">
        <ele>92.341956</ele>
        <time>2023-04-26T10:21:43.287Z</time>
      </trkpt>
      <trkpt lat="51.35909" lon="6.92115">
        <ele>92.610475</ele>
        <time>2023-04-26T10:21:46.279Z</time>
      </trkpt>
      <trkpt lat="51.35903" lon="6.9213">
        <ele>92.88665</ele>
        <time>2023-04-26T10:21:49.299Z</time>
      </trkpt>
      <trkpt lat="51.35896" lon="6.92145">
        <ele>93.163856</ele>
        <time>2023-04-26T10:21:52.289Z</time>
      </trkpt>
      <trkpt lat="51.35895" lon="6.92164">
        <ele>93.45022</ele>
        <time>2023-04-26T10:21:55.283Z</time>
      </trkpt>
      <trkpt lat="51.35891" lon="6.9218">
        <ele>93.706849</ele>
        <time>2023-04-26T10:21:57.283Z</time>
      </trkpt>
      <trkpt lat="51.35883" lon="6.92192">
        <ele>93.978578</ele>
        <time>2023-04-26T10:22:00.281Z</time>
      </trkpt>
      <trkpt lat="51.35874" lon="6.92199">
        <ele>94.223178</ele>
        <time>2023-04-26T10:22:03.275Z</time>
      </trkpt>
      <trkpt lat="51.35867" lon="6.9221">
        <ele>94.455889</ele>
        <time>2023-04-26T10:22:06.286Z</time>
      </trkpt>
      <trkpt lat="51.35861" lon="6.92223">
        <ele>94.713796</ele>
        <time>2023-04-26T10:22:09.290Z</time>
      </trkpt>
      <trkpt lat="51.35854" lon="6.9224">
        <ele>95.004042</ele>
        <time>2023-04-26T10:22:12.270Z</time>
      </trkpt>
      <trkpt lat="51.35846" lon="6.92258">
        <ele>95.347252</ele>
        <time>2023-04-26T10:22:15.305Z</time>
      </trkpt>
      <trkpt lat="51.3584" lon="6.92272">
        <ele>95.60758</ele>
        <time>2023-04-26T10:22:17.297Z</time>
      </trkpt>
      <trkpt lat="51.35835" lon="6.92285">
        <ele>95.840349</ele>
        <time>2023-04-26T10:22:19.297Z</time>
      </trkpt>
      <trkpt lat="51.3583" lon="6.92298">
        <ele>96.067954</ele>
        <time>2023-04-26T10:22:21.291Z</time>
      </trkpt>
      <trkpt lat="51.35826" lon="6.92313">
        <ele>96.313397</ele>
        <time>2023-04-26T10:22:23.284Z</time>
      </trkpt>
      <trkpt lat="51.35822" lon="6.92327">
        <ele>96.514202</ele>
        <time>2023-04-26T10:22:25.286Z</time>
      </trkpt>
      <trkpt lat="51.35818" lon="6.92341">
        <ele>96.484401</ele>
        <time>2023-04-26T10:22:27.289Z</time>
      </trkpt>
      <trkpt lat="51.35814" lon="6.92354">
        <ele>96.456215</ele>
        <time>2023-04-26T10:22:29.298Z</time>
      </trkpt>
      <trkpt lat="51.35809" lon="6.92372">
        <ele>96.418791</ele>
        <time>2023-04-26T10:22:32.310Z</time>
      </trkpt>
      <trkpt lat="51.35805" lon="6.92389">
        <ele>96.383741</ele>
        <time>2023-04-26T10:22:35.311Z</time>
      </trkpt>
      <trkpt lat="51.35801" lon="6.92405">
        <ele>96.351207</ele>
        <time>2023-04-26T10:22:38.295Z</time>
      </trkpt>
      <trkpt lat="51.35797" lon="6.9242">
        <ele>96.319828</ele>
        <time>2023-04-26T10:22:41.296Z</time>
      </trkpt>
      <trkpt lat="51.35794" lon="6.92434">
        <ele>96.291149</ele>
        <time>2023-04-26T10:22:44.301Z</time>
      </trkpt>
      <trkpt lat="51.3579" lon="6.92449">
        <ele>96.259091</ele>
        <time>2023-04-26T10:22:47.296Z</time>
      </trkpt>
      <trkpt lat="51.35785" lon="6.92467">
        <ele>96.222512</ele>
        <time>2023-04-26T10:22:50.305Z</time>
      </trkpt>
      <trkpt lat="51.35781" lon="6.92485">
        <ele>96.184661</ele>
        <time>2023-04-26T10:22:53.282Z</time>
      </trkpt>
      <trkpt lat="51.35777" lon="6.92502">
        <ele>96.150185</ele>
        <time>2023-04-26T10:22:56.310Z</time>
      </trkpt>
      <trkpt lat="51.35774" lon="6.92516">
        <ele>96.120626</ele>
        <time>2023-04-26T10:22:58.312Z</time>
      </trkpt>
      <trkpt lat="51.3577" lon="6.92531">
        <ele>96.090417</ele>
        <time>2023-04-26T10:23:00.299Z</time>
      </trkpt>
      <trkpt lat="51.35766" lon="6.92545">
        <ele>96.060503</ele>
        <time>2023-04-26T10:23:02.300Z</time>
      </trkpt>
      <trkpt lat="51.35762" lon="6.92559">
        <ele>96.031651</ele>
        <time>2023-04-26T10:23:04.289Z</time>
      </trkpt>
      <trkpt lat="51.35758" lon="6.92573">
        <ele>96.00106</ele>
        <time>2023-04-26T10:23:06.292Z</time>
      </trkpt>
      <trkpt lat="51.35754" lon="6.92588">
        <ele>95.970547</ele>
        <time>2023-04-26T10:23:08.285Z</time>
      </trkpt>
      <trkpt lat="51.3575" lon="6.92603">
        <ele>95.835941</ele>
        <time>2023-04-26T10:23:10.289Z</time>
      </trkpt>
      <trkpt lat="51.35746" lon="6.9262">
        <ele>95.655017</ele>
        <time>2023-04-26T10:23:12.307Z</time>
      </trkpt>
      <trkpt lat="51.35742" lon="6.92637">
        <ele>95.469656</ele>
        <time>2023-04-26T10:23:14.288Z</time>
      </trkpt>
      <trkpt lat="51.35739" lon="6.92653">
        <ele>95.303888</ele>
        <time>2023-04-26T10:23:16.294Z</time>
      </trkpt>
      <trkpt lat="51.35735" lon="6.92668">
        <ele>95.136714</ele>
        <time>2023-04-26T10:23:18.295Z</time>
      </trkpt>
      <trkpt lat="51.35729" lon="6.92684">
        <ele>94.951105</ele>
        <time>2023-04-26T10:23:20.296Z</time>
      </trkpt>
      <trkpt lat="51.35724" lon="6.92699">
        <ele>94.779754</ele>
        <time>2023-04-26T10:23:22.306Z</time>
      </trkpt>
      <trkpt lat="51.35719" lon="6.92715">
        <ele>94.600763</ele>
        <time>2023-04-26T10:23:24.272Z</time>
      </trkpt>
      <trkpt lat="51.35714" lon="6.92731">
        <ele>94.422159</ele>
        <time>2023-04-26T10:23:26.291Z</time>
      </trkpt>
      <trkpt lat="51.35708" lon="6.92745">
        <ele>94.252779</ele>
        <time>2023-04-26T10:23:28.291Z</time>
      </trkpt>
      <trkpt lat="51.35702" lon="6.92759">
        <ele>94.077754</ele>
        <time>2023-04-26T10:23:30.283Z</time>
      </trkpt>
      <trkpt lat="51.35697" lon="6.92773">
        <ele>93.916908</ele>
        <time>2023-04-26T10:23:32.276Z</time>
      </trkpt>
      <trkpt lat="51.35692" lon="6.92786">
        <ele>93.765389</ele>
        <time>2023-04-26T10:23:34.288Z</time>
      </trkpt>
      <trkpt lat="51.35686" lon="6.92798">
        <ele>93.616285</ele>
        <time>2023-04-26T10:23:36.331Z</time>
      </trkpt>
      <trkpt lat="51.35679" lon="6.92816">
        <ele>93.39829</ele>
        <time>2023-04-26T10:23:39.310Z</time>
      </trkpt>
      <trkpt lat="51.35674" lon="6.92829">
        <ele>93.251859</ele>
        <time>2023-04-26T10:23:41.276Z</time>
      </trkpt>
      <trkpt lat="51.35667" lon="6.92845">
        <ele>93.020509</ele>
        <time>2023-04-26T10:23:44.296Z</time>
      </trkpt>
      <trkpt lat="51.35661" lon="6.9286">
        <ele>92.66579</ele>
        <time>2023-04-26T10:23:47.300Z</time>
      </trkpt>
      <trkpt lat="51.35655" lon="6.92877">
        <ele>92.257987</ele>
        <time>2023-04-26T10:23:50.304Z</time>
      </trkpt>
      <trkpt lat="51.35649" lon="6.92892">
        <ele>91.883817</ele>
        <time>2023-04-26T10:23:53.300Z</time>
      </trkpt>
      <trkpt lat="51.35643" lon="6.92907">
        <ele>91.507897</ele>
        <time>2023-04-26T10:23:56.313Z</time>
      </trkpt>
      <trkpt lat="51.35637" lon="6.92923">
        <ele>91.11929</ele>
        <time>2023-04-26T10:23:59.292Z</time>
      </trkpt>
      <trkpt lat="51.35629" lon="6.92939">
        <ele>90.700488</ele>
        <time>2023-04-26T10:24:02.294Z</time>
      </trkpt>
      <trkpt lat="51.35623" lon="6.92955">
        <ele>90.319296</ele>
        <time>2023-04-26T10:24:06.294Z</time>
      </trkpt>
      <trkpt lat="51.3562" lon="6.92971">
        <ele>89.971727</ele>
        <time>2023-04-26T10:24:11.295Z</time>
      </trkpt>
      <trkpt lat="51.35624" lon="6.92995">
        <ele>89.451731</ele>
        <time>2023-04-26T10:24:40.290Z</time>
      </trkpt>
      <trkpt lat="51.35624" lon="6.9301">
        <ele>89.145813</ele>
        <time>2023-04-26T10:24:44.292Z</time>
      </trkpt>
      <trkpt lat="51.3563" lon="6.93023">
        <ele>88.808301</ele>
        <time>2023-04-26T10:24:49.288Z</time>
      </trkpt>
      <trkpt lat="51.35636" lon="6.93035">
        <ele>88.485608</ele>
        <time>2023-04-26T10:24:53.295Z</time>
      </trkpt>
      <trkpt lat="51.35643" lon="6.93049">
        <ele>88.118924</ele>
        <time>2023-04-26T10:24:58.298Z</time>
      </trkpt>
      <trkpt lat="51.35649" lon="6.93061">
        <ele>87.801159</ele>
        <time>2023-04-26T10:25:06.286Z</time>
      </trkpt>
      <trkpt lat="51.35655" lon="6.93071">
        <ele>87.49885</ele>
        <time>2023-04-26T10:25:10.288Z</time>
      </trkpt>
      <trkpt lat="51.35665" lon="6.93081">
        <ele>87.097538</ele>
        <time>2023-04-26T10:25:14.296Z</time>
      </trkpt>
      <trkpt lat="51.35674" lon="6.93089">
        <ele>86.998095</ele>
        <time>2023-04-26T10:25:17.267Z</time>
      </trkpt>
      <trkpt lat="51.35684" lon="6.93098">
        <ele>86.893109</ele>
        <time>2023-04-26T10:25:21.265Z</time>
      </trkpt>
      <trkpt lat="51.35692" lon="6.93106">
        <ele>86.808864</ele>
        <time>2023-04-26T10:25:26.289Z</time>
      </trkpt>
      <trkpt lat="51.35695" lon="6.93098">
        <ele>86.757152</ele>
        <time>2023-04-26T10:26:37.942Z</time>
      </trkpt>
      <trkpt lat="51.35695" lon="6.93118">
        <ele>86.648874</ele>
        <time>2023-04-26T10:28:07.298Z</time>
      </trkpt>
      <trkpt lat="51.35704" lon="6.93125">
        <ele>86.562781</ele>
        <time>2023-04-26T10:28:12.282Z</time>
      </trkpt>
      <trkpt lat="51.35714" lon="6.93129">
        <ele>86.473283</ele>
        <time>2023-04-26T10:28:17.292Z</time>
      </trkpt>
      <trkpt lat="51.35723" lon="6.93135">
        <ele>86.386592</ele>
        <time>2023-04-26T10:28:21.292Z</time>
      </trkpt>
      <trkpt lat="51.35732" lon="6.93144">
        <ele>86.294799</ele>
        <time>2023-04-26T10:28:25.288Z</time>
      </trkpt>
      <trkpt lat="51.3574" lon="6.93152">
        <ele>86.209486</ele>
        <time>2023-04-26T10:28:30.290Z</time>
      </trkpt>
      <trkpt lat="51.3575" lon="6.93158">
        <ele>86.121305</ele>
        <time>2023-04-26T10:28:34.282Z</time>
      </trkpt>
      <trkpt lat="51.35759" lon="6.93165">
        <ele>86.033105</ele>
        <time>2023-04-26T10:28:38.292Z</time>
      </trkpt>
      <trkpt lat="51.35768" lon="6.93174">
        <ele>85.937752</ele>
        <time>2023-04-26T10:28:42.278Z</time>
      </trkpt>
      <trkpt lat="51.35777" lon="6.93183">
        <ele>85.846932</ele>
        <time>2023-04-26T10:28:46.283Z</time>
      </trkpt>
      <trkpt lat="51.35786" lon="6.93192">
        <ele>85.745361</ele>
        <time>2023-04-26T10:28:50.280Z</time>
      </trkpt>
      <trkpt lat="51.35795" lon="6.93205">
        <ele>85.640753</ele>
        <time>2023-04-26T10:28:54.285Z</time>
      </trkpt>
      <trkpt lat="51.35802" lon="6.93214">
        <ele>85.561148</ele>
        <time>2023-04-26T10:28:57.286Z</time>
      </trkpt>
      <trkpt lat="51.3581" lon="6.93225">
        <ele>85.546977</ele>
        <time>2023-04-26T10:29:00.277Z</time>
      </trkpt>
      <trkpt lat="51.35817" lon="6.93236">
        <ele>85.670791</ele>
        <time>2023-04-26T10:29:03.271Z</time>
      </trkpt>
      <trkpt lat="51.35824" lon="6.93247">
        <ele>85.787927</ele>
        <time>2023-04-26T10:29:06.274Z</time>
      </trkpt>
      <trkpt lat="51.3583" lon="6.93258">
        <ele>85.908718</ele>
        <time>2023-04-26T10:29:09.290Z</time>
      </trkpt>
      <trkpt lat="51.35838" lon="6.93268">
        <ele>86.041202</ele>
        <time>2023-04-26T10:29:13.299Z</time>
      </trkpt>
      <trkpt lat="51.35848" lon="6.93272">
        <ele>86.168937</ele>
        <time>2023-04-26T10:29:18.296Z</time>
      </trkpt>
      <trkpt lat="51.35857" lon="6.9328">
        <ele>86.301524</ele>
        <time>2023-04-26T10:29:26.282Z</time>
      </trkpt>
      <trkpt lat="51.35865" lon="6.9329">
        <ele>86.430961</ele>
        <time>2023-04-26T10:29:31.296Z</time>
      </trkpt>
      <trkpt lat="51.35873" lon="6.933">
        <ele>86.56272</ele>
        <time>2023-04-26T10:29:36.290Z</time>
      </trkpt>
      <trkpt lat="51.35885" lon="6.93307">
        <ele>86.719085</ele>
        <time>2023-04-26T10:30:05.294Z</time>
      </trkpt>
      <trkpt lat="51.35891" lon="6.9332">
        <ele>86.853674</ele>
        <time>2023-04-26T10:30:10.282Z</time>
      </trkpt>
      <trkpt lat="51.359" lon="6.93328">
        <ele>86.987952</ele>
        <time>2023-04-26T10:30:14.281Z</time>
      </trkpt>
      <trkpt lat="51.3591" lon="6.93338">
        <ele>87.138582</ele>
        <time>2023-04-26T10:30:18.274Z</time>
      </trkpt>
      <trkpt lat="51.35918" lon="6.93347">
        <ele>87.2601</ele>
        <time>2023-04-26T10:30:21.289Z</time>
      </trkpt>
      <trkpt lat="51.35926" lon="6.93356">
        <ele>87.388588</ele>
        <time>2023-04-26T10:30:24.286Z</time>
      </trkpt>
      <trkpt lat="51.35936" lon="6.93365">
        <ele>87.526099</ele>
        <time>2023-04-26T10:30:27.294Z</time>
      </trkpt>
      <trkpt lat="51.35945" lon="6.93376">
        <ele>87.675163</ele>
        <time>2023-04-26T10:30:30.283Z</time>
      </trkpt>
      <trkpt lat="51.35954" lon="6.93387">
        <ele>87.831518</ele>
        <time>2023-04-26T10:30:33.308Z</time>
      </trkpt>
      <trkpt lat="51.35965" lon="6.93398">
        <ele>88.062663</ele>
        <time>2023-04-26T10:30:36.291Z</time>
      </trkpt>
      <trkpt lat="51.35976" lon="6.93409">
        <ele>88.286328</ele>
        <time>2023-04-26T10:30:39.308Z</time>
      </trkpt>
      <trkpt lat="51.35985" lon="6.9342">
        <ele>88.496169</ele>
        <time>2023-04-26T10:30:42.286Z</time>
      </trkpt>
      <trkpt lat="51.35996" lon="6.93428">
        <ele>88.698788</ele>
        <time>2023-04-26T10:30:45.308Z</time>
      </trkpt>
      <trkpt lat="51.36005" lon="6.93439">
        <ele>88.907217</ele>
        <time>2023-04-26T10:30:48.312Z</time>
      </trkpt>
      <trkpt lat="51.36014" lon="6.93451">
        <ele>89.117689</ele>
        <time>2023-04-26T10:30:51.296Z</time>
      </trkpt>
      <trkpt lat="51.36023" lon="6.93462">
        <ele>89.324108</ele>
        <time>2023-04-26T10:30:54.303Z</time>
      </trkpt>
      <trkpt lat="51.36032" lon="6.93474">
        <ele>89.527836</ele>
        <time>2023-04-26T10:30:57.306Z</time>
      </trkpt>
      <trkpt lat="51.36039" lon="6.93485">
        <ele>89.697362</ele>
        <time>2023-04-26T10:31:00.290Z</time>
      </trkpt>
      <trkpt lat="51.36046" lon="6.93497">
        <ele>89.886824</ele>
        <time>2023-04-26T10:31:06.294Z</time>
      </trkpt>
      <trkpt lat="51.36053" lon="6.93511">
        <ele>90.07933</ele>
        <time>2023-04-26T10:31:11.281Z</time>
      </trkpt>
      <trkpt lat="51.36058" lon="6.93523">
        <ele>90.248241</ele>
        <time>2023-04-26T10:31:15.293Z</time>
      </trkpt>
      <trkpt lat="51.36064" lon="6.93535">
        <ele>90.412488</ele>
        <time>2023-04-26T10:31:18.285Z</time>
      </trkpt>
      <trkpt lat="51.36069" lon="6.93549">
        <ele>90.592525</ele>
        <time>2023-04-26T10:31:21.295Z</time>
      </trkpt>
      <trkpt lat="51.36073" lon="6.93566">
        <ele>90.797024</ele>
        <time>2023-04-26T10:31:24.281Z</time>
      </trkpt>
      <trkpt lat="51.36078" lon="6.93582">
        <ele>90.995393</ele>
        <time>2023-04-26T10:31:27.295Z</time>
      </trkpt>
      <trkpt lat="51.36085" lon="6.93598">
        <ele>90.97307</ele>
        <time>2023-04-26T10:31:30.318Z</time>
      </trkpt>
      <trkpt lat="51.36091" lon="6.93614">
        <ele>90.951244</ele>
        <time>2023-04-26T10:31:33.297Z</time>
      </trkpt>
      <trkpt lat="51.36098" lon="6.9363">
        <ele>90.928421</ele>
        <time>2023-04-26T10:31:36.296Z</time>
      </trkpt>
      <trkpt lat="51.36103" lon="6.93646">
        <ele>90.906893</ele>
        <time>2023-04-26T10:31:39.303Z</time>
      </trkpt>
      <trkpt lat="51.3611" lon="6.93661">
        <ele>90.885264</ele>
        <time>2023-04-26T10:31:42.297Z</time>
      </trkpt>
      <trkpt lat="51.36115" lon="6.93675">
        <ele>90.865629</ele>
        <time>2023-04-26T10:31:45.296Z</time>
      </trkpt>
      <trkpt lat="51.36121" lon="6.9369">
        <ele>90.844502</ele>
        <time>2023-04-26T10:31:48.307Z</time>
      </trkpt>
      <trkpt lat="51.36127" lon="6.93705">
        <ele>90.82417</ele>
        <time>2023-04-26T10:31:51.291Z</time>
      </trkpt>
      <trkpt lat="51.36133" lon="6.93719">
        <ele>90.805234</ele>
        <time>2023-04-26T10:31:54.323Z</time>
      </trkpt>
      <trkpt lat="51.36137" lon="6.93735">
        <ele>90.784627</ele>
        <time>2023-04-26T10:31:57.306Z</time>
      </trkpt>
      <trkpt lat="51.3614" lon="6.93751">
        <ele>90.764609</ele>
        <time>2023-04-26T10:32:00.272Z</time>
      </trkpt>
      <trkpt lat="51.36141" lon="6.93769">
        <ele>90.743729</ele>
        <time>2023-04-26T10:32:03.296Z</time>
      </trkpt>
      <trkpt lat="51.36141" lon="6.93783">
        <ele>90.726694</ele>
        <time>2023-04-26T10:32:06.303Z</time>
      </trkpt>
      <trkpt lat="51.36141" lon="6.93801">
        <ele>90.706003</ele>
        <time>2023-04-26T10:32:10.291Z</time>
      </trkpt>
      <trkpt lat="51.36138" lon="6.93815">
        <ele>90.688929</ele>
        <time>2023-04-26T10:32:15.275Z</time>
      </trkpt>
      <trkpt lat="51.36129" lon="6.93822">
        <ele>90.670283</ele>
        <time>2023-04-26T10:32:28.283Z</time>
      </trkpt>
      <trkpt lat="51.36119" lon="6.93824">
        <ele>90.571797</ele>
        <time>2023-04-26T10:32:33.289Z</time>
      </trkpt>
      <trkpt lat="51.36108" lon="6.93831">
        <ele>90.318565</ele>
        <time>2023-04-26T10:32:37.299Z</time>
      </trkpt>
      <trkpt lat="51.361" lon="6.93837">
        <ele>90.106764</ele>
        <time>2023-04-26T10:32:40.297Z</time>
      </trkpt>
      <trkpt lat="51.36092" lon="6.93845">
        <ele>89.886195</ele>
        <time>2023-04-26T10:32:43.295Z</time>
      </trkpt>
      <trkpt lat="51.36082" lon="6.93851">
        <ele>89.650444</ele>
        <time>2023-04-26T10:32:47.276Z</time>
      </trkpt>
      <trkpt lat="51.36073" lon="6.93851">
        <ele>89.445444</ele>
        <time>2023-04-26T10:32:50.289Z</time>
      </trkpt>
      <trkpt lat="51.36064" lon="6.93861">
        <ele>89.1916</ele>
        <time>2023-04-26T10:32:53.293Z</time>
      </trkpt>
      <trkpt lat="51.36054" lon="6.93873">
        <ele>88.908978</ele>
        <time>2023-04-26T10:32:56.274Z</time>
      </trkpt>
      <trkpt lat="51.36044" lon="6.93887">
        <ele>88.612921</ele>
        <time>2023-04-26T10:32:59.295Z</time>
      </trkpt>
      <trkpt lat="51.36037" lon="6.93896">
        <ele>88.402932</ele>
        <time>2023-04-26T10:33:01.296Z</time>
      </trkpt>
      <trkpt lat="51.36027" lon="6.93909">
        <ele>88.103451</ele>
        <time>2023-04-26T10:33:04.303Z</time>
      </trkpt>
      <trkpt lat="51.3602" lon="6.93919">
        <ele>87.894536</ele>
        <time>2023-04-26T10:33:06.294Z</time>
      </trkpt>
      <trkpt lat="51.36013" lon="6.93929">
        <ele>87.682043</ele>
        <time>2023-04-26T10:33:08.309Z</time>
      </trkpt>
      <trkpt lat="51.36006" lon="6.93938">
        <ele>87.471385</ele>
        <time>2023-04-26T10:33:10.317Z</time>
      </trkpt>
      <trkpt lat="51.35995" lon="6.93952">
        <ele>87.161935</ele>
        <time>2023-04-26T10:33:13.296Z</time>
      </trkpt>
      <trkpt lat="51.35988" lon="6.93961">
        <ele>86.95665</ele>
        <time>2023-04-26T10:33:15.295Z</time>
      </trkpt>
      <trkpt lat="51.35982" lon="6.93971">
        <ele>86.749083</ele>
        <time>2023-04-26T10:33:17.293Z</time>
      </trkpt>
      <trkpt lat="51.35973" lon="6.93983">
        <ele>86.566402</ele>
        <time>2023-04-26T10:33:20.294Z</time>
      </trkpt>
      <trkpt lat="51.35964" lon="6.93985">
        <ele>86.5805</ele>
        <time>2023-04-26T10:33:30.279Z</time>
      </trkpt>
      <trkpt lat="51.35957" lon="6.93995">
        <ele>86.593986</ele>
        <time>2023-04-26T10:34:02.302Z</time>
      </trkpt>
      <trkpt lat="51.35948" lon="6.94008">
        <ele>86.611401</ele>
        <time>2023-04-26T10:34:06.283Z</time>
      </trkpt>
      <trkpt lat="51.35941" lon="6.94019">
        <ele>86.626425</ele>
        <time>2023-04-26T10:34:09.297Z</time>
      </trkpt>
      <trkpt lat="51.35932" lon="6.9403">
        <ele>86.642407</ele>
        <time>2023-04-26T10:34:12.295Z</time>
      </trkpt>
      <trkpt lat="51.35923" lon="6.94044">
        <ele>86.660953</ele>
        <time>2023-04-26T10:34:15.310Z</time>
      </trkpt>
      <trkpt lat="51.35915" lon="6.94058">
        <ele>86.678838</ele>
        <time>2023-04-26T10:34:18.295Z</time>
      </trkpt>
      <trkpt lat="51.35907" lon="6.94074">
        <ele>86.696887</ele>
        <time>2023-04-26T10:34:21.292Z</time>
      </trkpt>
      <trkpt lat="51.35899" lon="6.94091">
        <ele>86.716434</ele>
        <time>2023-04-26T10:34:24.294Z</time>
      </trkpt>
      <trkpt lat="51.35894" lon="6.94103">
        <ele>86.729705</ele>
        <time>2023-04-26T10:34:26.303Z</time>
      </trkpt>
      <trkpt lat="51.35887" lon="6.9412">
        <ele>86.748658</ele>
        <time>2023-04-26T10:34:29.280Z</time>
      </trkpt>
      <trkpt lat="51.35881" lon="6.94138">
        <ele>86.768011</ele>
        <time>2023-04-26T10:34:32.303Z</time>
      </trkpt>
      <trkpt lat="51.35878" lon="6.94152">
        <ele>86.781375</ele>
        <time>2023-04-26T10:34:34.287Z</time>
      </trkpt>
      <trkpt lat="51.35873" lon="6.94172">
        <ele>86.800651</ele>
        <time>2023-04-26T10:34:37.289Z</time>
      </trkpt>
      <trkpt lat="51.3587" lon="6.94192">
        <ele>86.820013</ele>
        <time>2023-04-26T10:34:40.280Z</time>
      </trkpt>
      <trkpt lat="51.35867" lon="6.94213">
        <ele>86.759609</ele>
        <time>2023-04-26T10:34:43.309Z</time>
      </trkpt>
      <trkpt lat="51.35864" lon="6.94227">
        <ele>86.687583</ele>
        <time>2023-04-26T10:34:45.300Z</time>
      </trkpt>
      <trkpt lat="51.35862" lon="6.94241">
        <ele>86.614119</ele>
        <time>2023-04-26T10:34:47.315Z</time>
      </trkpt>
      <trkpt lat="51.35858" lon="6.94262">
        <ele>86.510058</ele>
        <time>2023-04-26T10:34:50.275Z</time>
      </trkpt>
      <trkpt lat="51.35855" lon="6.94276">
        <ele>86.437094</ele>
        <time>2023-04-26T10:34:52.306Z</time>
      </trkpt>
      <trkpt lat="51.35853" lon="6.9429">
        <ele>86.365167</ele>
        <time>2023-04-26T10:34:54.299Z</time>
      </trkpt>
      <trkpt lat="51.35851" lon="6.9431">
        <ele>86.265157</ele>
        <time>2023-04-26T10:34:57.290Z</time>
      </trkpt>
      <trkpt lat="51.35851" lon="6.94326">
        <ele>86.191374</ele>
        <time>2023-04-26T10:34:59.282Z</time>
      </trkpt>
      <trkpt lat="51.35848" lon="6.94347">
        <ele>86.083306</ele>
        <time>2023-04-26T10:35:02.306Z</time>
      </trkpt>
      <trkpt lat="51.35847" lon="6.94362">
        <ele>86.008323</ele>
        <time>2023-04-26T10:35:04.310Z</time>
      </trkpt>
      <trkpt lat="51.35846" lon="6.94383">
        <ele>85.910006</ele>
        <time>2023-04-26T10:35:07.300Z</time>
      </trkpt>
      <trkpt lat="51.35844" lon="6.94403">
        <ele>85.810345</ele>
        <time>2023-04-26T10:35:10.284Z</time>
      </trkpt>
      <trkpt lat="51.35843" lon="6.94423">
        <ele>85.712142</ele>
        <time>2023-04-26T10:35:13.259Z</time>
      </trkpt>
      <trkpt lat="51.35842" lon="6.94444">
        <ele>85.605979</ele>
        <time>2023-04-26T10:35:16.254Z</time>
      </trkpt>
      <trkpt lat="51.35841" lon="6.94459">
        <ele>85.532384</ele>
        <time>2023-04-26T10:35:18.264Z</time>
      </trkpt>
      <trkpt lat="51.35841" lon="6.94474">
        <ele>85.460104</ele>
        <time>2023-04-26T10:35:20.264Z</time>
      </trkpt>
      <trkpt lat="51.3584" lon="6.94489">
        <ele>85.41533</ele>
        <time>2023-04-26T10:35:22.269Z</time>
      </trkpt>
      <trkpt lat="51.3584" lon="6.9451">
        <ele>85.400042</ele>
        <time>2023-04-26T10:35:25.258Z</time>
      </trkpt>
      <trkpt lat="51.35842" lon="6.94525">
        <ele>85.389536</ele>
        <time>2023-04-26T10:35:27.268Z</time>
      </trkpt>
      <trkpt lat="51.35842" lon="6.94544">
        <ele>85.375576</ele>
        <time>2023-04-26T10:35:30.305Z</time>
      </trkpt>
      <trkpt lat="51.35845" lon="6.94565">
        <ele>85.360324</ele>
        <time>2023-04-26T10:35:33.305Z</time>
      </trkpt>
      <trkpt lat="51.35848" lon="6.94586">
        <ele>85.344865</ele>
        <time>2023-04-26T10:35:36.282Z</time>
      </trkpt>
      <trkpt lat="51.3585" lon="6.94601">
        <ele>85.334156</ele>
        <time>2023-04-26T10:35:38.280Z</time>
      </trkpt>
      <trkpt lat="51.35853" lon="6.94616">
        <ele>85.322766</ele>
        <time>2023-04-26T10:35:40.266Z</time>
      </trkpt>
      <trkpt lat="51.35856" lon="6.94632">
        <ele>85.31117</ele>
        <time>2023-04-26T10:35:42.274Z</time>
      </trkpt>
      <trkpt lat="51.3586" lon="6.94646">
        <ele>85.300188</ele>
        <time>2023-04-26T10:35:44.284Z</time>
      </trkpt>
      <trkpt lat="51.35863" lon="6.9466">
        <ele>85.289336</ele>
        <time>2023-04-26T10:35:46.305Z</time>
      </trkpt>
      <trkpt lat="51.35868" lon="6.94674">
        <ele>85.277869</ele>
        <time>2023-04-26T10:35:48.288Z</time>
      </trkpt>
      <trkpt lat="51.35871" lon="6.94689">
        <ele>85.26692</ele>
        <time>2023-04-26T10:35:50.292Z</time>
      </trkpt>
      <trkpt lat="51.35876" lon="6.94703">
        <ele>85.255723</ele>
        <time>2023-04-26T10:35:52.298Z</time>
      </trkpt>
      <trkpt lat="51.3588" lon="6.94717">
        <ele>85.244013</ele>
        <time>2023-04-26T10:35:54.293Z</time>
      </trkpt>
      <trkpt lat="51.35885" lon="6.94732">
        <ele>85.232331</ele>
        <time>2023-04-26T10:35:56.297Z</time>
      </trkpt>
      <trkpt lat="51.35889" lon="6.94746">
        <ele>85.220928</ele>
        <time>2023-04-26T10:35:58.311Z</time>
      </trkpt>
      <trkpt lat="51.35895" lon="6.9476">
        <ele>85.204034</ele>
        <time>2023-04-26T10:36:00.295Z</time>
      </trkpt>
      <trkpt lat="51.359" lon="6.94773">
        <ele>85.18066</ele>
        <time>2023-04-26T10:36:02.291Z</time>
      </trkpt>
      <trkpt lat="51.35906" lon="6.94786">
        <ele>85.157093</ele>
        <time>2023-04-26T10:36:04.298Z</time>
      </trkpt>
      <trkpt lat="51.35912" lon="6.94799">
        <ele>85.133085</ele>
        <time>2023-04-26T10:36:06.298Z</time>
      </trkpt>
      <trkpt lat="51.35918" lon="6.94812">
        <ele>85.109546</ele>
        <time>2023-04-26T10:36:08.295Z</time>
      </trkpt>
      <trkpt lat="51.35924" lon="6.94826">
        <ele>85.08536</ele>
        <time>2023-04-26T10:36:10.289Z</time>
      </trkpt>
      <trkpt lat="51.3593" lon="6.94839">
        <ele>85.060858</ele>
        <time>2023-04-26T10:36:12.292Z</time>
      </trkpt>
      <trkpt lat="51.35937" lon="6.94852">
        <ele>85.036094</ele>
        <time>2023-04-26T10:36:14.302Z</time>
      </trkpt>
      <trkpt lat="51.35943" lon="6.94866">
        <ele>85.011786</ele>
        <time>2023-04-26T10:36:16.293Z</time>
      </trkpt>
      <trkpt lat="51.35949" lon="6.9488">
        <ele>84.98669</ele>
        <time>2023-04-26T10:36:18.299Z</time>
      </trkpt>
      <trkpt lat="51.35956" lon="6.94892">
        <ele>84.962778</ele>
        <time>2023-04-26T10:36:20.283Z</time>
      </trkpt>
      <trkpt lat="51.35963" lon="6.94904">
        <ele>84.938046</ele>
        <time>2023-04-26T10:36:22.284Z</time>
      </trkpt>
      <trkpt lat="51.3597" lon="6.94917">
        <ele>84.913009</ele>
        <time>2023-04-26T10:36:24.302Z</time>
      </trkpt>
      <trkpt lat="51.35977" lon="6.9493">
        <ele>84.887432</ele>
        <time>2023-04-26T10:36:26.290Z</time>
      </trkpt>
      <trkpt lat="51.35984" lon="6.94943">
        <ele>84.861389</ele>
        <time>2023-04-26T10:36:28.296Z</time>
      </trkpt>
      <trkpt lat="51.35991" lon="6.94957">
        <ele>84.834892</ele>
        <time>2023-04-26T10:36:30.290Z</time>
      </trkpt>
      <trkpt lat="51.35999" lon="6.9497">
        <ele>84.80905</ele>
        <time>2023-04-26T10:36:32.312Z</time>
      </trkpt>
      <trkpt lat="51.36007" lon="6.94982">
        <ele>84.786454</ele>
        <time>2023-04-26T10:36:34.294Z</time>
      </trkpt>
      <trkpt lat="51.36014" lon="6.94994">
        <ele>84.772419</ele>
        <time>2023-04-26T10:36:36.301Z</time>
      </trkpt>
      <trkpt lat="51.36021" lon="6.95006">
        <ele>84.758775</ele>
        <time>2023-04-26T10:36:38.292Z</time>
      </trkpt>
      <trkpt lat="51.36029" lon="6.95018">
        <ele>84.7448</ele>
        <time>2023-04-26T10:36:40.310Z</time>
      </trkpt>
      <trkpt lat="51.36036" lon="6.9503">
        <ele>84.730636</ele>
        <time>2023-04-26T10:36:42.288Z</time>
      </trkpt>
      <trkpt lat="51.36043" lon="6.95043">
        <ele>84.716203</ele>
        <time>2023-04-26T10:36:44.284Z</time>
      </trkpt>
      <trkpt lat="51.36051" lon="6.95055">
        <ele>84.702046</ele>
        <time>2023-04-26T10:36:46.276Z</time>
      </trkpt>
      <trkpt lat="51.36057" lon="6.95068">
        <ele>84.68824</ele>
        <time>2023-04-26T10:36:48.286Z</time>
      </trkpt>
      <trkpt lat="51.36065" lon="6.95081">
        <ele>84.673811</ele>
        <time>2023-04-26T10:36:50.288Z</time>
      </trkpt>
      <trkpt lat="51.36071" lon="6.95094">
        <ele>84.659277</ele>
        <time>2023-04-26T10:36:52.292Z</time>
      </trkpt>
      <trkpt lat="51.36079" lon="6.95107">
        <ele>84.644656</ele>
        <time>2023-04-26T10:36:54.306Z</time>
      </trkpt>
      <trkpt lat="51.36086" lon="6.95121">
        <ele>84.63021</ele>
        <time>2023-04-26T10:36:56.301Z</time>
      </trkpt>
      <trkpt lat="51.36092" lon="6.95134">
        <ele>84.616174</ele>
        <time>2023-04-26T10:36:58.294Z</time>
      </trkpt>
      <trkpt lat="51.36099" lon="6.95146">
        <ele>84.601762</ele>
        <time>2023-04-26T10:37:00.279Z</time>
      </trkpt>
      <trkpt lat="51.36106" lon="6.9516">
        <ele>84.587129</ele>
        <time>2023-04-26T10:37:02.293Z</time>
      </trkpt>
      <trkpt lat="51.36113" lon="6.95174">
        <ele>84.572446</ele>
        <time>2023-04-26T10:37:04.295Z</time>
      </trkpt>
      <trkpt lat="51.36121" lon="6.95187">
        <ele>84.557559</ele>
        <time>2023-04-26T10:37:06.306Z</time>
      </trkpt>
      <trkpt lat="51.36128" lon="6.952">
        <ele>84.523122</ele>
        <time>2023-04-26T10:37:08.291Z</time>
      </trkpt>
      <trkpt lat="51.36135" lon="6.95214">
        <ele>84.472106</ele>
        <time>2023-04-26T10:37:10.291Z</time>
      </trkpt>
      <trkpt lat="51.36142" lon="6.95228">
        <ele>84.420253</ele>
        <time>2023-04-26T10:37:12.287Z</time>
      </trkpt>
      <trkpt lat="51.36149" lon="6.95242">
        <ele>84.368626</ele>
        <time>2023-04-26T10:37:14.295Z</time>
      </trkpt>
      <trkpt lat="51.36157" lon="6.95256">
        <ele>84.31572</ele>
        <time>2023-04-26T10:37:16.272Z</time>
      </trkpt>
      <trkpt lat="51.36164" lon="6.95269">
        <ele>84.264382</ele>
        <time>2023-04-26T10:37:18.313Z</time>
      </trkpt>
      <trkpt lat="51.36172" lon="6.95283">
        <ele>84.210928</ele>
        <time>2023-04-26T10:37:20.312Z</time>
      </trkpt>
      <trkpt lat="51.36179" lon="6.95297">
        <ele>84.158365</ele>
        <time>2023-04-26T10:37:22.301Z</time>
      </trkpt>
      <trkpt lat="51.36187" lon="6.95311">
        <ele>84.104599</ele>
        <time>2023-04-26T10:37:24.309Z</time>
      </trkpt>
      <trkpt lat="51.36194" lon="6.95324">
        <ele>84.054116</ele>
        <time>2023-04-26T10:37:26.298Z</time>
      </trkpt>
      <trkpt lat="51.36201" lon="6.95337">
        <ele>84.004895</ele>
        <time>2023-04-26T10:37:28.309Z</time>
      </trkpt>
      <trkpt lat="51.36208" lon="6.9535">
        <ele>83.954841</ele>
        <time>2023-04-26T10:37:30.284Z</time>
      </trkpt>
      <trkpt lat="51.36215" lon="6.95366">
        <ele>83.901033</ele>
        <time>2023-04-26T10:37:33.282Z</time>
      </trkpt>
      <trkpt lat="51.3621" lon="6.95353">
        <ele>83.858638</ele>
        <time>2023-04-26T10:37:40.286Z</time>
      </trkpt>
      <trkpt lat="51.36203" lon="6.95341">
        <ele>83.810442</ele>
        <time>2023-04-26T10:37:45.303Z</time>
      </trkpt>
      <trkpt lat="51.36202" lon="6.95326">
        <ele>83.76853</ele>
        <time>2023-04-26T10:38:09.292Z</time>
      </trkpt>
      <trkpt lat="51.36201" lon="6.95312">
        <ele>83.726664</ele>
        <time>2023-04-26T10:38:21.288Z</time>
      </trkpt>
      <trkpt lat="51.36202" lon="6.95328">
        <ele>83.817601</ele>
        <time>2023-04-26T10:38:40.286Z</time>
      </trkpt>
      <trkpt lat="51.36205" lon="6.95343">
        <ele>83.922216</ele>
        <time>2023-04-26T10:38:50.289Z</time>
      </trkpt>
      <trkpt lat="51.3621" lon="6.95359">
        <ele>84.043975</ele>
        <time>2023-04-26T10:38:55.284Z</time>
      </trkpt>
      <trkpt lat="51.36217" lon="6.95373">
        <ele>84.173189</ele>
        <time>2023-04-26T10:38:59.300Z</time>
      </trkpt>
      <trkpt lat="51.36225" lon="6.95387">
        <ele>84.298892</ele>
        <time>2023-04-26T10:39:02.291Z</time>
      </trkpt>
      <trkpt lat="51.36232" lon="6.954">
        <ele>84.418732</ele>
        <time>2023-04-26T10:39:05.287Z</time>
      </trkpt>
      <trkpt lat="51.3624" lon="6.95415">
        <ele>84.553727</ele>
        <time>2023-04-26T10:39:08.294Z</time>
      </trkpt>
      <trkpt lat="51.36249" lon="6.95429">
        <ele>84.692822</ele>
        <time>2023-04-26T10:39:11.292Z</time>
      </trkpt>
      <trkpt lat="51.36258" lon="6.95444">
        <ele>84.835515</ele>
        <time>2023-04-26T10:39:14.295Z</time>
      </trkpt>
      <trkpt lat="51.36266" lon="6.95453">
        <ele>84.938426</ele>
        <time>2023-04-26T10:39:16.284Z</time>
      </trkpt>
      <trkpt lat="51.36273" lon="6.95464">
        <ele>85.049137</ele>
        <time>2023-04-26T10:39:18.291Z</time>
      </trkpt>
      <trkpt lat="51.3628" lon="6.95474">
        <ele>85.155561</ele>
        <time>2023-04-26T10:39:20.292Z</time>
      </trkpt>
      <trkpt lat="51.36287" lon="6.95485">
        <ele>85.262197</ele>
        <time>2023-04-26T10:39:22.293Z</time>
      </trkpt>
      <trkpt lat="51.36294" lon="6.95496">
        <ele>85.368498</ele>
        <time>2023-04-26T10:39:24.281Z</time>
      </trkpt>
      <trkpt lat="51.36302" lon="6.95507">
        <ele>85.481715</ele>
        <time>2023-04-26T10:39:26.283Z</time>
      </trkpt>
      <trkpt lat="51.36309" lon="6.95517">
        <ele>85.592054</ele>
        <time>2023-04-26T10:39:28.297Z</time>
      </trkpt>
      <trkpt lat="51.36317" lon="6.95528">
        <ele>85.6957</ele>
        <time>2023-04-26T10:39:30.290Z</time>
      </trkpt>
      <trkpt lat="51.36325" lon="6.95537">
        <ele>85.668237</ele>
        <time>2023-04-26T10:39:32.283Z</time>
      </trkpt>
      <trkpt lat="51.36332" lon="6.95548">
        <ele>85.640975</ele>
        <time>2023-04-26T10:39:34.297Z</time>
      </trkpt>
      <trkpt lat="51.3634" lon="6.95556">
        <ele>85.613084</ele>
        <time>2023-04-26T10:39:36.288Z</time>
      </trkpt>
      <trkpt lat="51.36348" lon="6.95565">
        <ele>85.586114</ele>
        <time>2023-04-26T10:39:38.297Z</time>
      </trkpt>
      <trkpt lat="51.36356" lon="6.95577">
        <ele>85.556746</ele>
        <time>2023-04-26T10:39:40.272Z</time>
      </trkpt>
      <trkpt lat="51.36363" lon="6.95588">
        <ele>85.528076</ele>
        <time>2023-04-26T10:39:42.278Z</time>
      </trkpt>
      <trkpt lat="51.36371" lon="6.95599">
        <ele>85.49982</ele>
        <time>2023-04-26T10:39:44.293Z</time>
      </trkpt>
      <trkpt lat="51.36379" lon="6.95609">
        <ele>85.472031</ele>
        <time>2023-04-26T10:39:46.282Z</time>
      </trkpt>
      <trkpt lat="51.36386" lon="6.9562">
        <ele>85.444669</ele>
        <time>2023-04-26T10:39:48.289Z</time>
      </trkpt>
      <trkpt lat="51.36393" lon="6.9563">
        <ele>85.417419</ele>
        <time>2023-04-26T10:39:50.292Z</time>
      </trkpt>
      <trkpt lat="51.364" lon="6.95641">
        <ele>85.389788</ele>
        <time>2023-04-26T10:39:52.301Z</time>
      </trkpt>
      <trkpt lat="51.36408" lon="6.9565">
        <ele>85.36374</ele>
        <time>2023-04-26T10:39:54.283Z</time>
      </trkpt>
      <trkpt lat="51.36415" lon="6.95659">
        <ele>85.337474</ele>
        <time>2023-04-26T10:39:56.284Z</time>
      </trkpt>
      <trkpt lat="51.36422" lon="6.9567">
        <ele>85.310634</ele>
        <time>2023-04-26T10:39:58.293Z</time>
      </trkpt>
      <trkpt lat="51.36429" lon="6.95679">
        <ele>85.284688</ele>
        <time>2023-04-26T10:40:00.281Z</time>
      </trkpt>
      <trkpt lat="51.36436" lon="6.95689">
        <ele>85.258077</ele>
        <time>2023-04-26T10:40:02.285Z</time>
      </trkpt>
      <trkpt lat="51.36444" lon="6.95699">
        <ele>85.230268</ele>
        <time>2023-04-26T10:40:04.291Z</time>
      </trkpt>
      <trkpt lat="51.36452" lon="6.95708">
        <ele>85.20307</ele>
        <time>2023-04-26T10:40:06.290Z</time>
      </trkpt>
      <trkpt lat="51.3646" lon="6.95717">
        <ele>85.169804</ele>
        <time>2023-04-26T10:40:08.297Z</time>
      </trkpt>
      <trkpt lat="51.36467" lon="6.95728">
        <ele>85.131762</ele>
        <time>2023-04-26T10:40:10.293Z</time>
      </trkpt>
      <trkpt lat="51.36474" lon="6.95738">
        <ele>85.09545</ele>
        <time>2023-04-26T10:40:12.301Z</time>
      </trkpt>
      <trkpt lat="51.36482" lon="6.95747">
        <ele>85.05929</ele>
        <time>2023-04-26T10:40:14.303Z</time>
      </trkpt>
      <trkpt lat="51.36489" lon="6.95757">
        <ele>85.02163</ele>
        <time>2023-04-26T10:40:16.284Z</time>
      </trkpt>
      <trkpt lat="51.36496" lon="6.95767">
        <ele>84.986585</ele>
        <time>2023-04-26T10:40:18.285Z</time>
      </trkpt>
      <trkpt lat="51.36504" lon="6.95777">
        <ele>84.949526</ele>
        <time>2023-04-26T10:40:20.291Z</time>
      </trkpt>
      <trkpt lat="51.36511" lon="6.95786">
        <ele>84.913047</ele>
        <time>2023-04-26T10:40:22.308Z</time>
      </trkpt>
      <trkpt lat="51.36519" lon="6.95795">
        <ele>84.876588</ele>
        <time>2023-04-26T10:40:24.297Z</time>
      </trkpt>
      <trkpt lat="51.36526" lon="6.95804">
        <ele>84.840535</ele>
        <time>2023-04-26T10:40:26.290Z</time>
      </trkpt>
      <trkpt lat="51.36533" lon="6.95813">
        <ele>84.805266</ele>
        <time>2023-04-26T10:40:28.304Z</time>
      </trkpt>
      <trkpt lat="51.36541" lon="6.95822">
        <ele>84.767143</ele>
        <time>2023-04-26T10:40:30.305Z</time>
      </trkpt>
      <trkpt lat="51.3655" lon="6.95832">
        <ele>84.727159</ele>
        <time>2023-04-26T10:40:32.294Z</time>
      </trkpt>
      <trkpt lat="51.36557" lon="6.95842">
        <ele>84.68965</ele>
        <time>2023-04-26T10:40:34.293Z</time>
      </trkpt>
      <trkpt lat="51.36565" lon="6.95852">
        <ele>84.65259</ele>
        <time>2023-04-26T10:40:36.295Z</time>
      </trkpt>
      <trkpt lat="51.36572" lon="6.95861">
        <ele>84.617454</ele>
        <time>2023-04-26T10:40:38.284Z</time>
      </trkpt>
      <trkpt lat="51.36579" lon="6.9587">
        <ele>84.58099</ele>
        <time>2023-04-26T10:40:40.280Z</time>
      </trkpt>
      <trkpt lat="51.36587" lon="6.95879">
        <ele>84.545842</ele>
        <time>2023-04-26T10:40:42.287Z</time>
      </trkpt>
      <trkpt lat="51.36595" lon="6.95888">
        <ele>84.507969</ele>
        <time>2023-04-26T10:40:44.281Z</time>
      </trkpt>
      <trkpt lat="51.36603" lon="6.95897">
        <ele>84.514538</ele>
        <time>2023-04-26T10:40:46.289Z</time>
      </trkpt>
      <trkpt lat="51.36611" lon="6.95906">
        <ele>84.527334</ele>
        <time>2023-04-26T10:40:48.286Z</time>
      </trkpt>
      <trkpt lat="51.36619" lon="6.95915">
        <ele>84.541103</ele>
        <time>2023-04-26T10:40:50.288Z</time>
      </trkpt>
      <trkpt lat="51.36627" lon="6.95924">
        <ele>84.554451</ele>
        <time>2023-04-26T10:40:52.268Z</time>
      </trkpt>
      <trkpt lat="51.36634" lon="6.95934">
        <ele>84.567667</ele>
        <time>2023-04-26T10:40:54.284Z</time>
      </trkpt>
      <trkpt lat="51.36645" lon="6.95948">
        <ele>84.58664</ele>
        <time>2023-04-26T10:40:57.284Z</time>
      </trkpt>
      <trkpt lat="51.36653" lon="6.95958">
        <ele>84.600764</ele>
        <time>2023-04-26T10:40:59.302Z</time>
      </trkpt>
      <trkpt lat="51.3666" lon="6.95968">
        <ele>84.613269</ele>
        <time>2023-04-26T10:41:01.303Z</time>
      </trkpt>
      <trkpt lat="51.36668" lon="6.95977">
        <ele>84.626345</ele>
        <time>2023-04-26T10:41:03.289Z</time>
      </trkpt>
      <trkpt lat="51.36676" lon="6.95987">
        <ele>84.640113</ele>
        <time>2023-04-26T10:41:05.289Z</time>
      </trkpt>
      <trkpt lat="51.36684" lon="6.95996">
        <ele>84.653179</ele>
        <time>2023-04-26T10:41:07.299Z</time>
      </trkpt>
      <trkpt lat="51.36691" lon="6.96004">
        <ele>84.665724</ele>
        <time>2023-04-26T10:41:09.290Z</time>
      </trkpt>
      <trkpt lat="51.367" lon="6.96013">
        <ele>84.679658</ele>
        <time>2023-04-26T10:41:11.289Z</time>
      </trkpt>
      <trkpt lat="51.36707" lon="6.96023">
        <ele>84.693088</ele>
        <time>2023-04-26T10:41:13.306Z</time>
      </trkpt>
      <trkpt lat="51.36716" lon="6.96032">
        <ele>84.706807</ele>
        <time>2023-04-26T10:41:15.292Z</time>
      </trkpt>
      <trkpt lat="51.36723" lon="6.96042">
        <ele>84.719969</ele>
        <time>2023-04-26T10:41:17.304Z</time>
      </trkpt>
      <trkpt lat="51.36732" lon="6.96051">
        <ele>84.734024</ele>
        <time>2023-04-26T10:41:19.356Z</time>
      </trkpt>
      <trkpt lat="51.3674" lon="6.96059">
        <ele>84.74696</ele>
        <time>2023-04-26T10:41:21.292Z</time>
      </trkpt>
      <trkpt lat="51.36749" lon="6.96065">
        <ele>84.728678</ele>
        <time>2023-04-26T10:41:23.284Z</time>
      </trkpt>
      <trkpt lat="51.36757" lon="6.96072">
        <ele>84.706835</ele>
        <time>2023-04-26T10:41:25.293Z</time>
      </trkpt>
      <trkpt lat="51.36766" lon="6.96081">
        <ele>84.683123</ele>
        <time>2023-04-26T10:41:27.290Z</time>
      </trkpt>
      <trkpt lat="51.36774" lon="6.96089">
        <ele>84.66148</ele>
        <time>2023-04-26T10:41:29.305Z</time>
      </trkpt>
      <trkpt lat="51.36784" lon="6.96097">
        <ele>84.636151</ele>
        <time>2023-04-26T10:41:32.301Z</time>
      </trkpt>
      <trkpt lat="51.36794" lon="6.96101">
        <ele>84.613</ele>
        <time>2023-04-26T10:41:49.291Z</time>
      </trkpt>
      <trkpt lat="51.36802" lon="6.96105">
        <ele>84.592473</ele>
        <time>2023-04-26T10:41:55.288Z</time>
      </trkpt>
      <trkpt lat="51.36811" lon="6.96113">
        <ele>84.569814</ele>
        <time>2023-04-26T10:42:00.290Z</time>
      </trkpt>
      <trkpt lat="51.36819" lon="6.96121">
        <ele>84.547833</ele>
        <time>2023-04-26T10:42:03.301Z</time>
      </trkpt>
      <trkpt lat="51.36829" lon="6.96129">
        <ele>84.522568</ele>
        <time>2023-04-26T10:42:06.307Z</time>
      </trkpt>
      <trkpt lat="51.36841" lon="6.96136">
        <ele>84.4947</ele>
        <time>2023-04-26T10:42:09.285Z</time>
      </trkpt>
      <trkpt lat="51.36853" lon="6.96141">
        <ele>84.465856</ele>
        <time>2023-04-26T10:42:12.296Z</time>
      </trkpt>
      <trkpt lat="51.36864" lon="6.96145">
        <ele>84.439105</ele>
        <time>2023-04-26T10:42:15.293Z</time>
      </trkpt>
      <trkpt lat="51.36876" lon="6.96144">
        <ele>84.411946</ele>
        <time>2023-04-26T10:42:18.281Z</time>
      </trkpt>
      <trkpt lat="51.36887" lon="6.96145">
        <ele>84.387105</ele>
        <time>2023-04-26T10:42:21.288Z</time>
      </trkpt>
      <trkpt lat="51.36897" lon="6.96139">
        <ele>84.363038</ele>
        <time>2023-04-26T10:42:24.304Z</time>
      </trkpt>
      <trkpt lat="51.36901" lon="6.96123">
        <ele>84.339485</ele>
        <time>2023-04-26T10:42:28.280Z</time>
      </trkpt>
      <trkpt lat="51.369" lon="6.96107">
        <ele>84.472914</ele>
        <time>2023-04-26T10:42:32.281Z</time>
      </trkpt>
      <trkpt lat="51.36892" lon="6.96098">
        <ele>84.617626</ele>
        <time>2023-04-26T10:42:36.287Z</time>
      </trkpt>
      <trkpt lat="51.3688" lon="6.96095">
        <ele>84.786946</ele>
        <time>2023-04-26T10:42:40.294Z</time>
      </trkpt>
      <trkpt lat="51.3687" lon="6.96089">
        <ele>84.931011</ele>
        <time>2023-04-26T10:42:43.291Z</time>
      </trkpt>
      <trkpt lat="51.3686" lon="6.96083">
        <ele>85.074039</ele>
        <time>2023-04-26T10:42:46.298Z</time>
      </trkpt>
      <trkpt lat="51.36851" lon="6.96076">
        <ele>85.218054</ele>
        <time>2023-04-26T10:42:49.296Z</time>
      </trkpt>
      <trkpt lat="51.36843" lon="6.96067">
        <ele>85.353294</ele>
        <time>2023-04-26T10:42:52.285Z</time>
      </trkpt>
      <trkpt lat="51.36832" lon="6.9606">
        <ele>85.515028</ele>
        <time>2023-04-26T10:42:56.293Z</time>
      </trkpt>
      <trkpt lat="51.36823" lon="6.96054">
        <ele>85.645553</ele>
        <time>2023-04-26T10:43:01.289Z</time>
      </trkpt>
      <trkpt lat="51.36817" lon="6.96043">
        <ele>85.774841</ele>
        <time>2023-04-26T10:43:34.288Z</time>
      </trkpt>
      <trkpt lat="51.36814" lon="6.96041">
        <ele>85.81912</ele>
        <time>2023-04-26T10:43:48.949Z</time>
      </trkpt>
      <trkpt lat="51.36826" lon="6.96052">
        <ele>86.0004</ele>
        <time>2023-04-26T11:43:22.272Z</time>
      </trkpt>
      <trkpt lat="51.36834" lon="6.9606">
        <ele>86.134998</ele>
        <time>2023-04-26T11:43:28.281Z</time>
      </trkpt>
      <trkpt lat="51.36844" lon="6.96067">
        <ele>86.293162</ele>
        <time>2023-04-26T11:43:32.302Z</time>
      </trkpt>
      <trkpt lat="51.36854" lon="6.96076">
        <ele>86.44961</ele>
        <time>2023-04-26T11:43:36.288Z</time>
      </trkpt>
      <trkpt lat="51.36864" lon="6.96081">
        <ele>86.584622</ele>
        <time>2023-04-26T11:43:39.302Z</time>
      </trkpt>
      <trkpt lat="51.36873" lon="6.96086">
        <ele>86.725103</ele>
        <time>2023-04-26T11:43:42.300Z</time>
      </trkpt>
      <trkpt lat="51.36883" lon="6.96089">
        <ele>86.778873</ele>
        <time>2023-04-26T11:43:45.304Z</time>
      </trkpt>
      <trkpt lat="51.36892" lon="6.96094">
        <ele>86.590277</ele>
        <time>2023-04-26T11:43:49.284Z</time>
      </trkpt>
      <trkpt lat="51.36894" lon="6.96108">
        <ele>86.416906</ele>
        <time>2023-04-26T11:43:53.295Z</time>
      </trkpt>
      <trkpt lat="51.36894" lon="6.96124">
        <ele>86.236668</ele>
        <time>2023-04-26T11:43:56.278Z</time>
      </trkpt>
      <trkpt lat="51.36891" lon="6.96139">
        <ele>86.050311</ele>
        <time>2023-04-26T11:44:00.314Z</time>
      </trkpt>
      <trkpt lat="51.36894" lon="6.96155">
        <ele>85.867203</ele>
        <time>2023-04-26T11:44:06.270Z</time>
      </trkpt>
      <trkpt lat="51.36903" lon="6.96161">
        <ele>85.687047</ele>
        <time>2023-04-26T11:44:09.296Z</time>
      </trkpt>
      <trkpt lat="51.36914" lon="6.9616">
        <ele>85.473002</ele>
        <time>2023-04-26T11:44:12.302Z</time>
      </trkpt>
      <trkpt lat="51.36925" lon="6.9616">
        <ele>85.270068</ele>
        <time>2023-04-26T11:44:15.297Z</time>
      </trkpt>
      <trkpt lat="51.36935" lon="6.96161">
        <ele>85.094944</ele>
        <time>2023-04-26T11:44:18.303Z</time>
      </trkpt>
      <trkpt lat="51.36944" lon="6.96162">
        <ele>84.910261</ele>
        <time>2023-04-26T11:44:21.292Z</time>
      </trkpt>
      <trkpt lat="51.36954" lon="6.9616">
        <ele>84.730966</ele>
        <time>2023-04-26T11:44:24.263Z</time>
      </trkpt>
      <trkpt lat="51.36964" lon="6.96159">
        <ele>84.549608</ele>
        <time>2023-04-26T11:44:27.270Z</time>
      </trkpt>
      <trkpt lat="51.36973" lon="6.96158">
        <ele>84.374611</ele>
        <time>2023-04-26T11:44:30.302Z</time>
      </trkpt>
      <trkpt lat="51.36985" lon="6.96157">
        <ele>84.161833</ele>
        <time>2023-04-26T11:44:34.289Z</time>
      </trkpt>
      <trkpt lat="51.36995" lon="6.96155">
        <ele>83.957907</ele>
        <time>2023-04-26T11:44:38.297Z</time>
      </trkpt>
      <trkpt lat="51.37006" lon="6.96156">
        <ele>83.766166</ele>
        <time>2023-04-26T11:44:41.291Z</time>
      </trkpt>
      <trkpt lat="51.37019" lon="6.96156">
        <ele>83.520444</ele>
        <time>2023-04-26T11:44:44.295Z</time>
      </trkpt>
      <trkpt lat="51.37031" lon="6.96155">
        <ele>83.593292</ele>
        <time>2023-04-26T11:44:47.298Z</time>
      </trkpt>
      <trkpt lat="51.37042" lon="6.96153">
        <ele>83.714558</ele>
        <time>2023-04-26T11:44:50.281Z</time>
      </trkpt>
      <trkpt lat="51.37053" lon="6.96151">
        <ele>83.853362</ele>
        <time>2023-04-26T11:44:54.287Z</time>
      </trkpt>
      <trkpt lat="51.37063" lon="6.9615">
        <ele>83.962688</ele>
        <time>2023-04-26T11:44:57.301Z</time>
      </trkpt>
      <trkpt lat="51.37073" lon="6.96148">
        <ele>84.082571</ele>
        <time>2023-04-26T11:45:00.273Z</time>
      </trkpt>
      <trkpt lat="51.37086" lon="6.96149">
        <ele>84.234935</ele>
        <time>2023-04-26T11:45:03.311Z</time>
      </trkpt>
      <trkpt lat="51.37099" lon="6.9615">
        <ele>84.385961</ele>
        <time>2023-04-26T11:45:06.296Z</time>
      </trkpt>
      <trkpt lat="51.37108" lon="6.9615">
        <ele>84.493759</ele>
        <time>2023-04-26T11:45:08.288Z</time>
      </trkpt>
      <trkpt lat="51.37117" lon="6.9615">
        <ele>84.600268</ele>
        <time>2023-04-26T11:45:10.299Z</time>
      </trkpt>
      <trkpt lat="51.37126" lon="6.9615">
        <ele>84.705607</ele>
        <time>2023-04-26T11:45:12.282Z</time>
      </trkpt>
      <trkpt lat="51.37135" lon="6.96151">
        <ele>84.812203</ele>
        <time>2023-04-26T11:45:14.312Z</time>
      </trkpt>
      <trkpt lat="51.37149" lon="6.96151">
        <ele>84.971384</ele>
        <time>2023-04-26T11:45:17.294Z</time>
      </trkpt>
      <trkpt lat="51.37162" lon="6.96152">
        <ele>85.127132</ele>
        <time>2023-04-26T11:45:20.286Z</time>
      </trkpt>
      <trkpt lat="51.37175" lon="6.96153">
        <ele>85.27629</ele>
        <time>2023-04-26T11:45:23.285Z</time>
      </trkpt>
      <trkpt lat="51.37187" lon="6.96154">
        <ele>85.421427</ele>
        <time>2023-04-26T11:45:26.300Z</time>
      </trkpt>
      <trkpt lat="51.37196" lon="6.96154">
        <ele>85.527956</ele>
        <time>2023-04-26T11:45:28.289Z</time>
      </trkpt>
      <trkpt lat="51.37206" lon="6.96155">
        <ele>85.639692</ele>
        <time>2023-04-26T11:45:30.284Z</time>
      </trkpt>
      <trkpt lat="51.37215" lon="6.96155">
        <ele>85.754054</ele>
        <time>2023-04-26T11:45:32.305Z</time>
      </trkpt>
      <trkpt lat="51.37225" lon="6.96155">
        <ele>85.869598</ele>
        <time>2023-04-26T11:45:34.300Z</time>
      </trkpt>
      <trkpt lat="51.37234" lon="6.96156">
        <ele>85.980581</ele>
        <time>2023-04-26T11:45:36.286Z</time>
      </trkpt>
      <trkpt lat="51.37243" lon="6.96156">
        <ele>86.09013</ele>
        <time>2023-04-26T11:45:38.290Z</time>
      </trkpt>
      <trkpt lat="51.37252" lon="6.96155">
        <ele>86.201065</ele>
        <time>2023-04-26T11:45:40.289Z</time>
      </trkpt>
      <trkpt lat="51.37262" lon="6.96156">
        <ele>86.314264</ele>
        <time>2023-04-26T11:45:42.293Z</time>
      </trkpt>
      <trkpt lat="51.37271" lon="6.96155">
        <ele>86.425248</ele>
        <time>2023-04-26T11:45:44.280Z</time>
      </trkpt>
      <trkpt lat="51.3728" lon="6.96153">
        <ele>86.534009</ele>
        <time>2023-04-26T11:45:46.280Z</time>
      </trkpt>
      <trkpt lat="51.37293" lon="6.96153">
        <ele>86.692968</ele>
        <time>2023-04-26T11:45:49.298Z</time>
      </trkpt>
      <trkpt lat="51.37302" lon="6.96152">
        <ele>86.803789</ele>
        <time>2023-04-26T11:45:51.294Z</time>
      </trkpt>
      <trkpt lat="51.37312" lon="6.96151">
        <ele>86.917047</ele>
        <time>2023-04-26T11:45:53.305Z</time>
      </trkpt>
      <trkpt lat="51.37325" lon="6.96154">
        <ele>87.083004</ele>
        <time>2023-04-26T11:45:56.280Z</time>
      </trkpt>
      <trkpt lat="51.37335" lon="6.96155">
        <ele>87.193987</ele>
        <time>2023-04-26T11:45:58.312Z</time>
      </trkpt>
      <trkpt lat="51.37344" lon="6.96156">
        <ele>87.309882</ele>
        <time>2023-04-26T11:46:00.284Z</time>
      </trkpt>
      <trkpt lat="51.37353" lon="6.9616">
        <ele>87.421175</ele>
        <time>2023-04-26T11:46:02.296Z</time>
      </trkpt>
      <trkpt lat="51.37363" lon="6.96163">
        <ele>87.539842</ele>
        <time>2023-04-26T11:46:04.293Z</time>
      </trkpt>
      <trkpt lat="51.37373" lon="6.96168">
        <ele>87.663497</ele>
        <time>2023-04-26T11:46:06.287Z</time>
      </trkpt>
      <trkpt lat="51.37382" lon="6.96173">
        <ele>87.740065</ele>
        <time>2023-04-26T11:46:08.287Z</time>
      </trkpt>
      <trkpt lat="51.37391" lon="6.96177">
        <ele>87.719399</ele>
        <time>2023-04-26T11:46:10.290Z</time>
      </trkpt>
      <trkpt lat="51.374" lon="6.96183">
        <ele>87.698661</ele>
        <time>2023-04-26T11:46:12.285Z</time>
      </trkpt>
      <trkpt lat="51.37409" lon="6.9619">
        <ele>87.679084</ele>
        <time>2023-04-26T11:46:14.284Z</time>
      </trkpt>
      <trkpt lat="51.37417" lon="6.96196">
        <ele>87.659562</ele>
        <time>2023-04-26T11:46:16.282Z</time>
      </trkpt>
      <trkpt lat="51.37425" lon="6.96203">
        <ele>87.63992</ele>
        <time>2023-04-26T11:46:18.292Z</time>
      </trkpt>
      <trkpt lat="51.37436" lon="6.96213">
        <ele>87.613434</ele>
        <time>2023-04-26T11:46:21.290Z</time>
      </trkpt>
      <trkpt lat="51.37447" lon="6.96223">
        <ele>87.585972</ele>
        <time>2023-04-26T11:46:24.280Z</time>
      </trkpt>
      <trkpt lat="51.37456" lon="6.96237">
        <ele>87.55999</ele>
        <time>2023-04-26T11:46:27.295Z</time>
      </trkpt>
      <trkpt lat="51.37466" lon="6.9625">
        <ele>87.531516</ele>
        <time>2023-04-26T11:46:30.272Z</time>
      </trkpt>
      <trkpt lat="51.37476" lon="6.96264">
        <ele>87.503742</ele>
        <time>2023-04-26T11:46:33.295Z</time>
      </trkpt>
      <trkpt lat="51.37486" lon="6.96278">
        <ele>87.475947</ele>
        <time>2023-04-26T11:46:36.280Z</time>
      </trkpt>
      <trkpt lat="51.37495" lon="6.96294">
        <ele>87.447837</ele>
        <time>2023-04-26T11:46:39.279Z</time>
      </trkpt>
      <trkpt lat="51.37501" lon="6.96305">
        <ele>87.428299</ele>
        <time>2023-04-26T11:46:41.307Z</time>
      </trkpt>
      <trkpt lat="51.37507" lon="6.96316">
        <ele>87.408283</ele>
        <time>2023-04-26T11:46:43.290Z</time>
      </trkpt>
      <trkpt lat="51.37514" lon="6.96328">
        <ele>87.387324</ele>
        <time>2023-04-26T11:46:45.284Z</time>
      </trkpt>
      <trkpt lat="51.37519" lon="6.9634">
        <ele>87.367066</ele>
        <time>2023-04-26T11:46:47.304Z</time>
      </trkpt>
      <trkpt lat="51.37525" lon="6.96352">
        <ele>87.381627</ele>
        <time>2023-04-26T11:46:49.286Z</time>
      </trkpt>
      <trkpt lat="51.37534" lon="6.96368">
        <ele>87.410111</ele>
        <time>2023-04-26T11:46:52.268Z</time>
      </trkpt>
      <trkpt lat="51.37539" lon="6.9638">
        <ele>87.43035</ele>
        <time>2023-04-26T11:46:54.297Z</time>
      </trkpt>
      <trkpt lat="51.37544" lon="6.96394">
        <ele>87.451824</ele>
        <time>2023-04-26T11:46:56.309Z</time>
      </trkpt>
      <trkpt lat="51.37549" lon="6.96409">
        <ele>87.474318</ele>
        <time>2023-04-26T11:46:58.288Z</time>
      </trkpt>
      <trkpt lat="51.37553" lon="6.96424">
        <ele>87.497115</ele>
        <time>2023-04-26T11:47:00.304Z</time>
      </trkpt>
      <trkpt lat="51.37556" lon="6.96439">
        <ele>87.51881</ele>
        <time>2023-04-26T11:47:02.280Z</time>
      </trkpt>
      <trkpt lat="51.3756" lon="6.96454">
        <ele>87.540919</ele>
        <time>2023-04-26T11:47:04.303Z</time>
      </trkpt>
      <trkpt lat="51.37562" lon="6.96469">
        <ele>87.561387</ele>
        <time>2023-04-26T11:47:06.283Z</time>
      </trkpt>
      <trkpt lat="51.37564" lon="6.96483">
        <ele>87.581726</ele>
        <time>2023-04-26T11:47:08.284Z</time>
      </trkpt>
      <trkpt lat="51.37567" lon="6.96498">
        <ele>87.602515</ele>
        <time>2023-04-26T11:47:10.283Z</time>
      </trkpt>
      <trkpt lat="51.3757" lon="6.96512">
        <ele>87.623829</ele>
        <time>2023-04-26T11:47:12.280Z</time>
      </trkpt>
      <trkpt lat="51.37574" lon="6.96527">
        <ele>87.645568</ele>
        <time>2023-04-26T11:47:14.307Z</time>
      </trkpt>
      <trkpt lat="51.37577" lon="6.96541">
        <ele>87.665701</ele>
        <time>2023-04-26T11:47:16.297Z</time>
      </trkpt>
      <trkpt lat="51.37579" lon="6.96556">
        <ele>87.685836</ele>
        <time>2023-04-26T11:47:18.294Z</time>
      </trkpt>
      <trkpt lat="51.37582" lon="6.96571">
        <ele>87.707269</ele>
        <time>2023-04-26T11:47:20.289Z</time>
      </trkpt>
      <trkpt lat="51.37585" lon="6.96585">
        <ele>87.727925</ele>
        <time>2023-04-26T11:47:22.301Z</time>
      </trkpt>
      <trkpt lat="51.37588" lon="6.96599">
        <ele>87.747867</ele>
        <time>2023-04-26T11:47:24.294Z</time>
      </trkpt>
      <trkpt lat="51.37591" lon="6.96614">
        <ele>87.73316</ele>
        <time>2023-04-26T11:47:26.276Z</time>
      </trkpt>
      <trkpt lat="51.37593" lon="6.96628">
        <ele>87.697578</ele>
        <time>2023-04-26T11:47:28.289Z</time>
      </trkpt>
      <trkpt lat="51.37596" lon="6.96643">
        <ele>87.661659</ele>
        <time>2023-04-26T11:47:30.297Z</time>
      </trkpt>
      <trkpt lat="51.376" lon="6.96663">
        <ele>87.610195</ele>
        <time>2023-04-26T11:47:33.303Z</time>
      </trkpt>
      <trkpt lat="51.37603" lon="6.96677">
        <ele>87.574168</ele>
        <time>2023-04-26T11:47:35.292Z</time>
      </trkpt>
      <trkpt lat="51.37606" lon="6.96691">
        <ele>87.538475</ele>
        <time>2023-04-26T11:47:37.307Z</time>
      </trkpt>
      <trkpt lat="51.37609" lon="6.96705">
        <ele>87.502841</ele>
        <time>2023-04-26T11:47:39.311Z</time>
      </trkpt>
      <trkpt lat="51.37613" lon="6.96719">
        <ele>87.467594</ele>
        <time>2023-04-26T11:47:41.286Z</time>
      </trkpt>
      <trkpt lat="51.37616" lon="6.96733">
        <ele>87.432198</ele>
        <time>2023-04-26T11:47:43.293Z</time>
      </trkpt>
      <trkpt lat="51.37621" lon="6.96752">
        <ele>87.382473</ele>
        <time>2023-04-26T11:47:46.305Z</time>
      </trkpt>
      <trkpt lat="51.37626" lon="6.96771">
        <ele>87.332476</ele>
        <time>2023-04-26T11:47:49.310Z</time>
      </trkpt>
      <trkpt lat="51.3763" lon="6.96792">
        <ele>87.28055</ele>
        <time>2023-04-26T11:47:52.271Z</time>
      </trkpt>
      <trkpt lat="51.37634" lon="6.96806">
        <ele>87.243548</ele>
        <time>2023-04-26T11:47:54.293Z</time>
      </trkpt>
      <trkpt lat="51.37638" lon="6.96821">
        <ele>87.205402</ele>
        <time>2023-04-26T11:47:56.309Z</time>
      </trkpt>
      <trkpt lat="51.37641" lon="6.96835">
        <ele>87.168737</ele>
        <time>2023-04-26T11:47:58.289Z</time>
      </trkpt>
      <trkpt lat="51.37645" lon="6.96849">
        <ele>87.132601</ele>
        <time>2023-04-26T11:48:00.311Z</time>
      </trkpt>
      <trkpt lat="51.37649" lon="6.96863">
        <ele>87.096144</ele>
        <time>2023-04-26T11:48:02.268Z</time>
      </trkpt>
      <trkpt lat="51.37653" lon="6.96876">
        <ele>87.06384</ele>
        <time>2023-04-26T11:48:04.308Z</time>
      </trkpt>
      <trkpt lat="51.37657" lon="6.96889">
        <ele>87.055033</ele>
        <time>2023-04-26T11:48:06.303Z</time>
      </trkpt>
      <trkpt lat="51.37661" lon="6.96904">
        <ele>87.045654</ele>
        <time>2023-04-26T11:48:08.304Z</time>
      </trkpt>
      <trkpt lat="51.37665" lon="6.96918">
        <ele>87.036192</ele>
        <time>2023-04-26T11:48:10.296Z</time>
      </trkpt>
      <trkpt lat="51.37668" lon="6.96932">
        <ele>87.027019</ele>
        <time>2023-04-26T11:48:12.285Z</time>
      </trkpt>
      <trkpt lat="51.37671" lon="6.96946">
        <ele>87.017923</ele>
        <time>2023-04-26T11:48:14.287Z</time>
      </trkpt>
      <trkpt lat="51.37676" lon="6.96965">
        <ele>87.005294</ele>
        <time>2023-04-26T11:48:17.294Z</time>
      </trkpt>
      <trkpt lat="51.3768" lon="6.96986">
        <ele>86.991798</ele>
        <time>2023-04-26T11:48:20.301Z</time>
      </trkpt>
      <trkpt lat="51.37683" lon="6.97001">
        <ele>86.982266</ele>
        <time>2023-04-26T11:48:22.302Z</time>
      </trkpt>
      <trkpt lat="51.37687" lon="6.97015">
        <ele>86.972808</ele>
        <time>2023-04-26T11:48:24.308Z</time>
      </trkpt>
      <trkpt lat="51.3769" lon="6.9703">
        <ele>86.96316</ele>
        <time>2023-04-26T11:48:26.297Z</time>
      </trkpt>
      <trkpt lat="51.37693" lon="6.97046">
        <ele>86.953018</ele>
        <time>2023-04-26T11:48:28.311Z</time>
      </trkpt>
      <trkpt lat="51.37696" lon="6.97061">
        <ele>86.943159</ele>
        <time>2023-04-26T11:48:30.307Z</time>
      </trkpt>
      <trkpt lat="51.37698" lon="6.97077">
        <ele>86.933609</ele>
        <time>2023-04-26T11:48:32.290Z</time>
      </trkpt>
      <trkpt lat="51.377" lon="6.97091">
        <ele>86.92466</ele>
        <time>2023-04-26T11:48:34.315Z</time>
      </trkpt>
      <trkpt lat="51.37702" lon="6.97106">
        <ele>86.915291</ele>
        <time>2023-04-26T11:48:36.288Z</time>
      </trkpt>
      <trkpt lat="51.37704" lon="6.97121">
        <ele>86.906106</ele>
        <time>2023-04-26T11:48:38.287Z</time>
      </trkpt>
      <trkpt lat="51.37708" lon="6.97135">
        <ele>86.896784</ele>
        <time>2023-04-26T11:48:40.295Z</time>
      </trkpt>
      <trkpt lat="51.3771" lon="6.97156">
        <ele>86.884207</ele>
        <time>2023-04-26T11:48:43.290Z</time>
      </trkpt>
      <trkpt lat="51.37712" lon="6.97171">
        <ele>86.875962</ele>
        <time>2023-04-26T11:48:45.279Z</time>
      </trkpt>
      <trkpt lat="51.37713" lon="6.97193">
        <ele>86.864168</ele>
        <time>2023-04-26T11:48:48.288Z</time>
      </trkpt>
      <trkpt lat="51.37714" lon="6.97208">
        <ele>86.855656</ele>
        <time>2023-04-26T11:48:50.294Z</time>
      </trkpt>
      <trkpt lat="51.37715" lon="6.97223">
        <ele>86.847224</ele>
        <time>2023-04-26T11:48:52.288Z</time>
      </trkpt>
      <trkpt lat="51.37717" lon="6.97239">
        <ele>86.83867</ele>
        <time>2023-04-26T11:48:54.278Z</time>
      </trkpt>
      <trkpt lat="51.37719" lon="6.97253">
        <ele>86.830664</ele>
        <time>2023-04-26T11:48:56.280Z</time>
      </trkpt>
      <trkpt lat="51.37719" lon="6.97268">
        <ele>86.82237</ele>
        <time>2023-04-26T11:48:58.283Z</time>
      </trkpt>
      <trkpt lat="51.3772" lon="6.97284">
        <ele>86.814054</ele>
        <time>2023-04-26T11:49:00.304Z</time>
      </trkpt>
      <trkpt lat="51.37721" lon="6.97299">
        <ele>86.805467</ele>
        <time>2023-04-26T11:49:02.280Z</time>
      </trkpt>
      <trkpt lat="51.37721" lon="6.97314">
        <ele>86.797111</ele>
        <time>2023-04-26T11:49:04.293Z</time>
      </trkpt>
      <trkpt lat="51.37723" lon="6.9733">
        <ele>86.78862</ele>
        <time>2023-04-26T11:49:06.285Z</time>
      </trkpt>
      <trkpt lat="51.37724" lon="6.97345">
        <ele>86.780206</ele>
        <time>2023-04-26T11:49:08.296Z</time>
      </trkpt>
      <trkpt lat="51.37725" lon="6.97361">
        <ele>86.771503</ele>
        <time>2023-04-26T11:49:10.295Z</time>
      </trkpt>
      <trkpt lat="51.37725" lon="6.97377">
        <ele>86.762707</ele>
        <time>2023-04-26T11:49:12.282Z</time>
      </trkpt>
      <trkpt lat="51.37726" lon="6.97393">
        <ele>86.753988</ele>
        <time>2023-04-26T11:49:14.316Z</time>
      </trkpt>
      <trkpt lat="51.37727" lon="6.97409">
        <ele>86.745448</ele>
        <time>2023-04-26T11:49:16.284Z</time>
      </trkpt>
      <trkpt lat="51.37728" lon="6.97424">
        <ele>86.736907</ele>
        <time>2023-04-26T11:49:18.269Z</time>
      </trkpt>
      <trkpt lat="51.37728" lon="6.9744">
        <ele>86.738741</ele>
        <time>2023-04-26T11:49:20.298Z</time>
      </trkpt>
      <trkpt lat="51.37729" lon="6.97461">
        <ele>86.758758</ele>
        <time>2023-04-26T11:49:23.302Z</time>
      </trkpt>
      <trkpt lat="51.3773" lon="6.97476">
        <ele>86.7727</ele>
        <time>2023-04-26T11:49:25.313Z</time>
      </trkpt>
      <trkpt lat="51.3773" lon="6.97491">
        <ele>86.786634</ele>
        <time>2023-04-26T11:49:27.302Z</time>
      </trkpt>
      <trkpt lat="51.3773" lon="6.97507">
        <ele>86.801095</ele>
        <time>2023-04-26T11:49:29.300Z</time>
      </trkpt>
      <trkpt lat="51.37732" lon="6.97521">
        <ele>86.815033</ele>
        <time>2023-04-26T11:49:31.293Z</time>
      </trkpt>
      <trkpt lat="51.37732" lon="6.97537">
        <ele>86.829073</ele>
        <time>2023-04-26T11:49:33.302Z</time>
      </trkpt>
      <trkpt lat="51.37734" lon="6.97552">
        <ele>86.843473</ele>
        <time>2023-04-26T11:49:35.292Z</time>
      </trkpt>
      <trkpt lat="51.37735" lon="6.97566">
        <ele>86.856932</ele>
        <time>2023-04-26T11:49:37.284Z</time>
      </trkpt>
      <trkpt lat="51.37736" lon="6.97581">
        <ele>86.870654</ele>
        <time>2023-04-26T11:49:39.278Z</time>
      </trkpt>
      <trkpt lat="51.37737" lon="6.97597">
        <ele>86.885314</ele>
        <time>2023-04-26T11:49:41.294Z</time>
      </trkpt>
      <trkpt lat="51.37737" lon="6.97612">
        <ele>86.899437</ele>
        <time>2023-04-26T11:49:43.302Z</time>
      </trkpt>
      <trkpt lat="51.37738" lon="6.97627">
        <ele>86.914083</ele>
        <time>2023-04-26T11:49:45.293Z</time>
      </trkpt>
      <trkpt lat="51.37739" lon="6.97644">
        <ele>86.929594</ele>
        <time>2023-04-26T11:49:47.300Z</time>
      </trkpt>
      <trkpt lat="51.37741" lon="6.97659">
        <ele>86.944207</ele>
        <time>2023-04-26T11:49:49.290Z</time>
      </trkpt>
      <trkpt lat="51.37744" lon="6.97674">
        <ele>86.95875</ele>
        <time>2023-04-26T11:49:51.289Z</time>
      </trkpt>
      <trkpt lat="51.37747" lon="6.97688">
        <ele>86.972367</ele>
        <time>2023-04-26T11:49:53.302Z</time>
      </trkpt>
      <trkpt lat="51.37749" lon="6.97707">
        <ele>86.99015</ele>
        <time>2023-04-26T11:49:56.281Z</time>
      </trkpt>
      <trkpt lat="51.37749" lon="6.97728">
        <ele>86.922427</ele>
        <time>2023-04-26T11:49:59.285Z</time>
      </trkpt>
      <trkpt lat="51.3775" lon="6.97749">
        <ele>86.754212</ele>
        <time>2023-04-26T11:50:02.302Z</time>
      </trkpt>
      <trkpt lat="51.3775" lon="6.97764">
        <ele>86.641591</ele>
        <time>2023-04-26T11:50:04.283Z</time>
      </trkpt>
      <trkpt lat="51.3775" lon="6.97779">
        <ele>86.521773</ele>
        <time>2023-04-26T11:50:06.281Z</time>
      </trkpt>
      <trkpt lat="51.37751" lon="6.97794">
        <ele>86.404577</ele>
        <time>2023-04-26T11:50:08.306Z</time>
      </trkpt>
      <trkpt lat="51.37753" lon="6.9781">
        <ele>86.279397</ele>
        <time>2023-04-26T11:50:10.305Z</time>
      </trkpt>
      <trkpt lat="51.37754" lon="6.97825">
        <ele>86.156878</ele>
        <time>2023-04-26T11:50:12.295Z</time>
      </trkpt>
      <trkpt lat="51.37756" lon="6.9784">
        <ele>86.036655</ele>
        <time>2023-04-26T11:50:14.280Z</time>
      </trkpt>
      <trkpt lat="51.37757" lon="6.97856">
        <ele>85.916496</ele>
        <time>2023-04-26T11:50:16.296Z</time>
      </trkpt>
      <trkpt lat="51.37759" lon="6.9787">
        <ele>85.798041</ele>
        <time>2023-04-26T11:50:18.288Z</time>
      </trkpt>
      <trkpt lat="51.3776" lon="6.97885">
        <ele>85.684966</ele>
        <time>2023-04-26T11:50:20.313Z</time>
      </trkpt>
      <trkpt lat="51.37762" lon="6.979">
        <ele>85.566034</ele>
        <time>2023-04-26T11:50:22.301Z</time>
      </trkpt>
      <trkpt lat="51.37764" lon="6.97914">
        <ele>85.451649</ele>
        <time>2023-04-26T11:50:24.304Z</time>
      </trkpt>
      <trkpt lat="51.37766" lon="6.97929">
        <ele>85.331655</ele>
        <time>2023-04-26T11:50:26.281Z</time>
      </trkpt>
      <trkpt lat="51.37768" lon="6.97951">
        <ele>85.158955</ele>
        <time>2023-04-26T11:50:29.319Z</time>
      </trkpt>
      <trkpt lat="51.37769" lon="6.97968">
        <ele>85.024751</ele>
        <time>2023-04-26T11:50:31.294Z</time>
      </trkpt>
      <trkpt lat="51.3777" lon="6.97986">
        <ele>84.879287</ele>
        <time>2023-04-26T11:50:33.295Z</time>
      </trkpt>
      <trkpt lat="51.37773" lon="6.98004">
        <ele>84.74931</ele>
        <time>2023-04-26T11:50:35.296Z</time>
      </trkpt>
      <trkpt lat="51.37775" lon="6.98022">
        <ele>84.797443</ele>
        <time>2023-04-26T11:50:37.301Z</time>
      </trkpt>
      <trkpt lat="51.37778" lon="6.98039">
        <ele>84.844851</ele>
        <time>2023-04-26T11:50:39.296Z</time>
      </trkpt>
      <trkpt lat="51.37781" lon="6.98056">
        <ele>84.892594</ele>
        <time>2023-04-26T11:50:41.305Z</time>
      </trkpt>
      <trkpt lat="51.37786" lon="6.98072">
        <ele>84.940366</ele>
        <time>2023-04-26T11:50:43.300Z</time>
      </trkpt>
      <trkpt lat="51.3779" lon="6.98088">
        <ele>84.986002</ele>
        <time>2023-04-26T11:50:45.305Z</time>
      </trkpt>
      <trkpt lat="51.37795" lon="6.98104">
        <ele>85.032818</ele>
        <time>2023-04-26T11:50:47.260Z</time>
      </trkpt>
      <trkpt lat="51.378" lon="6.98119">
        <ele>85.077882</ele>
        <time>2023-04-26T11:50:49.293Z</time>
      </trkpt>
      <trkpt lat="51.37805" lon="6.98133">
        <ele>85.122454</ele>
        <time>2023-04-26T11:50:51.304Z</time>
      </trkpt>
      <trkpt lat="51.37811" lon="6.98148">
        <ele>85.168683</ele>
        <time>2023-04-26T11:50:53.302Z</time>
      </trkpt>
      <trkpt lat="51.37816" lon="6.98161">
        <ele>85.210999</ele>
        <time>2023-04-26T11:50:55.290Z</time>
      </trkpt>
      <trkpt lat="51.37821" lon="6.98175">
        <ele>85.254001</ele>
        <time>2023-04-26T11:50:57.309Z</time>
      </trkpt>
      <trkpt lat="51.37826" lon="6.98187">
        <ele>85.292481</ele>
        <time>2023-04-26T11:50:59.298Z</time>
      </trkpt>
      <trkpt lat="51.37832" lon="6.98206">
        <ele>85.34994</ele>
        <time>2023-04-26T11:51:02.303Z</time>
      </trkpt>
      <trkpt lat="51.37837" lon="6.98225">
        <ele>85.40362</ele>
        <time>2023-04-26T11:51:05.296Z</time>
      </trkpt>
      <trkpt lat="51.37843" lon="6.98241">
        <ele>85.452753</ele>
        <time>2023-04-26T11:51:08.290Z</time>
      </trkpt>
      <trkpt lat="51.3785" lon="6.98257">
        <ele>85.505359</ele>
        <time>2023-04-26T11:51:11.290Z</time>
      </trkpt>
      <trkpt lat="51.37856" lon="6.98274">
        <ele>85.608148</ele>
        <time>2023-04-26T11:51:14.284Z</time>
      </trkpt>
      <trkpt lat="51.37864" lon="6.9829">
        <ele>85.735032</ele>
        <time>2023-04-26T11:51:17.304Z</time>
      </trkpt>
      <trkpt lat="51.37873" lon="6.98307">
        <ele>85.862041</ele>
        <time>2023-04-26T11:51:20.277Z</time>
      </trkpt>
      <trkpt lat="51.37879" lon="6.98318">
        <ele>85.951966</ele>
        <time>2023-04-26T11:51:22.305Z</time>
      </trkpt>
      <trkpt lat="51.37886" lon="6.9833">
        <ele>86.04711</ele>
        <time>2023-04-26T11:51:24.305Z</time>
      </trkpt>
      <trkpt lat="51.37894" lon="6.98347">
        <ele>86.17367</ele>
        <time>2023-04-26T11:51:27.294Z</time>
      </trkpt>
      <trkpt lat="51.37901" lon="6.98356">
        <ele>86.260845</ele>
        <time>2023-04-26T11:51:29.271Z</time>
      </trkpt>
      <trkpt lat="51.37909" lon="6.98367">
        <ele>86.352746</ele>
        <time>2023-04-26T11:51:31.301Z</time>
      </trkpt>
      <trkpt lat="51.37915" lon="6.98377">
        <ele>86.443592</ele>
        <time>2023-04-26T11:51:33.295Z</time>
      </trkpt>
      <trkpt lat="51.37922" lon="6.98388">
        <ele>86.531566</ele>
        <time>2023-04-26T11:51:35.310Z</time>
      </trkpt>
      <trkpt lat="51.37928" lon="6.98399">
        <ele>86.616747</ele>
        <time>2023-04-26T11:51:37.306Z</time>
      </trkpt>
      <trkpt lat="51.37933" lon="6.98411">
        <ele>86.702838</ele>
        <time>2023-04-26T11:51:39.280Z</time>
      </trkpt>
      <trkpt lat="51.37939" lon="6.98423">
        <ele>86.793476</ele>
        <time>2023-04-26T11:51:41.281Z</time>
      </trkpt>
      <trkpt lat="51.37944" lon="6.98436">
        <ele>86.88541</ele>
        <time>2023-04-26T11:51:43.305Z</time>
      </trkpt>
      <trkpt lat="51.37948" lon="6.9845">
        <ele>86.976989</ele>
        <time>2023-04-26T11:51:45.284Z</time>
      </trkpt>
      <trkpt lat="51.37952" lon="6.98464">
        <ele>87.067497</ele>
        <time>2023-04-26T11:51:47.300Z</time>
      </trkpt>
      <trkpt lat="51.37958" lon="6.98483">
        <ele>87.1942</ele>
        <time>2023-04-26T11:51:50.275Z</time>
      </trkpt>
      <trkpt lat="51.37963" lon="6.98496">
        <ele>87.231241</ele>
        <time>2023-04-26T11:51:52.283Z</time>
      </trkpt>
      <trkpt lat="51.37967" lon="6.9851">
        <ele>87.245028</ele>
        <time>2023-04-26T11:51:54.308Z</time>
      </trkpt>
      <trkpt lat="51.3797" lon="6.98524">
        <ele>87.258392</ele>
        <time>2023-04-26T11:51:56.307Z</time>
      </trkpt>
      <trkpt lat="51.37974" lon="6.98538">
        <ele>87.272422</ele>
        <time>2023-04-26T11:51:58.285Z</time>
      </trkpt>
      <trkpt lat="51.3798" lon="6.98558">
        <ele>87.292326</ele>
        <time>2023-04-26T11:52:01.307Z</time>
      </trkpt>
      <trkpt lat="51.37985" lon="6.98572">
        <ele>87.306474</ele>
        <time>2023-04-26T11:52:03.286Z</time>
      </trkpt>
      <trkpt lat="51.37989" lon="6.98587">
        <ele>87.321507</ele>
        <time>2023-04-26T11:52:05.298Z</time>
      </trkpt>
      <trkpt lat="51.37993" lon="6.98602">
        <ele>87.336177</ele>
        <time>2023-04-26T11:52:07.273Z</time>
      </trkpt>
      <trkpt lat="51.37997" lon="6.98616">
        <ele>87.349899</ele>
        <time>2023-04-26T11:52:09.301Z</time>
      </trkpt>
      <trkpt lat="51.37999" lon="6.9863">
        <ele>87.363452</ele>
        <time>2023-04-26T11:52:11.306Z</time>
      </trkpt>
      <trkpt lat="51.38003" lon="6.98644">
        <ele>87.377175</ele>
        <time>2023-04-26T11:52:13.306Z</time>
      </trkpt>
      <trkpt lat="51.38006" lon="6.98659">
        <ele>87.391339</ele>
        <time>2023-04-26T11:52:15.308Z</time>
      </trkpt>
      <trkpt lat="51.38009" lon="6.98673">
        <ele>87.404849</ele>
        <time>2023-04-26T11:52:17.310Z</time>
      </trkpt>
      <trkpt lat="51.38012" lon="6.98687">
        <ele>87.418058</ele>
        <time>2023-04-26T11:52:19.289Z</time>
      </trkpt>
      <trkpt lat="51.38015" lon="6.98708">
        <ele>87.437397</ele>
        <time>2023-04-26T11:52:22.311Z</time>
      </trkpt>
      <trkpt lat="51.38017" lon="6.98724">
        <ele>87.451832</ele>
        <time>2023-04-26T11:52:24.298Z</time>
      </trkpt>
      <trkpt lat="51.38018" lon="6.9874">
        <ele>87.466688</ele>
        <time>2023-04-26T11:52:26.295Z</time>
      </trkpt>
      <trkpt lat="51.3802" lon="6.98757">
        <ele>87.485779</ele>
        <time>2023-04-26T11:52:28.286Z</time>
      </trkpt>
      <trkpt lat="51.38023" lon="6.98773">
        <ele>87.55892</ele>
        <time>2023-04-26T11:52:30.293Z</time>
      </trkpt>
      <trkpt lat="51.38026" lon="6.98788">
        <ele>87.628496</ele>
        <time>2023-04-26T11:52:32.288Z</time>
      </trkpt>
      <trkpt lat="51.38027" lon="6.98803">
        <ele>87.698109</ele>
        <time>2023-04-26T11:52:34.281Z</time>
      </trkpt>
      <trkpt lat="51.38029" lon="6.9882">
        <ele>87.772119</ele>
        <time>2023-04-26T11:52:36.386Z</time>
      </trkpt>
      <trkpt lat="51.3803" lon="6.98836">
        <ele>87.843029</ele>
        <time>2023-04-26T11:52:38.284Z</time>
      </trkpt>
      <trkpt lat="51.38032" lon="6.98851">
        <ele>87.912277</ele>
        <time>2023-04-26T11:52:40.310Z</time>
      </trkpt>
      <trkpt lat="51.38033" lon="6.98872">
        <ele>88.009175</ele>
        <time>2023-04-26T11:52:43.288Z</time>
      </trkpt>
      <trkpt lat="51.38034" lon="6.98888">
        <ele>88.077069</ele>
        <time>2023-04-26T11:52:45.297Z</time>
      </trkpt>
      <trkpt lat="51.38035" lon="6.98903">
        <ele>88.144769</ele>
        <time>2023-04-26T11:52:47.293Z</time>
      </trkpt>
      <trkpt lat="51.38035" lon="6.98918">
        <ele>88.214131</ele>
        <time>2023-04-26T11:52:49.284Z</time>
      </trkpt>
      <trkpt lat="51.38035" lon="6.98933">
        <ele>88.279873</ele>
        <time>2023-04-26T11:52:51.297Z</time>
      </trkpt>
      <trkpt lat="51.38036" lon="6.98948">
        <ele>88.346555</ele>
        <time>2023-04-26T11:52:53.275Z</time>
      </trkpt>
      <trkpt lat="51.38036" lon="6.98963">
        <ele>88.416437</ele>
        <time>2023-04-26T11:52:55.288Z</time>
      </trkpt>
      <trkpt lat="51.38038" lon="6.98978">
        <ele>88.480954</ele>
        <time>2023-04-26T11:52:57.264Z</time>
      </trkpt>
      <trkpt lat="51.38039" lon="6.98999">
        <ele>88.578242</ele>
        <time>2023-04-26T11:53:00.298Z</time>
      </trkpt>
      <trkpt lat="51.3804" lon="6.9902">
        <ele>88.670085</ele>
        <time>2023-04-26T11:53:03.309Z</time>
      </trkpt>
      <trkpt lat="51.38041" lon="6.9904">
        <ele>88.762023</ele>
        <time>2023-04-26T11:53:06.273Z</time>
      </trkpt>
      <trkpt lat="51.38043" lon="6.99061">
        <ele>88.85877</ele>
        <time>2023-04-26T11:53:09.296Z</time>
      </trkpt>
      <trkpt lat="51.38045" lon="6.99082">
        <ele>88.954007</ele>
        <time>2023-04-26T11:53:12.297Z</time>
      </trkpt>
      <trkpt lat="51.38046" lon="6.99101">
        <ele>89.042237</ele>
        <time>2023-04-26T11:53:15.315Z</time>
      </trkpt>
      <trkpt lat="51.38047" lon="6.99122">
        <ele>89.141238</ele>
        <time>2023-04-26T11:53:18.291Z</time>
      </trkpt>
      <trkpt lat="51.38049" lon="6.99137">
        <ele>89.209391</ele>
        <time>2023-04-26T11:53:20.277Z</time>
      </trkpt>
      <trkpt lat="51.38051" lon="6.99158">
        <ele>89.305268</ele>
        <time>2023-04-26T11:53:23.281Z</time>
      </trkpt>
      <trkpt lat="51.38052" lon="6.99177">
        <ele>89.394689</ele>
        <time>2023-04-26T11:53:26.290Z</time>
      </trkpt>
      <trkpt lat="51.38054" lon="6.99199">
        <ele>89.494428</ele>
        <time>2023-04-26T11:53:29.290Z</time>
      </trkpt>
      <trkpt lat="51.38055" lon="6.99214">
        <ele>89.564625</ele>
        <time>2023-04-26T11:53:31.300Z</time>
      </trkpt>
      <trkpt lat="51.38057" lon="6.99229">
        <ele>89.635082</ele>
        <time>2023-04-26T11:53:33.310Z</time>
      </trkpt>
      <trkpt lat="51.38059" lon="6.99243">
        <ele>89.702584</ele>
        <time>2023-04-26T11:53:35.277Z</time>
      </trkpt>
      <trkpt lat="51.38062" lon="6.99259">
        <ele>89.779185</ele>
        <time>2023-04-26T11:53:37.282Z</time>
      </trkpt>
      <trkpt lat="51.38065" lon="6.99276">
        <ele>89.856224</ele>
        <time>2023-04-26T11:53:39.297Z</time>
      </trkpt>
      <trkpt lat="51.38068" lon="6.9929">
        <ele>89.927107</ele>
        <time>2023-04-26T11:53:41.306Z</time>
      </trkpt>
      <trkpt lat="51.38071" lon="6.99306">
        <ele>90.002142</ele>
        <time>2023-04-26T11:53:43.321Z</time>
      </trkpt>
      <trkpt lat="51.38074" lon="6.99321">
        <ele>90.077176</ele>
        <time>2023-04-26T11:53:45.298Z</time>
      </trkpt>
      <trkpt lat="51.38076" lon="6.99336">
        <ele>90.053989</ele>
        <time>2023-04-26T11:53:47.301Z</time>
      </trkpt>
      <trkpt lat="51.3808" lon="6.99351">
        <ele>90.007293</ele>
        <time>2023-04-26T11:53:49.298Z</time>
      </trkpt>
      <trkpt lat="51.38083" lon="6.99365">
        <ele>89.960852</ele>
        <time>2023-04-26T11:53:51.302Z</time>
      </trkpt>
      <trkpt lat="51.38087" lon="6.9938">
        <ele>89.911047</ele>
        <time>2023-04-26T11:53:53.275Z</time>
      </trkpt>
      <trkpt lat="51.38092" lon="6.99395">
        <ele>89.858783</ele>
        <time>2023-04-26T11:53:55.296Z</time>
      </trkpt>
      <trkpt lat="51.38096" lon="6.99409">
        <ele>89.813892</ele>
        <time>2023-04-26T11:53:57.285Z</time>
      </trkpt>
      <trkpt lat="51.38101" lon="6.99421">
        <ele>89.769844</ele>
        <time>2023-04-26T11:53:59.300Z</time>
      </trkpt>
      <trkpt lat="51.38106" lon="6.99435">
        <ele>89.721659</ele>
        <time>2023-04-26T11:54:01.285Z</time>
      </trkpt>
      <trkpt lat="51.38111" lon="6.99448">
        <ele>89.674198</ele>
        <time>2023-04-26T11:54:03.289Z</time>
      </trkpt>
      <trkpt lat="51.38117" lon="6.9946">
        <ele>89.627973</ele>
        <time>2023-04-26T11:54:05.283Z</time>
      </trkpt>
      <trkpt lat="51.38123" lon="6.99473">
        <ele>89.580761</ele>
        <time>2023-04-26T11:54:07.298Z</time>
      </trkpt>
      <trkpt lat="51.38127" lon="6.99486">
        <ele>89.536209</ele>
        <time>2023-04-26T11:54:09.304Z</time>
      </trkpt>
      <trkpt lat="51.38131" lon="6.99499">
        <ele>89.49193</ele>
        <time>2023-04-26T11:54:11.285Z</time>
      </trkpt>
      <trkpt lat="51.38137" lon="6.99518">
        <ele>89.423871</ele>
        <time>2023-04-26T11:54:14.302Z</time>
      </trkpt>
      <trkpt lat="51.38142" lon="6.99531">
        <ele>89.378011</ele>
        <time>2023-04-26T11:54:16.304Z</time>
      </trkpt>
      <trkpt lat="51.38149" lon="6.99544">
        <ele>89.328846</ele>
        <time>2023-04-26T11:54:18.285Z</time>
      </trkpt>
      <trkpt lat="51.38155" lon="6.99562">
        <ele>89.26443</ele>
        <time>2023-04-26T11:54:21.281Z</time>
      </trkpt>
      <trkpt lat="51.38162" lon="6.99576">
        <ele>89.206233</ele>
        <time>2023-04-26T11:54:24.290Z</time>
      </trkpt>
      <trkpt lat="51.38168" lon="6.9959">
        <ele>89.126128</ele>
        <time>2023-04-26T11:54:27.296Z</time>
      </trkpt>
      <trkpt lat="51.38173" lon="6.99604">
        <ele>89.049716</ele>
        <time>2023-04-26T11:54:30.285Z</time>
      </trkpt>
      <trkpt lat="51.38179" lon="6.99617">
        <ele>88.968632</ele>
        <time>2023-04-26T11:54:33.286Z</time>
      </trkpt>
      <trkpt lat="51.38186" lon="6.99628">
        <ele>88.8947</ele>
        <time>2023-04-26T11:54:35.273Z</time>
      </trkpt>
      <trkpt lat="51.38192" lon="6.99643">
        <ele>88.810906</ele>
        <time>2023-04-26T11:54:37.288Z</time>
      </trkpt>
      <trkpt lat="51.38198" lon="6.99657">
        <ele>88.722243</ele>
        <time>2023-04-26T11:54:39.301Z</time>
      </trkpt>
      <trkpt lat="51.38205" lon="6.99671">
        <ele>88.636355</ele>
        <time>2023-04-26T11:54:41.283Z</time>
      </trkpt>
      <trkpt lat="51.38212" lon="6.99687">
        <ele>88.541249</ele>
        <time>2023-04-26T11:54:43.293Z</time>
      </trkpt>
      <trkpt lat="51.38219" lon="6.99702">
        <ele>88.453356</ele>
        <time>2023-04-26T11:54:45.301Z</time>
      </trkpt>
      <trkpt lat="51.38227" lon="6.99714">
        <ele>88.370644</ele>
        <time>2023-04-26T11:54:47.345Z</time>
      </trkpt>
      <trkpt lat="51.38234" lon="6.99726">
        <ele>88.290941</ele>
        <time>2023-04-26T11:54:49.299Z</time>
      </trkpt>
      <trkpt lat="51.38241" lon="6.99738">
        <ele>88.211935</ele>
        <time>2023-04-26T11:54:51.304Z</time>
      </trkpt>
      <trkpt lat="51.38248" lon="6.99749">
        <ele>88.133072</ele>
        <time>2023-04-26T11:54:53.295Z</time>
      </trkpt>
      <trkpt lat="51.38255" lon="6.99761">
        <ele>88.051782</ele>
        <time>2023-04-26T11:54:55.298Z</time>
      </trkpt>
      <trkpt lat="51.38263" lon="6.99773">
        <ele>87.969765</ele>
        <time>2023-04-26T11:54:57.291Z</time>
      </trkpt>
      <trkpt lat="51.3827" lon="6.99785">
        <ele>87.887334</ele>
        <time>2023-04-26T11:54:59.308Z</time>
      </trkpt>
      <trkpt lat="51.38278" lon="6.99797">
        <ele>87.854991</ele>
        <time>2023-04-26T11:55:01.276Z</time>
      </trkpt>
      <trkpt lat="51.38285" lon="6.99808">
        <ele>87.978844</ele>
        <time>2023-04-26T11:55:03.297Z</time>
      </trkpt>
      <trkpt lat="51.38292" lon="6.99818">
        <ele>88.109299</ele>
        <time>2023-04-26T11:55:05.308Z</time>
      </trkpt>
      <trkpt lat="51.383" lon="6.99828">
        <ele>88.242014</ele>
        <time>2023-04-26T11:55:07.295Z</time>
      </trkpt>
      <trkpt lat="51.38307" lon="6.99838">
        <ele>88.369502</ele>
        <time>2023-04-26T11:55:09.285Z</time>
      </trkpt>
      <trkpt lat="51.38315" lon="6.99849">
        <ele>88.505057</ele>
        <time>2023-04-26T11:55:11.298Z</time>
      </trkpt>
      <trkpt lat="51.38322" lon="6.99858">
        <ele>88.629405</ele>
        <time>2023-04-26T11:55:13.285Z</time>
      </trkpt>
      <trkpt lat="51.3833" lon="6.99867">
        <ele>88.75686</ele>
        <time>2023-04-26T11:55:15.281Z</time>
      </trkpt>
      <trkpt lat="51.38338" lon="6.99875">
        <ele>88.892694</ele>
        <time>2023-04-26T11:55:17.296Z</time>
      </trkpt>
      <trkpt lat="51.38346" lon="6.99884">
        <ele>89.021907</ele>
        <time>2023-04-26T11:55:19.298Z</time>
      </trkpt>
      <trkpt lat="51.38357" lon="6.99895">
        <ele>89.200086</ele>
        <time>2023-04-26T11:55:22.298Z</time>
      </trkpt>
      <trkpt lat="51.38365" lon="6.99901">
        <ele>89.320759</ele>
        <time>2023-04-26T11:55:24.283Z</time>
      </trkpt>
      <trkpt lat="51.38373" lon="6.99908">
        <ele>89.442498</ele>
        <time>2023-04-26T11:55:26.289Z</time>
      </trkpt>
      <trkpt lat="51.38381" lon="6.99915">
        <ele>89.563904</ele>
        <time>2023-04-26T11:55:28.273Z</time>
      </trkpt>
      <trkpt lat="51.38394" lon="6.99909">
        <ele>89.732531</ele>
        <time>2023-04-26T11:55:31.283Z</time>
      </trkpt>
      <trkpt lat="51.384" lon="6.99895">
        <ele>89.883361</ele>
        <time>2023-04-26T11:55:34.284Z</time>
      </trkpt>
      <trkpt lat="51.38406" lon="6.99878">
        <ele>90.041902</ele>
        <time>2023-04-26T11:55:38.267Z</time>
      </trkpt>
      <trkpt lat="51.3841" lon="6.99866">
        <ele>90.162901</ele>
        <time>2023-04-26T11:55:41.292Z</time>
      </trkpt>
      <trkpt lat="51.38417" lon="6.99853">
        <ele>90.324257</ele>
        <time>2023-04-26T11:55:44.278Z</time>
      </trkpt>
      <trkpt lat="51.38424" lon="6.99838">
        <ele>90.545256</ele>
        <time>2023-04-26T11:55:47.304Z</time>
      </trkpt>
      <trkpt lat="51.3843" lon="6.99823">
        <ele>90.760068</ele>
        <time>2023-04-26T11:55:50.290Z</time>
      </trkpt>
      <trkpt lat="51.38436" lon="6.9981">
        <ele>90.954877</ele>
        <time>2023-04-26T11:55:53.297Z</time>
      </trkpt>
      <trkpt lat="51.38442" lon="6.99796">
        <ele>91.149126</ele>
        <time>2023-04-26T11:55:56.280Z</time>
      </trkpt>
      <trkpt lat="51.38448" lon="6.99785">
        <ele>91.329749</ele>
        <time>2023-04-26T11:55:59.286Z</time>
      </trkpt>
      <trkpt lat="51.38456" lon="6.99771">
        <ele>91.545169</ele>
        <time>2023-04-26T11:56:03.287Z</time>
      </trkpt>
      <trkpt lat="51.38465" lon="6.99761">
        <ele>91.759641</ele>
        <time>2023-04-26T11:56:07.282Z</time>
      </trkpt>
      <trkpt lat="51.38476" lon="6.99753">
        <ele>91.979192</ele>
        <time>2023-04-26T11:56:11.309Z</time>
      </trkpt>
      <trkpt lat="51.3848" lon="6.99736">
        <ele>92.192914</ele>
        <time>2023-04-26T11:56:15.281Z</time>
      </trkpt>
      <trkpt lat="51.3849" lon="6.99732">
        <ele>92.375699</ele>
        <time>2023-04-26T11:56:19.277Z</time>
      </trkpt>
      <trkpt lat="51.38501" lon="6.99738">
        <ele>92.600248</ele>
        <time>2023-04-26T11:56:23.296Z</time>
      </trkpt>
      <trkpt lat="51.38511" lon="6.99743">
        <ele>92.807163</ele>
        <time>2023-04-26T11:56:26.277Z</time>
      </trkpt>
      <trkpt lat="51.38522" lon="6.99748">
        <ele>93.025345</ele>
        <time>2023-04-26T11:56:29.291Z</time>
      </trkpt>
      <trkpt lat="51.38534" lon="6.99756">
        <ele>93.262386</ele>
        <time>2023-04-26T11:56:32.278Z</time>
      </trkpt>
      <trkpt lat="51.38547" lon="6.99761">
        <ele>93.516282</ele>
        <time>2023-04-26T11:56:35.304Z</time>
      </trkpt>
      <trkpt lat="51.38559" lon="6.99762">
        <ele>93.702737</ele>
        <time>2023-04-26T11:56:38.284Z</time>
      </trkpt>
      <trkpt lat="51.38569" lon="6.99769">
        <ele>93.829655</ele>
        <time>2023-04-26T11:56:41.289Z</time>
      </trkpt>
      <trkpt lat="51.38579" lon="6.99778">
        <ele>93.971763</ele>
        <time>2023-04-26T11:56:44.278Z</time>
      </trkpt>
      <trkpt lat="51.3859" lon="6.99784">
        <ele>94.097362</ele>
        <time>2023-04-26T11:56:47.290Z</time>
      </trkpt>
      <trkpt lat="51.38599" lon="6.99791">
        <ele>94.214593</ele>
        <time>2023-04-26T11:56:50.297Z</time>
      </trkpt>
      <trkpt lat="51.38608" lon="6.99796">
        <ele>94.330872</ele>
        <time>2023-04-26T11:56:53.302Z</time>
      </trkpt>
      <trkpt lat="51.38617" lon="6.99801">
        <ele>94.436044</ele>
        <time>2023-04-26T11:56:56.270Z</time>
      </trkpt>
      <trkpt lat="51.38626" lon="6.99807">
        <ele>94.544154</ele>
        <time>2023-04-26T11:57:00.290Z</time>
      </trkpt>
      <trkpt lat="51.38629" lon="6.9982">
        <ele>94.649172</ele>
        <time>2023-04-26T11:57:07.284Z</time>
      </trkpt>
      <trkpt lat="51.38638" lon="6.99829">
        <ele>94.768698</ele>
        <time>2023-04-26T11:57:13.282Z</time>
      </trkpt>
      <trkpt lat="51.38647" lon="6.99828">
        <ele>94.874135</ele>
        <time>2023-04-26T11:57:18.269Z</time>
      </trkpt>
      <trkpt lat="51.38653" lon="6.99846">
        <ele>95.021677</ele>
        <time>2023-04-26T11:57:46.289Z</time>
      </trkpt>
      <trkpt lat="51.38652" lon="6.99863">
        <ele>95.141264</ele>
        <time>2023-04-26T11:57:51.284Z</time>
      </trkpt>
      <trkpt lat="51.3866" lon="6.99872">
        <ele>95.257924</ele>
        <time>2023-04-26T11:57:55.305Z</time>
      </trkpt>
      <trkpt lat="51.38669" lon="6.99877">
        <ele>95.374686</ele>
        <time>2023-04-26T11:57:58.286Z</time>
      </trkpt>
      <trkpt lat="51.38679" lon="6.99887">
        <ele>95.501424</ele>
        <time>2023-04-26T11:58:01.286Z</time>
      </trkpt>
      <trkpt lat="51.38685" lon="6.999">
        <ele>95.623855</ele>
        <time>2023-04-26T11:58:04.274Z</time>
      </trkpt>
      <trkpt lat="51.38688" lon="6.99918">
        <ele>95.728082</ele>
        <time>2023-04-26T11:58:07.285Z</time>
      </trkpt>
      <trkpt lat="51.38693" lon="6.99934">
        <ele>95.733989</ele>
        <time>2023-04-26T11:58:10.289Z</time>
      </trkpt>
      <trkpt lat="51.38697" lon="6.99951">
        <ele>95.739813</ele>
        <time>2023-04-26T11:58:13.306Z</time>
      </trkpt>
      <trkpt lat="51.38699" lon="6.99969">
        <ele>95.746158</ele>
        <time>2023-04-26T11:58:16.291Z</time>
      </trkpt>
      <trkpt lat="51.387" lon="6.99988">
        <ele>95.752448</ele>
        <time>2023-04-26T11:58:19.285Z</time>
      </trkpt>
      <trkpt lat="51.38703" lon="7.00002">
        <ele>95.757454</ele>
        <time>2023-04-26T11:58:26.280Z</time>
      </trkpt>
      <trkpt lat="51.38709" lon="7.00013">
        <ele>95.762517</ele>
        <time>2023-04-26T11:58:30.309Z</time>
      </trkpt>
      <trkpt lat="51.38713" lon="7.00027">
        <ele>95.76777</ele>
        <time>2023-04-26T11:58:35.344Z</time>
      </trkpt>
      <trkpt lat="51.38718" lon="7.00043">
        <ele>95.773753</ele>
        <time>2023-04-26T11:59:13.292Z</time>
      </trkpt>
      <trkpt lat="51.3872" lon="7.00059">
        <ele>95.779236</ele>
        <time>2023-04-26T11:59:16.268Z</time>
      </trkpt>
      <trkpt lat="51.38724" lon="7.00078">
        <ele>95.785775</ele>
        <time>2023-04-26T11:59:19.294Z</time>
      </trkpt>
      <trkpt lat="51.38732" lon="7.00094">
        <ele>95.792771</ele>
        <time>2023-04-26T11:59:22.281Z</time>
      </trkpt>
      <trkpt lat="51.38736" lon="7.00107">
        <ele>95.797587</ele>
        <time>2023-04-26T11:59:26.266Z</time>
      </trkpt>
      <trkpt lat="51.38741" lon="7.00122">
        <ele>95.803293</ele>
        <time>2023-04-26T11:59:31.284Z</time>
      </trkpt>
      <trkpt lat="51.38744" lon="7.00136">
        <ele>95.808388</ele>
        <time>2023-04-26T11:59:34.273Z</time>
      </trkpt>
      <trkpt lat="51.38748" lon="7.00151">
        <ele>95.813847</ele>
        <time>2023-04-26T11:59:37.301Z</time>
      </trkpt>
      <trkpt lat="51.38753" lon="7.00166">
        <ele>95.819393</ele>
        <time>2023-04-26T11:59:40.284Z</time>
      </trkpt>
      <trkpt lat="51.38757" lon="7.00181">
        <ele>95.954802</ele>
        <time>2023-04-26T11:59:43.295Z</time>
      </trkpt>
      <trkpt lat="51.38762" lon="7.00195">
        <ele>96.427838</ele>
        <time>2023-04-26T11:59:46.267Z</time>
      </trkpt>
      <trkpt lat="51.38767" lon="7.0021">
        <ele>96.915435</ele>
        <time>2023-04-26T11:59:49.279Z</time>
      </trkpt>
      <trkpt lat="51.3877" lon="7.00224">
        <ele>97.335984</ele>
        <time>2023-04-26T11:59:52.284Z</time>
      </trkpt>
      <trkpt lat="51.38774" lon="7.00237">
        <ele>97.762851</ele>
        <time>2023-04-26T11:59:55.289Z</time>
      </trkpt>
      <trkpt lat="51.38777" lon="7.00251">
        <ele>98.190698</ele>
        <time>2023-04-26T11:59:58.280Z</time>
      </trkpt>
      <trkpt lat="51.38781" lon="7.00264">
        <ele>98.620735</ele>
        <time>2023-04-26T12:00:01.281Z</time>
      </trkpt>
      <trkpt lat="51.38784" lon="7.00279">
        <ele>99.075357</ele>
        <time>2023-04-26T12:00:05.289Z</time>
      </trkpt>
      <trkpt lat="51.38794" lon="7.00278">
        <ele>99.537918</ele>
        <time>2023-04-26T12:00:12.281Z</time>
      </trkpt>
      <trkpt lat="51.38803" lon="7.00284">
        <ele>100.011731</ele>
        <time>2023-04-26T12:00:17.286Z</time>
      </trkpt>
      <trkpt lat="51.38814" lon="7.00278">
        <ele>100.553365</ele>
        <time>2023-04-26T12:00:21.300Z</time>
      </trkpt>
      <trkpt lat="51.38824" lon="7.00273">
        <ele>101.038487</ele>
        <time>2023-04-26T12:00:24.293Z</time>
      </trkpt>
      <trkpt lat="51.38833" lon="7.00267">
        <ele>101.499522</ele>
        <time>2023-04-26T12:00:28.290Z</time>
      </trkpt>
      <trkpt lat="51.38843" lon="7.0027">
        <ele>101.957827</ele>
        <time>2023-04-26T12:00:45.280Z</time>
      </trkpt>
      <trkpt lat="51.38854" lon="7.00271">
        <ele>102.446625</ele>
        <time>2023-04-26T12:00:49.286Z</time>
      </trkpt>
      <trkpt lat="51.38862" lon="7.0028">
        <ele>102.896785</ele>
        <time>2023-04-26T12:00:53.286Z</time>
      </trkpt>
      <trkpt lat="51.38871" lon="7.00283">
        <ele>103.317554</ele>
        <time>2023-04-26T12:00:59.314Z</time>
      </trkpt>
      <trkpt lat="51.38882" lon="7.00283">
        <ele>103.837151</ele>
        <time>2023-04-26T12:01:04.279Z</time>
      </trkpt>
      <trkpt lat="51.38892" lon="7.0028">
        <ele>104.189325</ele>
        <time>2023-04-26T12:01:08.284Z</time>
      </trkpt>
      <trkpt lat="51.38901" lon="7.00277">
        <ele>104.260488</ele>
        <time>2023-04-26T12:01:17.289Z</time>
      </trkpt>
      <trkpt lat="51.38911" lon="7.00276">
        <ele>104.332778</ele>
        <time>2023-04-26T12:01:20.268Z</time>
      </trkpt>
      <trkpt lat="51.38921" lon="7.00278">
        <ele>104.403821</ele>
        <time>2023-04-26T12:01:22.273Z</time>
      </trkpt>
      <trkpt lat="51.38933" lon="7.00277">
        <ele>104.491835</ele>
        <time>2023-04-26T12:01:25.310Z</time>
      </trkpt>
      <trkpt lat="51.38945" lon="7.00274">
        <ele>104.577361</ele>
        <time>2023-04-26T12:01:28.280Z</time>
      </trkpt>
      <trkpt lat="51.38957" lon="7.0027">
        <ele>104.661824</ele>
        <time>2023-04-26T12:01:31.287Z</time>
      </trkpt>
      <trkpt lat="51.38968" lon="7.00263">
        <ele>104.74758</ele>
        <time>2023-04-26T12:01:34.270Z</time>
      </trkpt>
      <trkpt lat="51.38978" lon="7.00255">
        <ele>104.830706</ele>
        <time>2023-04-26T12:01:37.267Z</time>
      </trkpt>
      <trkpt lat="51.3899" lon="7.00248">
        <ele>104.924162</ele>
        <time>2023-04-26T12:01:40.280Z</time>
      </trkpt>
      <trkpt lat="51.38999" lon="7.00242">
        <ele>104.990295</ele>
        <time>2023-04-26T12:01:42.293Z</time>
      </trkpt>
      <trkpt lat="51.39008" lon="7.00239">
        <ele>105.062806</ele>
        <time>2023-04-26T12:01:44.279Z</time>
      </trkpt>
      <trkpt lat="51.39017" lon="7.00234">
        <ele>105.130822</ele>
        <time>2023-04-26T12:01:46.300Z</time>
      </trkpt>
      <trkpt lat="51.39029" lon="7.00227">
        <ele>105.219029</ele>
        <time>2023-04-26T12:01:49.303Z</time>
      </trkpt>
      <trkpt lat="51.39041" lon="7.0022">
        <ele>105.312637</ele>
        <time>2023-04-26T12:01:52.282Z</time>
      </trkpt>
      <trkpt lat="51.3905" lon="7.00214">
        <ele>105.38028</ele>
        <time>2023-04-26T12:01:54.275Z</time>
      </trkpt>
      <trkpt lat="51.39061" lon="7.00207">
        <ele>105.451216</ele>
        <time>2023-04-26T12:01:57.285Z</time>
      </trkpt>
      <trkpt lat="51.39072" lon="7.00197">
        <ele>105.08987</ele>
        <time>2023-04-26T12:02:00.292Z</time>
      </trkpt>
      <trkpt lat="51.39083" lon="7.00193">
        <ele>104.752347</ele>
        <time>2023-04-26T12:02:03.287Z</time>
      </trkpt>
      <trkpt lat="51.39093" lon="7.00185">
        <ele>104.424258</ele>
        <time>2023-04-26T12:02:06.305Z</time>
      </trkpt>
      <trkpt lat="51.39104" lon="7.00177">
        <ele>104.075384</ele>
        <time>2023-04-26T12:02:09.297Z</time>
      </trkpt>
      <trkpt lat="51.39114" lon="7.0017">
        <ele>103.75697</ele>
        <time>2023-04-26T12:02:12.283Z</time>
      </trkpt>
      <trkpt lat="51.39126" lon="7.00164">
        <ele>103.393868</ele>
        <time>2023-04-26T12:02:15.281Z</time>
      </trkpt>
      <trkpt lat="51.39137" lon="7.00155">
        <ele>103.040177</ele>
        <time>2023-04-26T12:02:18.292Z</time>
      </trkpt>
      <trkpt lat="51.39148" lon="7.00147">
        <ele>102.682215</ele>
        <time>2023-04-26T12:02:21.284Z</time>
      </trkpt>
      <trkpt lat="51.39159" lon="7.00141">
        <ele>102.331734</ele>
        <time>2023-04-26T12:02:24.284Z</time>
      </trkpt>
      <trkpt lat="51.39172" lon="7.00135">
        <ele>101.953077</ele>
        <time>2023-04-26T12:02:27.267Z</time>
      </trkpt>
      <trkpt lat="51.39184" lon="7.00129">
        <ele>101.578896</ele>
        <time>2023-04-26T12:02:30.300Z</time>
      </trkpt>
      <trkpt lat="51.39193" lon="7.00123">
        <ele>101.303157</ele>
        <time>2023-04-26T12:02:32.284Z</time>
      </trkpt>
      <trkpt lat="51.39205" lon="7.00115">
        <ele>100.910228</ele>
        <time>2023-04-26T12:02:35.278Z</time>
      </trkpt>
      <trkpt lat="51.39213" lon="7.00108">
        <ele>100.632069</ele>
        <time>2023-04-26T12:02:37.272Z</time>
      </trkpt>
      <trkpt lat="51.39221" lon="7.00099">
        <ele>100.358744</ele>
        <time>2023-04-26T12:02:39.295Z</time>
      </trkpt>
      <trkpt lat="51.39229" lon="7.00091">
        <ele>100.096892</ele>
        <time>2023-04-26T12:02:41.296Z</time>
      </trkpt>
      <trkpt lat="51.39237" lon="7.00083">
        <ele>99.851106</ele>
        <time>2023-04-26T12:02:43.298Z</time>
      </trkpt>
      <trkpt lat="51.39249" lon="7.0007">
        <ele>99.501948</ele>
        <time>2023-04-26T12:02:46.295Z</time>
      </trkpt>
      <trkpt lat="51.39258" lon="7.00061">
        <ele>99.233895</ele>
        <time>2023-04-26T12:02:48.278Z</time>
      </trkpt>
      <trkpt lat="51.39266" lon="7.00051">
        <ele>98.971734</ele>
        <time>2023-04-26T12:02:50.291Z</time>
      </trkpt>
      <trkpt lat="51.39275" lon="7.00042">
        <ele>98.698466</ele>
        <time>2023-04-26T12:02:52.304Z</time>
      </trkpt>
      <trkpt lat="51.39284" lon="7.00034">
        <ele>98.4434</ele>
        <time>2023-04-26T12:02:54.300Z</time>
      </trkpt>
      <trkpt lat="51.39292" lon="7.00026">
        <ele>98.195063</ele>
        <time>2023-04-26T12:02:56.278Z</time>
      </trkpt>
      <trkpt lat="51.39301" lon="7.00019">
        <ele>97.947002</ele>
        <time>2023-04-26T12:02:58.283Z</time>
      </trkpt>
      <trkpt lat="51.39309" lon="7.00011">
        <ele>97.695528</ele>
        <time>2023-04-26T12:03:00.299Z</time>
      </trkpt>
      <trkpt lat="51.39317" lon="7.00003">
        <ele>97.457041</ele>
        <time>2023-04-26T12:03:02.284Z</time>
      </trkpt>
      <trkpt lat="51.39325" lon="6.99994">
        <ele>97.207839</ele>
        <time>2023-04-26T12:03:04.276Z</time>
      </trkpt>
      <trkpt lat="51.39335" lon="6.99986">
        <ele>96.931209</ele>
        <time>2023-04-26T12:03:06.288Z</time>
      </trkpt>
      <trkpt lat="51.39348" lon="6.99982">
        <ele>96.600796</ele>
        <time>2023-04-26T12:03:08.272Z</time>
      </trkpt>
      <trkpt lat="51.39361" lon="6.99989">
        <ele>96.235568</ele>
        <time>2023-04-26T12:03:10.274Z</time>
      </trkpt>
      <trkpt lat="51.39372" lon="6.99999">
        <ele>95.921556</ele>
        <time>2023-04-26T12:03:12.286Z</time>
      </trkpt>
      <trkpt lat="51.39383" lon="7.00006">
        <ele>95.631945</ele>
        <time>2023-04-26T12:03:14.319Z</time>
      </trkpt>
      <trkpt lat="51.39393" lon="7.00014">
        <ele>95.525</ele>
        <time>2023-04-26T12:03:16.279Z</time>
      </trkpt>
      <trkpt lat="51.39402" lon="7.00022">
        <ele>95.417145</ele>
        <time>2023-04-26T12:03:18.290Z</time>
      </trkpt>
      <trkpt lat="51.39411" lon="7.00032">
        <ele>95.311138</ele>
        <time>2023-04-26T12:03:20.267Z</time>
      </trkpt>
      <trkpt lat="51.39419" lon="7.00042">
        <ele>95.204304</ele>
        <time>2023-04-26T12:03:22.298Z</time>
      </trkpt>
      <trkpt lat="51.39427" lon="7.00052">
        <ele>95.099702</ele>
        <time>2023-04-26T12:03:24.281Z</time>
      </trkpt>
      <trkpt lat="51.39436" lon="7.00062">
        <ele>94.991075</ele>
        <time>2023-04-26T12:03:26.265Z</time>
      </trkpt>
      <trkpt lat="51.39445" lon="7.00072">
        <ele>94.881419</ele>
        <time>2023-04-26T12:03:28.279Z</time>
      </trkpt>
      <trkpt lat="51.39453" lon="7.00082">
        <ele>94.776547</ele>
        <time>2023-04-26T12:03:30.290Z</time>
      </trkpt>
      <trkpt lat="51.39462" lon="7.00092">
        <ele>94.66613</ele>
        <time>2023-04-26T12:03:32.276Z</time>
      </trkpt>
      <trkpt lat="51.39471" lon="7.00102">
        <ele>94.554189</ele>
        <time>2023-04-26T12:03:34.280Z</time>
      </trkpt>
      <trkpt lat="51.3948" lon="7.00111">
        <ele>94.444258</ele>
        <time>2023-04-26T12:03:36.270Z</time>
      </trkpt>
      <trkpt lat="51.3949" lon="7.00121">
        <ele>94.333173</ele>
        <time>2023-04-26T12:03:38.279Z</time>
      </trkpt>
      <trkpt lat="51.39499" lon="7.00131">
        <ele>94.221698</ele>
        <time>2023-04-26T12:03:40.276Z</time>
      </trkpt>
      <trkpt lat="51.39507" lon="7.00141">
        <ele>94.121568</ele>
        <time>2023-04-26T12:03:42.281Z</time>
      </trkpt>
      <trkpt lat="51.39515" lon="7.0015">
        <ele>94.021156</ele>
        <time>2023-04-26T12:03:44.284Z</time>
      </trkpt>
      <trkpt lat="51.39523" lon="7.00158">
        <ele>93.922642</ele>
        <time>2023-04-26T12:03:46.283Z</time>
      </trkpt>
      <trkpt lat="51.39531" lon="7.00168">
        <ele>93.825984</ele>
        <time>2023-04-26T12:03:48.295Z</time>
      </trkpt>
      <trkpt lat="51.39539" lon="7.00177">
        <ele>93.930934</ele>
        <time>2023-04-26T12:03:50.278Z</time>
      </trkpt>
      <trkpt lat="51.39547" lon="7.00186">
        <ele>94.037914</ele>
        <time>2023-04-26T12:03:52.290Z</time>
      </trkpt>
      <trkpt lat="51.39555" lon="7.00195">
        <ele>94.14515</ele>
        <time>2023-04-26T12:03:54.288Z</time>
      </trkpt>
      <trkpt lat="51.39563" lon="7.00204">
        <ele>94.252386</ele>
        <time>2023-04-26T12:03:56.274Z</time>
      </trkpt>
      <trkpt lat="51.39571" lon="7.00213">
        <ele>94.366594</ele>
        <time>2023-04-26T12:03:58.291Z</time>
      </trkpt>
      <trkpt lat="51.3958" lon="7.00223">
        <ele>94.482367</ele>
        <time>2023-04-26T12:04:00.276Z</time>
      </trkpt>
      <trkpt lat="51.39589" lon="7.00232">
        <ele>94.595282</ele>
        <time>2023-04-26T12:04:02.280Z</time>
      </trkpt>
      <trkpt lat="51.39597" lon="7.00242">
        <ele>94.704601</ele>
        <time>2023-04-26T12:04:04.275Z</time>
      </trkpt>
      <trkpt lat="51.39605" lon="7.00251">
        <ele>94.812551</ele>
        <time>2023-04-26T12:04:06.270Z</time>
      </trkpt>
      <trkpt lat="51.39612" lon="7.0026">
        <ele>94.917328</ele>
        <time>2023-04-26T12:04:08.270Z</time>
      </trkpt>
      <trkpt lat="51.39621" lon="7.0027">
        <ele>95.033366</ele>
        <time>2023-04-26T12:04:11.280Z</time>
      </trkpt>
      <trkpt lat="51.39629" lon="7.00278">
        <ele>95.136467</ele>
        <time>2023-04-26T12:04:14.280Z</time>
      </trkpt>
      <trkpt lat="51.39636" lon="7.00286">
        <ele>95.238812</ele>
        <time>2023-04-26T12:04:17.275Z</time>
      </trkpt>
      <trkpt lat="51.39645" lon="7.00297">
        <ele>95.36299</ele>
        <time>2023-04-26T12:04:21.296Z</time>
      </trkpt>
      <trkpt lat="51.39653" lon="7.00307">
        <ele>95.469186</ele>
        <time>2023-04-26T12:04:24.277Z</time>
      </trkpt>
      <trkpt lat="51.39663" lon="7.00315">
        <ele>95.588872</ele>
        <time>2023-04-26T12:04:27.270Z</time>
      </trkpt>
      <trkpt lat="51.39672" lon="7.00323">
        <ele>95.704167</ele>
        <time>2023-04-26T12:04:30.268Z</time>
      </trkpt>
      <trkpt lat="51.39681" lon="7.00332">
        <ele>95.793719</ele>
        <time>2023-04-26T12:04:33.285Z</time>
      </trkpt>
      <trkpt lat="51.3969" lon="7.00339">
        <ele>95.781421</ele>
        <time>2023-04-26T12:04:36.280Z</time>
      </trkpt>
      <trkpt lat="51.39699" lon="7.00346">
        <ele>95.769189</ele>
        <time>2023-04-26T12:04:39.279Z</time>
      </trkpt>
      <trkpt lat="51.39709" lon="7.00353">
        <ele>95.755842</ele>
        <time>2023-04-26T12:04:42.263Z</time>
      </trkpt>
      <trkpt lat="51.39719" lon="7.00362">
        <ele>95.741204</ele>
        <time>2023-04-26T12:04:45.279Z</time>
      </trkpt>
      <trkpt lat="51.3973" lon="7.00371">
        <ele>95.726101</ele>
        <time>2023-04-26T12:04:48.292Z</time>
      </trkpt>
      <trkpt lat="51.39742" lon="7.0038">
        <ele>95.710764</ele>
        <time>2023-04-26T12:04:51.282Z</time>
      </trkpt>
      <trkpt lat="51.39753" lon="7.00389">
        <ele>95.695482</ele>
        <time>2023-04-26T12:04:54.269Z</time>
      </trkpt>
      <trkpt lat="51.39764" lon="7.004">
        <ele>95.679608</ele>
        <time>2023-04-26T12:04:57.272Z</time>
      </trkpt>
      <trkpt lat="51.39775" lon="7.00412">
        <ele>95.663423</ele>
        <time>2023-04-26T12:05:00.277Z</time>
      </trkpt>
      <trkpt lat="51.39781" lon="7.00422">
        <ele>95.652313</ele>
        <time>2023-04-26T12:05:02.274Z</time>
      </trkpt>
      <trkpt lat="51.39789" lon="7.00431">
        <ele>95.640924</ele>
        <time>2023-04-26T12:05:04.282Z</time>
      </trkpt>
      <trkpt lat="51.39796" lon="7.00441">
        <ele>95.628915</ele>
        <time>2023-04-26T12:05:06.295Z</time>
      </trkpt>
      <trkpt lat="51.39803" lon="7.00451">
        <ele>95.617235</ele>
        <time>2023-04-26T12:05:08.281Z</time>
      </trkpt>
      <trkpt lat="51.39811" lon="7.00461">
        <ele>95.605311</ele>
        <time>2023-04-26T12:05:10.278Z</time>
      </trkpt>
      <trkpt lat="51.39818" lon="7.00471">
        <ele>95.593731</ele>
        <time>2023-04-26T12:05:12.298Z</time>
      </trkpt>
      <trkpt lat="51.39824" lon="7.00482">
        <ele>95.582617</ele>
        <time>2023-04-26T12:05:14.278Z</time>
      </trkpt>
      <trkpt lat="51.39831" lon="7.00492">
        <ele>95.560756</ele>
        <time>2023-04-26T12:05:16.288Z</time>
      </trkpt>
      <trkpt lat="51.3984" lon="7.00507">
        <ele>95.509387</ele>
        <time>2023-04-26T12:05:19.281Z</time>
      </trkpt>
      <trkpt lat="51.39846" lon="7.00518">
        <ele>95.474173</ele>
        <time>2023-04-26T12:05:21.290Z</time>
      </trkpt>
      <trkpt lat="51.39852" lon="7.00537">
        <ele>95.422476</ele>
        <time>2023-04-26T12:05:24.272Z</time>
      </trkpt>
      <trkpt lat="51.39857" lon="7.00551">
        <ele>95.38558</ele>
        <time>2023-04-26T12:05:26.264Z</time>
      </trkpt>
      <trkpt lat="51.39859" lon="7.00564">
        <ele>95.350886</ele>
        <time>2023-04-26T12:05:28.280Z</time>
      </trkpt>
      <trkpt lat="51.39863" lon="7.00579">
        <ele>95.312906</ele>
        <time>2023-04-26T12:05:30.289Z</time>
      </trkpt>
      <trkpt lat="51.39865" lon="7.00594">
        <ele>95.276105</ele>
        <time>2023-04-26T12:05:32.298Z</time>
      </trkpt>
      <trkpt lat="51.39867" lon="7.00609">
        <ele>95.239054</ele>
        <time>2023-04-26T12:05:34.268Z</time>
      </trkpt>
      <trkpt lat="51.3987" lon="7.00623">
        <ele>95.202987</ele>
        <time>2023-04-26T12:05:36.270Z</time>
      </trkpt>
      <trkpt lat="51.39872" lon="7.00638">
        <ele>95.167772</ele>
        <time>2023-04-26T12:05:38.312Z</time>
      </trkpt>
      <trkpt lat="51.39873" lon="7.00653">
        <ele>95.130021</ele>
        <time>2023-04-26T12:05:40.279Z</time>
      </trkpt>
      <trkpt lat="51.39875" lon="7.00668">
        <ele>95.093887</ele>
        <time>2023-04-26T12:05:42.277Z</time>
      </trkpt>
      <trkpt lat="51.39877" lon="7.00683">
        <ele>95.05568</ele>
        <time>2023-04-26T12:05:44.286Z</time>
      </trkpt>
      <trkpt lat="51.39879" lon="7.00699">
        <ele>95.015723</ele>
        <time>2023-04-26T12:05:46.269Z</time>
      </trkpt>
      <trkpt lat="51.39881" lon="7.00715">
        <ele>94.977021</ele>
        <time>2023-04-26T12:05:48.282Z</time>
      </trkpt>
      <trkpt lat="51.39883" lon="7.00732">
        <ele>94.936034</ele>
        <time>2023-04-26T12:05:50.282Z</time>
      </trkpt>
      <trkpt lat="51.39885" lon="7.00748">
        <ele>94.895665</ele>
        <time>2023-04-26T12:05:52.295Z</time>
      </trkpt>
      <trkpt lat="51.39887" lon="7.00764">
        <ele>94.869761</ele>
        <time>2023-04-26T12:05:54.276Z</time>
      </trkpt>
      <trkpt lat="51.39889" lon="7.00781">
        <ele>94.851248</ele>
        <time>2023-04-26T12:05:56.289Z</time>
      </trkpt>
      <trkpt lat="51.39891" lon="7.00797">
        <ele>94.833893</ele>
        <time>2023-04-26T12:05:58.281Z</time>
      </trkpt>
      <trkpt lat="51.39894" lon="7.00813">
        <ele>94.816206</ele>
        <time>2023-04-26T12:06:00.280Z</time>
      </trkpt>
      <trkpt lat="51.39897" lon="7.0083">
        <ele>94.797873</ele>
        <time>2023-04-26T12:06:02.300Z</time>
      </trkpt>
      <trkpt lat="51.39899" lon="7.00845">
        <ele>94.78114</ele>
        <time>2023-04-26T12:06:04.278Z</time>
      </trkpt>
      <trkpt lat="51.39901" lon="7.0086">
        <ele>94.76499</ele>
        <time>2023-04-26T12:06:06.282Z</time>
      </trkpt>
      <trkpt lat="51.39903" lon="7.00875">
        <ele>94.748522</ele>
        <time>2023-04-26T12:06:08.284Z</time>
      </trkpt>
      <trkpt lat="51.39904" lon="7.00891">
        <ele>94.731921</ele>
        <time>2023-04-26T12:06:10.277Z</time>
      </trkpt>
      <trkpt lat="51.39906" lon="7.00907">
        <ele>94.714301</ele>
        <time>2023-04-26T12:06:12.281Z</time>
      </trkpt>
      <trkpt lat="51.39907" lon="7.00923">
        <ele>94.696858</ele>
        <time>2023-04-26T12:06:14.269Z</time>
      </trkpt>
      <trkpt lat="51.39908" lon="7.00939">
        <ele>94.680233</ele>
        <time>2023-04-26T12:06:16.263Z</time>
      </trkpt>
      <trkpt lat="51.39911" lon="7.00954">
        <ele>94.66363</ele>
        <time>2023-04-26T12:06:18.284Z</time>
      </trkpt>
      <trkpt lat="51.39911" lon="7.00969">
        <ele>94.648073</ele>
        <time>2023-04-26T12:06:20.268Z</time>
      </trkpt>
      <trkpt lat="51.39913" lon="7.00984">
        <ele>94.631283</ele>
        <time>2023-04-26T12:06:22.274Z</time>
      </trkpt>
      <trkpt lat="51.39914" lon="7.01">
        <ele>94.614815</ele>
        <time>2023-04-26T12:06:24.282Z</time>
      </trkpt>
      <trkpt lat="51.39917" lon="7.01015">
        <ele>94.598213</ele>
        <time>2023-04-26T12:06:26.280Z</time>
      </trkpt>
      <trkpt lat="51.39919" lon="7.0103">
        <ele>94.581569</ele>
        <time>2023-04-26T12:06:28.289Z</time>
      </trkpt>
      <trkpt lat="51.39921" lon="7.01045">
        <ele>94.631059</ele>
        <time>2023-04-26T12:06:30.279Z</time>
      </trkpt>
      <trkpt lat="51.39923" lon="7.01059">
        <ele>94.73662</ele>
        <time>2023-04-26T12:06:32.276Z</time>
      </trkpt>
      <trkpt lat="51.39928" lon="7.01073">
        <ele>94.849016</ele>
        <time>2023-04-26T12:06:34.273Z</time>
      </trkpt>
      <trkpt lat="51.39934" lon="7.01087">
        <ele>94.963304</ele>
        <time>2023-04-26T12:06:36.269Z</time>
      </trkpt>
      <trkpt lat="51.39941" lon="7.01098">
        <ele>95.074961</ele>
        <time>2023-04-26T12:06:38.281Z</time>
      </trkpt>
      <trkpt lat="51.39948" lon="7.01109">
        <ele>95.185321</ele>
        <time>2023-04-26T12:06:40.280Z</time>
      </trkpt>
      <trkpt lat="51.39955" lon="7.01119">
        <ele>95.296424</ele>
        <time>2023-04-26T12:06:42.293Z</time>
      </trkpt>
      <trkpt lat="51.39963" lon="7.0113">
        <ele>95.411386</ele>
        <time>2023-04-26T12:06:44.293Z</time>
      </trkpt>
      <trkpt lat="51.39971" lon="7.01139">
        <ele>95.521081</ele>
        <time>2023-04-26T12:06:46.280Z</time>
      </trkpt>
      <trkpt lat="51.39979" lon="7.01149">
        <ele>95.636043</ele>
        <time>2023-04-26T12:06:48.295Z</time>
      </trkpt>
      <trkpt lat="51.39987" lon="7.01161">
        <ele>95.760297</ele>
        <time>2023-04-26T12:06:50.285Z</time>
      </trkpt>
      <trkpt lat="51.39995" lon="7.01172">
        <ele>95.875537</ele>
        <time>2023-04-26T12:06:52.277Z</time>
      </trkpt>
      <trkpt lat="51.40002" lon="7.01183">
        <ele>95.989988</ele>
        <time>2023-04-26T12:06:54.274Z</time>
      </trkpt>
      <trkpt lat="51.40009" lon="7.01194">
        <ele>96.101462</ele>
        <time>2023-04-26T12:06:56.274Z</time>
      </trkpt>
      <trkpt lat="51.40015" lon="7.01207">
        <ele>96.21366</ele>
        <time>2023-04-26T12:06:58.284Z</time>
      </trkpt>
      <trkpt lat="51.40021" lon="7.0122">
        <ele>96.326605</ele>
        <time>2023-04-26T12:07:00.268Z</time>
      </trkpt>
      <trkpt lat="51.40025" lon="7.01236">
        <ele>96.443508</ele>
        <time>2023-04-26T12:07:02.274Z</time>
      </trkpt>
      <trkpt lat="51.40028" lon="7.0125">
        <ele>96.551757</ele>
        <time>2023-04-26T12:07:04.269Z</time>
      </trkpt>
      <trkpt lat="51.40028" lon="7.01265">
        <ele>96.585104</ele>
        <time>2023-04-26T12:07:06.282Z</time>
      </trkpt>
      <trkpt lat="51.40028" lon="7.01285">
        <ele>96.536473</ele>
        <time>2023-04-26T12:07:09.283Z</time>
      </trkpt>
      <trkpt lat="51.40029" lon="7.01303">
        <ele>96.48996</ele>
        <time>2023-04-26T12:07:12.271Z</time>
      </trkpt>
      <trkpt lat="51.4003" lon="7.0132">
        <ele>96.447726</ele>
        <time>2023-04-26T12:07:15.295Z</time>
      </trkpt>
      <trkpt lat="51.40032" lon="7.01338">
        <ele>96.403223</ele>
        <time>2023-04-26T12:07:18.281Z</time>
      </trkpt>
      <trkpt lat="51.40033" lon="7.01357">
        <ele>96.355104</ele>
        <time>2023-04-26T12:07:21.284Z</time>
      </trkpt>
      <trkpt lat="51.40036" lon="7.01376">
        <ele>96.305679</ele>
        <time>2023-04-26T12:07:24.284Z</time>
      </trkpt>
      <trkpt lat="51.40039" lon="7.01393">
        <ele>96.260433</ele>
        <time>2023-04-26T12:07:27.300Z</time>
      </trkpt>
      <trkpt lat="51.40042" lon="7.01411">
        <ele>96.215148</ele>
        <time>2023-04-26T12:07:30.296Z</time>
      </trkpt>
      <trkpt lat="51.40045" lon="7.01428">
        <ele>96.170041</ele>
        <time>2023-04-26T12:07:33.286Z</time>
      </trkpt>
      <trkpt lat="51.40048" lon="7.01445">
        <ele>96.12621</ele>
        <time>2023-04-26T12:07:36.301Z</time>
      </trkpt>
      <trkpt lat="51.40052" lon="7.01462">
        <ele>96.081541</ele>
        <time>2023-04-26T12:07:39.274Z</time>
      </trkpt>
      <trkpt lat="51.40055" lon="7.01478">
        <ele>96.039751</ele>
        <time>2023-04-26T12:07:42.296Z</time>
      </trkpt>
      <trkpt lat="51.40059" lon="7.01494">
        <ele>95.994233</ele>
        <time>2023-04-26T12:07:45.279Z</time>
      </trkpt>
      <trkpt lat="51.40064" lon="7.0151">
        <ele>95.950857</ele>
        <time>2023-04-26T12:07:48.272Z</time>
      </trkpt>
      <trkpt lat="51.4007" lon="7.01526">
        <ele>95.902985</ele>
        <time>2023-04-26T12:07:51.296Z</time>
      </trkpt>
      <trkpt lat="51.40078" lon="7.01545">
        <ele>95.874124</ele>
        <time>2023-04-26T12:07:54.293Z</time>
      </trkpt>
      <trkpt lat="51.40085" lon="7.01558">
        <ele>95.86457</ele>
        <time>2023-04-26T12:07:56.278Z</time>
      </trkpt>
      <trkpt lat="51.40094" lon="7.01571">
        <ele>95.854219</ele>
        <time>2023-04-26T12:07:58.280Z</time>
      </trkpt>
      <trkpt lat="51.40103" lon="7.01583">
        <ele>95.843828</ele>
        <time>2023-04-26T12:08:00.270Z</time>
      </trkpt>
      <trkpt lat="51.40111" lon="7.01595">
        <ele>95.834727</ele>
        <time>2023-04-26T12:08:02.285Z</time>
      </trkpt>
      <trkpt lat="51.40118" lon="7.01606">
        <ele>95.826185</ele>
        <time>2023-04-26T12:08:04.302Z</time>
      </trkpt>
      <trkpt lat="51.40124" lon="7.01618">
        <ele>95.81808</ele>
        <time>2023-04-26T12:08:06.282Z</time>
      </trkpt>
      <trkpt lat="51.40132" lon="7.01634">
        <ele>95.807043</ele>
        <time>2023-04-26T12:08:09.278Z</time>
      </trkpt>
      <trkpt lat="51.40139" lon="7.01651">
        <ele>95.79579</ele>
        <time>2023-04-26T12:08:12.284Z</time>
      </trkpt>
      <trkpt lat="51.40146" lon="7.01668">
        <ele>95.784905</ele>
        <time>2023-04-26T12:08:15.274Z</time>
      </trkpt>
      <trkpt lat="51.40152" lon="7.01687">
        <ele>95.773534</ele>
        <time>2023-04-26T12:08:18.276Z</time>
      </trkpt>
      <trkpt lat="51.40156" lon="7.017">
        <ele>95.765565</ele>
        <time>2023-04-26T12:08:20.297Z</time>
      </trkpt>
      <trkpt lat="51.40159" lon="7.01714">
        <ele>95.757798</ele>
        <time>2023-04-26T12:08:22.265Z</time>
      </trkpt>
      <trkpt lat="51.40163" lon="7.01735">
        <ele>95.745865</ele>
        <time>2023-04-26T12:08:25.275Z</time>
      </trkpt>
      <trkpt lat="51.40166" lon="7.01749">
        <ele>95.73807</ele>
        <time>2023-04-26T12:08:27.297Z</time>
      </trkpt>
      <trkpt lat="51.40168" lon="7.01763">
        <ele>95.730187</ele>
        <time>2023-04-26T12:08:29.286Z</time>
      </trkpt>
      <trkpt lat="51.40171" lon="7.01777">
        <ele>95.75683</ele>
        <time>2023-04-26T12:08:31.300Z</time>
      </trkpt>
      <trkpt lat="51.40173" lon="7.01792">
        <ele>95.819004</ele>
        <time>2023-04-26T12:08:33.289Z</time>
      </trkpt>
      <trkpt lat="51.40176" lon="7.01806">
        <ele>95.877847</ele>
        <time>2023-04-26T12:08:35.282Z</time>
      </trkpt>
      <trkpt lat="51.40178" lon="7.01821">
        <ele>95.93748</ele>
        <time>2023-04-26T12:08:37.292Z</time>
      </trkpt>
      <trkpt lat="51.4018" lon="7.01835">
        <ele>95.996377</ele>
        <time>2023-04-26T12:08:39.292Z</time>
      </trkpt>
      <trkpt lat="51.40183" lon="7.0185">
        <ele>96.057328</ele>
        <time>2023-04-26T12:08:41.285Z</time>
      </trkpt>
      <trkpt lat="51.40185" lon="7.01864">
        <ele>96.115958</ele>
        <time>2023-04-26T12:08:43.284Z</time>
      </trkpt>
      <trkpt lat="51.40188" lon="7.01879">
        <ele>96.176437</ele>
        <time>2023-04-26T12:08:45.301Z</time>
      </trkpt>
      <trkpt lat="51.40189" lon="7.01894">
        <ele>96.23767</ele>
        <time>2023-04-26T12:08:47.280Z</time>
      </trkpt>
      <trkpt lat="51.40191" lon="7.0191">
        <ele>96.301199</ele>
        <time>2023-04-26T12:08:49.281Z</time>
      </trkpt>
      <trkpt lat="51.40192" lon="7.01925">
        <ele>96.362684</ele>
        <time>2023-04-26T12:08:51.304Z</time>
      </trkpt>
      <trkpt lat="51.40193" lon="7.0194">
        <ele>96.421736</ele>
        <time>2023-04-26T12:08:53.295Z</time>
      </trkpt>
      <trkpt lat="51.40192" lon="7.01955">
        <ele>96.479407</ele>
        <time>2023-04-26T12:08:55.285Z</time>
      </trkpt>
      <trkpt lat="51.40191" lon="7.0197">
        <ele>96.542999</ele>
        <time>2023-04-26T12:08:57.289Z</time>
      </trkpt>
      <trkpt lat="51.4019" lon="7.01986">
        <ele>96.603692</ele>
        <time>2023-04-26T12:08:59.285Z</time>
      </trkpt>
      <trkpt lat="51.4019" lon="7.02002">
        <ele>96.670089</ele>
        <time>2023-04-26T12:09:01.290Z</time>
      </trkpt>
      <trkpt lat="51.40189" lon="7.02018">
        <ele>96.733847</ele>
        <time>2023-04-26T12:09:03.282Z</time>
      </trkpt>
      <trkpt lat="51.40189" lon="7.02033">
        <ele>96.79308</ele>
        <time>2023-04-26T12:09:05.303Z</time>
      </trkpt>
      <trkpt lat="51.40189" lon="7.0205">
        <ele>96.85882</ele>
        <time>2023-04-26T12:09:07.303Z</time>
      </trkpt>
      <trkpt lat="51.40188" lon="7.02066">
        <ele>96.783665</ele>
        <time>2023-04-26T12:09:09.288Z</time>
      </trkpt>
      <trkpt lat="51.40187" lon="7.02081">
        <ele>96.673211</ele>
        <time>2023-04-26T12:09:11.278Z</time>
      </trkpt>
      <trkpt lat="51.40187" lon="7.02096">
        <ele>96.567152</ele>
        <time>2023-04-26T12:09:13.280Z</time>
      </trkpt>
      <trkpt lat="51.40187" lon="7.02113">
        <ele>96.451871</ele>
        <time>2023-04-26T12:09:15.298Z</time>
      </trkpt>
      <trkpt lat="51.40186" lon="7.02129">
        <ele>96.335068</ele>
        <time>2023-04-26T12:09:17.283Z</time>
      </trkpt>
      <trkpt lat="51.40186" lon="7.02145">
        <ele>96.224771</ele>
        <time>2023-04-26T12:09:19.299Z</time>
      </trkpt>
      <trkpt lat="51.40185" lon="7.02161">
        <ele>96.109223</ele>
        <time>2023-04-26T12:09:21.288Z</time>
      </trkpt>
      <trkpt lat="51.40184" lon="7.02177">
        <ele>95.996872</ele>
        <time>2023-04-26T12:09:23.289Z</time>
      </trkpt>
      <trkpt lat="51.40183" lon="7.02192">
        <ele>95.887564</ele>
        <time>2023-04-26T12:09:25.279Z</time>
      </trkpt>
      <trkpt lat="51.40182" lon="7.02208">
        <ele>95.77633</ele>
        <time>2023-04-26T12:09:27.269Z</time>
      </trkpt>
      <trkpt lat="51.40182" lon="7.02224">
        <ele>95.663873</ele>
        <time>2023-04-26T12:09:29.268Z</time>
      </trkpt>
      <trkpt lat="51.40181" lon="7.0224">
        <ele>95.552071</ele>
        <time>2023-04-26T12:09:31.280Z</time>
      </trkpt>
      <trkpt lat="51.40181" lon="7.02256">
        <ele>95.437497</ele>
        <time>2023-04-26T12:09:33.275Z</time>
      </trkpt>
      <trkpt lat="51.4018" lon="7.02273">
        <ele>95.318426</ele>
        <time>2023-04-26T12:09:35.253Z</time>
      </trkpt>
      <trkpt lat="51.4018" lon="7.02289">
        <ele>95.204445</ele>
        <time>2023-04-26T12:09:37.245Z</time>
      </trkpt>
      <trkpt lat="51.40179" lon="7.02304">
        <ele>95.099848</ele>
        <time>2023-04-26T12:09:39.243Z</time>
      </trkpt>
      <trkpt lat="51.4018" lon="7.0232">
        <ele>94.984803</ele>
        <time>2023-04-26T12:09:41.244Z</time>
      </trkpt>
      <trkpt lat="51.40182" lon="7.02336">
        <ele>94.868812</ele>
        <time>2023-04-26T12:09:43.243Z</time>
      </trkpt>
      <trkpt lat="51.40183" lon="7.02353">
        <ele>94.89899</ele>
        <time>2023-04-26T12:09:45.279Z</time>
      </trkpt>
      <trkpt lat="51.40184" lon="7.02369">
        <ele>94.990213</ele>
        <time>2023-04-26T12:09:47.250Z</time>
      </trkpt>
      <trkpt lat="51.40185" lon="7.02386">
        <ele>95.078655</ele>
        <time>2023-04-26T12:09:49.283Z</time>
      </trkpt>
      <trkpt lat="51.40186" lon="7.02402">
        <ele>95.168148</ele>
        <time>2023-04-26T12:09:51.279Z</time>
      </trkpt>
      <trkpt lat="51.40188" lon="7.02419">
        <ele>95.25861</ele>
        <time>2023-04-26T12:09:53.261Z</time>
      </trkpt>
      <trkpt lat="51.40188" lon="7.02435">
        <ele>95.347103</ele>
        <time>2023-04-26T12:09:55.277Z</time>
      </trkpt>
      <trkpt lat="51.40191" lon="7.02451">
        <ele>95.43236</ele>
        <time>2023-04-26T12:09:57.271Z</time>
      </trkpt>
      <trkpt lat="51.40193" lon="7.02466">
        <ele>95.517682</ele>
        <time>2023-04-26T12:09:59.261Z</time>
      </trkpt>
      <trkpt lat="51.40197" lon="7.02482">
        <ele>95.60608</ele>
        <time>2023-04-26T12:10:01.271Z</time>
      </trkpt>
      <trkpt lat="51.402" lon="7.02498">
        <ele>95.697297</ele>
        <time>2023-04-26T12:10:03.275Z</time>
      </trkpt>
      <trkpt lat="51.40204" lon="7.02513">
        <ele>95.786407</ele>
        <time>2023-04-26T12:10:05.300Z</time>
      </trkpt>
      <trkpt lat="51.40207" lon="7.02529">
        <ele>95.878051</ele>
        <time>2023-04-26T12:10:07.268Z</time>
      </trkpt>
      <trkpt lat="51.40211" lon="7.02544">
        <ele>95.964752</ele>
        <time>2023-04-26T12:10:09.289Z</time>
      </trkpt>
      <trkpt lat="51.40215" lon="7.02559">
        <ele>96.054334</ele>
        <time>2023-04-26T12:10:11.296Z</time>
      </trkpt>
      <trkpt lat="51.40218" lon="7.02574">
        <ele>96.134127</ele>
        <time>2023-04-26T12:10:13.272Z</time>
      </trkpt>
      <trkpt lat="51.40222" lon="7.02595">
        <ele>96.253943</ele>
        <time>2023-04-26T12:10:16.281Z</time>
      </trkpt>
      <trkpt lat="51.40226" lon="7.02611">
        <ele>96.348737</ele>
        <time>2023-04-26T12:10:18.271Z</time>
      </trkpt>
      <trkpt lat="51.40228" lon="7.02629">
        <ele>96.298494</ele>
        <time>2023-04-26T12:10:20.286Z</time>
      </trkpt>
      <trkpt lat="51.4023" lon="7.02646">
        <ele>96.166095</ele>
        <time>2023-04-26T12:10:22.277Z</time>
      </trkpt>
      <trkpt lat="51.40234" lon="7.02663">
        <ele>96.0308</ele>
        <time>2023-04-26T12:10:24.289Z</time>
      </trkpt>
      <trkpt lat="51.40236" lon="7.0268">
        <ele>95.903575</ele>
        <time>2023-04-26T12:10:26.273Z</time>
      </trkpt>
      <trkpt lat="51.40238" lon="7.02696">
        <ele>95.777898</ele>
        <time>2023-04-26T12:10:28.295Z</time>
      </trkpt>
      <trkpt lat="51.40242" lon="7.02711">
        <ele>95.660837</ele>
        <time>2023-04-26T12:10:30.271Z</time>
      </trkpt>
      <trkpt lat="51.40245" lon="7.02727">
        <ele>95.531909</ele>
        <time>2023-04-26T12:10:32.279Z</time>
      </trkpt>
      <trkpt lat="51.40248" lon="7.02742">
        <ele>95.409548</ele>
        <time>2023-04-26T12:10:34.288Z</time>
      </trkpt>
      <trkpt lat="51.40252" lon="7.02758">
        <ele>95.286702</ele>
        <time>2023-04-26T12:10:36.270Z</time>
      </trkpt>
      <trkpt lat="51.40255" lon="7.02772">
        <ele>95.168092</ele>
        <time>2023-04-26T12:10:38.295Z</time>
      </trkpt>
      <trkpt lat="51.40259" lon="7.02787">
        <ele>95.046769</ele>
        <time>2023-04-26T12:10:40.287Z</time>
      </trkpt>
      <trkpt lat="51.40262" lon="7.02802">
        <ele>94.927975</ele>
        <time>2023-04-26T12:10:42.279Z</time>
      </trkpt>
      <trkpt lat="51.40267" lon="7.02816">
        <ele>94.813039</ele>
        <time>2023-04-26T12:10:44.278Z</time>
      </trkpt>
      <trkpt lat="51.40271" lon="7.0283">
        <ele>94.692012</ele>
        <time>2023-04-26T12:10:46.286Z</time>
      </trkpt>
      <trkpt lat="51.40275" lon="7.02846">
        <ele>94.564622</ele>
        <time>2023-04-26T12:10:48.280Z</time>
      </trkpt>
      <trkpt lat="51.4028" lon="7.0286">
        <ele>94.441048</ele>
        <time>2023-04-26T12:10:50.284Z</time>
      </trkpt>
      <trkpt lat="51.40284" lon="7.02875">
        <ele>94.318754</ele>
        <time>2023-04-26T12:10:52.286Z</time>
      </trkpt>
      <trkpt lat="51.40288" lon="7.0289">
        <ele>94.226219</ele>
        <time>2023-04-26T12:10:54.291Z</time>
      </trkpt>
      <trkpt lat="51.40293" lon="7.02906">
        <ele>94.329862</ele>
        <time>2023-04-26T12:10:56.276Z</time>
      </trkpt>
      <trkpt lat="51.40295" lon="7.02921">
        <ele>94.42641</ele>
        <time>2023-04-26T12:10:58.297Z</time>
      </trkpt>
      <trkpt lat="51.40298" lon="7.02937">
        <ele>94.524873</ele>
        <time>2023-04-26T12:11:00.282Z</time>
      </trkpt>
      <trkpt lat="51.40301" lon="7.02952">
        <ele>94.624426</ele>
        <time>2023-04-26T12:11:02.282Z</time>
      </trkpt>
      <trkpt lat="51.40305" lon="7.02968">
        <ele>94.722888</ele>
        <time>2023-04-26T12:11:04.274Z</time>
      </trkpt>
      <trkpt lat="51.40307" lon="7.02983">
        <ele>94.819606</ele>
        <time>2023-04-26T12:11:06.284Z</time>
      </trkpt>
      <trkpt lat="51.40309" lon="7.02998">
        <ele>94.91459</ele>
        <time>2023-04-26T12:11:08.282Z</time>
      </trkpt>
      <trkpt lat="51.40311" lon="7.03014">
        <ele>95.013581</ele>
        <time>2023-04-26T12:11:10.272Z</time>
      </trkpt>
      <trkpt lat="51.40312" lon="7.03031">
        <ele>95.11408</ele>
        <time>2023-04-26T12:11:12.282Z</time>
      </trkpt>
      <trkpt lat="51.40313" lon="7.03047">
        <ele>95.211775</ele>
        <time>2023-04-26T12:11:14.282Z</time>
      </trkpt>
      <trkpt lat="51.40314" lon="7.03062">
        <ele>95.302963</ele>
        <time>2023-04-26T12:11:16.295Z</time>
      </trkpt>
      <trkpt lat="51.40314" lon="7.03078">
        <ele>95.401778</ele>
        <time>2023-04-26T12:11:18.283Z</time>
      </trkpt>
      <trkpt lat="51.40315" lon="7.03096">
        <ele>95.506943</ele>
        <time>2023-04-26T12:11:20.273Z</time>
      </trkpt>
      <trkpt lat="51.40316" lon="7.03111">
        <ele>95.604037</ele>
        <time>2023-04-26T12:11:22.277Z</time>
      </trkpt>
      <trkpt lat="51.40317" lon="7.03127">
        <ele>95.701673</ele>
        <time>2023-04-26T12:11:24.283Z</time>
      </trkpt>
      <trkpt lat="51.40319" lon="7.03143">
        <ele>95.799309</ele>
        <time>2023-04-26T12:11:26.280Z</time>
      </trkpt>
      <trkpt lat="51.4032" lon="7.0316">
        <ele>95.903342</ele>
        <time>2023-04-26T12:11:28.260Z</time>
      </trkpt>
      <trkpt lat="51.40321" lon="7.03175">
        <ele>95.979747</ele>
        <time>2023-04-26T12:11:30.279Z</time>
      </trkpt>
      <trkpt lat="51.40322" lon="7.03191">
        <ele>96.034557</ele>
        <time>2023-04-26T12:11:32.287Z</time>
      </trkpt>
      <trkpt lat="51.40323" lon="7.03206">
        <ele>96.086413</ele>
        <time>2023-04-26T12:11:34.286Z</time>
      </trkpt>
      <trkpt lat="51.40322" lon="7.03222">
        <ele>96.143785</ele>
        <time>2023-04-26T12:11:36.289Z</time>
      </trkpt>
      <trkpt lat="51.4032" lon="7.03239">
        <ele>96.200839</ele>
        <time>2023-04-26T12:11:38.267Z</time>
      </trkpt>
      <trkpt lat="51.40318" lon="7.03254">
        <ele>96.257589</ele>
        <time>2023-04-26T12:11:40.291Z</time>
      </trkpt>
      <trkpt lat="51.40316" lon="7.0327">
        <ele>96.312561</ele>
        <time>2023-04-26T12:11:42.280Z</time>
      </trkpt>
      <trkpt lat="51.40313" lon="7.03285">
        <ele>96.367449</ele>
        <time>2023-04-26T12:11:44.277Z</time>
      </trkpt>
      <trkpt lat="51.40311" lon="7.033">
        <ele>96.41955</ele>
        <time>2023-04-26T12:11:46.281Z</time>
      </trkpt>
      <trkpt lat="51.40308" lon="7.03315">
        <ele>96.472996</ele>
        <time>2023-04-26T12:11:48.282Z</time>
      </trkpt>
      <trkpt lat="51.40305" lon="7.0333">
        <ele>96.528382</ele>
        <time>2023-04-26T12:11:50.286Z</time>
      </trkpt>
      <trkpt lat="51.40302" lon="7.03346">
        <ele>96.587962</ele>
        <time>2023-04-26T12:11:52.288Z</time>
      </trkpt>
      <trkpt lat="51.40299" lon="7.03362">
        <ele>96.647551</ele>
        <time>2023-04-26T12:11:54.281Z</time>
      </trkpt>
      <trkpt lat="51.40295" lon="7.03379">
        <ele>96.70766</ele>
        <time>2023-04-26T12:11:56.297Z</time>
      </trkpt>
      <trkpt lat="51.40292" lon="7.03395">
        <ele>96.765755</ele>
        <time>2023-04-26T12:11:58.281Z</time>
      </trkpt>
      <trkpt lat="51.4029" lon="7.03411">
        <ele>96.823246</ele>
        <time>2023-04-26T12:12:00.279Z</time>
      </trkpt>
      <trkpt lat="51.40288" lon="7.03426">
        <ele>96.876979</ele>
        <time>2023-04-26T12:12:02.284Z</time>
      </trkpt>
      <trkpt lat="51.40288" lon="7.03441">
        <ele>96.927795</ele>
        <time>2023-04-26T12:12:04.279Z</time>
      </trkpt>
      <trkpt lat="51.40287" lon="7.03456">
        <ele>96.946451</ele>
        <time>2023-04-26T12:12:06.294Z</time>
      </trkpt>
      <trkpt lat="51.40286" lon="7.03472">
        <ele>96.904777</ele>
        <time>2023-04-26T12:12:08.278Z</time>
      </trkpt>
      <trkpt lat="51.40286" lon="7.03489">
        <ele>96.862572</ele>
        <time>2023-04-26T12:12:10.294Z</time>
      </trkpt>
      <trkpt lat="51.40285" lon="7.03506">
        <ele>96.819142</ele>
        <time>2023-04-26T12:12:12.279Z</time>
      </trkpt>
      <trkpt lat="51.40285" lon="7.03522">
        <ele>96.778741</ele>
        <time>2023-04-26T12:12:14.269Z</time>
      </trkpt>
      <trkpt lat="51.40285" lon="7.03539">
        <ele>96.737585</ele>
        <time>2023-04-26T12:12:16.275Z</time>
      </trkpt>
      <trkpt lat="51.40285" lon="7.03555">
        <ele>96.697426</ele>
        <time>2023-04-26T12:12:18.282Z</time>
      </trkpt>
      <trkpt lat="51.40285" lon="7.03571">
        <ele>96.655763</ele>
        <time>2023-04-26T12:12:20.279Z</time>
      </trkpt>
      <trkpt lat="51.40285" lon="7.03587">
        <ele>96.617116</ele>
        <time>2023-04-26T12:12:22.283Z</time>
      </trkpt>
      <trkpt lat="51.40285" lon="7.03603">
        <ele>96.577394</ele>
        <time>2023-04-26T12:12:24.300Z</time>
      </trkpt>
      <trkpt lat="51.40285" lon="7.03619">
        <ele>96.536985</ele>
        <time>2023-04-26T12:12:26.279Z</time>
      </trkpt>
      <trkpt lat="51.40284" lon="7.03634">
        <ele>96.498332</ele>
        <time>2023-04-26T12:12:28.279Z</time>
      </trkpt>
      <trkpt lat="51.40285" lon="7.03649">
        <ele>96.460637</ele>
        <time>2023-04-26T12:12:30.301Z</time>
      </trkpt>
      <trkpt lat="51.40285" lon="7.03665">
        <ele>96.421188</ele>
        <time>2023-04-26T12:12:32.283Z</time>
      </trkpt>
      <trkpt lat="51.40285" lon="7.0368">
        <ele>96.383528</ele>
        <time>2023-04-26T12:12:34.280Z</time>
      </trkpt>
      <trkpt lat="51.40284" lon="7.03696">
        <ele>96.343633</ele>
        <time>2023-04-26T12:12:36.289Z</time>
      </trkpt>
      <trkpt lat="51.40282" lon="7.03711">
        <ele>96.304477</ele>
        <time>2023-04-26T12:12:38.285Z</time>
      </trkpt>
      <trkpt lat="51.4028" lon="7.03725">
        <ele>96.267031</ele>
        <time>2023-04-26T12:12:40.277Z</time>
      </trkpt>
      <trkpt lat="51.40278" lon="7.03741">
        <ele>96.277016</ele>
        <time>2023-04-26T12:12:42.293Z</time>
      </trkpt>
      <trkpt lat="51.40275" lon="7.03756">
        <ele>96.442486</ele>
        <time>2023-04-26T12:12:44.293Z</time>
      </trkpt>
      <trkpt lat="51.40273" lon="7.03771">
        <ele>96.603856</ele>
        <time>2023-04-26T12:12:46.289Z</time>
      </trkpt>
      <trkpt lat="51.4027" lon="7.03787">
        <ele>96.771686</ele>
        <time>2023-04-26T12:12:48.279Z</time>
      </trkpt>
      <trkpt lat="51.40267" lon="7.03802">
        <ele>96.942068</ele>
        <time>2023-04-26T12:12:50.289Z</time>
      </trkpt>
      <trkpt lat="51.40264" lon="7.03817">
        <ele>97.101326</ele>
        <time>2023-04-26T12:12:52.300Z</time>
      </trkpt>
      <trkpt lat="51.4026" lon="7.03831">
        <ele>97.255733</ele>
        <time>2023-04-26T12:12:54.282Z</time>
      </trkpt>
      <trkpt lat="51.40257" lon="7.03845">
        <ele>97.411481</ele>
        <time>2023-04-26T12:12:56.302Z</time>
      </trkpt>
      <trkpt lat="51.40253" lon="7.03859">
        <ele>97.582627</ele>
        <time>2023-04-26T12:12:58.282Z</time>
      </trkpt>
      <trkpt lat="51.40248" lon="7.03875">
        <ele>97.757262</ele>
        <time>2023-04-26T12:13:00.297Z</time>
      </trkpt>
      <trkpt lat="51.40244" lon="7.03888">
        <ele>97.916431</ele>
        <time>2023-04-26T12:13:02.295Z</time>
      </trkpt>
      <trkpt lat="51.40239" lon="7.03902">
        <ele>98.083718</ele>
        <time>2023-04-26T12:13:04.292Z</time>
      </trkpt>
      <trkpt lat="51.40234" lon="7.03915">
        <ele>98.241004</ele>
        <time>2023-04-26T12:13:06.293Z</time>
      </trkpt>
      <trkpt lat="51.40229" lon="7.03928">
        <ele>98.402287</ele>
        <time>2023-04-26T12:13:08.281Z</time>
      </trkpt>
      <trkpt lat="51.40225" lon="7.03944">
        <ele>98.579038</ele>
        <time>2023-04-26T12:13:10.282Z</time>
      </trkpt>
      <trkpt lat="51.40219" lon="7.03958">
        <ele>98.751291</ele>
        <time>2023-04-26T12:13:12.281Z</time>
      </trkpt>
      <trkpt lat="51.40215" lon="7.03971">
        <ele>98.907578</ele>
        <time>2023-04-26T12:13:14.296Z</time>
      </trkpt>
      <trkpt lat="51.40209" lon="7.03984">
        <ele>99.072693</ele>
        <time>2023-04-26T12:13:16.278Z</time>
      </trkpt>
      <trkpt lat="51.40204" lon="7.03998">
        <ele>99.237971</ele>
        <time>2023-04-26T12:13:18.283Z</time>
      </trkpt>
      <trkpt lat="51.40198" lon="7.04011">
        <ele>99.273314</ele>
        <time>2023-04-26T12:13:20.292Z</time>
      </trkpt>
      <trkpt lat="51.40193" lon="7.04026">
        <ele>99.31162</ele>
        <time>2023-04-26T12:13:22.258Z</time>
      </trkpt>
      <trkpt lat="51.40187" lon="7.0404">
        <ele>99.346737</ele>
        <time>2023-04-26T12:13:24.301Z</time>
      </trkpt>
      <trkpt lat="51.40182" lon="7.04054">
        <ele>99.383737</ele>
        <time>2023-04-26T12:13:26.291Z</time>
      </trkpt>
      <trkpt lat="51.40177" lon="7.04069">
        <ele>99.420692</ele>
        <time>2023-04-26T12:13:28.299Z</time>
      </trkpt>
      <trkpt lat="51.40172" lon="7.04081">
        <ele>99.453062</ele>
        <time>2023-04-26T12:13:30.280Z</time>
      </trkpt>
      <trkpt lat="51.40164" lon="7.04098">
        <ele>99.499286</ele>
        <time>2023-04-26T12:13:33.269Z</time>
      </trkpt>
      <trkpt lat="51.40159" lon="7.04111">
        <ele>99.534599</ele>
        <time>2023-04-26T12:13:35.272Z</time>
      </trkpt>
      <trkpt lat="51.40153" lon="7.04126">
        <ele>99.571966</ele>
        <time>2023-04-26T12:13:37.286Z</time>
      </trkpt>
      <trkpt lat="51.40148" lon="7.0414">
        <ele>99.608951</ele>
        <time>2023-04-26T12:13:39.280Z</time>
      </trkpt>
      <trkpt lat="51.40143" lon="7.04154">
        <ele>99.644148</ele>
        <time>2023-04-26T12:13:41.285Z</time>
      </trkpt>
      <trkpt lat="51.40138" lon="7.04168">
        <ele>99.680209</ele>
        <time>2023-04-26T12:13:43.285Z</time>
      </trkpt>
      <trkpt lat="51.40133" lon="7.04183">
        <ele>99.716492</ele>
        <time>2023-04-26T12:13:45.286Z</time>
      </trkpt>
      <trkpt lat="51.40128" lon="7.04197">
        <ele>99.75329</ele>
        <time>2023-04-26T12:13:47.286Z</time>
      </trkpt>
      <trkpt lat="51.4012" lon="7.04216">
        <ele>99.802241</ele>
        <time>2023-04-26T12:13:50.295Z</time>
      </trkpt>
      <trkpt lat="51.40115" lon="7.0423">
        <ele>99.839043</ele>
        <time>2023-04-26T12:13:52.285Z</time>
      </trkpt>
      <trkpt lat="51.4011" lon="7.04243">
        <ele>99.871036</ele>
        <time>2023-04-26T12:13:54.279Z</time>
      </trkpt>
      <trkpt lat="51.40105" lon="7.04256">
        <ele>99.80055</ele>
        <time>2023-04-26T12:13:56.287Z</time>
      </trkpt>
      <trkpt lat="51.40099" lon="7.0427">
        <ele>99.724671</ele>
        <time>2023-04-26T12:13:58.278Z</time>
      </trkpt>
      <trkpt lat="51.40095" lon="7.04287">
        <ele>99.644878</ele>
        <time>2023-04-26T12:14:00.266Z</time>
      </trkpt>
      <trkpt lat="51.4009" lon="7.04302">
        <ele>99.564779</ele>
        <time>2023-04-26T12:14:02.279Z</time>
      </trkpt>
      <trkpt lat="51.40085" lon="7.04318">
        <ele>99.485684</ele>
        <time>2023-04-26T12:14:04.281Z</time>
      </trkpt>
      <trkpt lat="51.40079" lon="7.04332">
        <ele>99.408266</ele>
        <time>2023-04-26T12:14:06.288Z</time>
      </trkpt>
      <trkpt lat="51.40074" lon="7.04347">
        <ele>99.332298</ele>
        <time>2023-04-26T12:14:08.295Z</time>
      </trkpt>
      <trkpt lat="51.4007" lon="7.04361">
        <ele>99.260923</ele>
        <time>2023-04-26T12:14:10.284Z</time>
      </trkpt>
      <trkpt lat="51.40065" lon="7.04374">
        <ele>99.19462</ele>
        <time>2023-04-26T12:14:12.298Z</time>
      </trkpt>
      <trkpt lat="51.40059" lon="7.04386">
        <ele>99.126151</ele>
        <time>2023-04-26T12:14:14.287Z</time>
      </trkpt>
      <trkpt lat="51.40053" lon="7.04399">
        <ele>99.05201</ele>
        <time>2023-04-26T12:14:16.263Z</time>
      </trkpt>
      <trkpt lat="51.40047" lon="7.04412">
        <ele>98.977897</ele>
        <time>2023-04-26T12:14:18.280Z</time>
      </trkpt>
      <trkpt lat="51.4004" lon="7.04423">
        <ele>98.906466</ele>
        <time>2023-04-26T12:14:20.281Z</time>
      </trkpt>
      <trkpt lat="51.40033" lon="7.04435">
        <ele>98.827554</ele>
        <time>2023-04-26T12:14:22.281Z</time>
      </trkpt>
      <trkpt lat="51.40026" lon="7.04446">
        <ele>98.758597</ele>
        <time>2023-04-26T12:14:24.289Z</time>
      </trkpt>
      <trkpt lat="51.4002" lon="7.04459">
        <ele>98.68744</ele>
        <time>2023-04-26T12:14:26.288Z</time>
      </trkpt>
      <trkpt lat="51.40014" lon="7.04472">
        <ele>98.611936</ele>
        <time>2023-04-26T12:14:28.302Z</time>
      </trkpt>
      <trkpt lat="51.40006" lon="7.04483">
        <ele>98.586428</ele>
        <time>2023-04-26T12:14:30.281Z</time>
      </trkpt>
      <trkpt lat="51.39999" lon="7.04494">
        <ele>98.649585</ele>
        <time>2023-04-26T12:14:32.289Z</time>
      </trkpt>
      <trkpt lat="51.39992" lon="7.04506">
        <ele>98.714126</ele>
        <time>2023-04-26T12:14:34.284Z</time>
      </trkpt>
      <trkpt lat="51.39985" lon="7.04519">
        <ele>98.781519</ele>
        <time>2023-04-26T12:14:36.296Z</time>
      </trkpt>
      <trkpt lat="51.39976" lon="7.04531">
        <ele>98.852026</ele>
        <time>2023-04-26T12:14:38.287Z</time>
      </trkpt>
      <trkpt lat="51.39969" lon="7.04543">
        <ele>98.919457</ele>
        <time>2023-04-26T12:14:40.277Z</time>
      </trkpt>
      <trkpt lat="51.39962" lon="7.04555">
        <ele>98.983837</ele>
        <time>2023-04-26T12:14:42.272Z</time>
      </trkpt>
      <trkpt lat="51.39955" lon="7.04568">
        <ele>99.050981</ele>
        <time>2023-04-26T12:14:44.276Z</time>
      </trkpt>
      <trkpt lat="51.39948" lon="7.0458">
        <ele>99.113806</ele>
        <time>2023-04-26T12:14:46.267Z</time>
      </trkpt>
      <trkpt lat="51.39942" lon="7.04592">
        <ele>99.174394</ele>
        <time>2023-04-26T12:14:48.299Z</time>
      </trkpt>
      <trkpt lat="51.39936" lon="7.04604">
        <ele>99.236632</ele>
        <time>2023-04-26T12:14:50.283Z</time>
      </trkpt>
      <trkpt lat="51.39929" lon="7.04614">
        <ele>99.29453</ele>
        <time>2023-04-26T12:14:52.265Z</time>
      </trkpt>
      <trkpt lat="51.39922" lon="7.04624">
        <ele>99.356011</ele>
        <time>2023-04-26T12:14:54.281Z</time>
      </trkpt>
      <trkpt lat="51.39914" lon="7.04636">
        <ele>99.422617</ele>
        <time>2023-04-26T12:14:56.280Z</time>
      </trkpt>
      <trkpt lat="51.39908" lon="7.04647">
        <ele>99.480113</ele>
        <time>2023-04-26T12:14:58.312Z</time>
      </trkpt>
      <trkpt lat="51.39898" lon="7.04662">
        <ele>99.566139</ele>
        <time>2023-04-26T12:15:01.285Z</time>
      </trkpt>
      <trkpt lat="51.3989" lon="7.04673">
        <ele>99.630296</ele>
        <time>2023-04-26T12:15:03.292Z</time>
      </trkpt>
      <trkpt lat="51.39883" lon="7.04684">
        <ele>99.691375</ele>
        <time>2023-04-26T12:15:05.300Z</time>
      </trkpt>
      <trkpt lat="51.39877" lon="7.04695">
        <ele>99.579969</ele>
        <time>2023-04-26T12:15:07.306Z</time>
      </trkpt>
      <trkpt lat="51.39869" lon="7.04705">
        <ele>99.453825</ele>
        <time>2023-04-26T12:15:09.298Z</time>
      </trkpt>
      <trkpt lat="51.39863" lon="7.04716">
        <ele>99.32979</ele>
        <time>2023-04-26T12:15:11.317Z</time>
      </trkpt>
      <trkpt lat="51.39855" lon="7.04727">
        <ele>99.203359</ele>
        <time>2023-04-26T12:15:13.285Z</time>
      </trkpt>
      <trkpt lat="51.39846" lon="7.04742">
        <ele>99.031586</ele>
        <time>2023-04-26T12:15:16.294Z</time>
      </trkpt>
      <trkpt lat="51.39836" lon="7.04753">
        <ele>98.869845</ele>
        <time>2023-04-26T12:15:19.289Z</time>
      </trkpt>
      <trkpt lat="51.39829" lon="7.04767">
        <ele>98.725091</ele>
        <time>2023-04-26T12:15:22.280Z</time>
      </trkpt>
      <trkpt lat="51.39824" lon="7.04783">
        <ele>98.583786</ele>
        <time>2023-04-26T12:15:26.278Z</time>
      </trkpt>
      <trkpt lat="51.3983" lon="7.04796">
        <ele>98.453314</ele>
        <time>2023-04-26T12:15:30.276Z</time>
      </trkpt>
      <trkpt lat="51.39836" lon="7.04809">
        <ele>98.32839</ele>
        <time>2023-04-26T12:15:35.278Z</time>
      </trkpt>
      <trkpt lat="51.39841" lon="7.04823">
        <ele>98.194979</ele>
        <time>2023-04-26T12:15:41.273Z</time>
      </trkpt>
      <trkpt lat="51.39843" lon="7.04838">
        <ele>98.069866</ele>
        <time>2023-04-26T12:15:46.289Z</time>
      </trkpt>
      <trkpt lat="51.39844" lon="7.04842">
        <ele>98.039729</ele>
        <time>2023-04-26T12:16:36.563Z</time>
      </trkpt>
      <trkpt lat="51.39828" lon="7.04787">
        <ele>97.552246</ele>
        <time>2023-04-26T12:20:21.283Z</time>
      </trkpt>
      <trkpt lat="51.39819" lon="7.04781">
        <ele>97.428254</ele>
        <time>2023-04-26T12:20:25.286Z</time>
      </trkpt>
      <trkpt lat="51.39809" lon="7.04773">
        <ele>97.313208</ele>
        <time>2023-04-26T12:20:29.290Z</time>
      </trkpt>
      <trkpt lat="51.398" lon="7.04759">
        <ele>97.211519</ele>
        <time>2023-04-26T12:20:32.281Z</time>
      </trkpt>
      <trkpt lat="51.3979" lon="7.04748">
        <ele>97.118074</ele>
        <time>2023-04-26T12:20:35.299Z</time>
      </trkpt>
      <trkpt lat="51.3978" lon="7.04738">
        <ele>97.023453</ele>
        <time>2023-04-26T12:20:38.281Z</time>
      </trkpt>
      <trkpt lat="51.39769" lon="7.04732">
        <ele>96.923666</ele>
        <time>2023-04-26T12:20:41.302Z</time>
      </trkpt>
      <trkpt lat="51.39758" lon="7.04732">
        <ele>96.841068</ele>
        <time>2023-04-26T12:20:43.302Z</time>
      </trkpt>
      <trkpt lat="51.39749" lon="7.04734">
        <ele>96.766218</ele>
        <time>2023-04-26T12:20:45.305Z</time>
      </trkpt>
      <trkpt lat="51.39739" lon="7.04744">
        <ele>96.670234</ele>
        <time>2023-04-26T12:20:48.285Z</time>
      </trkpt>
      <trkpt lat="51.39732" lon="7.04762">
        <ele>96.563214</ele>
        <time>2023-04-26T12:20:51.296Z</time>
      </trkpt>
      <trkpt lat="51.39728" lon="7.04775">
        <ele>96.487593</ele>
        <time>2023-04-26T12:20:53.295Z</time>
      </trkpt>
      <trkpt lat="51.39725" lon="7.04789">
        <ele>96.413014</ele>
        <time>2023-04-26T12:20:55.290Z</time>
      </trkpt>
      <trkpt lat="51.3972" lon="7.04809">
        <ele>96.30825</ele>
        <time>2023-04-26T12:20:58.279Z</time>
      </trkpt>
      <trkpt lat="51.39717" lon="7.04822">
        <ele>96.232213</ele>
        <time>2023-04-26T12:21:00.310Z</time>
      </trkpt>
      <trkpt lat="51.39714" lon="7.04837">
        <ele>96.157213</ele>
        <time>2023-04-26T12:21:02.300Z</time>
      </trkpt>
      <trkpt lat="51.39712" lon="7.04858">
        <ele>96.049223</ele>
        <time>2023-04-26T12:21:05.288Z</time>
      </trkpt>
      <trkpt lat="51.39712" lon="7.04875">
        <ele>95.964846</ele>
        <time>2023-04-26T12:21:07.295Z</time>
      </trkpt>
      <trkpt lat="51.39716" lon="7.04895">
        <ele>95.887227</ele>
        <time>2023-04-26T12:21:10.290Z</time>
      </trkpt>
      <trkpt lat="51.39723" lon="7.04914">
        <ele>95.835799</ele>
        <time>2023-04-26T12:21:13.306Z</time>
      </trkpt>
      <trkpt lat="51.39732" lon="7.04923">
        <ele>95.796462</ele>
        <time>2023-04-26T12:21:15.317Z</time>
      </trkpt>
      <trkpt lat="51.39738" lon="7.04935">
        <ele>95.760735</ele>
        <time>2023-04-26T12:21:17.304Z</time>
      </trkpt>
      <trkpt lat="51.39736" lon="7.04955">
        <ele>95.714433</ele>
        <time>2023-04-26T12:21:20.301Z</time>
      </trkpt>
      <trkpt lat="51.39729" lon="7.04966">
        <ele>95.677264</ele>
        <time>2023-04-26T12:21:22.302Z</time>
      </trkpt>
      <trkpt lat="51.39722" lon="7.04979">
        <ele>95.636455</ele>
        <time>2023-04-26T12:21:24.294Z</time>
      </trkpt>
      <trkpt lat="51.39713" lon="7.0499">
        <ele>95.596784</ele>
        <time>2023-04-26T12:21:26.310Z</time>
      </trkpt>
      <trkpt lat="51.39706" lon="7.05002">
        <ele>95.558268</ele>
        <time>2023-04-26T12:21:28.302Z</time>
      </trkpt>
      <trkpt lat="51.39699" lon="7.05014">
        <ele>95.519116</ele>
        <time>2023-04-26T12:21:30.273Z</time>
      </trkpt>
      <trkpt lat="51.39693" lon="7.05027">
        <ele>95.481007</ele>
        <time>2023-04-26T12:21:32.290Z</time>
      </trkpt>
      <trkpt lat="51.39686" lon="7.05039">
        <ele>95.443362</ele>
        <time>2023-04-26T12:21:34.294Z</time>
      </trkpt>
      <trkpt lat="51.39681" lon="7.05052">
        <ele>95.40719</ele>
        <time>2023-04-26T12:21:36.289Z</time>
      </trkpt>
      <trkpt lat="51.39674" lon="7.05062">
        <ele>95.372373</ele>
        <time>2023-04-26T12:21:38.292Z</time>
      </trkpt>
      <trkpt lat="51.39667" lon="7.05073">
        <ele>95.336793</ele>
        <time>2023-04-26T12:21:40.296Z</time>
      </trkpt>
      <trkpt lat="51.39661" lon="7.05085">
        <ele>95.301288</ele>
        <time>2023-04-26T12:21:42.261Z</time>
      </trkpt>
      <trkpt lat="51.39653" lon="7.05101">
        <ele>95.254315</ele>
        <time>2023-04-26T12:21:45.344Z</time>
      </trkpt>
      <trkpt lat="51.39645" lon="7.05117">
        <ele>95.323996</ele>
        <time>2023-04-26T12:21:48.270Z</time>
      </trkpt>
      <trkpt lat="51.39639" lon="7.05128">
        <ele>95.40039</ele>
        <time>2023-04-26T12:21:50.261Z</time>
      </trkpt>
      <trkpt lat="51.3963" lon="7.05143">
        <ele>95.507498</ele>
        <time>2023-04-26T12:21:53.259Z</time>
      </trkpt>
      <trkpt lat="51.39621" lon="7.05158">
        <ele>95.616132</ele>
        <time>2023-04-26T12:21:56.271Z</time>
      </trkpt>
      <trkpt lat="51.39614" lon="7.05173">
        <ele>95.718181</ele>
        <time>2023-04-26T12:21:59.276Z</time>
      </trkpt>
      <trkpt lat="51.39606" lon="7.05188">
        <ele>95.817538</ele>
        <time>2023-04-26T12:22:02.291Z</time>
      </trkpt>
      <trkpt lat="51.39599" lon="7.05201">
        <ele>95.910982</ele>
        <time>2023-04-26T12:22:05.268Z</time>
      </trkpt>
      <trkpt lat="51.39592" lon="7.05215">
        <ele>95.997961</ele>
        <time>2023-04-26T12:22:08.300Z</time>
      </trkpt>
      <trkpt lat="51.39585" lon="7.05227">
        <ele>96.090362</ele>
        <time>2023-04-26T12:22:11.284Z</time>
      </trkpt>
      <trkpt lat="51.39578" lon="7.05239">
        <ele>96.173069</ele>
        <time>2023-04-26T12:22:14.255Z</time>
      </trkpt>
      <trkpt lat="51.39572" lon="7.05255">
        <ele>96.271484</ele>
        <time>2023-04-26T12:22:17.269Z</time>
      </trkpt>
      <trkpt lat="51.39564" lon="7.05269">
        <ele>96.370842</ele>
        <time>2023-04-26T12:22:20.275Z</time>
      </trkpt>
      <trkpt lat="51.39556" lon="7.05283">
        <ele>96.470487</ele>
        <time>2023-04-26T12:22:23.253Z</time>
      </trkpt>
      <trkpt lat="51.39548" lon="7.05297">
        <ele>96.568503</ele>
        <time>2023-04-26T12:22:26.449Z</time>
      </trkpt>
      <trkpt lat="51.39542" lon="7.05311">
        <ele>96.661271</ele>
        <time>2023-04-26T12:22:29.283Z</time>
      </trkpt>
      <trkpt lat="51.39535" lon="7.05324">
        <ele>96.746814</ele>
        <time>2023-04-26T12:22:32.269Z</time>
      </trkpt>
      <trkpt lat="51.39528" lon="7.05335">
        <ele>96.594286</ele>
        <time>2023-04-26T12:22:35.303Z</time>
      </trkpt>
      <trkpt lat="51.39521" lon="7.05346">
        <ele>96.438074</ele>
        <time>2023-04-26T12:22:38.260Z</time>
      </trkpt>
      <trkpt lat="51.39521" lon="7.05352">
        <ele>96.375161</ele>
        <time>2023-04-26T12:24:06.913Z</time>
      </trkpt>
      <trkpt lat="51.39513" lon="7.05363">
        <ele>96.206276</ele>
        <time>2023-04-26T12:25:43.281Z</time>
      </trkpt>
      <trkpt lat="51.39506" lon="7.05379">
        <ele>96.003313</ele>
        <time>2023-04-26T12:26:28.293Z</time>
      </trkpt>
      <trkpt lat="51.39498" lon="7.05393">
        <ele>95.80823</ele>
        <time>2023-04-26T12:26:33.297Z</time>
      </trkpt>
      <trkpt lat="51.39491" lon="7.05405">
        <ele>95.645322</ele>
        <time>2023-04-26T12:26:36.287Z</time>
      </trkpt>
      <trkpt lat="51.39483" lon="7.05419">
        <ele>95.447575</ele>
        <time>2023-04-26T12:26:39.310Z</time>
      </trkpt>
      <trkpt lat="51.39475" lon="7.05433">
        <ele>95.25201</ele>
        <time>2023-04-26T12:26:42.294Z</time>
      </trkpt>
      <trkpt lat="51.39467" lon="7.05449">
        <ele>95.044629</ele>
        <time>2023-04-26T12:26:45.283Z</time>
      </trkpt>
      <trkpt lat="51.39459" lon="7.05465">
        <ele>94.831991</ele>
        <time>2023-04-26T12:26:48.282Z</time>
      </trkpt>
      <trkpt lat="51.39453" lon="7.05475">
        <ele>94.684835</ele>
        <time>2023-04-26T12:26:50.302Z</time>
      </trkpt>
      <trkpt lat="51.39443" lon="7.05492">
        <ele>94.4549</ele>
        <time>2023-04-26T12:26:53.291Z</time>
      </trkpt>
      <trkpt lat="51.39437" lon="7.05502">
        <ele>94.300853</ele>
        <time>2023-04-26T12:26:55.279Z</time>
      </trkpt>
      <trkpt lat="51.3943" lon="7.05512">
        <ele>94.148148</ele>
        <time>2023-04-26T12:26:57.306Z</time>
      </trkpt>
      <trkpt lat="51.39419" lon="7.05525">
        <ele>93.927217</ele>
        <time>2023-04-26T12:27:00.283Z</time>
      </trkpt>
      <trkpt lat="51.39411" lon="7.05533">
        <ele>93.789031</ele>
        <time>2023-04-26T12:27:02.287Z</time>
      </trkpt>
      <trkpt lat="51.39403" lon="7.05542">
        <ele>93.737857</ele>
        <time>2023-04-26T12:27:04.289Z</time>
      </trkpt>
      <trkpt lat="51.39395" lon="7.05551">
        <ele>93.683223</ele>
        <time>2023-04-26T12:27:06.277Z</time>
      </trkpt>
      <trkpt lat="51.39387" lon="7.05559">
        <ele>93.632132</ele>
        <time>2023-04-26T12:27:08.282Z</time>
      </trkpt>
      <trkpt lat="51.39379" lon="7.05567">
        <ele>93.581215</ele>
        <time>2023-04-26T12:27:10.292Z</time>
      </trkpt>
      <trkpt lat="51.3937" lon="7.05574">
        <ele>93.528619</ele>
        <time>2023-04-26T12:27:12.298Z</time>
      </trkpt>
      <trkpt lat="51.39362" lon="7.05583">
        <ele>93.477173</ele>
        <time>2023-04-26T12:27:14.277Z</time>
      </trkpt>
      <trkpt lat="51.39354" lon="7.0559">
        <ele>93.425069</ele>
        <time>2023-04-26T12:27:16.302Z</time>
      </trkpt>
      <trkpt lat="51.39345" lon="7.05599">
        <ele>93.371889</ele>
        <time>2023-04-26T12:27:18.278Z</time>
      </trkpt>
      <trkpt lat="51.39337" lon="7.05607">
        <ele>93.316595</ele>
        <time>2023-04-26T12:27:20.257Z</time>
      </trkpt>
      <trkpt lat="51.39329" lon="7.05616">
        <ele>93.264491</ele>
        <time>2023-04-26T12:27:22.274Z</time>
      </trkpt>
      <trkpt lat="51.39321" lon="7.05625">
        <ele>93.213208</ele>
        <time>2023-04-26T12:27:24.280Z</time>
      </trkpt>
      <trkpt lat="51.39312" lon="7.05633">
        <ele>93.159513</ele>
        <time>2023-04-26T12:27:26.292Z</time>
      </trkpt>
      <trkpt lat="51.39303" lon="7.0564">
        <ele>93.105041</ele>
        <time>2023-04-26T12:27:28.281Z</time>
      </trkpt>
      <trkpt lat="51.39294" lon="7.05649">
        <ele>93.048621</ele>
        <time>2023-04-26T12:27:30.294Z</time>
      </trkpt>
      <trkpt lat="51.39285" lon="7.05658">
        <ele>92.992466</ele>
        <time>2023-04-26T12:27:32.325Z</time>
      </trkpt>
      <trkpt lat="51.39277" lon="7.05667">
        <ele>92.937576</ele>
        <time>2023-04-26T12:27:34.274Z</time>
      </trkpt>
      <trkpt lat="51.39268" lon="7.05675">
        <ele>92.882312</ele>
        <time>2023-04-26T12:27:36.283Z</time>
      </trkpt>
      <trkpt lat="51.39259" lon="7.05684">
        <ele>92.83107</ele>
        <time>2023-04-26T12:27:38.285Z</time>
      </trkpt>
      <trkpt lat="51.39251" lon="7.05695">
        <ele>92.888228</ele>
        <time>2023-04-26T12:27:40.284Z</time>
      </trkpt>
      <trkpt lat="51.39246" lon="7.05708">
        <ele>92.943316</ele>
        <time>2023-04-26T12:27:42.308Z</time>
      </trkpt>
      <trkpt lat="51.39241" lon="7.05721">
        <ele>92.994176</ele>
        <time>2023-04-26T12:27:44.291Z</time>
      </trkpt>
      <trkpt lat="51.39236" lon="7.05734">
        <ele>93.047677</ele>
        <time>2023-04-26T12:27:46.301Z</time>
      </trkpt>
      <trkpt lat="51.3923" lon="7.05747">
        <ele>93.103144</ele>
        <time>2023-04-26T12:27:48.350Z</time>
      </trkpt>
      <trkpt lat="51.39224" lon="7.0576">
        <ele>93.157541</ele>
        <time>2023-04-26T12:27:50.279Z</time>
      </trkpt>
      <trkpt lat="51.39219" lon="7.05772">
        <ele>93.207962</ele>
        <time>2023-04-26T12:27:52.285Z</time>
      </trkpt>
      <trkpt lat="51.39213" lon="7.05783">
        <ele>93.259277</ele>
        <time>2023-04-26T12:27:54.282Z</time>
      </trkpt>
      <trkpt lat="51.39206" lon="7.05793">
        <ele>93.3107</ele>
        <time>2023-04-26T12:27:56.278Z</time>
      </trkpt>
      <trkpt lat="51.39198" lon="7.058">
        <ele>93.362287</ele>
        <time>2023-04-26T12:27:58.281Z</time>
      </trkpt>
      <trkpt lat="51.39189" lon="7.05806">
        <ele>93.417328</ele>
        <time>2023-04-26T12:28:00.289Z</time>
      </trkpt>
      <trkpt lat="51.3918" lon="7.05813">
        <ele>93.472875</ele>
        <time>2023-04-26T12:28:02.297Z</time>
      </trkpt>
      <trkpt lat="51.39171" lon="7.05819">
        <ele>93.526093</ele>
        <time>2023-04-26T12:28:04.300Z</time>
      </trkpt>
      <trkpt lat="51.39162" lon="7.05825">
        <ele>93.581644</ele>
        <time>2023-04-26T12:28:06.315Z</time>
      </trkpt>
      <trkpt lat="51.39153" lon="7.05831">
        <ele>93.636548</ele>
        <time>2023-04-26T12:28:08.281Z</time>
      </trkpt>
      <trkpt lat="51.39143" lon="7.05837">
        <ele>93.691994</ele>
        <time>2023-04-26T12:28:10.282Z</time>
      </trkpt>
      <trkpt lat="51.39134" lon="7.05843">
        <ele>93.750133</ele>
        <time>2023-04-26T12:28:12.291Z</time>
      </trkpt>
      <trkpt lat="51.39125" lon="7.0585">
        <ele>93.804018</ele>
        <time>2023-04-26T12:28:14.283Z</time>
      </trkpt>
      <trkpt lat="51.39116" lon="7.05856">
        <ele>93.815467</ele>
        <time>2023-04-26T12:28:16.289Z</time>
      </trkpt>
      <trkpt lat="51.39107" lon="7.05861">
        <ele>93.79503</ele>
        <time>2023-04-26T12:28:18.310Z</time>
      </trkpt>
      <trkpt lat="51.39099" lon="7.05868">
        <ele>93.775534</ele>
        <time>2023-04-26T12:28:20.300Z</time>
      </trkpt>
      <trkpt lat="51.39091" lon="7.05877">
        <ele>93.754874</ele>
        <time>2023-04-26T12:28:22.281Z</time>
      </trkpt>
      <trkpt lat="51.3908" lon="7.05891">
        <ele>93.725477</ele>
        <time>2023-04-26T12:28:25.269Z</time>
      </trkpt>
      <trkpt lat="51.39073" lon="7.05901">
        <ele>93.704023</ele>
        <time>2023-04-26T12:28:27.293Z</time>
      </trkpt>
      <trkpt lat="51.39067" lon="7.05914">
        <ele>93.682168</ele>
        <time>2023-04-26T12:28:29.296Z</time>
      </trkpt>
      <trkpt lat="51.39059" lon="7.05925">
        <ele>93.661123</ele>
        <time>2023-04-26T12:28:31.314Z</time>
      </trkpt>
      <trkpt lat="51.39052" lon="7.05933">
        <ele>93.64082</ele>
        <time>2023-04-26T12:28:33.280Z</time>
      </trkpt>
      <trkpt lat="51.39043" lon="7.05941">
        <ele>93.619934</ele>
        <time>2023-04-26T12:28:35.294Z</time>
      </trkpt>
      <trkpt lat="51.39034" lon="7.05948">
        <ele>93.598859</ele>
        <time>2023-04-26T12:28:37.295Z</time>
      </trkpt>
      <trkpt lat="51.39026" lon="7.05956">
        <ele>93.577455</ele>
        <time>2023-04-26T12:28:39.308Z</time>
      </trkpt>
      <trkpt lat="51.39017" lon="7.05963">
        <ele>93.555873</ele>
        <time>2023-04-26T12:28:41.278Z</time>
      </trkpt>
      <trkpt lat="51.39005" lon="7.05974">
        <ele>93.526571</ele>
        <time>2023-04-26T12:28:44.278Z</time>
      </trkpt>
      <trkpt lat="51.38996" lon="7.05982">
        <ele>93.505421</ele>
        <time>2023-04-26T12:28:46.277Z</time>
      </trkpt>
      <trkpt lat="51.38988" lon="7.05991">
        <ele>93.483596</ele>
        <time>2023-04-26T12:28:48.275Z</time>
      </trkpt>
      <trkpt lat="51.38979" lon="7.06">
        <ele>93.460682</ele>
        <time>2023-04-26T12:28:50.279Z</time>
      </trkpt>
      <trkpt lat="51.38971" lon="7.0601">
        <ele>93.43799</ele>
        <time>2023-04-26T12:28:52.285Z</time>
      </trkpt>
      <trkpt lat="51.38962" lon="7.0602">
        <ele>93.414972</ele>
        <time>2023-04-26T12:28:54.295Z</time>
      </trkpt>
      <trkpt lat="51.38954" lon="7.06029">
        <ele>93.392628</ele>
        <time>2023-04-26T12:28:56.304Z</time>
      </trkpt>
      <trkpt lat="51.38945" lon="7.0604">
        <ele>93.367894</ele>
        <time>2023-04-26T12:28:58.272Z</time>
      </trkpt>
      <trkpt lat="51.38936" lon="7.06052">
        <ele>93.343346</ele>
        <time>2023-04-26T12:29:00.275Z</time>
      </trkpt>
      <trkpt lat="51.38926" lon="7.06062">
        <ele>93.318242</ele>
        <time>2023-04-26T12:29:02.286Z</time>
      </trkpt>
      <trkpt lat="51.38917" lon="7.06072">
        <ele>93.294198</ele>
        <time>2023-04-26T12:29:04.294Z</time>
      </trkpt>
      <trkpt lat="51.38909" lon="7.06083">
        <ele>93.270176</ele>
        <time>2023-04-26T12:29:06.285Z</time>
      </trkpt>
      <trkpt lat="51.389" lon="7.06094">
        <ele>93.246497</ele>
        <time>2023-04-26T12:29:08.292Z</time>
      </trkpt>
      <trkpt lat="51.38892" lon="7.06104">
        <ele>93.223326</ele>
        <time>2023-04-26T12:29:10.309Z</time>
      </trkpt>
      <trkpt lat="51.38884" lon="7.06114">
        <ele>93.200583</ele>
        <time>2023-04-26T12:29:12.293Z</time>
      </trkpt>
      <trkpt lat="51.38876" lon="7.06126">
        <ele>93.176822</ele>
        <time>2023-04-26T12:29:14.289Z</time>
      </trkpt>
      <trkpt lat="51.38869" lon="7.06137">
        <ele>93.15548</ele>
        <time>2023-04-26T12:29:16.274Z</time>
      </trkpt>
      <trkpt lat="51.3886" lon="7.06149">
        <ele>93.130733</ele>
        <time>2023-04-26T12:29:18.295Z</time>
      </trkpt>
      <trkpt lat="51.38853" lon="7.06162">
        <ele>93.107898</ele>
        <time>2023-04-26T12:29:20.280Z</time>
      </trkpt>
      <trkpt lat="51.38846" lon="7.06175">
        <ele>93.083953</ele>
        <time>2023-04-26T12:29:22.289Z</time>
      </trkpt>
      <trkpt lat="51.38838" lon="7.06188">
        <ele>93.058582</ele>
        <time>2023-04-26T12:29:24.277Z</time>
      </trkpt>
      <trkpt lat="51.3883" lon="7.06201">
        <ele>93.135756</ele>
        <time>2023-04-26T12:29:26.320Z</time>
      </trkpt>
      <trkpt lat="51.38823" lon="7.06215">
        <ele>93.292197</ele>
        <time>2023-04-26T12:29:28.297Z</time>
      </trkpt>
      <trkpt lat="51.38816" lon="7.06229">
        <ele>93.451939</ele>
        <time>2023-04-26T12:29:30.292Z</time>
      </trkpt>
      <trkpt lat="51.38809" lon="7.06242">
        <ele>93.603178</ele>
        <time>2023-04-26T12:29:32.278Z</time>
      </trkpt>
      <trkpt lat="51.38802" lon="7.06256">
        <ele>93.754649</ele>
        <time>2023-04-26T12:29:34.296Z</time>
      </trkpt>
      <trkpt lat="51.38796" lon="7.0627">
        <ele>93.8991</ele>
        <time>2023-04-26T12:29:36.300Z</time>
      </trkpt>
      <trkpt lat="51.38789" lon="7.06284">
        <ele>94.057284</ele>
        <time>2023-04-26T12:29:38.290Z</time>
      </trkpt>
      <trkpt lat="51.38782" lon="7.06297">
        <ele>94.20457</ele>
        <time>2023-04-26T12:29:40.277Z</time>
      </trkpt>
      <trkpt lat="51.38775" lon="7.06309">
        <ele>94.347388</ele>
        <time>2023-04-26T12:29:42.297Z</time>
      </trkpt>
      <trkpt lat="51.38768" lon="7.06319">
        <ele>94.481842</ele>
        <time>2023-04-26T12:29:44.281Z</time>
      </trkpt>
      <trkpt lat="51.38762" lon="7.0633">
        <ele>94.613148</ele>
        <time>2023-04-26T12:29:46.283Z</time>
      </trkpt>
      <trkpt lat="51.38754" lon="7.06343">
        <ele>94.768364</ele>
        <time>2023-04-26T12:29:49.292Z</time>
      </trkpt>
      <trkpt lat="51.38748" lon="7.06354">
        <ele>94.898814</ele>
        <time>2023-04-26T12:29:51.288Z</time>
      </trkpt>
      <trkpt lat="51.38739" lon="7.0637">
        <ele>95.088444</ele>
        <time>2023-04-26T12:29:53.291Z</time>
      </trkpt>
      <trkpt lat="51.38731" lon="7.06386">
        <ele>95.264853</ele>
        <time>2023-04-26T12:29:55.293Z</time>
      </trkpt>
      <trkpt lat="51.38724" lon="7.064">
        <ele>95.418892</ele>
        <time>2023-04-26T12:29:57.308Z</time>
      </trkpt>
      <trkpt lat="51.38718" lon="7.06413">
        <ele>95.560767</ele>
        <time>2023-04-26T12:29:59.341Z</time>
      </trkpt>
      <trkpt lat="51.38712" lon="7.06426">
        <ele>95.598856</ele>
        <time>2023-04-26T12:30:01.287Z</time>
      </trkpt>
      <trkpt lat="51.38707" lon="7.0644">
        <ele>95.634037</ele>
        <time>2023-04-26T12:30:03.293Z</time>
      </trkpt>
      <trkpt lat="51.38702" lon="7.06455">
        <ele>95.669561</ele>
        <time>2023-04-26T12:30:05.282Z</time>
      </trkpt>
      <trkpt lat="51.38697" lon="7.06469">
        <ele>95.705269</ele>
        <time>2023-04-26T12:30:07.289Z</time>
      </trkpt>
      <trkpt lat="51.38692" lon="7.06483">
        <ele>95.741205</ele>
        <time>2023-04-26T12:30:09.287Z</time>
      </trkpt>
      <trkpt lat="51.38688" lon="7.06498">
        <ele>95.775413</ele>
        <time>2023-04-26T12:30:11.303Z</time>
      </trkpt>
      <trkpt lat="51.38684" lon="7.06512">
        <ele>95.808542</ele>
        <time>2023-04-26T12:30:13.293Z</time>
      </trkpt>
      <trkpt lat="51.3868" lon="7.06526">
        <ele>95.841231</ele>
        <time>2023-04-26T12:30:15.503Z</time>
      </trkpt>
      <trkpt lat="51.38676" lon="7.0654">
        <ele>95.875433</ele>
        <time>2023-04-26T12:30:17.286Z</time>
      </trkpt>
      <trkpt lat="51.38672" lon="7.06554">
        <ele>95.907874</ele>
        <time>2023-04-26T12:30:19.280Z</time>
      </trkpt>
      <trkpt lat="51.38668" lon="7.06568">
        <ele>95.941099</ele>
        <time>2023-04-26T12:30:21.283Z</time>
      </trkpt>
      <trkpt lat="51.38665" lon="7.06582">
        <ele>95.974522</ele>
        <time>2023-04-26T12:30:23.280Z</time>
      </trkpt>
      <trkpt lat="51.38661" lon="7.06596">
        <ele>96.006818</ele>
        <time>2023-04-26T12:30:25.284Z</time>
      </trkpt>
      <trkpt lat="51.38656" lon="7.0661">
        <ele>96.041761</ele>
        <time>2023-04-26T12:30:27.290Z</time>
      </trkpt>
      <trkpt lat="51.38652" lon="7.06626">
        <ele>96.078701</ele>
        <time>2023-04-26T12:30:29.289Z</time>
      </trkpt>
      <trkpt lat="51.38649" lon="7.06642">
        <ele>96.114337</ele>
        <time>2023-04-26T12:30:31.309Z</time>
      </trkpt>
      <trkpt lat="51.38645" lon="7.06658">
        <ele>96.151125</ele>
        <time>2023-04-26T12:30:33.270Z</time>
      </trkpt>
      <trkpt lat="51.38642" lon="7.06673">
        <ele>96.185753</ele>
        <time>2023-04-26T12:30:35.278Z</time>
      </trkpt>
      <trkpt lat="51.3864" lon="7.06689">
        <ele>96.175428</ele>
        <time>2023-04-26T12:30:37.285Z</time>
      </trkpt>
      <trkpt lat="51.38639" lon="7.06707">
        <ele>96.16429</ele>
        <time>2023-04-26T12:30:39.280Z</time>
      </trkpt>
      <trkpt lat="51.38639" lon="7.06723">
        <ele>96.15353</ele>
        <time>2023-04-26T12:30:41.280Z</time>
      </trkpt>
      <trkpt lat="51.38639" lon="7.0674">
        <ele>96.14264</ele>
        <time>2023-04-26T12:30:43.277Z</time>
      </trkpt>
      <trkpt lat="51.38639" lon="7.06757">
        <ele>96.13194</ele>
        <time>2023-04-26T12:30:45.292Z</time>
      </trkpt>
      <trkpt lat="51.3864" lon="7.06773">
        <ele>96.121674</ele>
        <time>2023-04-26T12:30:47.298Z</time>
      </trkpt>
      <trkpt lat="51.3864" lon="7.06789">
        <ele>96.111585</ele>
        <time>2023-04-26T12:30:49.287Z</time>
      </trkpt>
      <trkpt lat="51.38642" lon="7.06804">
        <ele>96.101695</ele>
        <time>2023-04-26T12:30:51.281Z</time>
      </trkpt>
      <trkpt lat="51.38643" lon="7.06826">
        <ele>96.087887</ele>
        <time>2023-04-26T12:30:54.286Z</time>
      </trkpt>
      <trkpt lat="51.38644" lon="7.06841">
        <ele>96.077725</ele>
        <time>2023-04-26T12:30:56.280Z</time>
      </trkpt>
      <trkpt lat="51.38644" lon="7.06857">
        <ele>96.067657</ele>
        <time>2023-04-26T12:30:58.294Z</time>
      </trkpt>
      <trkpt lat="51.38644" lon="7.06873">
        <ele>96.057727</ele>
        <time>2023-04-26T12:31:00.303Z</time>
      </trkpt>
      <trkpt lat="51.38645" lon="7.06889">
        <ele>96.047091</ele>
        <time>2023-04-26T12:31:02.297Z</time>
      </trkpt>
      <trkpt lat="51.38644" lon="7.06905">
        <ele>96.037034</ele>
        <time>2023-04-26T12:31:04.298Z</time>
      </trkpt>
      <trkpt lat="51.38645" lon="7.06921">
        <ele>96.026808</ele>
        <time>2023-04-26T12:31:06.261Z</time>
      </trkpt>
      <trkpt lat="51.38646" lon="7.06936">
        <ele>96.016719</ele>
        <time>2023-04-26T12:31:08.300Z</time>
      </trkpt>
      <trkpt lat="51.38647" lon="7.06951">
        <ele>96.007077</ele>
        <time>2023-04-26T12:31:10.284Z</time>
      </trkpt>
      <trkpt lat="51.38647" lon="7.06966">
        <ele>96.021053</ele>
        <time>2023-04-26T12:31:12.278Z</time>
      </trkpt>
      <trkpt lat="51.38648" lon="7.06982">
        <ele>96.07437</ele>
        <time>2023-04-26T12:31:14.289Z</time>
      </trkpt>
      <trkpt lat="51.38648" lon="7.06998">
        <ele>96.128291</ele>
        <time>2023-04-26T12:31:16.292Z</time>
      </trkpt>
      <trkpt lat="51.38649" lon="7.07013">
        <ele>96.18111</ele>
        <time>2023-04-26T12:31:18.280Z</time>
      </trkpt>
      <trkpt lat="51.3865" lon="7.07028">
        <ele>96.233115</ele>
        <time>2023-04-26T12:31:20.279Z</time>
      </trkpt>
      <trkpt lat="51.38651" lon="7.07044">
        <ele>96.287232</ele>
        <time>2023-04-26T12:31:22.299Z</time>
      </trkpt>
      <trkpt lat="51.38652" lon="7.07059">
        <ele>96.337749</ele>
        <time>2023-04-26T12:31:24.277Z</time>
      </trkpt>
      <trkpt lat="51.38652" lon="7.07074">
        <ele>96.388606</ele>
        <time>2023-04-26T12:31:26.271Z</time>
      </trkpt>
      <trkpt lat="51.38653" lon="7.0709">
        <ele>96.441212</ele>
        <time>2023-04-26T12:31:28.292Z</time>
      </trkpt>
      <trkpt lat="51.38654" lon="7.07105">
        <ele>96.494706</ele>
        <time>2023-04-26T12:31:30.266Z</time>
      </trkpt>
      <trkpt lat="51.38655" lon="7.07121">
        <ele>96.54646</ele>
        <time>2023-04-26T12:31:32.283Z</time>
      </trkpt>
      <trkpt lat="51.38656" lon="7.07136">
        <ele>96.599962</ele>
        <time>2023-04-26T12:31:34.278Z</time>
      </trkpt>
      <trkpt lat="51.38659" lon="7.0715">
        <ele>96.650604</ele>
        <time>2023-04-26T12:31:36.278Z</time>
      </trkpt>
      <trkpt lat="51.38663" lon="7.07165">
        <ele>96.702671</ele>
        <time>2023-04-26T12:31:38.292Z</time>
      </trkpt>
      <trkpt lat="51.38667" lon="7.07179">
        <ele>96.755019</ele>
        <time>2023-04-26T12:31:40.357Z</time>
      </trkpt>
      <trkpt lat="51.3867" lon="7.07193">
        <ele>96.806478</ele>
        <time>2023-04-26T12:31:42.277Z</time>
      </trkpt>
      <trkpt lat="51.38674" lon="7.07207">
        <ele>96.860357</ele>
        <time>2023-04-26T12:31:44.277Z</time>
      </trkpt>
      <trkpt lat="51.38679" lon="7.07222">
        <ele>96.915623</ele>
        <time>2023-04-26T12:31:46.275Z</time>
      </trkpt>
      <trkpt lat="51.38684" lon="7.07235">
        <ele>96.968253</ele>
        <time>2023-04-26T12:31:48.286Z</time>
      </trkpt>
      <trkpt lat="51.3869" lon="7.07249">
        <ele>97.01297</ele>
        <time>2023-04-26T12:31:50.291Z</time>
      </trkpt>
      <trkpt lat="51.38695" lon="7.07263">
        <ele>97.054319</ele>
        <time>2023-04-26T12:31:52.262Z</time>
      </trkpt>
      <trkpt lat="51.38699" lon="7.07278">
        <ele>97.096182</ele>
        <time>2023-04-26T12:31:54.299Z</time>
      </trkpt>
      <trkpt lat="51.38704" lon="7.07292">
        <ele>97.13687</ele>
        <time>2023-04-26T12:31:56.286Z</time>
      </trkpt>
      <trkpt lat="51.38709" lon="7.07306">
        <ele>97.178182</ele>
        <time>2023-04-26T12:31:58.288Z</time>
      </trkpt>
      <trkpt lat="51.38714" lon="7.0732">
        <ele>97.219757</ele>
        <time>2023-04-26T12:32:00.282Z</time>
      </trkpt>
      <trkpt lat="51.38719" lon="7.07335">
        <ele>97.260297</ele>
        <time>2023-04-26T12:32:02.283Z</time>
      </trkpt>
      <trkpt lat="51.38724" lon="7.07348">
        <ele>97.300103</ele>
        <time>2023-04-26T12:32:04.258Z</time>
      </trkpt>
      <trkpt lat="51.38729" lon="7.07362">
        <ele>97.342295</ele>
        <time>2023-04-26T12:32:06.293Z</time>
      </trkpt>
      <trkpt lat="51.38734" lon="7.07377">
        <ele>97.38389</ele>
        <time>2023-04-26T12:32:08.291Z</time>
      </trkpt>
      <trkpt lat="51.38739" lon="7.07391">
        <ele>97.426743</ele>
        <time>2023-04-26T12:32:10.305Z</time>
      </trkpt>
      <trkpt lat="51.38744" lon="7.07407">
        <ele>97.471343</ele>
        <time>2023-04-26T12:32:12.286Z</time>
      </trkpt>
      <trkpt lat="51.38749" lon="7.07421">
        <ele>97.512272</ele>
        <time>2023-04-26T12:32:14.282Z</time>
      </trkpt>
      <trkpt lat="51.38755" lon="7.07435">
        <ele>97.555094</ele>
        <time>2023-04-26T12:32:16.272Z</time>
      </trkpt>
      <trkpt lat="51.3876" lon="7.07449">
        <ele>97.596222</ele>
        <time>2023-04-26T12:32:18.292Z</time>
      </trkpt>
      <trkpt lat="51.38765" lon="7.07463">
        <ele>97.63669</ele>
        <time>2023-04-26T12:32:20.278Z</time>
      </trkpt>
      <trkpt lat="51.38771" lon="7.07477">
        <ele>97.679785</ele>
        <time>2023-04-26T12:32:22.280Z</time>
      </trkpt>
      <trkpt lat="51.38779" lon="7.07489">
        <ele>97.707138</ele>
        <time>2023-04-26T12:32:24.282Z</time>
      </trkpt>
      <trkpt lat="51.38787" lon="7.07501">
        <ele>97.700834</ele>
        <time>2023-04-26T12:32:26.281Z</time>
      </trkpt>
      <trkpt lat="51.38796" lon="7.07511">
        <ele>97.694668</ele>
        <time>2023-04-26T12:32:28.309Z</time>
      </trkpt>
      <trkpt lat="51.38805" lon="7.07521">
        <ele>97.688722</ele>
        <time>2023-04-26T12:32:30.275Z</time>
      </trkpt>
      <trkpt lat="51.38815" lon="7.07529">
        <ele>97.682164</ele>
        <time>2023-04-26T12:32:32.274Z</time>
      </trkpt>
      <trkpt lat="51.38826" lon="7.07534">
        <ele>97.675796</ele>
        <time>2023-04-26T12:32:34.275Z</time>
      </trkpt>
      <trkpt lat="51.38836" lon="7.07537">
        <ele>97.66993</ele>
        <time>2023-04-26T12:32:36.277Z</time>
      </trkpt>
      <trkpt lat="51.38846" lon="7.07539">
        <ele>97.663821</ele>
        <time>2023-04-26T12:32:38.301Z</time>
      </trkpt>
      <trkpt lat="51.38857" lon="7.07538">
        <ele>97.657566</ele>
        <time>2023-04-26T12:32:40.283Z</time>
      </trkpt>
      <trkpt lat="51.38868" lon="7.07538">
        <ele>97.65154</ele>
        <time>2023-04-26T12:32:42.284Z</time>
      </trkpt>
      <trkpt lat="51.38879" lon="7.07538">
        <ele>97.645286</ele>
        <time>2023-04-26T12:32:44.307Z</time>
      </trkpt>
      <trkpt lat="51.3889" lon="7.07539">
        <ele>97.638966</ele>
        <time>2023-04-26T12:32:46.285Z</time>
      </trkpt>
      <trkpt lat="51.38901" lon="7.07542">
        <ele>97.632584</ele>
        <time>2023-04-26T12:32:48.297Z</time>
      </trkpt>
      <trkpt lat="51.38912" lon="7.07543">
        <ele>97.626191</ele>
        <time>2023-04-26T12:32:50.276Z</time>
      </trkpt>
      <trkpt lat="51.38923" lon="7.07544">
        <ele>97.619924</ele>
        <time>2023-04-26T12:32:52.294Z</time>
      </trkpt>
      <trkpt lat="51.38934" lon="7.07547">
        <ele>97.613735</ele>
        <time>2023-04-26T12:32:54.280Z</time>
      </trkpt>
      <trkpt lat="51.38945" lon="7.07549">
        <ele>97.607475</ele>
        <time>2023-04-26T12:32:56.282Z</time>
      </trkpt>
      <trkpt lat="51.38956" lon="7.07551">
        <ele>97.660844</ele>
        <time>2023-04-26T12:32:58.287Z</time>
      </trkpt>
      <trkpt lat="51.38967" lon="7.07553">
        <ele>97.721182</ele>
        <time>2023-04-26T12:33:00.368Z</time>
      </trkpt>
      <trkpt lat="51.38978" lon="7.07555">
        <ele>97.780509</ele>
        <time>2023-04-26T12:33:02.275Z</time>
      </trkpt>
      <trkpt lat="51.38989" lon="7.07557">
        <ele>97.84096</ele>
        <time>2023-04-26T12:33:04.285Z</time>
      </trkpt>
      <trkpt lat="51.38999" lon="7.07559">
        <ele>97.898661</ele>
        <time>2023-04-26T12:33:06.279Z</time>
      </trkpt>
      <trkpt lat="51.39009" lon="7.07561">
        <ele>97.954238</ele>
        <time>2023-04-26T12:33:08.284Z</time>
      </trkpt>
      <trkpt lat="51.39019" lon="7.07563">
        <ele>98.009589</ele>
        <time>2023-04-26T12:33:10.279Z</time>
      </trkpt>
      <trkpt lat="51.39029" lon="7.07564">
        <ele>98.061138</ele>
        <time>2023-04-26T12:33:12.305Z</time>
      </trkpt>
      <trkpt lat="51.39041" lon="7.07566">
        <ele>98.12976</ele>
        <time>2023-04-26T12:33:15.310Z</time>
      </trkpt>
      <trkpt lat="51.39053" lon="7.07569">
        <ele>98.197461</ele>
        <time>2023-04-26T12:33:18.290Z</time>
      </trkpt>
      <trkpt lat="51.39063" lon="7.07571">
        <ele>98.248666</ele>
        <time>2023-04-26T12:33:20.305Z</time>
      </trkpt>
      <trkpt lat="51.39073" lon="7.07574">
        <ele>98.306644</ele>
        <time>2023-04-26T12:33:22.278Z</time>
      </trkpt>
      <trkpt lat="51.39084" lon="7.07576">
        <ele>98.367179</ele>
        <time>2023-04-26T12:33:24.280Z</time>
      </trkpt>
      <trkpt lat="51.39095" lon="7.07579">
        <ele>98.425209</ele>
        <time>2023-04-26T12:33:26.292Z</time>
      </trkpt>
      <trkpt lat="51.39105" lon="7.07581">
        <ele>98.481913</ele>
        <time>2023-04-26T12:33:28.304Z</time>
      </trkpt>
      <trkpt lat="51.39115" lon="7.07583">
        <ele>98.537447</ele>
        <time>2023-04-26T12:33:30.291Z</time>
      </trkpt>
      <trkpt lat="51.39125" lon="7.07585">
        <ele>98.594029</ele>
        <time>2023-04-26T12:33:32.314Z</time>
      </trkpt>
      <trkpt lat="51.39134" lon="7.07587">
        <ele>98.713898</ele>
        <time>2023-04-26T12:33:34.366Z</time>
      </trkpt>
      <trkpt lat="51.39144" lon="7.0759">
        <ele>98.838305</ele>
        <time>2023-04-26T12:33:36.278Z</time>
      </trkpt>
      <trkpt lat="51.39153" lon="7.07594">
        <ele>98.959834</ele>
        <time>2023-04-26T12:33:38.309Z</time>
      </trkpt>
      <trkpt lat="51.39163" lon="7.07596">
        <ele>99.078219</ele>
        <time>2023-04-26T12:33:40.281Z</time>
      </trkpt>
      <trkpt lat="51.39172" lon="7.07599">
        <ele>99.197384</ele>
        <time>2023-04-26T12:33:42.287Z</time>
      </trkpt>
      <trkpt lat="51.39182" lon="7.07601">
        <ele>99.319864</ele>
        <time>2023-04-26T12:33:44.294Z</time>
      </trkpt>
      <trkpt lat="51.39191" lon="7.07604">
        <ele>99.44165</ele>
        <time>2023-04-26T12:33:46.291Z</time>
      </trkpt>
      <trkpt lat="51.39201" lon="7.07608">
        <ele>99.570223</ele>
        <time>2023-04-26T12:33:48.308Z</time>
      </trkpt>
      <trkpt lat="51.3921" lon="7.07611">
        <ele>99.685388</ele>
        <time>2023-04-26T12:33:50.407Z</time>
      </trkpt>
      <trkpt lat="51.39223" lon="7.07615">
        <ele>99.850583</ele>
        <time>2023-04-26T12:33:53.289Z</time>
      </trkpt>
      <trkpt lat="51.39235" lon="7.0762">
        <ele>100.005506</ele>
        <time>2023-04-26T12:33:56.283Z</time>
      </trkpt>
      <trkpt lat="51.39248" lon="7.07627">
        <ele>100.18302</ele>
        <time>2023-04-26T12:33:59.304Z</time>
      </trkpt>
      <trkpt lat="51.39257" lon="7.0763">
        <ele>100.303322</ele>
        <time>2023-04-26T12:34:01.261Z</time>
      </trkpt>
      <trkpt lat="51.3927" lon="7.07637">
        <ele>100.475051</ele>
        <time>2023-04-26T12:34:04.290Z</time>
      </trkpt>
      <trkpt lat="51.39281" lon="7.07649">
        <ele>100.64203</ele>
        <time>2023-04-26T12:34:07.304Z</time>
      </trkpt>
      <trkpt lat="51.3929" lon="7.07655">
        <ele>100.761109</ele>
        <time>2023-04-26T12:34:09.284Z</time>
      </trkpt>
      <trkpt lat="51.39297" lon="7.07667">
        <ele>100.883778</ele>
        <time>2023-04-26T12:34:12.290Z</time>
      </trkpt>
      <trkpt lat="51.39287" lon="7.07664">
        <ele>101.004249</ele>
        <time>2023-04-26T12:34:16.287Z</time>
      </trkpt>
      <trkpt lat="51.39278" lon="7.07658">
        <ele>101.114417</ele>
        <time>2023-04-26T12:34:20.295Z</time>
      </trkpt>
      <trkpt lat="51.39267" lon="7.07653">
        <ele>101.235658</ele>
        <time>2023-04-26T12:34:24.282Z</time>
      </trkpt>
      <trkpt lat="51.39258" lon="7.07649">
        <ele>101.351425</ele>
        <time>2023-04-26T12:34:28.280Z</time>
      </trkpt>
      <trkpt lat="51.39252" lon="7.07634">
        <ele>101.47452</ele>
        <time>2023-04-26T12:34:32.272Z</time>
      </trkpt>
      <trkpt lat="51.3925" lon="7.0762">
        <ele>101.579592</ele>
        <time>2023-04-26T12:34:35.273Z</time>
      </trkpt>
      <trkpt lat="51.39248" lon="7.07605">
        <ele>101.683969</ele>
        <time>2023-04-26T12:34:38.286Z</time>
      </trkpt>
      <trkpt lat="51.39244" lon="7.0759">
        <ele>101.797549</ele>
        <time>2023-04-26T12:34:41.293Z</time>
      </trkpt>
      <trkpt lat="51.39241" lon="7.07575">
        <ele>101.914566</ele>
        <time>2023-04-26T12:34:44.305Z</time>
      </trkpt>
      <trkpt lat="51.39238" lon="7.07557">
        <ele>102.040625</ele>
        <time>2023-04-26T12:34:47.312Z</time>
      </trkpt>
      <trkpt lat="51.39232" lon="7.0754">
        <ele>102.180199</ele>
        <time>2023-04-26T12:34:50.287Z</time>
      </trkpt>
      <trkpt lat="51.39227" lon="7.07522">
        <ele>102.318297</ele>
        <time>2023-04-26T12:34:53.288Z</time>
      </trkpt>
      <trkpt lat="51.39223" lon="7.07505">
        <ele>102.448739</ele>
        <time>2023-04-26T12:34:56.281Z</time>
      </trkpt>
      <trkpt lat="51.3922" lon="7.0749">
        <ele>102.56006</ele>
        <time>2023-04-26T12:34:59.274Z</time>
      </trkpt>
      <trkpt lat="51.39215" lon="7.07472">
        <ele>102.699076</ele>
        <time>2023-04-26T12:35:02.270Z</time>
      </trkpt>
      <trkpt lat="51.39211" lon="7.07455">
        <ele>102.82565</ele>
        <time>2023-04-26T12:35:05.294Z</time>
      </trkpt>
      <trkpt lat="51.39207" lon="7.07438">
        <ele>102.788818</ele>
        <time>2023-04-26T12:35:09.296Z</time>
      </trkpt>
      <trkpt lat="51.39203" lon="7.07421">
        <ele>102.588208</ele>
        <time>2023-04-26T12:35:12.284Z</time>
      </trkpt>
      <trkpt lat="51.39198" lon="7.07402">
        <ele>102.364416</ele>
        <time>2023-04-26T12:35:15.288Z</time>
      </trkpt>
      <trkpt lat="51.39193" lon="7.07383">
        <ele>102.13035</ele>
        <time>2023-04-26T12:35:18.285Z</time>
      </trkpt>
      <trkpt lat="51.3919" lon="7.07364">
        <ele>101.904231</ele>
        <time>2023-04-26T12:35:21.297Z</time>
      </trkpt>
      <trkpt lat="51.39185" lon="7.07346">
        <ele>101.67929</ele>
        <time>2023-04-26T12:35:24.284Z</time>
      </trkpt>
      <trkpt lat="51.39181" lon="7.07331">
        <ele>101.49743</ele>
        <time>2023-04-26T12:35:27.284Z</time>
      </trkpt>
      <trkpt lat="51.39178" lon="7.07315">
        <ele>101.309978</ele>
        <time>2023-04-26T12:35:31.301Z</time>
      </trkpt>
      <trkpt lat="51.39187" lon="7.07307">
        <ele>101.120725</ele>
        <time>2023-04-26T12:35:35.296Z</time>
      </trkpt>
      <trkpt lat="51.392" lon="7.07306">
        <ele>100.889668</ele>
        <time>2023-04-26T12:35:37.306Z</time>
      </trkpt>
      <trkpt lat="51.39212" lon="7.07304">
        <ele>100.673419</ele>
        <time>2023-04-26T12:35:39.283Z</time>
      </trkpt>
      <trkpt lat="51.39226" lon="7.07299">
        <ele>100.416568</ele>
        <time>2023-04-26T12:35:41.302Z</time>
      </trkpt>
      <trkpt lat="51.39239" lon="7.07293">
        <ele>100.16165</ele>
        <time>2023-04-26T12:35:43.307Z</time>
      </trkpt>
      <trkpt lat="51.39251" lon="7.07286">
        <ele>99.932707</ele>
        <time>2023-04-26T12:35:45.290Z</time>
      </trkpt>
      <trkpt lat="51.39261" lon="7.07278">
        <ele>99.731796</ele>
        <time>2023-04-26T12:35:47.284Z</time>
      </trkpt>
      <trkpt lat="51.39269" lon="7.07271">
        <ele>99.66881</ele>
        <time>2023-04-26T12:35:49.279Z</time>
      </trkpt>
      <trkpt lat="51.39281" lon="7.07278">
        <ele>99.71417</ele>
        <time>2023-04-26T12:35:52.286Z</time>
      </trkpt>
      <trkpt lat="51.3929" lon="7.07287">
        <ele>99.757357</ele>
        <time>2023-04-26T12:35:55.263Z</time>
      </trkpt>
      <trkpt lat="51.39301" lon="7.07298">
        <ele>99.805034</ele>
        <time>2023-04-26T12:35:58.284Z</time>
      </trkpt>
      <trkpt lat="51.39312" lon="7.07308">
        <ele>99.855489</ele>
        <time>2023-04-26T12:36:01.317Z</time>
      </trkpt>
      <trkpt lat="51.39323" lon="7.07319">
        <ele>99.905211</ele>
        <time>2023-04-26T12:36:04.290Z</time>
      </trkpt>
      <trkpt lat="51.39331" lon="7.07329">
        <ele>99.940888</ele>
        <time>2023-04-26T12:36:06.304Z</time>
      </trkpt>
      <trkpt lat="51.39341" lon="7.0734">
        <ele>99.989075</ele>
        <time>2023-04-26T12:36:09.273Z</time>
      </trkpt>
      <trkpt lat="51.39351" lon="7.0735">
        <ele>100.033276</ele>
        <time>2023-04-26T12:36:12.284Z</time>
      </trkpt>
      <trkpt lat="51.39359" lon="7.07361">
        <ele>100.07267</ele>
        <time>2023-04-26T12:36:15.287Z</time>
      </trkpt>
      <trkpt lat="51.39367" lon="7.07373">
        <ele>100.11409</ele>
        <time>2023-04-26T12:36:18.286Z</time>
      </trkpt>
      <trkpt lat="51.39376" lon="7.07385">
        <ele>100.159897</ele>
        <time>2023-04-26T12:36:21.304Z</time>
      </trkpt>
      <trkpt lat="51.39384" lon="7.07393">
        <ele>100.194757</ele>
        <time>2023-04-26T12:36:23.294Z</time>
      </trkpt>
      <trkpt lat="51.39392" lon="7.07403">
        <ele>100.234035</ele>
        <time>2023-04-26T12:36:25.279Z</time>
      </trkpt>
      <trkpt lat="51.394" lon="7.07413">
        <ele>100.27165</ele>
        <time>2023-04-26T12:36:27.288Z</time>
      </trkpt>
      <trkpt lat="51.39407" lon="7.07422">
        <ele>100.30782</ele>
        <time>2023-04-26T12:36:29.284Z</time>
      </trkpt>
      <trkpt lat="51.39416" lon="7.0743">
        <ele>100.338699</ele>
        <time>2023-04-26T12:36:31.299Z</time>
      </trkpt>
      <trkpt lat="51.39424" lon="7.07437">
        <ele>100.352145</ele>
        <time>2023-04-26T12:36:33.288Z</time>
      </trkpt>
      <trkpt lat="51.39432" lon="7.07444">
        <ele>100.364966</ele>
        <time>2023-04-26T12:36:35.289Z</time>
      </trkpt>
      <trkpt lat="51.39441" lon="7.07449">
        <ele>100.378184</ele>
        <time>2023-04-26T12:36:37.295Z</time>
      </trkpt>
      <trkpt lat="51.39449" lon="7.07455">
        <ele>100.39127</ele>
        <time>2023-04-26T12:36:39.336Z</time>
      </trkpt>
      <trkpt lat="51.39459" lon="7.07459">
        <ele>100.405849</ele>
        <time>2023-04-26T12:36:41.305Z</time>
      </trkpt>
      <trkpt lat="51.3947" lon="7.07465">
        <ele>100.421891</ele>
        <time>2023-04-26T12:36:43.285Z</time>
      </trkpt>
      <trkpt lat="51.3948" lon="7.07469">
        <ele>100.43751</ele>
        <time>2023-04-26T12:36:45.282Z</time>
      </trkpt>
      <trkpt lat="51.39491" lon="7.07475">
        <ele>100.453578</ele>
        <time>2023-04-26T12:36:47.293Z</time>
      </trkpt>
      <trkpt lat="51.39503" lon="7.07481">
        <ele>100.470835</ele>
        <time>2023-04-26T12:36:49.292Z</time>
      </trkpt>
      <trkpt lat="51.39513" lon="7.07484">
        <ele>100.485631</ele>
        <time>2023-04-26T12:36:51.285Z</time>
      </trkpt>
      <trkpt lat="51.39524" lon="7.07489">
        <ele>100.502554</ele>
        <time>2023-04-26T12:36:53.298Z</time>
      </trkpt>
      <trkpt lat="51.39536" lon="7.07494">
        <ele>100.51934</ele>
        <time>2023-04-26T12:36:55.317Z</time>
      </trkpt>
      <trkpt lat="51.39548" lon="7.07499">
        <ele>100.536725</ele>
        <time>2023-04-26T12:36:57.264Z</time>
      </trkpt>
      <trkpt lat="51.39558" lon="7.07502">
        <ele>100.552095</ele>
        <time>2023-04-26T12:36:59.304Z</time>
      </trkpt>
      <trkpt lat="51.39567" lon="7.07503">
        <ele>100.564897</ele>
        <time>2023-04-26T12:37:01.282Z</time>
      </trkpt>
      <trkpt lat="51.39577" lon="7.07505">
        <ele>100.578049</ele>
        <time>2023-04-26T12:37:03.287Z</time>
      </trkpt>
      <trkpt lat="51.39586" lon="7.0751">
        <ele>100.59521</ele>
        <time>2023-04-26T12:37:05.293Z</time>
      </trkpt>
      <trkpt lat="51.39596" lon="7.07515">
        <ele>100.640274</ele>
        <time>2023-04-26T12:37:07.301Z</time>
      </trkpt>
      <trkpt lat="51.39605" lon="7.07519">
        <ele>100.682628</ele>
        <time>2023-04-26T12:37:09.295Z</time>
      </trkpt>
      <trkpt lat="51.39615" lon="7.07522">
        <ele>100.72335</ele>
        <time>2023-04-26T12:37:11.358Z</time>
      </trkpt>
      <trkpt lat="51.39624" lon="7.07526">
        <ele>100.763406</ele>
        <time>2023-04-26T12:37:13.279Z</time>
      </trkpt>
      <trkpt lat="51.39633" lon="7.0753">
        <ele>100.805275</ele>
        <time>2023-04-26T12:37:15.273Z</time>
      </trkpt>
      <trkpt lat="51.39641" lon="7.07535">
        <ele>100.84463</ele>
        <time>2023-04-26T12:37:17.281Z</time>
      </trkpt>
      <trkpt lat="51.39651" lon="7.07539">
        <ele>100.885668</ele>
        <time>2023-04-26T12:37:19.292Z</time>
      </trkpt>
      <trkpt lat="51.3966" lon="7.07546">
        <ele>100.928368</ele>
        <time>2023-04-26T12:37:21.286Z</time>
      </trkpt>
      <trkpt lat="51.39668" lon="7.07553">
        <ele>100.969064</ele>
        <time>2023-04-26T12:37:23.285Z</time>
      </trkpt>
      <trkpt lat="51.3968" lon="7.07564">
        <ele>101.029614</ele>
        <time>2023-04-26T12:37:26.279Z</time>
      </trkpt>
      <trkpt lat="51.39688" lon="7.07571">
        <ele>101.069704</ele>
        <time>2023-04-26T12:37:28.390Z</time>
      </trkpt>
      <trkpt lat="51.39697" lon="7.07578">
        <ele>101.113021</ele>
        <time>2023-04-26T12:37:30.289Z</time>
      </trkpt>
      <trkpt lat="51.39705" lon="7.07586">
        <ele>101.152568</ele>
        <time>2023-04-26T12:37:32.279Z</time>
      </trkpt>
      <trkpt lat="51.39713" lon="7.07593">
        <ele>101.192503</ele>
        <time>2023-04-26T12:37:34.295Z</time>
      </trkpt>
      <trkpt lat="51.39725" lon="7.07601">
        <ele>101.247632</ele>
        <time>2023-04-26T12:37:37.280Z</time>
      </trkpt>
      <trkpt lat="51.39734" lon="7.07606">
        <ele>101.288426</ele>
        <time>2023-04-26T12:37:39.296Z</time>
      </trkpt>
      <trkpt lat="51.39746" lon="7.07613">
        <ele>101.343304</ele>
        <time>2023-04-26T12:37:42.288Z</time>
      </trkpt>
      <trkpt lat="51.39755" lon="7.07616">
        <ele>101.412058</ele>
        <time>2023-04-26T12:37:44.287Z</time>
      </trkpt>
      <trkpt lat="51.39764" lon="7.07618">
        <ele>101.53262</ele>
        <time>2023-04-26T12:37:46.384Z</time>
      </trkpt>
      <trkpt lat="51.39776" lon="7.07621">
        <ele>101.686168</ele>
        <time>2023-04-26T12:37:49.287Z</time>
      </trkpt>
      <trkpt lat="51.39789" lon="7.07623">
        <ele>101.846791</ele>
        <time>2023-04-26T12:37:52.278Z</time>
      </trkpt>
      <trkpt lat="51.39801" lon="7.0762">
        <ele>102.012051</ele>
        <time>2023-04-26T12:37:55.279Z</time>
      </trkpt>
      <trkpt lat="51.39811" lon="7.07618">
        <ele>102.130331</ele>
        <time>2023-04-26T12:37:57.283Z</time>
      </trkpt>
      <trkpt lat="51.3982" lon="7.07616">
        <ele>102.248491</ele>
        <time>2023-04-26T12:37:59.311Z</time>
      </trkpt>
      <trkpt lat="51.39832" lon="7.07611">
        <ele>102.40374</ele>
        <time>2023-04-26T12:38:02.303Z</time>
      </trkpt>
      <trkpt lat="51.39844" lon="7.07603">
        <ele>102.574862</ele>
        <time>2023-04-26T12:38:05.292Z</time>
      </trkpt>
      <trkpt lat="51.39853" lon="7.07598">
        <ele>102.694863</ele>
        <time>2023-04-26T12:38:07.262Z</time>
      </trkpt>
      <trkpt lat="51.39866" lon="7.07591">
        <ele>102.866876</ele>
        <time>2023-04-26T12:38:10.277Z</time>
      </trkpt>
      <trkpt lat="51.39879" lon="7.07587">
        <ele>103.031444</ele>
        <time>2023-04-26T12:38:13.279Z</time>
      </trkpt>
      <trkpt lat="51.39891" lon="7.07583">
        <ele>103.192773</ele>
        <time>2023-04-26T12:38:16.282Z</time>
      </trkpt>
      <trkpt lat="51.39901" lon="7.07581">
        <ele>103.319735</ele>
        <time>2023-04-26T12:38:18.282Z</time>
      </trkpt>
      <trkpt lat="51.39911" lon="7.07582">
        <ele>103.451905</ele>
        <time>2023-04-26T12:38:20.291Z</time>
      </trkpt>
      <trkpt lat="51.39924" lon="7.07583">
        <ele>103.610931</ele>
        <time>2023-04-26T12:38:23.362Z</time>
      </trkpt>
      <trkpt lat="51.39935" lon="7.07584">
        <ele>103.643382</ele>
        <time>2023-04-26T12:38:26.278Z</time>
      </trkpt>
      <trkpt lat="51.39947" lon="7.07588">
        <ele>103.628096</ele>
        <time>2023-04-26T12:38:29.285Z</time>
      </trkpt>
      <trkpt lat="51.39959" lon="7.07583">
        <ele>103.612534</ele>
        <time>2023-04-26T12:38:32.277Z</time>
      </trkpt>
      <trkpt lat="51.39969" lon="7.0758">
        <ele>103.599081</ele>
        <time>2023-04-26T12:38:35.294Z</time>
      </trkpt>
      <trkpt lat="51.39978" lon="7.07578">
        <ele>103.587307</ele>
        <time>2023-04-26T12:38:38.275Z</time>
      </trkpt>
      <trkpt lat="51.39988" lon="7.07574">
        <ele>103.574425</ele>
        <time>2023-04-26T12:38:42.283Z</time>
      </trkpt>
      <trkpt lat="51.39999" lon="7.07569">
        <ele>103.559901</ele>
        <time>2023-04-26T12:38:46.267Z</time>
      </trkpt>
      <trkpt lat="51.40008" lon="7.07562">
        <ele>103.546419</ele>
        <time>2023-04-26T12:38:50.287Z</time>
      </trkpt>
      <trkpt lat="51.40018" lon="7.07556">
        <ele>103.533199</ele>
        <time>2023-04-26T12:38:54.295Z</time>
      </trkpt>
      <trkpt lat="51.40029" lon="7.07557">
        <ele>103.519058</ele>
        <time>2023-04-26T12:39:00.296Z</time>
      </trkpt>
      <trkpt lat="51.40038" lon="7.07563">
        <ele>103.506044</ele>
        <time>2023-04-26T12:39:05.297Z</time>
      </trkpt>
      <trkpt lat="51.40048" lon="7.0756">
        <ele>103.492819</ele>
        <time>2023-04-26T12:39:10.304Z</time>
      </trkpt>
      <trkpt lat="51.40059" lon="7.07558">
        <ele>103.478768</ele>
        <time>2023-04-26T12:39:15.287Z</time>
      </trkpt>
      <trkpt lat="51.40068" lon="7.07557">
        <ele>103.467204</ele>
        <time>2023-04-26T12:39:19.313Z</time>
      </trkpt>
      <trkpt lat="51.40077" lon="7.07562">
        <ele>103.455328</ele>
        <time>2023-04-26T12:39:26.273Z</time>
      </trkpt>
      <trkpt lat="51.4008" lon="7.07576">
        <ele>103.443293</ele>
        <time>2023-04-26T12:40:33.264Z</time>
      </trkpt>
      <trkpt lat="51.40092" lon="7.07575">
        <ele>103.428136</ele>
        <time>2023-04-26T12:40:39.262Z</time>
      </trkpt>
      <trkpt lat="51.40101" lon="7.07574">
        <ele>103.407485</ele>
        <time>2023-04-26T12:40:42.276Z</time>
      </trkpt>
      <trkpt lat="51.40113" lon="7.07573">
        <ele>103.373403</ele>
        <time>2023-04-26T12:40:45.298Z</time>
      </trkpt>
      <trkpt lat="51.40124" lon="7.07573">
        <ele>103.339909</ele>
        <time>2023-04-26T12:40:48.309Z</time>
      </trkpt>
      <trkpt lat="51.40138" lon="7.07574">
        <ele>103.30205</ele>
        <time>2023-04-26T12:40:51.285Z</time>
      </trkpt>
      <trkpt lat="51.40151" lon="7.07574">
        <ele>103.263927</ele>
        <time>2023-04-26T12:40:54.307Z</time>
      </trkpt>
      <trkpt lat="51.4016" lon="7.07573">
        <ele>103.237275</ele>
        <time>2023-04-26T12:40:56.286Z</time>
      </trkpt>
      <trkpt lat="51.40173" lon="7.07573">
        <ele>103.198564</ele>
        <time>2023-04-26T12:40:59.304Z</time>
      </trkpt>
      <trkpt lat="51.40183" lon="7.07573">
        <ele>103.171423</ele>
        <time>2023-04-26T12:41:01.289Z</time>
      </trkpt>
      <trkpt lat="51.40193" lon="7.07574">
        <ele>103.142792</ele>
        <time>2023-04-26T12:41:03.289Z</time>
      </trkpt>
      <trkpt lat="51.40206" lon="7.07573">
        <ele>103.104627</ele>
        <time>2023-04-26T12:41:06.280Z</time>
      </trkpt>
      <trkpt lat="51.40216" lon="7.07572">
        <ele>103.076592</ele>
        <time>2023-04-26T12:41:08.268Z</time>
      </trkpt>
      <trkpt lat="51.40225" lon="7.07571">
        <ele>103.049077</ele>
        <time>2023-04-26T12:41:10.282Z</time>
      </trkpt>
      <trkpt lat="51.40238" lon="7.07571">
        <ele>103.010386</ele>
        <time>2023-04-26T12:41:13.289Z</time>
      </trkpt>
      <trkpt lat="51.40248" lon="7.0757">
        <ele>102.982908</ele>
        <time>2023-04-26T12:41:15.285Z</time>
      </trkpt>
      <trkpt lat="51.40257" lon="7.07569">
        <ele>102.955719</ele>
        <time>2023-04-26T12:41:17.296Z</time>
      </trkpt>
      <trkpt lat="51.40267" lon="7.07568">
        <ele>102.929036</ele>
        <time>2023-04-26T12:41:19.285Z</time>
      </trkpt>
      <trkpt lat="51.40276" lon="7.07566">
        <ele>102.904821</ele>
        <time>2023-04-26T12:41:21.381Z</time>
      </trkpt>
      <trkpt lat="51.40286" lon="7.07564">
        <ele>102.920097</ele>
        <time>2023-04-26T12:41:23.297Z</time>
      </trkpt>
      <trkpt lat="51.40295" lon="7.07562">
        <ele>102.934329</ele>
        <time>2023-04-26T12:41:25.280Z</time>
      </trkpt>
      <trkpt lat="51.40305" lon="7.07559">
        <ele>102.949159</ele>
        <time>2023-04-26T12:41:27.281Z</time>
      </trkpt>
      <trkpt lat="51.40315" lon="7.07557">
        <ele>102.964195</ele>
        <time>2023-04-26T12:41:29.282Z</time>
      </trkpt>
      <trkpt lat="51.40324" lon="7.07554">
        <ele>102.978526</ele>
        <time>2023-04-26T12:41:31.278Z</time>
      </trkpt>
      <trkpt lat="51.40333" lon="7.07552">
        <ele>102.992425</ele>
        <time>2023-04-26T12:41:33.306Z</time>
      </trkpt>
      <trkpt lat="51.40342" lon="7.07549">
        <ele>103.006441</ele>
        <time>2023-04-26T12:41:35.287Z</time>
      </trkpt>
      <trkpt lat="51.40352" lon="7.07546">
        <ele>103.020955</ele>
        <time>2023-04-26T12:41:37.327Z</time>
      </trkpt>
      <trkpt lat="51.40361" lon="7.07543">
        <ele>103.035505</ele>
        <time>2023-04-26T12:41:39.289Z</time>
      </trkpt>
      <trkpt lat="51.40371" lon="7.07541">
        <ele>103.05069</ele>
        <time>2023-04-26T12:41:41.299Z</time>
      </trkpt>
      <trkpt lat="51.4038" lon="7.07538">
        <ele>103.065408</ele>
        <time>2023-04-26T12:41:43.285Z</time>
      </trkpt>
      <trkpt lat="51.4039" lon="7.07535">
        <ele>103.08072</ele>
        <time>2023-04-26T12:41:45.275Z</time>
      </trkpt>
      <trkpt lat="51.404" lon="7.07532">
        <ele>103.096071</ele>
        <time>2023-04-26T12:41:47.303Z</time>
      </trkpt>
      <trkpt lat="51.4041" lon="7.07529">
        <ele>103.111515</ele>
        <time>2023-04-26T12:41:49.290Z</time>
      </trkpt>
      <trkpt lat="51.4042" lon="7.07526">
        <ele>103.127257</ele>
        <time>2023-04-26T12:41:51.288Z</time>
      </trkpt>
      <trkpt lat="51.4043" lon="7.07522">
        <ele>103.142291</ele>
        <time>2023-04-26T12:41:53.280Z</time>
      </trkpt>
      <trkpt lat="51.4044" lon="7.07518">
        <ele>103.158255</ele>
        <time>2023-04-26T12:41:55.280Z</time>
      </trkpt>
      <trkpt lat="51.4045" lon="7.07515">
        <ele>103.173419</ele>
        <time>2023-04-26T12:41:57.271Z</time>
      </trkpt>
      <trkpt lat="51.4046" lon="7.07513">
        <ele>103.070019</ele>
        <time>2023-04-26T12:41:59.292Z</time>
      </trkpt>
      <trkpt lat="51.4047" lon="7.0751">
        <ele>102.933358</ele>
        <time>2023-04-26T12:42:01.283Z</time>
      </trkpt>
      <trkpt lat="51.4048" lon="7.07507">
        <ele>102.803214</ele>
        <time>2023-04-26T12:42:03.291Z</time>
      </trkpt>
      <trkpt lat="51.4049" lon="7.07504">
        <ele>102.666616</ele>
        <time>2023-04-26T12:42:05.296Z</time>
      </trkpt>
      <trkpt lat="51.405" lon="7.075">
        <ele>102.531817</ele>
        <time>2023-04-26T12:42:07.292Z</time>
      </trkpt>
      <trkpt lat="51.4051" lon="7.07498">
        <ele>102.403114</ele>
        <time>2023-04-26T12:42:09.308Z</time>
      </trkpt>
      <trkpt lat="51.40519" lon="7.07495">
        <ele>102.278176</ele>
        <time>2023-04-26T12:42:11.272Z</time>
      </trkpt>
      <trkpt lat="51.40528" lon="7.07493">
        <ele>102.15235</ele>
        <time>2023-04-26T12:42:13.310Z</time>
      </trkpt>
      <trkpt lat="51.40538" lon="7.0749">
        <ele>102.023508</ele>
        <time>2023-04-26T12:42:15.271Z</time>
      </trkpt>
      <trkpt lat="51.40547" lon="7.07488">
        <ele>101.901973</ele>
        <time>2023-04-26T12:42:17.310Z</time>
      </trkpt>
      <trkpt lat="51.40556" lon="7.07485">
        <ele>101.779928</ele>
        <time>2023-04-26T12:42:19.284Z</time>
      </trkpt>
      <trkpt lat="51.40569" lon="7.07481">
        <ele>101.60176</ele>
        <time>2023-04-26T12:42:22.281Z</time>
      </trkpt>
      <trkpt lat="51.40578" lon="7.07478">
        <ele>101.480408</ele>
        <time>2023-04-26T12:42:24.277Z</time>
      </trkpt>
      <trkpt lat="51.40588" lon="7.07477">
        <ele>101.3593</ele>
        <time>2023-04-26T12:42:26.284Z</time>
      </trkpt>
      <trkpt lat="51.40601" lon="7.07477">
        <ele>101.186127</ele>
        <time>2023-04-26T12:42:29.292Z</time>
      </trkpt>
      <trkpt lat="51.4061" lon="7.07476">
        <ele>101.064332</ele>
        <time>2023-04-26T12:42:31.299Z</time>
      </trkpt>
      <trkpt lat="51.40623" lon="7.07473">
        <ele>100.892953</ele>
        <time>2023-04-26T12:42:34.300Z</time>
      </trkpt>
      <trkpt lat="51.40632" lon="7.0747">
        <ele>100.794181</ele>
        <time>2023-04-26T12:42:36.276Z</time>
      </trkpt>
      <trkpt lat="51.40645" lon="7.07467">
        <ele>100.760958</ele>
        <time>2023-04-26T12:42:39.301Z</time>
      </trkpt>
      <trkpt lat="51.40654" lon="7.07465">
        <ele>100.738007</ele>
        <time>2023-04-26T12:42:41.257Z</time>
      </trkpt>
      <trkpt lat="51.40667" lon="7.07464">
        <ele>100.704993</ele>
        <time>2023-04-26T12:42:44.292Z</time>
      </trkpt>
      <trkpt lat="51.40676" lon="7.07462">
        <ele>100.681956</ele>
        <time>2023-04-26T12:42:46.280Z</time>
      </trkpt>
      <trkpt lat="51.40685" lon="7.0746">
        <ele>100.659422</ele>
        <time>2023-04-26T12:42:48.284Z</time>
      </trkpt>
      <trkpt lat="51.40698" lon="7.07454">
        <ele>100.625153</ele>
        <time>2023-04-26T12:42:51.279Z</time>
      </trkpt>
      <trkpt lat="51.4071" lon="7.07448">
        <ele>100.593063</ele>
        <time>2023-04-26T12:42:54.290Z</time>
      </trkpt>
      <trkpt lat="51.40722" lon="7.07444">
        <ele>100.561782</ele>
        <time>2023-04-26T12:42:57.288Z</time>
      </trkpt>
      <trkpt lat="51.40734" lon="7.07438">
        <ele>100.529867</ele>
        <time>2023-04-26T12:43:00.300Z</time>
      </trkpt>
      <trkpt lat="51.40747" lon="7.07433">
        <ele>100.49669</ele>
        <time>2023-04-26T12:43:03.286Z</time>
      </trkpt>
      <trkpt lat="51.40756" lon="7.07429">
        <ele>100.472842</ele>
        <time>2023-04-26T12:43:05.289Z</time>
      </trkpt>
      <trkpt lat="51.40767" lon="7.07425">
        <ele>100.4457</ele>
        <time>2023-04-26T12:43:07.301Z</time>
      </trkpt>
      <trkpt lat="51.40778" lon="7.07428">
        <ele>100.416034</ele>
        <time>2023-04-26T12:43:09.284Z</time>
      </trkpt>
      <trkpt lat="51.40788" lon="7.07434">
        <ele>100.390715</ele>
        <time>2023-04-26T12:43:11.282Z</time>
      </trkpt>
      <trkpt lat="51.40794" lon="7.07444">
        <ele>100.367264</ele>
        <time>2023-04-26T12:43:16.285Z</time>
      </trkpt>
      <trkpt lat="51.40801" lon="7.07459">
        <ele>100.358867</ele>
        <time>2023-04-26T12:43:59.302Z</time>
      </trkpt>
      <trkpt lat="51.40807" lon="7.0747">
        <ele>100.410595</ele>
        <time>2023-04-26T12:44:02.286Z</time>
      </trkpt>
      <trkpt lat="51.40814" lon="7.07481">
        <ele>100.460773</ele>
        <time>2023-04-26T12:44:05.304Z</time>
      </trkpt>
      <trkpt lat="51.40823" lon="7.07494">
        <ele>100.52439</ele>
        <time>2023-04-26T12:44:08.286Z</time>
      </trkpt>
      <trkpt lat="51.40831" lon="7.07506">
        <ele>100.580454</ele>
        <time>2023-04-26T12:44:11.286Z</time>
      </trkpt>
      <trkpt lat="51.40838" lon="7.07514">
        <ele>100.628764</ele>
        <time>2023-04-26T12:44:13.291Z</time>
      </trkpt>
      <trkpt lat="51.4085" lon="7.07524">
        <ele>100.696819</ele>
        <time>2023-04-26T12:44:16.275Z</time>
      </trkpt>
      <trkpt lat="51.40861" lon="7.07532">
        <ele>100.762564</ele>
        <time>2023-04-26T12:44:19.282Z</time>
      </trkpt>
      <trkpt lat="51.40874" lon="7.07536">
        <ele>100.828119</ele>
        <time>2023-04-26T12:44:22.269Z</time>
      </trkpt>
      <trkpt lat="51.40886" lon="7.07536">
        <ele>100.89145</ele>
        <time>2023-04-26T12:44:25.275Z</time>
      </trkpt>
      <trkpt lat="51.40898" lon="7.07534">
        <ele>100.953658</ele>
        <time>2023-04-26T12:44:28.286Z</time>
      </trkpt>
      <trkpt lat="51.40909" lon="7.07531">
        <ele>101.016235</ele>
        <time>2023-04-26T12:44:31.296Z</time>
      </trkpt>
      <trkpt lat="51.40921" lon="7.07525">
        <ele>101.077858</ele>
        <time>2023-04-26T12:44:34.268Z</time>
      </trkpt>
      <trkpt lat="51.40931" lon="7.07516">
        <ele>101.139107</ele>
        <time>2023-04-26T12:44:37.304Z</time>
      </trkpt>
      <trkpt lat="51.4094" lon="7.07505">
        <ele>101.200726</ele>
        <time>2023-04-26T12:44:40.300Z</time>
      </trkpt>
      <trkpt lat="51.40949" lon="7.07492">
        <ele>101.263257</ele>
        <time>2023-04-26T12:44:43.297Z</time>
      </trkpt>
      <trkpt lat="51.40957" lon="7.07479">
        <ele>101.310482</ele>
        <time>2023-04-26T12:44:46.268Z</time>
      </trkpt>
      <trkpt lat="51.40963" lon="7.07464">
        <ele>101.348235</ele>
        <time>2023-04-26T12:44:49.287Z</time>
      </trkpt>
      <trkpt lat="51.40968" lon="7.07446">
        <ele>101.388855</ele>
        <time>2023-04-26T12:44:52.275Z</time>
      </trkpt>
      <trkpt lat="51.40971" lon="7.07429">
        <ele>101.427975</ele>
        <time>2023-04-26T12:44:55.294Z</time>
      </trkpt>
      <trkpt lat="51.40973" lon="7.0741">
        <ele>101.468027</ele>
        <time>2023-04-26T12:44:58.285Z</time>
      </trkpt>
      <trkpt lat="51.40972" lon="7.07391">
        <ele>101.509751</ele>
        <time>2023-04-26T12:45:01.300Z</time>
      </trkpt>
      <trkpt lat="51.40973" lon="7.07372">
        <ele>101.550551</ele>
        <time>2023-04-26T12:45:04.284Z</time>
      </trkpt>
      <trkpt lat="51.40974" lon="7.07353">
        <ele>101.589154</ele>
        <time>2023-04-26T12:45:07.286Z</time>
      </trkpt>
      <trkpt lat="51.40977" lon="7.07336">
        <ele>101.628403</ele>
        <time>2023-04-26T12:45:10.298Z</time>
      </trkpt>
      <trkpt lat="51.40983" lon="7.07319">
        <ele>101.668519</ele>
        <time>2023-04-26T12:45:13.285Z</time>
      </trkpt>
      <trkpt lat="51.40992" lon="7.07304">
        <ele>101.713609</ele>
        <time>2023-04-26T12:45:16.281Z</time>
      </trkpt>
      <trkpt lat="51.40999" lon="7.07295">
        <ele>101.74423</ele>
        <time>2023-04-26T12:45:18.287Z</time>
      </trkpt>
      <trkpt lat="51.41007" lon="7.07287">
        <ele>101.776587</ele>
        <time>2023-04-26T12:45:20.280Z</time>
      </trkpt>
      <trkpt lat="51.41016" lon="7.07279">
        <ele>101.810604</ele>
        <time>2023-04-26T12:45:22.304Z</time>
      </trkpt>
      <trkpt lat="51.41023" lon="7.0727">
        <ele>101.842723</ele>
        <time>2023-04-26T12:45:24.289Z</time>
      </trkpt>
      <trkpt lat="51.41031" lon="7.0726">
        <ele>101.876424</ele>
        <time>2023-04-26T12:45:26.291Z</time>
      </trkpt>
      <trkpt lat="51.41039" lon="7.07252">
        <ele>101.857472</ele>
        <time>2023-04-26T12:45:28.287Z</time>
      </trkpt>
      <trkpt lat="51.41047" lon="7.07244">
        <ele>101.684517</ele>
        <time>2023-04-26T12:45:30.284Z</time>
      </trkpt>
      <trkpt lat="51.41056" lon="7.07238">
        <ele>101.519696</ele>
        <time>2023-04-26T12:45:32.281Z</time>
      </trkpt>
      <trkpt lat="51.41066" lon="7.07227">
        <ele>101.294415</ele>
        <time>2023-04-26T12:45:35.286Z</time>
      </trkpt>
      <trkpt lat="51.41074" lon="7.0722">
        <ele>101.129111</ele>
        <time>2023-04-26T12:45:37.282Z</time>
      </trkpt>
      <trkpt lat="51.41083" lon="7.07214">
        <ele>100.960565</ele>
        <time>2023-04-26T12:45:39.281Z</time>
      </trkpt>
      <trkpt lat="51.41091" lon="7.07207">
        <ele>100.79683</ele>
        <time>2023-04-26T12:45:41.280Z</time>
      </trkpt>
      <trkpt lat="51.41099" lon="7.07201">
        <ele>100.629489</ele>
        <time>2023-04-26T12:45:43.276Z</time>
      </trkpt>
      <trkpt lat="51.41108" lon="7.07194">
        <ele>100.451363</ele>
        <time>2023-04-26T12:45:45.279Z</time>
      </trkpt>
      <trkpt lat="51.41116" lon="7.07187">
        <ele>100.287148</ele>
        <time>2023-04-26T12:45:47.279Z</time>
      </trkpt>
      <trkpt lat="51.41125" lon="7.07181">
        <ele>100.110464</ele>
        <time>2023-04-26T12:45:49.300Z</time>
      </trkpt>
      <trkpt lat="51.41134" lon="7.07172">
        <ele>99.921265</ele>
        <time>2023-04-26T12:45:51.285Z</time>
      </trkpt>
      <trkpt lat="51.41142" lon="7.07164">
        <ele>99.753819</ele>
        <time>2023-04-26T12:45:53.286Z</time>
      </trkpt>
      <trkpt lat="51.41151" lon="7.07155">
        <ele>99.566651</ele>
        <time>2023-04-26T12:45:55.288Z</time>
      </trkpt>
      <trkpt lat="51.4116" lon="7.07147">
        <ele>99.387594</ele>
        <time>2023-04-26T12:45:57.287Z</time>
      </trkpt>
      <trkpt lat="51.41169" lon="7.0714">
        <ele>99.201317</ele>
        <time>2023-04-26T12:45:59.295Z</time>
      </trkpt>
      <trkpt lat="51.41177" lon="7.07133">
        <ele>99.032338</ele>
        <time>2023-04-26T12:46:01.286Z</time>
      </trkpt>
      <trkpt lat="51.41186" lon="7.07129">
        <ele>98.864489</ele>
        <time>2023-04-26T12:46:03.282Z</time>
      </trkpt>
      <trkpt lat="51.41198" lon="7.0712">
        <ele>98.659463</ele>
        <time>2023-04-26T12:46:06.293Z</time>
      </trkpt>
      <trkpt lat="51.4121" lon="7.07111">
        <ele>98.653506</ele>
        <time>2023-04-26T12:46:09.282Z</time>
      </trkpt>
      <trkpt lat="51.41221" lon="7.07103">
        <ele>98.648098</ele>
        <time>2023-04-26T12:46:12.276Z</time>
      </trkpt>
      <trkpt lat="51.41229" lon="7.07097">
        <ele>98.64403</ele>
        <time>2023-04-26T12:46:14.284Z</time>
      </trkpt>
      <trkpt lat="51.41238" lon="7.07091">
        <ele>98.639789</ele>
        <time>2023-04-26T12:46:16.292Z</time>
      </trkpt>
      <trkpt lat="51.41247" lon="7.07084">
        <ele>98.635404</ele>
        <time>2023-04-26T12:46:18.282Z</time>
      </trkpt>
      <trkpt lat="51.41255" lon="7.07079">
        <ele>98.631225</ele>
        <time>2023-04-26T12:46:20.303Z</time>
      </trkpt>
      <trkpt lat="51.41264" lon="7.07073">
        <ele>98.626827</ele>
        <time>2023-04-26T12:46:22.283Z</time>
      </trkpt>
      <trkpt lat="51.41274" lon="7.07068">
        <ele>98.62229</ele>
        <time>2023-04-26T12:46:24.295Z</time>
      </trkpt>
      <trkpt lat="51.41284" lon="7.07062">
        <ele>98.617617</ele>
        <time>2023-04-26T12:46:26.291Z</time>
      </trkpt>
      <trkpt lat="51.41293" lon="7.07056">
        <ele>98.613166</ele>
        <time>2023-04-26T12:46:28.286Z</time>
      </trkpt>
      <trkpt lat="51.41302" lon="7.07049">
        <ele>98.608413</ele>
        <time>2023-04-26T12:46:30.280Z</time>
      </trkpt>
      <trkpt lat="51.41312" lon="7.07042">
        <ele>98.603805</ele>
        <time>2023-04-26T12:46:32.289Z</time>
      </trkpt>
      <trkpt lat="51.41321" lon="7.07036">
        <ele>98.599238</ele>
        <time>2023-04-26T12:46:34.278Z</time>
      </trkpt>
      <trkpt lat="51.41331" lon="7.07031">
        <ele>98.594332</ele>
        <time>2023-04-26T12:46:36.287Z</time>
      </trkpt>
      <trkpt lat="51.41342" lon="7.07024">
        <ele>98.58937</ele>
        <time>2023-04-26T12:46:38.285Z</time>
      </trkpt>
      <trkpt lat="51.41352" lon="7.07017">
        <ele>98.584384</ele>
        <time>2023-04-26T12:46:40.299Z</time>
      </trkpt>
      <trkpt lat="51.41362" lon="7.0701">
        <ele>98.579491</ele>
        <time>2023-04-26T12:46:42.299Z</time>
      </trkpt>
      <trkpt lat="51.41372" lon="7.07003">
        <ele>98.545841</ele>
        <time>2023-04-26T12:46:44.295Z</time>
      </trkpt>
      <trkpt lat="51.41381" lon="7.06996">
        <ele>98.512159</ele>
        <time>2023-04-26T12:46:46.303Z</time>
      </trkpt>
      <trkpt lat="51.41391" lon="7.06989">
        <ele>98.477889</ele>
        <time>2023-04-26T12:46:48.287Z</time>
      </trkpt>
      <trkpt lat="51.41401" lon="7.06982">
        <ele>98.443083</ele>
        <time>2023-04-26T12:46:50.286Z</time>
      </trkpt>
      <trkpt lat="51.41411" lon="7.06975">
        <ele>98.40857</ele>
        <time>2023-04-26T12:46:52.289Z</time>
      </trkpt>
      <trkpt lat="51.4142" lon="7.06968">
        <ele>98.374847</ele>
        <time>2023-04-26T12:46:54.279Z</time>
      </trkpt>
      <trkpt lat="51.41429" lon="7.06961">
        <ele>98.34196</ele>
        <time>2023-04-26T12:46:56.304Z</time>
      </trkpt>
      <trkpt lat="51.41439" lon="7.06953">
        <ele>98.306758</ele>
        <time>2023-04-26T12:46:58.287Z</time>
      </trkpt>
      <trkpt lat="51.41448" lon="7.06945">
        <ele>98.273547</ele>
        <time>2023-04-26T12:47:00.279Z</time>
      </trkpt>
      <trkpt lat="51.41458" lon="7.06938">
        <ele>98.239824</ele>
        <time>2023-04-26T12:47:02.296Z</time>
      </trkpt>
      <trkpt lat="51.41467" lon="7.0693">
        <ele>98.206881</ele>
        <time>2023-04-26T12:47:04.274Z</time>
      </trkpt>
      <trkpt lat="51.41476" lon="7.06923">
        <ele>98.173381</ele>
        <time>2023-04-26T12:47:06.282Z</time>
      </trkpt>
      <trkpt lat="51.41486" lon="7.06916">
        <ele>98.140202</ele>
        <time>2023-04-26T12:47:08.279Z</time>
      </trkpt>
      <trkpt lat="51.41495" lon="7.06908">
        <ele>98.106518</ele>
        <time>2023-04-26T12:47:10.285Z</time>
      </trkpt>
      <trkpt lat="51.41504" lon="7.06899">
        <ele>98.072477</ele>
        <time>2023-04-26T12:47:12.278Z</time>
      </trkpt>
      <trkpt lat="51.41513" lon="7.06891">
        <ele>98.038599</ele>
        <time>2023-04-26T12:47:14.286Z</time>
      </trkpt>
      <trkpt lat="51.41522" lon="7.06881">
        <ele>98.004506</ele>
        <time>2023-04-26T12:47:16.277Z</time>
      </trkpt>
      <trkpt lat="51.41531" lon="7.06874">
        <ele>98.04479</ele>
        <time>2023-04-26T12:47:18.282Z</time>
      </trkpt>
      <trkpt lat="51.41541" lon="7.06865">
        <ele>98.091782</ele>
        <time>2023-04-26T12:47:20.280Z</time>
      </trkpt>
      <trkpt lat="51.41549" lon="7.06857">
        <ele>98.135426</ele>
        <time>2023-04-26T12:47:22.278Z</time>
      </trkpt>
      <trkpt lat="51.41557" lon="7.06847">
        <ele>98.178707</ele>
        <time>2023-04-26T12:47:24.287Z</time>
      </trkpt>
      <trkpt lat="51.41565" lon="7.06838">
        <ele>98.22354</ele>
        <time>2023-04-26T12:47:26.278Z</time>
      </trkpt>
      <trkpt lat="51.41573" lon="7.06828">
        <ele>98.267777</ele>
        <time>2023-04-26T12:47:28.280Z</time>
      </trkpt>
      <trkpt lat="51.41582" lon="7.06819">
        <ele>98.312285</ele>
        <time>2023-04-26T12:47:30.277Z</time>
      </trkpt>
      <trkpt lat="51.4159" lon="7.06809">
        <ele>98.357281</ele>
        <time>2023-04-26T12:47:32.278Z</time>
      </trkpt>
      <trkpt lat="51.41598" lon="7.068">
        <ele>98.400482</ele>
        <time>2023-04-26T12:47:34.274Z</time>
      </trkpt>
      <trkpt lat="51.41607" lon="7.06792">
        <ele>98.44554</ele>
        <time>2023-04-26T12:47:36.281Z</time>
      </trkpt>
      <trkpt lat="51.41615" lon="7.06782">
        <ele>98.491282</ele>
        <time>2023-04-26T12:47:38.280Z</time>
      </trkpt>
      <trkpt lat="51.41623" lon="7.06771">
        <ele>98.536001</ele>
        <time>2023-04-26T12:47:40.288Z</time>
      </trkpt>
      <trkpt lat="51.41631" lon="7.06761">
        <ele>98.582711</ele>
        <time>2023-04-26T12:47:42.285Z</time>
      </trkpt>
      <trkpt lat="51.41639" lon="7.0675">
        <ele>98.62604</ele>
        <time>2023-04-26T12:47:44.280Z</time>
      </trkpt>
      <trkpt lat="51.41646" lon="7.06741">
        <ele>98.668434</ele>
        <time>2023-04-26T12:47:46.287Z</time>
      </trkpt>
      <trkpt lat="51.41653" lon="7.06731">
        <ele>98.709457</ele>
        <time>2023-04-26T12:47:48.277Z</time>
      </trkpt>
      <trkpt lat="51.4166" lon="7.06721">
        <ele>98.751256</ele>
        <time>2023-04-26T12:47:50.299Z</time>
      </trkpt>
      <trkpt lat="51.41667" lon="7.0671">
        <ele>98.794766</ele>
        <time>2023-04-26T12:47:52.281Z</time>
      </trkpt>
      <trkpt lat="51.41673" lon="7.06699">
        <ele>98.894608</ele>
        <time>2023-04-26T12:47:54.279Z</time>
      </trkpt>
      <trkpt lat="51.4168" lon="7.06689">
        <ele>98.995222</ele>
        <time>2023-04-26T12:47:56.279Z</time>
      </trkpt>
      <trkpt lat="51.41686" lon="7.06679">
        <ele>99.09408</ele>
        <time>2023-04-26T12:47:58.282Z</time>
      </trkpt>
      <trkpt lat="51.41696" lon="7.06664">
        <ele>99.242882</ele>
        <time>2023-04-26T12:48:01.284Z</time>
      </trkpt>
      <trkpt lat="51.41702" lon="7.06654">
        <ele>99.342957</ele>
        <time>2023-04-26T12:48:03.296Z</time>
      </trkpt>
      <trkpt lat="51.41709" lon="7.06644">
        <ele>99.443223</ele>
        <time>2023-04-26T12:48:05.260Z</time>
      </trkpt>
      <trkpt lat="51.41716" lon="7.06634">
        <ele>99.544042</ele>
        <time>2023-04-26T12:48:07.297Z</time>
      </trkpt>
      <trkpt lat="51.41725" lon="7.06619">
        <ele>99.685356</ele>
        <time>2023-04-26T12:48:10.277Z</time>
      </trkpt>
      <trkpt lat="51.41731" lon="7.06609">
        <ele>99.784746</ele>
        <time>2023-04-26T12:48:12.287Z</time>
      </trkpt>
      <trkpt lat="51.41736" lon="7.06597">
        <ele>99.887528</ele>
        <time>2023-04-26T12:48:14.279Z</time>
      </trkpt>
      <trkpt lat="51.41742" lon="7.06585">
        <ele>99.989638</ele>
        <time>2023-04-26T12:48:16.268Z</time>
      </trkpt>
      <trkpt lat="51.41747" lon="7.06573">
        <ele>100.092098</ele>
        <time>2023-04-26T12:48:18.265Z</time>
      </trkpt>
      <trkpt lat="51.41753" lon="7.06561">
        <ele>100.192443</ele>
        <time>2023-04-26T12:48:20.279Z</time>
      </trkpt>
      <trkpt lat="51.41758" lon="7.06549">
        <ele>100.294706</ele>
        <time>2023-04-26T12:48:22.283Z</time>
      </trkpt>
      <trkpt lat="51.41763" lon="7.06536">
        <ele>100.396527</ele>
        <time>2023-04-26T12:48:24.280Z</time>
      </trkpt>
      <trkpt lat="51.41768" lon="7.06524">
        <ele>100.501723</ele>
        <time>2023-04-26T12:48:26.292Z</time>
      </trkpt>
      <trkpt lat="51.41773" lon="7.0651">
        <ele>100.610534</ele>
        <time>2023-04-26T12:48:28.282Z</time>
      </trkpt>
      <trkpt lat="51.41778" lon="7.06498">
        <ele>100.714849</ele>
        <time>2023-04-26T12:48:30.279Z</time>
      </trkpt>
      <trkpt lat="51.41783" lon="7.06483">
        <ele>100.797269</ele>
        <time>2023-04-26T12:48:32.300Z</time>
      </trkpt>
      <trkpt lat="51.41789" lon="7.0647">
        <ele>100.839347</ele>
        <time>2023-04-26T12:48:34.301Z</time>
      </trkpt>
      <trkpt lat="51.41794" lon="7.06456">
        <ele>100.881399</ele>
        <time>2023-04-26T12:48:36.300Z</time>
      </trkpt>
      <trkpt lat="51.418" lon="7.06442">
        <ele>100.92367</ele>
        <time>2023-04-26T12:48:38.282Z</time>
      </trkpt>
      <trkpt lat="51.41805" lon="7.06428">
        <ele>100.965293</ele>
        <time>2023-04-26T12:48:40.268Z</time>
      </trkpt>
      <trkpt lat="51.4181" lon="7.06414">
        <ele>101.007392</ele>
        <time>2023-04-26T12:48:42.294Z</time>
      </trkpt>
      <trkpt lat="51.41815" lon="7.064">
        <ele>101.04728</ele>
        <time>2023-04-26T12:48:44.291Z</time>
      </trkpt>
      <trkpt lat="51.4182" lon="7.06387">
        <ele>101.088042</ele>
        <time>2023-04-26T12:48:46.283Z</time>
      </trkpt>
      <trkpt lat="51.41825" lon="7.06373">
        <ele>101.130531</ele>
        <time>2023-04-26T12:48:48.284Z</time>
      </trkpt>
      <trkpt lat="51.41831" lon="7.06359">
        <ele>101.171712</ele>
        <time>2023-04-26T12:48:50.296Z</time>
      </trkpt>
      <trkpt lat="51.41836" lon="7.06346">
        <ele>101.2116</ele>
        <time>2023-04-26T12:48:52.289Z</time>
      </trkpt>
      <trkpt lat="51.41841" lon="7.06332">
        <ele>101.253235</ele>
        <time>2023-04-26T12:48:54.283Z</time>
      </trkpt>
      <trkpt lat="51.41846" lon="7.06318">
        <ele>101.294012</ele>
        <time>2023-04-26T12:48:56.282Z</time>
      </trkpt>
      <trkpt lat="51.41851" lon="7.06305">
        <ele>101.334104</ele>
        <time>2023-04-26T12:48:58.284Z</time>
      </trkpt>
      <trkpt lat="51.41857" lon="7.06292">
        <ele>101.374941</ele>
        <time>2023-04-26T12:49:00.285Z</time>
      </trkpt>
      <trkpt lat="51.41862" lon="7.06279">
        <ele>101.41377</ele>
        <time>2023-04-26T12:49:02.281Z</time>
      </trkpt>
      <trkpt lat="51.41867" lon="7.06266">
        <ele>101.452997</ele>
        <time>2023-04-26T12:49:04.280Z</time>
      </trkpt>
      <trkpt lat="51.41872" lon="7.06253">
        <ele>101.492223</ele>
        <time>2023-04-26T12:49:06.268Z</time>
      </trkpt>
      <trkpt lat="51.41878" lon="7.0624">
        <ele>101.502302</ele>
        <time>2023-04-26T12:49:08.277Z</time>
      </trkpt>
      <trkpt lat="51.41883" lon="7.06227">
        <ele>101.447279</ele>
        <time>2023-04-26T12:49:10.280Z</time>
      </trkpt>
      <trkpt lat="51.41888" lon="7.06214">
        <ele>101.390638</ele>
        <time>2023-04-26T12:49:12.304Z</time>
      </trkpt>
      <trkpt lat="51.41895" lon="7.06202">
        <ele>101.332814</ele>
        <time>2023-04-26T12:49:14.289Z</time>
      </trkpt>
      <trkpt lat="51.41901" lon="7.06189">
        <ele>101.276534</ele>
        <time>2023-04-26T12:49:16.281Z</time>
      </trkpt>
      <trkpt lat="51.41906" lon="7.06177">
        <ele>101.222105</ele>
        <time>2023-04-26T12:49:18.293Z</time>
      </trkpt>
      <trkpt lat="51.41912" lon="7.06165">
        <ele>101.168452</ele>
        <time>2023-04-26T12:49:20.277Z</time>
      </trkpt>
      <trkpt lat="51.41918" lon="7.06154">
        <ele>101.113628</ele>
        <time>2023-04-26T12:49:22.279Z</time>
      </trkpt>
      <trkpt lat="51.41924" lon="7.06142">
        <ele>101.060275</ele>
        <time>2023-04-26T12:49:24.288Z</time>
      </trkpt>
      <trkpt lat="51.41929" lon="7.06128">
        <ele>101.000376</ele>
        <time>2023-04-26T12:49:26.289Z</time>
      </trkpt>
      <trkpt lat="51.41935" lon="7.06114">
        <ele>100.940887</ele>
        <time>2023-04-26T12:49:28.268Z</time>
      </trkpt>
      <trkpt lat="51.41941" lon="7.06101">
        <ele>100.883715</ele>
        <time>2023-04-26T12:49:30.318Z</time>
      </trkpt>
      <trkpt lat="51.41946" lon="7.06089">
        <ele>100.830073</ele>
        <time>2023-04-26T12:49:32.280Z</time>
      </trkpt>
      <trkpt lat="51.41952" lon="7.06076">
        <ele>100.774411</ele>
        <time>2023-04-26T12:49:34.282Z</time>
      </trkpt>
      <trkpt lat="51.41958" lon="7.06063">
        <ele>100.717963</ele>
        <time>2023-04-26T12:49:36.264Z</time>
      </trkpt>
      <trkpt lat="51.41964" lon="7.06051">
        <ele>100.66286</ele>
        <time>2023-04-26T12:49:38.292Z</time>
      </trkpt>
      <trkpt lat="51.4197" lon="7.0604">
        <ele>100.609587</ele>
        <time>2023-04-26T12:49:40.284Z</time>
      </trkpt>
      <trkpt lat="51.41976" lon="7.06029">
        <ele>100.553332</ele>
        <time>2023-04-26T12:49:42.281Z</time>
      </trkpt>
      <trkpt lat="51.41983" lon="7.06017">
        <ele>100.496425</ele>
        <time>2023-04-26T12:49:44.275Z</time>
      </trkpt>
      <trkpt lat="51.4199" lon="7.06005">
        <ele>100.544395</ele>
        <time>2023-04-26T12:49:46.281Z</time>
      </trkpt>
      <trkpt lat="51.41997" lon="7.05994">
        <ele>100.611396</ele>
        <time>2023-04-26T12:49:48.280Z</time>
      </trkpt>
      <trkpt lat="51.42003" lon="7.05981">
        <ele>100.67924</ele>
        <time>2023-04-26T12:49:50.273Z</time>
      </trkpt>
      <trkpt lat="51.42009" lon="7.0597">
        <ele>100.748454</ele>
        <time>2023-04-26T12:49:52.276Z</time>
      </trkpt>
      <trkpt lat="51.42016" lon="7.05958">
        <ele>100.814213</ele>
        <time>2023-04-26T12:49:54.277Z</time>
      </trkpt>
      <trkpt lat="51.42022" lon="7.05947">
        <ele>100.879009</ele>
        <time>2023-04-26T12:49:56.296Z</time>
      </trkpt>
      <trkpt lat="51.42029" lon="7.05937">
        <ele>100.944962</ele>
        <time>2023-04-26T12:49:58.309Z</time>
      </trkpt>
      <trkpt lat="51.42036" lon="7.05926">
        <ele>101.012623</ele>
        <time>2023-04-26T12:50:00.281Z</time>
      </trkpt>
      <trkpt lat="51.42044" lon="7.05915">
        <ele>101.082836</ele>
        <time>2023-04-26T12:50:02.280Z</time>
      </trkpt>
      <trkpt lat="51.42051" lon="7.05906">
        <ele>101.147936</ele>
        <time>2023-04-26T12:50:04.280Z</time>
      </trkpt>
      <trkpt lat="51.42058" lon="7.05897">
        <ele>101.210589</ele>
        <time>2023-04-26T12:50:06.302Z</time>
      </trkpt>
      <trkpt lat="51.4207" lon="7.05885">
        <ele>101.30633</ele>
        <time>2023-04-26T12:50:09.286Z</time>
      </trkpt>
      <trkpt lat="51.42078" lon="7.05877">
        <ele>101.371961</ele>
        <time>2023-04-26T12:50:11.283Z</time>
      </trkpt>
      <trkpt lat="51.42086" lon="7.05869">
        <ele>101.439554</ele>
        <time>2023-04-26T12:50:13.288Z</time>
      </trkpt>
      <trkpt lat="51.42095" lon="7.05861">
        <ele>101.51045</ele>
        <time>2023-04-26T12:50:15.262Z</time>
      </trkpt>
      <trkpt lat="51.42104" lon="7.05854">
        <ele>101.576991</ele>
        <time>2023-04-26T12:50:17.299Z</time>
      </trkpt>
      <trkpt lat="51.42113" lon="7.05847">
        <ele>101.645382</ele>
        <time>2023-04-26T12:50:19.273Z</time>
      </trkpt>
      <trkpt lat="51.42121" lon="7.0584">
        <ele>101.71282</ele>
        <time>2023-04-26T12:50:21.296Z</time>
      </trkpt>
      <trkpt lat="51.4213" lon="7.05833">
        <ele>101.701051</ele>
        <time>2023-04-26T12:50:23.291Z</time>
      </trkpt>
      <trkpt lat="51.4214" lon="7.05827">
        <ele>101.656724</ele>
        <time>2023-04-26T12:50:25.283Z</time>
      </trkpt>
      <trkpt lat="51.42149" lon="7.0582">
        <ele>101.612615</ele>
        <time>2023-04-26T12:50:27.286Z</time>
      </trkpt>
      <trkpt lat="51.42157" lon="7.05813">
        <ele>101.571517</ele>
        <time>2023-04-26T12:50:29.301Z</time>
      </trkpt>
      <trkpt lat="51.42166" lon="7.05807">
        <ele>101.531722</ele>
        <time>2023-04-26T12:50:31.297Z</time>
      </trkpt>
      <trkpt lat="51.42175" lon="7.05801">
        <ele>101.48803</ele>
        <time>2023-04-26T12:50:33.292Z</time>
      </trkpt>
      <trkpt lat="51.42184" lon="7.05795">
        <ele>101.444438</ele>
        <time>2023-04-26T12:50:35.297Z</time>
      </trkpt>
      <trkpt lat="51.42193" lon="7.05789">
        <ele>101.403849</ele>
        <time>2023-04-26T12:50:37.291Z</time>
      </trkpt>
      <trkpt lat="51.42202" lon="7.05782">
        <ele>101.359071</ele>
        <time>2023-04-26T12:50:39.302Z</time>
      </trkpt>
      <trkpt lat="51.42211" lon="7.05775">
        <ele>101.315634</ele>
        <time>2023-04-26T12:50:41.300Z</time>
      </trkpt>
      <trkpt lat="51.4222" lon="7.05768">
        <ele>101.269892</ele>
        <time>2023-04-26T12:50:43.281Z</time>
      </trkpt>
      <trkpt lat="51.42229" lon="7.05761">
        <ele>101.22636</ele>
        <time>2023-04-26T12:50:45.278Z</time>
      </trkpt>
      <trkpt lat="51.42238" lon="7.05756">
        <ele>101.186789</ele>
        <time>2023-04-26T12:50:47.295Z</time>
      </trkpt>
      <trkpt lat="51.42246" lon="7.0575">
        <ele>101.147344</ele>
        <time>2023-04-26T12:50:49.283Z</time>
      </trkpt>
      <trkpt lat="51.42254" lon="7.05744">
        <ele>101.108059</ele>
        <time>2023-04-26T12:50:51.292Z</time>
      </trkpt>
      <trkpt lat="51.42263" lon="7.05738">
        <ele>101.066993</ele>
        <time>2023-04-26T12:50:53.289Z</time>
      </trkpt>
      <trkpt lat="51.42272" lon="7.05732">
        <ele>101.024912</ele>
        <time>2023-04-26T12:50:55.284Z</time>
      </trkpt>
      <trkpt lat="51.42281" lon="7.05727">
        <ele>100.984456</ele>
        <time>2023-04-26T12:50:57.280Z</time>
      </trkpt>
      <trkpt lat="51.42289" lon="7.05722">
        <ele>100.963907</ele>
        <time>2023-04-26T12:50:59.274Z</time>
      </trkpt>
      <trkpt lat="51.42298" lon="7.05717">
        <ele>101.13192</ele>
        <time>2023-04-26T12:51:01.286Z</time>
      </trkpt>
      <trkpt lat="51.42307" lon="7.05712">
        <ele>101.305902</ele>
        <time>2023-04-26T12:51:03.301Z</time>
      </trkpt>
      <trkpt lat="51.42316" lon="7.05707">
        <ele>101.472776</ele>
        <time>2023-04-26T12:51:05.300Z</time>
      </trkpt>
      <trkpt lat="51.42326" lon="7.05701">
        <ele>101.654825</ele>
        <time>2023-04-26T12:51:07.298Z</time>
      </trkpt>
      <trkpt lat="51.42338" lon="7.05694">
        <ele>101.896204</ele>
        <time>2023-04-26T12:51:10.297Z</time>
      </trkpt>
      <trkpt lat="51.42347" lon="7.05687">
        <ele>102.072734</ele>
        <time>2023-04-26T12:51:12.290Z</time>
      </trkpt>
      <trkpt lat="51.42355" lon="7.0568">
        <ele>102.239336</ele>
        <time>2023-04-26T12:51:14.292Z</time>
      </trkpt>
      <trkpt lat="51.42364" lon="7.05673">
        <ele>102.41869</ele>
        <time>2023-04-26T12:51:16.287Z</time>
      </trkpt>
      <trkpt lat="51.42376" lon="7.05662">
        <ele>102.662862</ele>
        <time>2023-04-26T12:51:19.265Z</time>
      </trkpt>
      <trkpt lat="51.42384" lon="7.05654">
        <ele>102.835357</ele>
        <time>2023-04-26T12:51:21.285Z</time>
      </trkpt>
      <trkpt lat="51.42393" lon="7.05647">
        <ele>103.009829</ele>
        <time>2023-04-26T12:51:23.296Z</time>
      </trkpt>
      <trkpt lat="51.42401" lon="7.05641">
        <ele>103.170132</ele>
        <time>2023-04-26T12:51:25.284Z</time>
      </trkpt>
      <trkpt lat="51.42409" lon="7.05634">
        <ele>103.334067</ele>
        <time>2023-04-26T12:51:27.302Z</time>
      </trkpt>
      <trkpt lat="51.42417" lon="7.05626">
        <ele>103.500225</ele>
        <time>2023-04-26T12:51:29.292Z</time>
      </trkpt>
      <trkpt lat="51.42429" lon="7.05618">
        <ele>103.732907</ele>
        <time>2023-04-26T12:51:32.302Z</time>
      </trkpt>
      <trkpt lat="51.42437" lon="7.05612">
        <ele>103.897418</ele>
        <time>2023-04-26T12:51:34.280Z</time>
      </trkpt>
      <trkpt lat="51.42449" lon="7.05603">
        <ele>104.128908</ele>
        <time>2023-04-26T12:51:37.284Z</time>
      </trkpt>
      <trkpt lat="51.4246" lon="7.05595">
        <ele>104.41578</ele>
        <time>2023-04-26T12:51:40.279Z</time>
      </trkpt>
      <trkpt lat="51.42471" lon="7.05588">
        <ele>104.711268</ele>
        <time>2023-04-26T12:51:43.282Z</time>
      </trkpt>
      <trkpt lat="51.42481" lon="7.05582">
        <ele>104.985396</ele>
        <time>2023-04-26T12:51:46.299Z</time>
      </trkpt>
      <trkpt lat="51.42491" lon="7.05577">
        <ele>105.266961</ele>
        <time>2023-04-26T12:51:49.284Z</time>
      </trkpt>
      <trkpt lat="51.42502" lon="7.05571">
        <ele>105.567085</ele>
        <time>2023-04-26T12:51:52.292Z</time>
      </trkpt>
      <trkpt lat="51.42513" lon="7.05567">
        <ele>105.861432</ele>
        <time>2023-04-26T12:51:55.278Z</time>
      </trkpt>
      <trkpt lat="51.42525" lon="7.05563">
        <ele>106.15258</ele>
        <time>2023-04-26T12:51:58.273Z</time>
      </trkpt>
      <trkpt lat="51.42536" lon="7.0556">
        <ele>106.442125</ele>
        <time>2023-04-26T12:52:01.281Z</time>
      </trkpt>
      <trkpt lat="51.42545" lon="7.05555">
        <ele>106.701296</ele>
        <time>2023-04-26T12:52:04.289Z</time>
      </trkpt>
      <trkpt lat="51.42555" lon="7.05553">
        <ele>106.96339</ele>
        <time>2023-04-26T12:52:07.264Z</time>
      </trkpt>
      <trkpt lat="51.42566" lon="7.0555">
        <ele>107.224997</ele>
        <time>2023-04-26T12:52:10.301Z</time>
      </trkpt>
      <trkpt lat="51.42575" lon="7.05549">
        <ele>107.477233</ele>
        <time>2023-04-26T12:52:13.284Z</time>
      </trkpt>
      <trkpt lat="51.42586" lon="7.05547">
        <ele>107.754852</ele>
        <time>2023-04-26T12:52:16.279Z</time>
      </trkpt>
      <trkpt lat="51.42599" lon="7.05546">
        <ele>108.078699</ele>
        <time>2023-04-26T12:52:19.280Z</time>
      </trkpt>
      <trkpt lat="51.42612" lon="7.05545">
        <ele>108.407049</ele>
        <time>2023-04-26T12:52:22.288Z</time>
      </trkpt>
      <trkpt lat="51.42623" lon="7.05543">
        <ele>108.707782</ele>
        <time>2023-04-26T12:52:25.306Z</time>
      </trkpt>
      <trkpt lat="51.42636" lon="7.05543">
        <ele>108.654958</ele>
        <time>2023-04-26T12:52:28.293Z</time>
      </trkpt>
      <trkpt lat="51.42649" lon="7.0554">
        <ele>108.484072</ele>
        <time>2023-04-26T12:52:31.289Z</time>
      </trkpt>
      <trkpt lat="51.42662" lon="7.0554">
        <ele>108.311782</ele>
        <time>2023-04-26T12:52:34.277Z</time>
      </trkpt>
      <trkpt lat="51.42671" lon="7.0554">
        <ele>108.18553</ele>
        <time>2023-04-26T12:52:36.294Z</time>
      </trkpt>
      <trkpt lat="51.42681" lon="7.05539">
        <ele>108.060267</ele>
        <time>2023-04-26T12:52:38.281Z</time>
      </trkpt>
      <trkpt lat="51.42691" lon="7.05538">
        <ele>107.928629</ele>
        <time>2023-04-26T12:52:40.311Z</time>
      </trkpt>
      <trkpt lat="51.42702" lon="7.05539">
        <ele>107.785045</ele>
        <time>2023-04-26T12:52:42.284Z</time>
      </trkpt>
      <trkpt lat="51.42713" lon="7.05542">
        <ele>107.633725</ele>
        <time>2023-04-26T12:52:44.271Z</time>
      </trkpt>
      <trkpt lat="51.42725" lon="7.05543">
        <ele>107.479364</ele>
        <time>2023-04-26T12:52:46.275Z</time>
      </trkpt>
      <trkpt lat="51.42737" lon="7.05547">
        <ele>107.320103</ele>
        <time>2023-04-26T12:52:48.295Z</time>
      </trkpt>
      <trkpt lat="51.42749" lon="7.0555">
        <ele>107.156482</ele>
        <time>2023-04-26T12:52:50.279Z</time>
      </trkpt>
      <trkpt lat="51.42762" lon="7.05552">
        <ele>106.988106</ele>
        <time>2023-04-26T12:52:52.305Z</time>
      </trkpt>
      <trkpt lat="51.42774" lon="7.05555">
        <ele>106.826457</ele>
        <time>2023-04-26T12:52:54.312Z</time>
      </trkpt>
      <trkpt lat="51.42786" lon="7.05559">
        <ele>106.662917</ele>
        <time>2023-04-26T12:52:56.274Z</time>
      </trkpt>
      <trkpt lat="51.42798" lon="7.05563">
        <ele>106.497699</ele>
        <time>2023-04-26T12:52:58.268Z</time>
      </trkpt>
      <trkpt lat="51.4281" lon="7.05568">
        <ele>106.29433</ele>
        <time>2023-04-26T12:53:00.281Z</time>
      </trkpt>
      <trkpt lat="51.42821" lon="7.05573">
        <ele>106.070432</ele>
        <time>2023-04-26T12:53:02.263Z</time>
      </trkpt>
      <trkpt lat="51.42832" lon="7.05576">
        <ele>105.85798</ele>
        <time>2023-04-26T12:53:04.280Z</time>
      </trkpt>
      <trkpt lat="51.42842" lon="7.05586">
        <ele>105.622916</ele>
        <time>2023-04-26T12:53:07.275Z</time>
      </trkpt>
      <trkpt lat="51.42842" lon="7.05607">
        <ele>105.361908</ele>
        <time>2023-04-26T12:53:10.279Z</time>
      </trkpt>
      <trkpt lat="51.42839" lon="7.05625">
        <ele>105.137152</ele>
        <time>2023-04-26T12:53:13.316Z</time>
      </trkpt>
      <trkpt lat="51.42836" lon="7.05641">
        <ele>104.927844</ele>
        <time>2023-04-26T12:53:16.278Z</time>
      </trkpt>
      <trkpt lat="51.42832" lon="7.05658">
        <ele>104.701373</ele>
        <time>2023-04-26T12:53:19.272Z</time>
      </trkpt>
      <trkpt lat="51.42828" lon="7.05676">
        <ele>104.470047</ele>
        <time>2023-04-26T12:53:22.282Z</time>
      </trkpt>
      <trkpt lat="51.42825" lon="7.05694">
        <ele>104.225146</ele>
        <time>2023-04-26T12:53:25.290Z</time>
      </trkpt>
      <trkpt lat="51.4282" lon="7.05714">
        <ele>103.965491</ele>
        <time>2023-04-26T12:53:28.287Z</time>
      </trkpt>
      <trkpt lat="51.42815" lon="7.05731">
        <ele>103.728079</ele>
        <time>2023-04-26T12:53:31.276Z</time>
      </trkpt>
      <trkpt lat="51.42809" lon="7.05749">
        <ele>103.482223</ele>
        <time>2023-04-26T12:53:34.284Z</time>
      </trkpt>
      <trkpt lat="51.42803" lon="7.05766">
        <ele>103.232945</ele>
        <time>2023-04-26T12:53:37.296Z</time>
      </trkpt>
      <trkpt lat="51.42797" lon="7.05783">
        <ele>102.986324</ele>
        <time>2023-04-26T12:53:40.288Z</time>
      </trkpt>
      <trkpt lat="51.42789" lon="7.05801">
        <ele>102.873581</ele>
        <time>2023-04-26T12:53:43.272Z</time>
      </trkpt>
      <trkpt lat="51.42784" lon="7.05813">
        <ele>102.941274</ele>
        <time>2023-04-26T12:53:45.298Z</time>
      </trkpt>
      <trkpt lat="51.42779" lon="7.05824">
        <ele>103.008332</ele>
        <time>2023-04-26T12:53:47.273Z</time>
      </trkpt>
      <trkpt lat="51.42773" lon="7.05835">
        <ele>103.078258</ele>
        <time>2023-04-26T12:53:49.264Z</time>
      </trkpt>
      <trkpt lat="51.42767" lon="7.05847">
        <ele>103.148543</ele>
        <time>2023-04-26T12:53:51.285Z</time>
      </trkpt>
      <trkpt lat="51.4276" lon="7.05859">
        <ele>103.223132</ele>
        <time>2023-04-26T12:53:53.274Z</time>
      </trkpt>
      <trkpt lat="51.42753" lon="7.05871">
        <ele>103.297403</ele>
        <time>2023-04-26T12:53:55.299Z</time>
      </trkpt>
      <trkpt lat="51.42746" lon="7.05882">
        <ele>103.372214</ele>
        <time>2023-04-26T12:53:57.284Z</time>
      </trkpt>
      <trkpt lat="51.42739" lon="7.05893">
        <ele>103.448158</ele>
        <time>2023-04-26T12:53:59.302Z</time>
      </trkpt>
      <trkpt lat="51.42731" lon="7.05903">
        <ele>103.519659</ele>
        <time>2023-04-26T12:54:01.264Z</time>
      </trkpt>
      <trkpt lat="51.42724" lon="7.05912">
        <ele>103.592888</ele>
        <time>2023-04-26T12:54:03.303Z</time>
      </trkpt>
      <trkpt lat="51.42716" lon="7.05922">
        <ele>103.665242</ele>
        <time>2023-04-26T12:54:05.288Z</time>
      </trkpt>
      <trkpt lat="51.42708" lon="7.0593">
        <ele>103.73537</ele>
        <time>2023-04-26T12:54:07.282Z</time>
      </trkpt>
      <trkpt lat="51.42699" lon="7.05938">
        <ele>103.81057</ele>
        <time>2023-04-26T12:54:09.288Z</time>
      </trkpt>
      <trkpt lat="51.42691" lon="7.05944">
        <ele>103.881283</ele>
        <time>2023-04-26T12:54:11.277Z</time>
      </trkpt>
      <trkpt lat="51.42679" lon="7.05951">
        <ele>103.976872</ele>
        <time>2023-04-26T12:54:14.293Z</time>
      </trkpt>
      <trkpt lat="51.42669" lon="7.05959">
        <ele>104.058238</ele>
        <time>2023-04-26T12:54:17.281Z</time>
      </trkpt>
      <trkpt lat="51.4266" lon="7.05967">
        <ele>104.134094</ele>
        <time>2023-04-26T12:54:20.293Z</time>
      </trkpt>
      <trkpt lat="51.4265" lon="7.05975">
        <ele>104.165419</ele>
        <time>2023-04-26T12:54:23.292Z</time>
      </trkpt>
      <trkpt lat="51.4264" lon="7.05983">
        <ele>104.137704</ele>
        <time>2023-04-26T12:54:26.294Z</time>
      </trkpt>
      <trkpt lat="51.42628" lon="7.05991">
        <ele>104.108006</ele>
        <time>2023-04-26T12:54:29.276Z</time>
      </trkpt>
      <trkpt lat="51.42617" lon="7.06">
        <ele>104.076902</ele>
        <time>2023-04-26T12:54:32.290Z</time>
      </trkpt>
      <trkpt lat="51.42609" lon="7.06006">
        <ele>104.054616</ele>
        <time>2023-04-26T12:54:34.292Z</time>
      </trkpt>
      <trkpt lat="51.426" lon="7.06012">
        <ele>104.032691</ele>
        <time>2023-04-26T12:54:36.288Z</time>
      </trkpt>
      <trkpt lat="51.42592" lon="7.06018">
        <ele>104.010147</ele>
        <time>2023-04-26T12:54:38.263Z</time>
      </trkpt>
      <trkpt lat="51.4258" lon="7.06026">
        <ele>103.978529</ele>
        <time>2023-04-26T12:54:41.299Z</time>
      </trkpt>
      <trkpt lat="51.42571" lon="7.06033">
        <ele>103.956267</ele>
        <time>2023-04-26T12:54:43.299Z</time>
      </trkpt>
      <trkpt lat="51.42563" lon="7.06039">
        <ele>103.934342</ele>
        <time>2023-04-26T12:54:45.286Z</time>
      </trkpt>
      <trkpt lat="51.42554" lon="7.06046">
        <ele>103.911527</ele>
        <time>2023-04-26T12:54:47.297Z</time>
      </trkpt>
      <trkpt lat="51.42546" lon="7.06053">
        <ele>103.887931</ele>
        <time>2023-04-26T12:54:49.280Z</time>
      </trkpt>
      <trkpt lat="51.42537" lon="7.06059">
        <ele>103.864142</ele>
        <time>2023-04-26T12:54:51.287Z</time>
      </trkpt>
      <trkpt lat="51.42528" lon="7.06065">
        <ele>103.841759</ele>
        <time>2023-04-26T12:54:53.288Z</time>
      </trkpt>
      <trkpt lat="51.4252" lon="7.06073">
        <ele>103.818703</ele>
        <time>2023-04-26T12:54:55.285Z</time>
      </trkpt>
      <trkpt lat="51.42511" lon="7.06079">
        <ele>103.795878</ele>
        <time>2023-04-26T12:54:57.277Z</time>
      </trkpt>
      <trkpt lat="51.42503" lon="7.06087">
        <ele>103.771632</ele>
        <time>2023-04-26T12:54:59.282Z</time>
      </trkpt>
      <trkpt lat="51.42494" lon="7.06095">
        <ele>103.747116</ele>
        <time>2023-04-26T12:55:01.285Z</time>
      </trkpt>
      <trkpt lat="51.42485" lon="7.06104">
        <ele>103.689009</ele>
        <time>2023-04-26T12:55:03.284Z</time>
      </trkpt>
      <trkpt lat="51.42477" lon="7.06113">
        <ele>103.627715</ele>
        <time>2023-04-26T12:55:05.275Z</time>
      </trkpt>
      <trkpt lat="51.42469" lon="7.06122">
        <ele>103.567487</ele>
        <time>2023-04-26T12:55:07.286Z</time>
      </trkpt>
      <trkpt lat="51.42461" lon="7.06132">
        <ele>103.508653</ele>
        <time>2023-04-26T12:55:09.280Z</time>
      </trkpt>
      <trkpt lat="51.42453" lon="7.06141">
        <ele>103.449706</ele>
        <time>2023-04-26T12:55:11.281Z</time>
      </trkpt>
      <trkpt lat="51.42445" lon="7.0615">
        <ele>103.39085</ele>
        <time>2023-04-26T12:55:13.287Z</time>
      </trkpt>
      <trkpt lat="51.42437" lon="7.06159">
        <ele>103.331734</ele>
        <time>2023-04-26T12:55:15.304Z</time>
      </trkpt>
      <trkpt lat="51.42429" lon="7.0617">
        <ele>103.270027</ele>
        <time>2023-04-26T12:55:17.286Z</time>
      </trkpt>
      <trkpt lat="51.42421" lon="7.0618">
        <ele>103.209046</ele>
        <time>2023-04-26T12:55:19.301Z</time>
      </trkpt>
      <trkpt lat="51.42414" lon="7.06191">
        <ele>103.147667</ele>
        <time>2023-04-26T12:55:21.282Z</time>
      </trkpt>
      <trkpt lat="51.42406" lon="7.06201">
        <ele>103.087661</ele>
        <time>2023-04-26T12:55:23.291Z</time>
      </trkpt>
      <trkpt lat="51.42399" lon="7.06213">
        <ele>103.025021</ele>
        <time>2023-04-26T12:55:25.292Z</time>
      </trkpt>
      <trkpt lat="51.42392" lon="7.06224">
        <ele>102.964965</ele>
        <time>2023-04-26T12:55:27.289Z</time>
      </trkpt>
      <trkpt lat="51.42384" lon="7.06235">
        <ele>102.902447</ele>
        <time>2023-04-26T12:55:29.298Z</time>
      </trkpt>
      <trkpt lat="51.42377" lon="7.06247">
        <ele>102.839809</ele>
        <time>2023-04-26T12:55:31.295Z</time>
      </trkpt>
      <trkpt lat="51.4237" lon="7.0626">
        <ele>102.776625</ele>
        <time>2023-04-26T12:55:33.297Z</time>
      </trkpt>
      <trkpt lat="51.42363" lon="7.06272">
        <ele>102.715225</ele>
        <time>2023-04-26T12:55:35.279Z</time>
      </trkpt>
      <trkpt lat="51.42356" lon="7.06284">
        <ele>102.665576</ele>
        <time>2023-04-26T12:55:37.285Z</time>
      </trkpt>
      <trkpt lat="51.4235" lon="7.06296">
        <ele>102.733354</ele>
        <time>2023-04-26T12:55:39.280Z</time>
      </trkpt>
      <trkpt lat="51.42344" lon="7.06308">
        <ele>102.804383</ele>
        <time>2023-04-26T12:55:41.304Z</time>
      </trkpt>
      <trkpt lat="51.42338" lon="7.06321">
        <ele>102.874536</ele>
        <time>2023-04-26T12:55:43.290Z</time>
      </trkpt>
      <trkpt lat="51.42332" lon="7.06333">
        <ele>102.943406</ele>
        <time>2023-04-26T12:55:45.287Z</time>
      </trkpt>
      <trkpt lat="51.42326" lon="7.06346">
        <ele>103.012007</ele>
        <time>2023-04-26T12:55:47.299Z</time>
      </trkpt>
      <trkpt lat="51.42321" lon="7.06358">
        <ele>103.077653</ele>
        <time>2023-04-26T12:55:49.297Z</time>
      </trkpt>
      <trkpt lat="51.42315" lon="7.06371">
        <ele>103.144634</ele>
        <time>2023-04-26T12:55:51.276Z</time>
      </trkpt>
      <trkpt lat="51.4231" lon="7.06384">
        <ele>103.212505</ele>
        <time>2023-04-26T12:55:53.298Z</time>
      </trkpt>
      <trkpt lat="51.42305" lon="7.06398">
        <ele>103.280898</ele>
        <time>2023-04-26T12:55:55.286Z</time>
      </trkpt>
      <trkpt lat="51.42301" lon="7.0641">
        <ele>103.344018</ele>
        <time>2023-04-26T12:55:57.294Z</time>
      </trkpt>
      <trkpt lat="51.42296" lon="7.06423">
        <ele>103.408553</ele>
        <time>2023-04-26T12:55:59.285Z</time>
      </trkpt>
      <trkpt lat="51.42289" lon="7.06441">
        <ele>103.498318</ele>
        <time>2023-04-26T12:56:02.283Z</time>
      </trkpt>
      <trkpt lat="51.42284" lon="7.0646">
        <ele>103.591873</ele>
        <time>2023-04-26T12:56:05.293Z</time>
      </trkpt>
      <trkpt lat="51.4228" lon="7.06473">
        <ele>103.655527</ele>
        <time>2023-04-26T12:56:07.295Z</time>
      </trkpt>
      <trkpt lat="51.42276" lon="7.06486">
        <ele>103.719983</ele>
        <time>2023-04-26T12:56:09.292Z</time>
      </trkpt>
      <trkpt lat="51.42272" lon="7.065">
        <ele>103.782954</ele>
        <time>2023-04-26T12:56:11.279Z</time>
      </trkpt>
      <trkpt lat="51.42268" lon="7.06519">
        <ele>103.87433</ele>
        <time>2023-04-26T12:56:14.277Z</time>
      </trkpt>
      <trkpt lat="51.42262" lon="7.06537">
        <ele>103.951828</ele>
        <time>2023-04-26T12:56:17.296Z</time>
      </trkpt>
      <trkpt lat="51.42259" lon="7.06551">
        <ele>103.997875</ele>
        <time>2023-04-26T12:56:19.293Z</time>
      </trkpt>
      <trkpt lat="51.42255" lon="7.0657">
        <ele>104.06204</ele>
        <time>2023-04-26T12:56:22.280Z</time>
      </trkpt>
      <trkpt lat="51.42251" lon="7.06588">
        <ele>104.123989</ele>
        <time>2023-04-26T12:56:25.282Z</time>
      </trkpt>
      <trkpt lat="51.42247" lon="7.06606">
        <ele>104.18279</ele>
        <time>2023-04-26T12:56:28.285Z</time>
      </trkpt>
      <trkpt lat="51.42244" lon="7.06623">
        <ele>104.239811</ele>
        <time>2023-04-26T12:56:31.284Z</time>
      </trkpt>
      <trkpt lat="51.42242" lon="7.0664">
        <ele>104.295493</ele>
        <time>2023-04-26T12:56:34.282Z</time>
      </trkpt>
      <trkpt lat="51.42239" lon="7.06657">
        <ele>104.35023</ele>
        <time>2023-04-26T12:56:37.278Z</time>
      </trkpt>
      <trkpt lat="51.42237" lon="7.06674">
        <ele>104.406021</ele>
        <time>2023-04-26T12:56:40.296Z</time>
      </trkpt>
      <trkpt lat="51.42235" lon="7.06691">
        <ele>104.460602</ele>
        <time>2023-04-26T12:56:43.285Z</time>
      </trkpt>
      <trkpt lat="51.42233" lon="7.06708">
        <ele>104.517217</ele>
        <time>2023-04-26T12:56:46.275Z</time>
      </trkpt>
      <trkpt lat="51.42231" lon="7.06726">
        <ele>104.574072</ele>
        <time>2023-04-26T12:56:49.281Z</time>
      </trkpt>
      <trkpt lat="51.4223" lon="7.06744">
        <ele>104.632698</ele>
        <time>2023-04-26T12:56:52.272Z</time>
      </trkpt>
      <trkpt lat="51.4223" lon="7.06766">
        <ele>104.703369</ele>
        <time>2023-04-26T12:56:55.279Z</time>
      </trkpt>
      <trkpt lat="51.4223" lon="7.06783">
        <ele>104.75748</ele>
        <time>2023-04-26T12:56:57.280Z</time>
      </trkpt>
      <trkpt lat="51.4223" lon="7.06801">
        <ele>104.813522</ele>
        <time>2023-04-26T12:56:59.282Z</time>
      </trkpt>
      <trkpt lat="51.42229" lon="7.06818">
        <ele>104.948989</ele>
        <time>2023-04-26T12:57:01.298Z</time>
      </trkpt>
      <trkpt lat="51.42228" lon="7.06834">
        <ele>105.146484</ele>
        <time>2023-04-26T12:57:03.265Z</time>
      </trkpt>
      <trkpt lat="51.42228" lon="7.06849">
        <ele>105.336412</ele>
        <time>2023-04-26T12:57:05.306Z</time>
      </trkpt>
      <trkpt lat="51.42228" lon="7.06864">
        <ele>105.518755</ele>
        <time>2023-04-26T12:57:07.258Z</time>
      </trkpt>
      <trkpt lat="51.42228" lon="7.06886">
        <ele>105.781851</ele>
        <time>2023-04-26T12:57:10.268Z</time>
      </trkpt>
      <trkpt lat="51.42228" lon="7.06907">
        <ele>106.047656</ele>
        <time>2023-04-26T12:57:13.290Z</time>
      </trkpt>
      <trkpt lat="51.42229" lon="7.06928">
        <ele>106.302307</ele>
        <time>2023-04-26T12:57:16.290Z</time>
      </trkpt>
      <trkpt lat="51.4223" lon="7.06949">
        <ele>106.552875</ele>
        <time>2023-04-26T12:57:19.292Z</time>
      </trkpt>
      <trkpt lat="51.42231" lon="7.06968">
        <ele>106.78516</ele>
        <time>2023-04-26T12:57:22.262Z</time>
      </trkpt>
      <trkpt lat="51.42232" lon="7.06987">
        <ele>107.02802</ele>
        <time>2023-04-26T12:57:25.294Z</time>
      </trkpt>
      <trkpt lat="51.42235" lon="7.07006">
        <ele>107.266485</ele>
        <time>2023-04-26T12:57:28.279Z</time>
      </trkpt>
      <trkpt lat="51.42238" lon="7.07024">
        <ele>107.491391</ele>
        <time>2023-04-26T12:57:31.291Z</time>
      </trkpt>
      <trkpt lat="51.42241" lon="7.07041">
        <ele>107.70635</ele>
        <time>2023-04-26T12:57:34.281Z</time>
      </trkpt>
      <trkpt lat="51.42243" lon="7.07058">
        <ele>107.921872</ele>
        <time>2023-04-26T12:57:37.270Z</time>
      </trkpt>
      <trkpt lat="51.42245" lon="7.07076">
        <ele>108.142352</ele>
        <time>2023-04-26T12:57:40.271Z</time>
      </trkpt>
      <trkpt lat="51.42247" lon="7.07093">
        <ele>108.350824</ele>
        <time>2023-04-26T12:57:43.298Z</time>
      </trkpt>
      <trkpt lat="51.4225" lon="7.07109">
        <ele>108.315479</ele>
        <time>2023-04-26T12:57:46.280Z</time>
      </trkpt>
      <trkpt lat="51.42253" lon="7.07125">
        <ele>108.259701</ele>
        <time>2023-04-26T12:57:49.266Z</time>
      </trkpt>
      <trkpt lat="51.42256" lon="7.07142">
        <ele>108.198429</ele>
        <time>2023-04-26T12:57:52.277Z</time>
      </trkpt>
      <trkpt lat="51.4226" lon="7.07159">
        <ele>108.139085</ele>
        <time>2023-04-26T12:57:55.269Z</time>
      </trkpt>
      <trkpt lat="51.42263" lon="7.07176">
        <ele>108.079149</ele>
        <time>2023-04-26T12:57:58.285Z</time>
      </trkpt>
      <trkpt lat="51.42266" lon="7.07192">
        <ele>108.021761</ele>
        <time>2023-04-26T12:58:01.279Z</time>
      </trkpt>
      <trkpt lat="51.4227" lon="7.07207">
        <ele>107.965316</ele>
        <time>2023-04-26T12:58:04.283Z</time>
      </trkpt>
      <trkpt lat="51.42275" lon="7.07223">
        <ele>107.905957</ele>
        <time>2023-04-26T12:58:07.283Z</time>
      </trkpt>
      <trkpt lat="51.42279" lon="7.07238">
        <ele>107.852261</ele>
        <time>2023-04-26T12:58:10.301Z</time>
      </trkpt>
      <trkpt lat="51.42282" lon="7.07252">
        <ele>107.798995</ele>
        <time>2023-04-26T12:58:13.296Z</time>
      </trkpt>
      <trkpt lat="51.42288" lon="7.07268">
        <ele>107.737538</ele>
        <time>2023-04-26T12:58:17.300Z</time>
      </trkpt>
      <trkpt lat="51.42291" lon="7.07284">
        <ele>107.680934</ele>
        <time>2023-04-26T12:58:22.277Z</time>
      </trkpt>
      <trkpt lat="51.42296" lon="7.07297">
        <ele>107.628327</ele>
        <time>2023-04-26T12:58:27.278Z</time>
      </trkpt>
      <trkpt lat="51.42305" lon="7.07298">
        <ele>107.57608</ele>
        <time>2023-04-26T12:58:32.275Z</time>
      </trkpt>
      <trkpt lat="51.42317" lon="7.07294">
        <ele>107.511871</ele>
        <time>2023-04-26T12:58:36.275Z</time>
      </trkpt>
      <trkpt lat="51.42327" lon="7.0729">
        <ele>107.453486</ele>
        <time>2023-04-26T12:58:40.281Z</time>
      </trkpt>
      <trkpt lat="51.42339" lon="7.07311">
        <ele>107.417462</ele>
        <time>2023-04-26T12:59:06.270Z</time>
      </trkpt>
      <trkpt lat="51.42345" lon="7.07323">
        <ele>107.462095</ele>
        <time>2023-04-26T12:59:13.282Z</time>
      </trkpt>
      <trkpt lat="51.42354" lon="7.07315">
        <ele>107.507389</ele>
        <time>2023-04-26T12:59:19.281Z</time>
      </trkpt>
      <trkpt lat="51.42363" lon="7.07307">
        <ele>107.551041</ele>
        <time>2023-04-26T12:59:22.277Z</time>
      </trkpt>
      <trkpt lat="51.42371" lon="7.07299">
        <ele>107.595488</ele>
        <time>2023-04-26T12:59:25.292Z</time>
      </trkpt>
      <trkpt lat="51.42381" lon="7.07288">
        <ele>107.647618</ele>
        <time>2023-04-26T12:59:28.275Z</time>
      </trkpt>
      <trkpt lat="51.4239" lon="7.07275">
        <ele>107.700748</ele>
        <time>2023-04-26T12:59:31.268Z</time>
      </trkpt>
      <trkpt lat="51.42399" lon="7.07262">
        <ele>107.757415</ele>
        <time>2023-04-26T12:59:34.278Z</time>
      </trkpt>
      <trkpt lat="51.42406" lon="7.0725">
        <ele>107.800202</ele>
        <time>2023-04-26T12:59:36.268Z</time>
      </trkpt>
      <trkpt lat="51.42413" lon="7.07234">
        <ele>107.853924</ele>
        <time>2023-04-26T12:59:39.271Z</time>
      </trkpt>
      <trkpt lat="51.42418" lon="7.07223">
        <ele>107.894521</ele>
        <time>2023-04-26T12:59:41.282Z</time>
      </trkpt>
      <trkpt lat="51.42424" lon="7.0721">
        <ele>107.936386</ele>
        <time>2023-04-26T12:59:43.258Z</time>
      </trkpt>
      <trkpt lat="51.42429" lon="7.07198">
        <ele>107.976731</ele>
        <time>2023-04-26T12:59:45.275Z</time>
      </trkpt>
      <trkpt lat="51.42433" lon="7.07186">
        <ele>108.016619</ele>
        <time>2023-04-26T12:59:47.272Z</time>
      </trkpt>
      <trkpt lat="51.42441" lon="7.07168">
        <ele>108.075616</ele>
        <time>2023-04-26T12:59:50.276Z</time>
      </trkpt>
      <trkpt lat="51.42447" lon="7.07157">
        <ele>108.117212</ele>
        <time>2023-04-26T12:59:52.277Z</time>
      </trkpt>
      <trkpt lat="51.42453" lon="7.07145">
        <ele>108.157753</ele>
        <time>2023-04-26T12:59:54.261Z</time>
      </trkpt>
      <trkpt lat="51.42461" lon="7.07128">
        <ele>108.121933</ele>
        <time>2023-04-26T12:59:57.280Z</time>
      </trkpt>
      <trkpt lat="51.42469" lon="7.0711">
        <ele>107.981537</ele>
        <time>2023-04-26T13:00:00.282Z</time>
      </trkpt>
      <trkpt lat="51.42474" lon="7.07098">
        <ele>107.888086</ele>
        <time>2023-04-26T13:00:02.287Z</time>
      </trkpt>
      <trkpt lat="51.4248" lon="7.07086">
        <ele>107.784861</ele>
        <time>2023-04-26T13:00:04.283Z</time>
      </trkpt>
      <trkpt lat="51.42486" lon="7.07072">
        <ele>107.67907</ele>
        <time>2023-04-26T13:00:06.281Z</time>
      </trkpt>
      <trkpt lat="51.42493" lon="7.07058">
        <ele>107.566323</ele>
        <time>2023-04-26T13:00:08.278Z</time>
      </trkpt>
      <trkpt lat="51.42499" lon="7.07044">
        <ele>107.455792</ele>
        <time>2023-04-26T13:00:10.279Z</time>
      </trkpt>
      <trkpt lat="51.42506" lon="7.0703">
        <ele>107.342859</ele>
        <time>2023-04-26T13:00:12.276Z</time>
      </trkpt>
      <trkpt lat="51.42513" lon="7.07015">
        <ele>107.224125</ele>
        <time>2023-04-26T13:00:14.281Z</time>
      </trkpt>
      <trkpt lat="51.4252" lon="7.07003">
        <ele>107.113082</ele>
        <time>2023-04-26T13:00:16.261Z</time>
      </trkpt>
      <trkpt lat="51.42527" lon="7.06991">
        <ele>107.011429</ele>
        <time>2023-04-26T13:00:18.268Z</time>
      </trkpt>
      <trkpt lat="51.42535" lon="7.06981">
        <ele>106.907464</ele>
        <time>2023-04-26T13:00:20.277Z</time>
      </trkpt>
      <trkpt lat="51.42542" lon="7.06971">
        <ele>106.806188</ele>
        <time>2023-04-26T13:00:22.273Z</time>
      </trkpt>
      <trkpt lat="51.42551" lon="7.06959">
        <ele>106.690496</ele>
        <time>2023-04-26T13:00:24.264Z</time>
      </trkpt>
      <trkpt lat="51.4256" lon="7.06948">
        <ele>106.576101</ele>
        <time>2023-04-26T13:00:27.281Z</time>
      </trkpt>
      <trkpt lat="51.42569" lon="7.06943">
        <ele>106.478558</ele>
        <time>2023-04-26T13:00:32.272Z</time>
      </trkpt>
      <trkpt lat="51.42578" lon="7.06934">
        <ele>106.363627</ele>
        <time>2023-04-26T13:00:37.287Z</time>
      </trkpt>
      <trkpt lat="51.42583" lon="7.06919">
        <ele>106.358169</ele>
        <time>2023-04-26T13:00:43.263Z</time>
      </trkpt>
      <trkpt lat="51.4259" lon="7.06907">
        <ele>106.38309</ele>
        <time>2023-04-26T13:00:49.271Z</time>
      </trkpt>
      <trkpt lat="51.42597" lon="7.06898">
        <ele>106.404674</ele>
        <time>2023-04-26T13:00:52.274Z</time>
      </trkpt>
      <trkpt lat="51.42606" lon="7.06889">
        <ele>106.429638</ele>
        <time>2023-04-26T13:00:55.276Z</time>
      </trkpt>
      <trkpt lat="51.42616" lon="7.0688">
        <ele>106.455449</ele>
        <time>2023-04-26T13:00:58.280Z</time>
      </trkpt>
      <trkpt lat="51.42627" lon="7.06875">
        <ele>106.482303</ele>
        <time>2023-04-26T13:01:01.285Z</time>
      </trkpt>
      <trkpt lat="51.42637" lon="7.0687">
        <ele>106.506826</ele>
        <time>2023-04-26T13:01:04.276Z</time>
      </trkpt>
      <trkpt lat="51.42647" lon="7.06867">
        <ele>106.531087</ele>
        <time>2023-04-26T13:01:07.290Z</time>
      </trkpt>
      <trkpt lat="51.42657" lon="7.06865">
        <ele>106.553892</ele>
        <time>2023-04-26T13:01:10.278Z</time>
      </trkpt>
      <trkpt lat="51.42666" lon="7.06864">
        <ele>106.576283</ele>
        <time>2023-04-26T13:01:13.284Z</time>
      </trkpt>
      <trkpt lat="51.42676" lon="7.06863">
        <ele>106.598683</ele>
        <time>2023-04-26T13:01:16.273Z</time>
      </trkpt>
      <trkpt lat="51.42687" lon="7.06862">
        <ele>106.625556</ele>
        <time>2023-04-26T13:01:19.258Z</time>
      </trkpt>
      <trkpt lat="51.42699" lon="7.06861">
        <ele>106.653126</ele>
        <time>2023-04-26T13:01:22.278Z</time>
      </trkpt>
      <trkpt lat="51.4271" lon="7.06861">
        <ele>106.679253</ele>
        <time>2023-04-26T13:01:25.264Z</time>
      </trkpt>
      <trkpt lat="51.4272" lon="7.06862">
        <ele>106.70402</ele>
        <time>2023-04-26T13:01:28.272Z</time>
      </trkpt>
      <trkpt lat="51.42732" lon="7.06865">
        <ele>106.731981</ele>
        <time>2023-04-26T13:01:31.277Z</time>
      </trkpt>
      <trkpt lat="51.42744" lon="7.06868">
        <ele>106.761359</ele>
        <time>2023-04-26T13:01:34.282Z</time>
      </trkpt>
      <trkpt lat="51.42755" lon="7.06872">
        <ele>106.897972</ele>
        <time>2023-04-26T13:01:37.289Z</time>
      </trkpt>
      <trkpt lat="51.42766" lon="7.06875">
        <ele>107.0521</ele>
        <time>2023-04-26T13:01:40.284Z</time>
      </trkpt>
      <trkpt lat="51.42777" lon="7.06878">
        <ele>107.188162</ele>
        <time>2023-04-26T13:01:43.266Z</time>
      </trkpt>
      <trkpt lat="51.42787" lon="7.0688">
        <ele>107.324347</ele>
        <time>2023-04-26T13:01:46.287Z</time>
      </trkpt>
      <trkpt lat="51.42798" lon="7.06883">
        <ele>107.472157</ele>
        <time>2023-04-26T13:01:49.275Z</time>
      </trkpt>
      <trkpt lat="51.42809" lon="7.06885">
        <ele>107.617158</ele>
        <time>2023-04-26T13:01:52.285Z</time>
      </trkpt>
      <trkpt lat="51.42821" lon="7.06888">
        <ele>107.777753</ele>
        <time>2023-04-26T13:01:55.279Z</time>
      </trkpt>
      <trkpt lat="51.42832" lon="7.06891">
        <ele>107.923141</ele>
        <time>2023-04-26T13:01:58.279Z</time>
      </trkpt>
      <trkpt lat="51.42843" lon="7.06893">
        <ele>108.068529</ele>
        <time>2023-04-26T13:02:01.279Z</time>
      </trkpt>
      <trkpt lat="51.42855" lon="7.06896">
        <ele>108.231129</ele>
        <time>2023-04-26T13:02:04.272Z</time>
      </trkpt>
      <trkpt lat="51.42867" lon="7.06899">
        <ele>108.387115</ele>
        <time>2023-04-26T13:02:07.279Z</time>
      </trkpt>
      <trkpt lat="51.42878" lon="7.06903">
        <ele>108.533308</ele>
        <time>2023-04-26T13:02:10.272Z</time>
      </trkpt>
      <trkpt lat="51.42889" lon="7.06907">
        <ele>108.674205</ele>
        <time>2023-04-26T13:02:13.285Z</time>
      </trkpt>
      <trkpt lat="51.42898" lon="7.06909">
        <ele>108.798378</ele>
        <time>2023-04-26T13:02:16.256Z</time>
      </trkpt>
      <trkpt lat="51.42907" lon="7.06912">
        <ele>108.917571</ele>
        <time>2023-04-26T13:02:19.278Z</time>
      </trkpt>
      <trkpt lat="51.42916" lon="7.06916">
        <ele>109.045031</ele>
        <time>2023-04-26T13:02:22.276Z</time>
      </trkpt>
      <trkpt lat="51.42927" lon="7.06919">
        <ele>108.993616</ele>
        <time>2023-04-26T13:02:26.288Z</time>
      </trkpt>
      <trkpt lat="51.42936" lon="7.06922">
        <ele>108.773265</ele>
        <time>2023-04-26T13:02:31.273Z</time>
      </trkpt>
      <trkpt lat="51.42946" lon="7.06926">
        <ele>108.518317</ele>
        <time>2023-04-26T13:02:35.280Z</time>
      </trkpt>
      <trkpt lat="51.42957" lon="7.06931">
        <ele>108.258353</ele>
        <time>2023-04-26T13:02:39.269Z</time>
      </trkpt>
      <trkpt lat="51.42967" lon="7.06937">
        <ele>107.985647</ele>
        <time>2023-04-26T13:02:43.289Z</time>
      </trkpt>
      <trkpt lat="51.42977" lon="7.06942">
        <ele>107.743451</ele>
        <time>2023-04-26T13:02:47.276Z</time>
      </trkpt>
      <trkpt lat="51.42988" lon="7.06947">
        <ele>107.477599</ele>
        <time>2023-04-26T13:02:51.272Z</time>
      </trkpt>
      <trkpt lat="51.42997" lon="7.06953">
        <ele>107.241984</ele>
        <time>2023-04-26T13:02:54.299Z</time>
      </trkpt>
      <trkpt lat="51.43007" lon="7.0696">
        <ele>106.984117</ele>
        <time>2023-04-26T13:02:57.266Z</time>
      </trkpt>
      <trkpt lat="51.43019" lon="7.06967">
        <ele>106.675742</ele>
        <time>2023-04-26T13:03:00.294Z</time>
      </trkpt>
      <trkpt lat="51.4303" lon="7.06976">
        <ele>106.378772</ele>
        <time>2023-04-26T13:03:03.280Z</time>
      </trkpt>
      <trkpt lat="51.43042" lon="7.06982">
        <ele>106.080803</ele>
        <time>2023-04-26T13:03:06.269Z</time>
      </trkpt>
      <trkpt lat="51.43054" lon="7.0699">
        <ele>105.766884</ele>
        <time>2023-04-26T13:03:09.275Z</time>
      </trkpt>
      <trkpt lat="51.43066" lon="7.06998">
        <ele>105.45019</ele>
        <time>2023-04-26T13:03:12.277Z</time>
      </trkpt>
      <trkpt lat="51.43079" lon="7.07005">
        <ele>105.132678</ele>
        <time>2023-04-26T13:03:15.269Z</time>
      </trkpt>
      <trkpt lat="51.4309" lon="7.07012">
        <ele>104.845404</ele>
        <time>2023-04-26T13:03:18.274Z</time>
      </trkpt>
      <trkpt lat="51.43102" lon="7.0702">
        <ele>104.940203</ele>
        <time>2023-04-26T13:03:21.291Z</time>
      </trkpt>
      <trkpt lat="51.43114" lon="7.07028">
        <ele>105.075986</ele>
        <time>2023-04-26T13:03:24.279Z</time>
      </trkpt>
      <trkpt lat="51.43122" lon="7.07033">
        <ele>105.177066</ele>
        <time>2023-04-26T13:03:26.273Z</time>
      </trkpt>
      <trkpt lat="51.43131" lon="7.07039">
        <ele>105.276427</ele>
        <time>2023-04-26T13:03:28.276Z</time>
      </trkpt>
      <trkpt lat="51.4314" lon="7.07045">
        <ele>105.38758</ele>
        <time>2023-04-26T13:03:30.292Z</time>
      </trkpt>
      <trkpt lat="51.4315" lon="7.07051">
        <ele>105.49597</ele>
        <time>2023-04-26T13:03:32.263Z</time>
      </trkpt>
      <trkpt lat="51.43158" lon="7.07057">
        <ele>105.596161</ele>
        <time>2023-04-26T13:03:34.284Z</time>
      </trkpt>
      <trkpt lat="51.43169" lon="7.07068">
        <ele>105.734859</ele>
        <time>2023-04-26T13:03:37.271Z</time>
      </trkpt>
      <trkpt lat="51.43181" lon="7.07079">
        <ele>105.880529</ele>
        <time>2023-04-26T13:03:40.264Z</time>
      </trkpt>
      <trkpt lat="51.43192" lon="7.07089">
        <ele>106.025184</ele>
        <time>2023-04-26T13:03:43.272Z</time>
      </trkpt>
      <trkpt lat="51.43204" lon="7.07101">
        <ele>106.176213</ele>
        <time>2023-04-26T13:03:46.277Z</time>
      </trkpt>
      <trkpt lat="51.43215" lon="7.07112">
        <ele>106.318511</ele>
        <time>2023-04-26T13:03:49.290Z</time>
      </trkpt>
      <trkpt lat="51.43224" lon="7.0712">
        <ele>106.426177</ele>
        <time>2023-04-26T13:03:51.293Z</time>
      </trkpt>
      <trkpt lat="51.43232" lon="7.07128">
        <ele>106.531098</ele>
        <time>2023-04-26T13:03:53.279Z</time>
      </trkpt>
      <trkpt lat="51.43243" lon="7.07139">
        <ele>106.666828</ele>
        <time>2023-04-26T13:03:56.283Z</time>
      </trkpt>
      <trkpt lat="51.43253" lon="7.0715">
        <ele>106.679665</ele>
        <time>2023-04-26T13:03:59.289Z</time>
      </trkpt>
      <trkpt lat="51.43263" lon="7.07161">
        <ele>106.446047</ele>
        <time>2023-04-26T13:04:02.286Z</time>
      </trkpt>
      <trkpt lat="51.43273" lon="7.07172">
        <ele>106.200562</ele>
        <time>2023-04-26T13:04:05.263Z</time>
      </trkpt>
      <trkpt lat="51.43283" lon="7.07181">
        <ele>105.973955</ele>
        <time>2023-04-26T13:04:08.297Z</time>
      </trkpt>
      <trkpt lat="51.43293" lon="7.07188">
        <ele>105.758641</ele>
        <time>2023-04-26T13:04:11.299Z</time>
      </trkpt>
      <trkpt lat="51.43301" lon="7.07194">
        <ele>105.565684</ele>
        <time>2023-04-26T13:04:14.261Z</time>
      </trkpt>
      <trkpt lat="51.43311" lon="7.07201">
        <ele>105.357997</ele>
        <time>2023-04-26T13:04:17.285Z</time>
      </trkpt>
      <trkpt lat="51.4332" lon="7.07206">
        <ele>105.162387</ele>
        <time>2023-04-26T13:04:20.264Z</time>
      </trkpt>
      <trkpt lat="51.4333" lon="7.07214">
        <ele>104.936914</ele>
        <time>2023-04-26T13:04:23.291Z</time>
      </trkpt>
      <trkpt lat="51.4334" lon="7.07219">
        <ele>104.737818</ele>
        <time>2023-04-26T13:04:26.278Z</time>
      </trkpt>
      <trkpt lat="51.4335" lon="7.07225">
        <ele>104.527206</ele>
        <time>2023-04-26T13:04:29.297Z</time>
      </trkpt>
      <trkpt lat="51.43359" lon="7.0723">
        <ele>104.321204</ele>
        <time>2023-04-26T13:04:32.296Z</time>
      </trkpt>
      <trkpt lat="51.43371" lon="7.07235">
        <ele>104.086821</ele>
        <time>2023-04-26T13:04:35.264Z</time>
      </trkpt>
      <trkpt lat="51.43381" lon="7.0724">
        <ele>103.872893</ele>
        <time>2023-04-26T13:04:38.281Z</time>
      </trkpt>
      <trkpt lat="51.43392" lon="7.07243">
        <ele>103.654722</ele>
        <time>2023-04-26T13:04:41.262Z</time>
      </trkpt>
      <trkpt lat="51.43402" lon="7.07246">
        <ele>103.447724</ele>
        <time>2023-04-26T13:04:44.278Z</time>
      </trkpt>
      <trkpt lat="51.43412" lon="7.0725">
        <ele>103.238052</ele>
        <time>2023-04-26T13:04:47.290Z</time>
      </trkpt>
      <trkpt lat="51.43422" lon="7.07252">
        <ele>103.147754</ele>
        <time>2023-04-26T13:04:50.293Z</time>
      </trkpt>
      <trkpt lat="51.43433" lon="7.07254">
        <ele>103.124065</ele>
        <time>2023-04-26T13:04:53.270Z</time>
      </trkpt>
      <trkpt lat="51.43444" lon="7.07253">
        <ele>103.10095</ele>
        <time>2023-04-26T13:04:56.251Z</time>
      </trkpt>
      <trkpt lat="51.43455" lon="7.07251">
        <ele>103.077515</ele>
        <time>2023-04-26T13:04:59.276Z</time>
      </trkpt>
      <trkpt lat="51.43466" lon="7.07251">
        <ele>103.054395</ele>
        <time>2023-04-26T13:05:02.293Z</time>
      </trkpt>
      <trkpt lat="51.43477" lon="7.07249">
        <ele>103.029906</ele>
        <time>2023-04-26T13:05:05.295Z</time>
      </trkpt>
      <trkpt lat="51.43488" lon="7.07247">
        <ele>103.00734</ele>
        <time>2023-04-26T13:05:08.278Z</time>
      </trkpt>
      <trkpt lat="51.43499" lon="7.07247">
        <ele>102.984026</ele>
        <time>2023-04-26T13:05:11.269Z</time>
      </trkpt>
      <trkpt lat="51.43509" lon="7.07247">
        <ele>102.96219</ele>
        <time>2023-04-26T13:05:14.286Z</time>
      </trkpt>
      <trkpt lat="51.43519" lon="7.07246">
        <ele>102.941392</ele>
        <time>2023-04-26T13:05:17.289Z</time>
      </trkpt>
      <trkpt lat="51.4353" lon="7.07247">
        <ele>102.918464</ele>
        <time>2023-04-26T13:05:20.273Z</time>
      </trkpt>
      <trkpt lat="51.43541" lon="7.07248">
        <ele>102.895105</ele>
        <time>2023-04-26T13:05:23.272Z</time>
      </trkpt>
      <trkpt lat="51.43552" lon="7.0725">
        <ele>102.871485</ele>
        <time>2023-04-26T13:05:26.287Z</time>
      </trkpt>
      <trkpt lat="51.43562" lon="7.07251">
        <ele>102.848987</ele>
        <time>2023-04-26T13:05:29.283Z</time>
      </trkpt>
      <trkpt lat="51.43573" lon="7.07253">
        <ele>102.826699</ele>
        <time>2023-04-26T13:05:32.278Z</time>
      </trkpt>
      <trkpt lat="51.43583" lon="7.07254">
        <ele>102.805847</ele>
        <time>2023-04-26T13:05:35.282Z</time>
      </trkpt>
      <trkpt lat="51.43593" lon="7.07253">
        <ele>102.783757</ele>
        <time>2023-04-26T13:05:39.287Z</time>
      </trkpt>
      <trkpt lat="51.43607" lon="7.07263">
        <ele>102.706774</ele>
        <time>2023-04-26T13:06:53.284Z</time>
      </trkpt>
      <trkpt lat="51.43616" lon="7.0727">
        <ele>102.648559</ele>
        <time>2023-04-26T13:06:57.265Z</time>
      </trkpt>
      <trkpt lat="51.43626" lon="7.0728">
        <ele>102.584952</ele>
        <time>2023-04-26T13:07:00.288Z</time>
      </trkpt>
      <trkpt lat="51.43636" lon="7.07288">
        <ele>102.518372</ele>
        <time>2023-04-26T13:07:03.268Z</time>
      </trkpt>
      <trkpt lat="51.43646" lon="7.07298">
        <ele>102.450869</ele>
        <time>2023-04-26T13:07:06.292Z</time>
      </trkpt>
      <trkpt lat="51.43657" lon="7.07309">
        <ele>102.381849</ele>
        <time>2023-04-26T13:07:09.294Z</time>
      </trkpt>
      <trkpt lat="51.43667" lon="7.07322">
        <ele>102.310022</ele>
        <time>2023-04-26T13:07:12.290Z</time>
      </trkpt>
      <trkpt lat="51.43674" lon="7.07331">
        <ele>102.258599</ele>
        <time>2023-04-26T13:07:14.283Z</time>
      </trkpt>
      <trkpt lat="51.43681" lon="7.0734">
        <ele>102.207189</ele>
        <time>2023-04-26T13:07:16.277Z</time>
      </trkpt>
      <trkpt lat="51.43687" lon="7.07351">
        <ele>102.155775</ele>
        <time>2023-04-26T13:07:18.287Z</time>
      </trkpt>
      <trkpt lat="51.43692" lon="7.07363">
        <ele>102.102705</ele>
        <time>2023-04-26T13:07:20.296Z</time>
      </trkpt>
      <trkpt lat="51.43697" lon="7.07376">
        <ele>102.051391</ele>
        <time>2023-04-26T13:07:22.273Z</time>
      </trkpt>
      <trkpt lat="51.43702" lon="7.07388">
        <ele>102.000135</ele>
        <time>2023-04-26T13:07:24.277Z</time>
      </trkpt>
      <trkpt lat="51.43707" lon="7.07402">
        <ele>101.945916</ele>
        <time>2023-04-26T13:07:26.293Z</time>
      </trkpt>
      <trkpt lat="51.43711" lon="7.07415">
        <ele>101.89332</ele>
        <time>2023-04-26T13:07:28.287Z</time>
      </trkpt>
      <trkpt lat="51.43716" lon="7.07429">
        <ele>101.839473</ele>
        <time>2023-04-26T13:07:30.288Z</time>
      </trkpt>
      <trkpt lat="51.4372" lon="7.07442">
        <ele>101.786047</ele>
        <time>2023-04-26T13:07:32.290Z</time>
      </trkpt>
      <trkpt lat="51.43724" lon="7.07455">
        <ele>101.795095</ele>
        <time>2023-04-26T13:07:34.285Z</time>
      </trkpt>
      <trkpt lat="51.43729" lon="7.07469">
        <ele>101.843086</ele>
        <time>2023-04-26T13:07:36.273Z</time>
      </trkpt>
      <trkpt lat="51.43735" lon="7.07482">
        <ele>101.891084</ele>
        <time>2023-04-26T13:07:38.292Z</time>
      </trkpt>
      <trkpt lat="51.43739" lon="7.07495">
        <ele>101.936025</ele>
        <time>2023-04-26T13:07:40.278Z</time>
      </trkpt>
      <trkpt lat="51.43743" lon="7.07508">
        <ele>101.981098</ele>
        <time>2023-04-26T13:07:42.283Z</time>
      </trkpt>
      <trkpt lat="51.43747" lon="7.07521">
        <ele>102.026119</ele>
        <time>2023-04-26T13:07:44.278Z</time>
      </trkpt>
      <trkpt lat="51.43751" lon="7.07535">
        <ele>102.070901</ele>
        <time>2023-04-26T13:07:46.256Z</time>
      </trkpt>
      <trkpt lat="51.43754" lon="7.07549">
        <ele>102.115568</ele>
        <time>2023-04-26T13:07:48.278Z</time>
      </trkpt>
      <trkpt lat="51.43757" lon="7.07569">
        <ele>102.181836</ele>
        <time>2023-04-26T13:07:51.270Z</time>
      </trkpt>
      <trkpt lat="51.43761" lon="7.07589">
        <ele>102.245009</ele>
        <time>2023-04-26T13:07:54.289Z</time>
      </trkpt>
      <trkpt lat="51.43765" lon="7.07602">
        <ele>102.289262</ele>
        <time>2023-04-26T13:07:56.280Z</time>
      </trkpt>
      <trkpt lat="51.43769" lon="7.07621">
        <ele>102.350538</ele>
        <time>2023-04-26T13:07:59.277Z</time>
      </trkpt>
      <trkpt lat="51.43774" lon="7.07639">
        <ele>102.410484</ele>
        <time>2023-04-26T13:08:02.281Z</time>
      </trkpt>
      <trkpt lat="51.43779" lon="7.07656">
        <ele>102.468209</ele>
        <time>2023-04-26T13:08:05.292Z</time>
      </trkpt>
      <trkpt lat="51.43784" lon="7.07674">
        <ele>102.529417</ele>
        <time>2023-04-26T13:08:08.270Z</time>
      </trkpt>
      <trkpt lat="51.4379" lon="7.07693">
        <ele>102.59116</ele>
        <time>2023-04-26T13:08:11.289Z</time>
      </trkpt>
      <trkpt lat="51.43793" lon="7.07711">
        <ele>102.649053</ele>
        <time>2023-04-26T13:08:14.258Z</time>
      </trkpt>
      <trkpt lat="51.43796" lon="7.0773">
        <ele>102.674691</ele>
        <time>2023-04-26T13:08:17.293Z</time>
      </trkpt>
      <trkpt lat="51.43798" lon="7.07748">
        <ele>102.698536</ele>
        <time>2023-04-26T13:08:20.276Z</time>
      </trkpt>
      <trkpt lat="51.43799" lon="7.07764">
        <ele>102.719449</ele>
        <time>2023-04-26T13:08:23.290Z</time>
      </trkpt>
      <trkpt lat="51.438" lon="7.07779">
        <ele>102.738585</ele>
        <time>2023-04-26T13:08:26.275Z</time>
      </trkpt>
      <trkpt lat="51.43803" lon="7.07793">
        <ele>102.757618</ele>
        <time>2023-04-26T13:08:29.289Z</time>
      </trkpt>
      <trkpt lat="51.43803" lon="7.07809">
        <ele>102.778811</ele>
        <time>2023-04-26T13:08:40.277Z</time>
      </trkpt>
      <trkpt lat="51.43805" lon="7.07827">
        <ele>102.802161</ele>
        <time>2023-04-26T13:08:46.358Z</time>
      </trkpt>
      <trkpt lat="51.43807" lon="7.07841">
        <ele>102.821896</ele>
        <time>2023-04-26T13:08:50.285Z</time>
      </trkpt>
      <trkpt lat="51.43809" lon="7.07856">
        <ele>102.84105</ele>
        <time>2023-04-26T13:08:53.265Z</time>
      </trkpt>
      <trkpt lat="51.43807" lon="7.07873">
        <ele>102.863655</ele>
        <time>2023-04-26T13:08:56.267Z</time>
      </trkpt>
      <trkpt lat="51.43805" lon="7.0789">
        <ele>102.887362</ele>
        <time>2023-04-26T13:08:59.274Z</time>
      </trkpt>
      <trkpt lat="51.43802" lon="7.07908">
        <ele>102.910697</ele>
        <time>2023-04-26T13:09:02.291Z</time>
      </trkpt>
      <trkpt lat="51.438" lon="7.07924">
        <ele>102.931851</ele>
        <time>2023-04-26T13:09:05.297Z</time>
      </trkpt>
      <trkpt lat="51.43798" lon="7.07939">
        <ele>102.95225</ele>
        <time>2023-04-26T13:09:08.265Z</time>
      </trkpt>
      <trkpt lat="51.43795" lon="7.07954">
        <ele>102.973292</ele>
        <time>2023-04-26T13:09:11.266Z</time>
      </trkpt>
      <trkpt lat="51.43792" lon="7.07971">
        <ele>102.995515</ele>
        <time>2023-04-26T13:09:14.265Z</time>
      </trkpt>
      <trkpt lat="51.43789" lon="7.07988">
        <ele>103.018487</ele>
        <time>2023-04-26T13:09:17.269Z</time>
      </trkpt>
      <trkpt lat="51.43785" lon="7.08005">
        <ele>103.063812</ele>
        <time>2023-04-26T13:09:20.271Z</time>
      </trkpt>
      <trkpt lat="51.43781" lon="7.08024">
        <ele>103.123859</ele>
        <time>2023-04-26T13:09:23.298Z</time>
      </trkpt>
      <trkpt lat="51.43776" lon="7.08044">
        <ele>103.186808</ele>
        <time>2023-04-26T13:09:26.266Z</time>
      </trkpt>
      <trkpt lat="51.43772" lon="7.08063">
        <ele>103.247538</ele>
        <time>2023-04-26T13:09:29.269Z</time>
      </trkpt>
      <trkpt lat="51.43768" lon="7.08083">
        <ele>103.310377</ele>
        <time>2023-04-26T13:09:32.263Z</time>
      </trkpt>
      <trkpt lat="51.43763" lon="7.08101">
        <ele>103.366267</ele>
        <time>2023-04-26T13:09:35.280Z</time>
      </trkpt>
      <trkpt lat="51.43757" lon="7.08118">
        <ele>103.423866</ele>
        <time>2023-04-26T13:09:38.293Z</time>
      </trkpt>
      <trkpt lat="51.4375" lon="7.08136">
        <ele>103.486474</ele>
        <time>2023-04-26T13:09:41.274Z</time>
      </trkpt>
      <trkpt lat="51.43743" lon="7.08151">
        <ele>103.542166</ele>
        <time>2023-04-26T13:09:44.284Z</time>
      </trkpt>
      <trkpt lat="51.43736" lon="7.08168">
        <ele>103.602116</ele>
        <time>2023-04-26T13:09:47.281Z</time>
      </trkpt>
      <trkpt lat="51.43729" lon="7.08183">
        <ele>103.660673</ele>
        <time>2023-04-26T13:09:50.289Z</time>
      </trkpt>
      <trkpt lat="51.4372" lon="7.08196">
        <ele>103.713069</ele>
        <time>2023-04-26T13:09:53.282Z</time>
      </trkpt>
      <trkpt lat="51.43712" lon="7.08204">
        <ele>103.762718</ele>
        <time>2023-04-26T13:09:57.296Z</time>
      </trkpt>
      <trkpt lat="51.4372" lon="7.08196">
        <ele>103.808152</ele>
        <time>2023-04-26T13:10:05.280Z</time>
      </trkpt>
      <trkpt lat="51.43727" lon="7.08205">
        <ele>103.852352</ele>
        <time>2023-04-26T13:10:10.274Z</time>
      </trkpt>
      <trkpt lat="51.43727" lon="7.08223">
        <ele>103.744254</ele>
        <time>2023-04-26T13:10:15.275Z</time>
      </trkpt>
      <trkpt lat="51.4372" lon="7.08236">
        <ele>103.516011</ele>
        <time>2023-04-26T13:10:19.290Z</time>
      </trkpt>
      <trkpt lat="51.43712" lon="7.0825">
        <ele>103.258303</ele>
        <time>2023-04-26T13:10:23.269Z</time>
      </trkpt>
      <trkpt lat="51.43705" lon="7.08262">
        <ele>103.0495</ele>
        <time>2023-04-26T13:10:26.289Z</time>
      </trkpt>
      <trkpt lat="51.43698" lon="7.08273">
        <ele>102.827863</ele>
        <time>2023-04-26T13:10:29.303Z</time>
      </trkpt>
      <trkpt lat="51.43691" lon="7.08285">
        <ele>102.612217</ele>
        <time>2023-04-26T13:10:32.276Z</time>
      </trkpt>
      <trkpt lat="51.43684" lon="7.08298">
        <ele>102.384236</ele>
        <time>2023-04-26T13:10:35.280Z</time>
      </trkpt>
      <trkpt lat="51.43677" lon="7.08309">
        <ele>102.169561</ele>
        <time>2023-04-26T13:10:38.270Z</time>
      </trkpt>
      <trkpt lat="51.43669" lon="7.08321">
        <ele>101.937717</ele>
        <time>2023-04-26T13:10:41.293Z</time>
      </trkpt>
      <trkpt lat="51.43661" lon="7.08333">
        <ele>101.706519</ele>
        <time>2023-04-26T13:10:44.278Z</time>
      </trkpt>
      <trkpt lat="51.43652" lon="7.08345">
        <ele>101.453523</ele>
        <time>2023-04-26T13:10:47.274Z</time>
      </trkpt>
      <trkpt lat="51.43645" lon="7.08357">
        <ele>101.225059</ele>
        <time>2023-04-26T13:10:50.278Z</time>
      </trkpt>
      <trkpt lat="51.43637" lon="7.08366">
        <ele>101.021489</ele>
        <time>2023-04-26T13:10:54.286Z</time>
      </trkpt>
      <trkpt lat="51.43639" lon="7.08381">
        <ele>100.827888</ele>
        <time>2023-04-26T13:11:00.274Z</time>
      </trkpt>
      <trkpt lat="51.43645" lon="7.08396">
        <ele>100.576766</ele>
        <time>2023-04-26T13:11:04.341Z</time>
      </trkpt>
      <trkpt lat="51.43654" lon="7.08411">
        <ele>100.308791</ele>
        <time>2023-04-26T13:11:07.273Z</time>
      </trkpt>
      <trkpt lat="51.4366" lon="7.08425">
        <ele>100.084617</ele>
        <time>2023-04-26T13:11:11.278Z</time>
      </trkpt>
      <trkpt lat="51.43653" lon="7.08436">
        <ele>100.024139</ele>
        <time>2023-04-26T13:11:16.274Z</time>
      </trkpt>
      <trkpt lat="51.43643" lon="7.08441">
        <ele>100.040904</ele>
        <time>2023-04-26T13:11:19.267Z</time>
      </trkpt>
      <trkpt lat="51.43633" lon="7.08446">
        <ele>100.058058</ele>
        <time>2023-04-26T13:11:22.259Z</time>
      </trkpt>
      <trkpt lat="51.43624" lon="7.08451">
        <ele>100.074797</ele>
        <time>2023-04-26T13:11:25.278Z</time>
      </trkpt>
      <trkpt lat="51.43614" lon="7.08455">
        <ele>100.091948</ele>
        <time>2023-04-26T13:11:28.288Z</time>
      </trkpt>
      <trkpt lat="51.43603" lon="7.0846">
        <ele>100.110832</ele>
        <time>2023-04-26T13:11:31.279Z</time>
      </trkpt>
      <trkpt lat="51.43592" lon="7.08464">
        <ele>100.12974</ele>
        <time>2023-04-26T13:11:34.260Z</time>
      </trkpt>
      <trkpt lat="51.43581" lon="7.08468">
        <ele>100.148436</ele>
        <time>2023-04-26T13:11:37.289Z</time>
      </trkpt>
      <trkpt lat="51.43569" lon="7.08473">
        <ele>100.170346</ele>
        <time>2023-04-26T13:11:40.283Z</time>
      </trkpt>
      <trkpt lat="51.4356" lon="7.08477">
        <ele>100.185712</ele>
        <time>2023-04-26T13:11:42.278Z</time>
      </trkpt>
      <trkpt lat="51.43551" lon="7.08481">
        <ele>100.201185</ele>
        <time>2023-04-26T13:11:44.276Z</time>
      </trkpt>
      <trkpt lat="51.43542" lon="7.08485">
        <ele>100.216742</ele>
        <time>2023-04-26T13:11:46.291Z</time>
      </trkpt>
      <trkpt lat="51.43533" lon="7.08489">
        <ele>100.232679</ele>
        <time>2023-04-26T13:11:48.291Z</time>
      </trkpt>
      <trkpt lat="51.43524" lon="7.08493">
        <ele>100.249234</ele>
        <time>2023-04-26T13:11:50.286Z</time>
      </trkpt>
      <trkpt lat="51.43514" lon="7.08499">
        <ele>100.265999</ele>
        <time>2023-04-26T13:11:52.284Z</time>
      </trkpt>
      <trkpt lat="51.43505" lon="7.08506">
        <ele>100.282608</ele>
        <time>2023-04-26T13:11:54.279Z</time>
      </trkpt>
      <trkpt lat="51.43496" lon="7.08511">
        <ele>100.298669</ele>
        <time>2023-04-26T13:11:56.276Z</time>
      </trkpt>
      <trkpt lat="51.43488" lon="7.08516">
        <ele>100.314251</ele>
        <time>2023-04-26T13:11:58.275Z</time>
      </trkpt>
      <trkpt lat="51.43479" lon="7.08521">
        <ele>100.330258</ele>
        <time>2023-04-26T13:12:00.273Z</time>
      </trkpt>
      <trkpt lat="51.4347" lon="7.08526">
        <ele>100.345642</ele>
        <time>2023-04-26T13:12:02.285Z</time>
      </trkpt>
      <trkpt lat="51.43457" lon="7.0853">
        <ele>100.367137</ele>
        <time>2023-04-26T13:12:05.266Z</time>
      </trkpt>
      <trkpt lat="51.43446" lon="7.08537">
        <ele>100.388189</ele>
        <time>2023-04-26T13:12:08.268Z</time>
      </trkpt>
      <trkpt lat="51.43434" lon="7.08545">
        <ele>100.410341</ele>
        <time>2023-04-26T13:12:11.275Z</time>
      </trkpt>
      <trkpt lat="51.43425" lon="7.08551">
        <ele>100.425763</ele>
        <time>2023-04-26T13:12:13.279Z</time>
      </trkpt>
      <trkpt lat="51.43417" lon="7.08556">
        <ele>100.441064</ele>
        <time>2023-04-26T13:12:15.299Z</time>
      </trkpt>
      <trkpt lat="51.43409" lon="7.08563">
        <ele>100.45646</ele>
        <time>2023-04-26T13:12:17.275Z</time>
      </trkpt>
      <trkpt lat="51.434" lon="7.08569">
        <ele>100.472741</ele>
        <time>2023-04-26T13:12:19.273Z</time>
      </trkpt>
      <trkpt lat="51.43391" lon="7.08575">
        <ele>100.488818</ele>
        <time>2023-04-26T13:12:21.277Z</time>
      </trkpt>
      <trkpt lat="51.43382" lon="7.08581">
        <ele>100.505175</ele>
        <time>2023-04-26T13:12:23.282Z</time>
      </trkpt>
      <trkpt lat="51.43373" lon="7.08587">
        <ele>100.521493</ele>
        <time>2023-04-26T13:12:25.276Z</time>
      </trkpt>
      <trkpt lat="51.43365" lon="7.08593">
        <ele>100.537437</ele>
        <time>2023-04-26T13:12:27.279Z</time>
      </trkpt>
      <trkpt lat="51.43355" lon="7.08599">
        <ele>100.554151</ele>
        <time>2023-04-26T13:12:29.274Z</time>
      </trkpt>
      <trkpt lat="51.43346" lon="7.08605">
        <ele>100.570899</ele>
        <time>2023-04-26T13:12:31.285Z</time>
      </trkpt>
      <trkpt lat="51.43338" lon="7.08612">
        <ele>100.587266</ele>
        <time>2023-04-26T13:12:33.299Z</time>
      </trkpt>
      <trkpt lat="51.43329" lon="7.08619">
        <ele>100.603802</ele>
        <time>2023-04-26T13:12:35.293Z</time>
      </trkpt>
      <trkpt lat="51.4332" lon="7.08624">
        <ele>100.618628</ele>
        <time>2023-04-26T13:12:37.280Z</time>
      </trkpt>
      <trkpt lat="51.43312" lon="7.08631">
        <ele>100.623565</ele>
        <time>2023-04-26T13:12:39.269Z</time>
      </trkpt>
      <trkpt lat="51.43303" lon="7.08638">
        <ele>100.628681</ele>
        <time>2023-04-26T13:12:41.274Z</time>
      </trkpt>
      <trkpt lat="51.43294" lon="7.08644">
        <ele>100.633604</ele>
        <time>2023-04-26T13:12:43.295Z</time>
      </trkpt>
      <trkpt lat="51.43286" lon="7.0865">
        <ele>100.63851</ele>
        <time>2023-04-26T13:12:45.287Z</time>
      </trkpt>
      <trkpt lat="51.43277" lon="7.08654">
        <ele>100.643598</ele>
        <time>2023-04-26T13:12:47.290Z</time>
      </trkpt>
      <trkpt lat="51.43268" lon="7.0866">
        <ele>100.648407</ele>
        <time>2023-04-26T13:12:49.277Z</time>
      </trkpt>
      <trkpt lat="51.43259" lon="7.08667">
        <ele>100.65351</ele>
        <time>2023-04-26T13:12:51.278Z</time>
      </trkpt>
      <trkpt lat="51.4325" lon="7.08675">
        <ele>100.659058</ele>
        <time>2023-04-26T13:12:53.275Z</time>
      </trkpt>
      <trkpt lat="51.43241" lon="7.08682">
        <ele>100.664537</ele>
        <time>2023-04-26T13:12:55.270Z</time>
      </trkpt>
      <trkpt lat="51.43232" lon="7.08687">
        <ele>100.669491</ele>
        <time>2023-04-26T13:12:57.277Z</time>
      </trkpt>
      <trkpt lat="51.43222" lon="7.08694">
        <ele>100.674884</ele>
        <time>2023-04-26T13:12:59.290Z</time>
      </trkpt>
      <trkpt lat="51.43213" lon="7.08699">
        <ele>100.680156</ele>
        <time>2023-04-26T13:13:01.295Z</time>
      </trkpt>
      <trkpt lat="51.43204" lon="7.08705">
        <ele>100.685428</ele>
        <time>2023-04-26T13:13:03.298Z</time>
      </trkpt>
      <trkpt lat="51.43194" lon="7.0871">
        <ele>100.690849</ele>
        <time>2023-04-26T13:13:05.269Z</time>
      </trkpt>
      <trkpt lat="51.43184" lon="7.08715">
        <ele>100.696117</ele>
        <time>2023-04-26T13:13:07.268Z</time>
      </trkpt>
      <trkpt lat="51.43175" lon="7.08721">
        <ele>100.701526</ele>
        <time>2023-04-26T13:13:09.280Z</time>
      </trkpt>
      <trkpt lat="51.43165" lon="7.08727">
        <ele>100.707138</ele>
        <time>2023-04-26T13:13:11.267Z</time>
      </trkpt>
      <trkpt lat="51.43155" lon="7.08733">
        <ele>100.712434</ele>
        <time>2023-04-26T13:13:13.302Z</time>
      </trkpt>
      <trkpt lat="51.43146" lon="7.08738">
        <ele>100.791566</ele>
        <time>2023-04-26T13:13:15.274Z</time>
      </trkpt>
      <trkpt lat="51.43135" lon="7.08745">
        <ele>100.88501</ele>
        <time>2023-04-26T13:13:17.302Z</time>
      </trkpt>
      <trkpt lat="51.43125" lon="7.08752">
        <ele>100.976895</ele>
        <time>2023-04-26T13:13:19.277Z</time>
      </trkpt>
      <trkpt lat="51.43115" lon="7.08758">
        <ele>101.065999</ele>
        <time>2023-04-26T13:13:21.279Z</time>
      </trkpt>
      <trkpt lat="51.43104" lon="7.08765">
        <ele>101.16096</ele>
        <time>2023-04-26T13:13:23.279Z</time>
      </trkpt>
      <trkpt lat="51.43093" lon="7.08772">
        <ele>101.257845</ele>
        <time>2023-04-26T13:13:25.265Z</time>
      </trkpt>
      <trkpt lat="51.43082" lon="7.08779">
        <ele>101.357773</ele>
        <time>2023-04-26T13:13:27.280Z</time>
      </trkpt>
      <trkpt lat="51.43071" lon="7.08786">
        <ele>101.454309</ele>
        <time>2023-04-26T13:13:29.291Z</time>
      </trkpt>
      <trkpt lat="51.43061" lon="7.08792">
        <ele>101.539118</ele>
        <time>2023-04-26T13:13:31.286Z</time>
      </trkpt>
      <trkpt lat="51.43051" lon="7.08798">
        <ele>101.628742</ele>
        <time>2023-04-26T13:13:33.293Z</time>
      </trkpt>
      <trkpt lat="51.43042" lon="7.08809">
        <ele>101.718914</ele>
        <time>2023-04-26T13:13:35.276Z</time>
      </trkpt>
      <trkpt lat="51.43035" lon="7.08819">
        <ele>101.803919</ele>
        <time>2023-04-26T13:13:37.267Z</time>
      </trkpt>
      <trkpt lat="51.43027" lon="7.08829">
        <ele>101.885973</ele>
        <time>2023-04-26T13:13:39.282Z</time>
      </trkpt>
      <trkpt lat="51.4302" lon="7.08841">
        <ele>101.966925</ele>
        <time>2023-04-26T13:13:41.284Z</time>
      </trkpt>
      <trkpt lat="51.43013" lon="7.08856">
        <ele>102.067137</ele>
        <time>2023-04-26T13:13:44.299Z</time>
      </trkpt>
      <trkpt lat="51.43009" lon="7.0887">
        <ele>102.144715</ele>
        <time>2023-04-26T13:13:47.282Z</time>
      </trkpt>
      <trkpt lat="51.43008" lon="7.08887">
        <ele>102.144617</ele>
        <time>2023-04-26T13:13:52.273Z</time>
      </trkpt>
      <trkpt lat="51.43005" lon="7.08905">
        <ele>102.003842</ele>
        <time>2023-04-26T13:13:56.295Z</time>
      </trkpt>
      <trkpt lat="51.43002" lon="7.08923">
        <ele>101.868914</ele>
        <time>2023-04-26T13:13:59.277Z</time>
      </trkpt>
      <trkpt lat="51.42999" lon="7.08943">
        <ele>101.717079</ele>
        <time>2023-04-26T13:14:02.286Z</time>
      </trkpt>
      <trkpt lat="51.42996" lon="7.08959">
        <ele>101.596353</ele>
        <time>2023-04-26T13:14:04.287Z</time>
      </trkpt>
      <trkpt lat="51.42994" lon="7.08976">
        <ele>101.463563</ele>
        <time>2023-04-26T13:14:06.284Z</time>
      </trkpt>
      <trkpt lat="51.42992" lon="7.08995">
        <ele>101.322362</ele>
        <time>2023-04-26T13:14:08.277Z</time>
      </trkpt>
      <trkpt lat="51.42989" lon="7.09014">
        <ele>101.183865</ele>
        <time>2023-04-26T13:14:10.272Z</time>
      </trkpt>
      <trkpt lat="51.42986" lon="7.09031">
        <ele>101.04792</ele>
        <time>2023-04-26T13:14:12.273Z</time>
      </trkpt>
      <trkpt lat="51.42984" lon="7.09049">
        <ele>100.914115</ele>
        <time>2023-04-26T13:14:14.289Z</time>
      </trkpt>
      <trkpt lat="51.42982" lon="7.09067">
        <ele>100.777873</ele>
        <time>2023-04-26T13:14:16.285Z</time>
      </trkpt>
      <trkpt lat="51.4298" lon="7.09085">
        <ele>100.644807</ele>
        <time>2023-04-26T13:14:18.280Z</time>
      </trkpt>
      <trkpt lat="51.42977" lon="7.09103">
        <ele>100.506159</ele>
        <time>2023-04-26T13:14:20.296Z</time>
      </trkpt>
      <trkpt lat="51.42975" lon="7.09121">
        <ele>100.371935</ele>
        <time>2023-04-26T13:14:22.288Z</time>
      </trkpt>
      <trkpt lat="51.42974" lon="7.09139">
        <ele>100.238196</ele>
        <time>2023-04-26T13:14:24.291Z</time>
      </trkpt>
      <trkpt lat="51.42973" lon="7.09157">
        <ele>100.107662</ele>
        <time>2023-04-26T13:14:26.288Z</time>
      </trkpt>
      <trkpt lat="51.42971" lon="7.09174">
        <ele>100.010719</ele>
        <time>2023-04-26T13:14:28.279Z</time>
      </trkpt>
      <trkpt lat="51.4297" lon="7.09191">
        <ele>99.928272</ele>
        <time>2023-04-26T13:14:30.298Z</time>
      </trkpt>
      <trkpt lat="51.42969" lon="7.09209">
        <ele>99.843452</ele>
        <time>2023-04-26T13:14:32.284Z</time>
      </trkpt>
      <trkpt lat="51.42968" lon="7.09227">
        <ele>99.757994</ele>
        <time>2023-04-26T13:14:34.275Z</time>
      </trkpt>
      <trkpt lat="51.42967" lon="7.09244">
        <ele>99.677444</ele>
        <time>2023-04-26T13:14:36.262Z</time>
      </trkpt>
      <trkpt lat="51.42965" lon="7.0926">
        <ele>99.600645</ele>
        <time>2023-04-26T13:14:38.293Z</time>
      </trkpt>
      <trkpt lat="51.42964" lon="7.09277">
        <ele>99.516986</ele>
        <time>2023-04-26T13:14:40.279Z</time>
      </trkpt>
      <trkpt lat="51.42962" lon="7.09294">
        <ele>99.433422</ele>
        <time>2023-04-26T13:14:42.287Z</time>
      </trkpt>
      <trkpt lat="51.42961" lon="7.09312">
        <ele>99.348602</ele>
        <time>2023-04-26T13:14:44.298Z</time>
      </trkpt>
      <trkpt lat="51.4296" lon="7.0933">
        <ele>99.263997</ele>
        <time>2023-04-26T13:14:46.293Z</time>
      </trkpt>
      <trkpt lat="51.42958" lon="7.09347">
        <ele>99.180709</ele>
        <time>2023-04-26T13:14:48.280Z</time>
      </trkpt>
      <trkpt lat="51.42957" lon="7.09364">
        <ele>99.101185</ele>
        <time>2023-04-26T13:14:50.278Z</time>
      </trkpt>
      <trkpt lat="51.42956" lon="7.09381">
        <ele>99.01904</ele>
        <time>2023-04-26T13:14:52.258Z</time>
      </trkpt>
      <trkpt lat="51.42954" lon="7.09398">
        <ele>98.93753</ele>
        <time>2023-04-26T13:14:54.277Z</time>
      </trkpt>
      <trkpt lat="51.42952" lon="7.09414">
        <ele>98.859395</ele>
        <time>2023-04-26T13:14:56.275Z</time>
      </trkpt>
      <trkpt lat="51.42951" lon="7.0943">
        <ele>98.780791</ele>
        <time>2023-04-26T13:14:58.272Z</time>
      </trkpt>
      <trkpt lat="51.42949" lon="7.09446">
        <ele>98.702325</ele>
        <time>2023-04-26T13:15:00.313Z</time>
      </trkpt>
      <trkpt lat="51.42946" lon="7.09462">
        <ele>98.716189</ele>
        <time>2023-04-26T13:15:02.294Z</time>
      </trkpt>
      <trkpt lat="51.42945" lon="7.09478">
        <ele>98.740803</ele>
        <time>2023-04-26T13:15:04.261Z</time>
      </trkpt>
      <trkpt lat="51.42942" lon="7.09494">
        <ele>98.765659</ele>
        <time>2023-04-26T13:15:06.266Z</time>
      </trkpt>
      <trkpt lat="51.42939" lon="7.0951">
        <ele>98.791198</ele>
        <time>2023-04-26T13:15:08.265Z</time>
      </trkpt>
      <trkpt lat="51.42937" lon="7.09526">
        <ele>98.816011</ele>
        <time>2023-04-26T13:15:10.268Z</time>
      </trkpt>
      <trkpt lat="51.42935" lon="7.09543">
        <ele>98.841436</ele>
        <time>2023-04-26T13:15:12.266Z</time>
      </trkpt>
      <trkpt lat="51.42932" lon="7.09559">
        <ele>98.867069</ele>
        <time>2023-04-26T13:15:14.265Z</time>
      </trkpt>
      <trkpt lat="51.42929" lon="7.09575">
        <ele>98.891791</ele>
        <time>2023-04-26T13:15:16.266Z</time>
      </trkpt>
      <trkpt lat="51.42927" lon="7.09592">
        <ele>98.917341</ele>
        <time>2023-04-26T13:15:18.272Z</time>
      </trkpt>
      <trkpt lat="51.42925" lon="7.09608">
        <ele>98.942415</ele>
        <time>2023-04-26T13:15:20.268Z</time>
      </trkpt>
      <trkpt lat="51.42921" lon="7.09623">
        <ele>98.968006</ele>
        <time>2023-04-26T13:15:22.264Z</time>
      </trkpt>
      <trkpt lat="51.42917" lon="7.09639">
        <ele>98.992895</ele>
        <time>2023-04-26T13:15:24.271Z</time>
      </trkpt>
      <trkpt lat="51.42914" lon="7.09654">
        <ele>99.017863</ele>
        <time>2023-04-26T13:15:26.265Z</time>
      </trkpt>
      <trkpt lat="51.42911" lon="7.0967">
        <ele>99.042031</ele>
        <time>2023-04-26T13:15:28.285Z</time>
      </trkpt>
      <trkpt lat="51.42908" lon="7.09685">
        <ele>99.066643</ele>
        <time>2023-04-26T13:15:30.277Z</time>
      </trkpt>
      <trkpt lat="51.42906" lon="7.09701">
        <ele>99.090665</ele>
        <time>2023-04-26T13:15:32.297Z</time>
      </trkpt>
      <trkpt lat="51.42904" lon="7.09716">
        <ele>99.114155</ele>
        <time>2023-04-26T13:15:34.302Z</time>
      </trkpt>
      <trkpt lat="51.429" lon="7.09731">
        <ele>99.129516</ele>
        <time>2023-04-26T13:15:36.286Z</time>
      </trkpt>
      <trkpt lat="51.42898" lon="7.09751">
        <ele>99.127843</ele>
        <time>2023-04-26T13:15:39.280Z</time>
      </trkpt>
      <trkpt lat="51.42891" lon="7.09767">
        <ele>99.126257</ele>
        <time>2023-04-26T13:15:42.260Z</time>
      </trkpt>
      <trkpt lat="51.42885" lon="7.09778">
        <ele>99.125007</ele>
        <time>2023-04-26T13:15:45.265Z</time>
      </trkpt>
      <trkpt lat="51.42882" lon="7.09792">
        <ele>99.123797</ele>
        <time>2023-04-26T13:15:48.266Z</time>
      </trkpt>
      <trkpt lat="51.42878" lon="7.09808">
        <ele>99.122372</ele>
        <time>2023-04-26T13:15:51.289Z</time>
      </trkpt>
      <trkpt lat="51.42874" lon="7.09825">
        <ele>99.120857</ele>
        <time>2023-04-26T13:15:54.310Z</time>
      </trkpt>
      <trkpt lat="51.42871" lon="7.09843">
        <ele>99.119314</ele>
        <time>2023-04-26T13:15:57.292Z</time>
      </trkpt>
      <trkpt lat="51.42868" lon="7.09863">
        <ele>99.117552</ele>
        <time>2023-04-26T13:16:00.282Z</time>
      </trkpt>
      <trkpt lat="51.42864" lon="7.09883">
        <ele>99.11585</ele>
        <time>2023-04-26T13:16:03.288Z</time>
      </trkpt>
      <trkpt lat="51.4286" lon="7.09903">
        <ele>99.114077</ele>
        <time>2023-04-26T13:16:06.286Z</time>
      </trkpt>
      <trkpt lat="51.42857" lon="7.09924">
        <ele>99.112315</ele>
        <time>2023-04-26T13:16:09.274Z</time>
      </trkpt>
      <trkpt lat="51.42853" lon="7.09943">
        <ele>99.110606</ele>
        <time>2023-04-26T13:16:12.285Z</time>
      </trkpt>
      <trkpt lat="51.42849" lon="7.09963">
        <ele>99.108851</ele>
        <time>2023-04-26T13:16:15.290Z</time>
      </trkpt>
      <trkpt lat="51.42844" lon="7.09983">
        <ele>99.107129</ele>
        <time>2023-04-26T13:16:18.295Z</time>
      </trkpt>
      <trkpt lat="51.42843" lon="7.10004">
        <ele>99.119173</ele>
        <time>2023-04-26T13:16:21.278Z</time>
      </trkpt>
      <trkpt lat="51.42844" lon="7.1002">
        <ele>99.145968</ele>
        <time>2023-04-26T13:16:23.275Z</time>
      </trkpt>
      <trkpt lat="51.42844" lon="7.10037">
        <ele>99.174397</ele>
        <time>2023-04-26T13:16:25.304Z</time>
      </trkpt>
      <trkpt lat="51.42841" lon="7.10055">
        <ele>99.205606</ele>
        <time>2023-04-26T13:16:27.274Z</time>
      </trkpt>
      <trkpt lat="51.42839" lon="7.10073">
        <ele>99.235194</ele>
        <time>2023-04-26T13:16:29.270Z</time>
      </trkpt>
      <trkpt lat="51.42838" lon="7.10091">
        <ele>99.26439</ele>
        <time>2023-04-26T13:16:31.293Z</time>
      </trkpt>
      <trkpt lat="51.42837" lon="7.10107">
        <ele>99.292428</ele>
        <time>2023-04-26T13:16:33.281Z</time>
      </trkpt>
      <trkpt lat="51.42836" lon="7.10123">
        <ele>99.318892</ele>
        <time>2023-04-26T13:16:35.290Z</time>
      </trkpt>
      <trkpt lat="51.42836" lon="7.1014">
        <ele>99.347196</ele>
        <time>2023-04-26T13:16:37.282Z</time>
      </trkpt>
      <trkpt lat="51.42835" lon="7.10157">
        <ele>99.375112</ele>
        <time>2023-04-26T13:16:39.297Z</time>
      </trkpt>
      <trkpt lat="51.42835" lon="7.10174">
        <ele>99.403566</ele>
        <time>2023-04-26T13:16:41.280Z</time>
      </trkpt>
      <trkpt lat="51.42835" lon="7.10191">
        <ele>99.432319</ele>
        <time>2023-04-26T13:16:43.280Z</time>
      </trkpt>
      <trkpt lat="51.42835" lon="7.10209">
        <ele>99.461755</ele>
        <time>2023-04-26T13:16:45.294Z</time>
      </trkpt>
      <trkpt lat="51.42835" lon="7.10226">
        <ele>99.489335</ele>
        <time>2023-04-26T13:16:47.285Z</time>
      </trkpt>
      <trkpt lat="51.42836" lon="7.10242">
        <ele>99.517142</ele>
        <time>2023-04-26T13:16:49.287Z</time>
      </trkpt>
      <trkpt lat="51.42836" lon="7.10259">
        <ele>99.544068</ele>
        <time>2023-04-26T13:16:51.277Z</time>
      </trkpt>
      <trkpt lat="51.42837" lon="7.10275">
        <ele>99.571361</ele>
        <time>2023-04-26T13:16:53.293Z</time>
      </trkpt>
      <trkpt lat="51.42837" lon="7.10291">
        <ele>99.632564</ele>
        <time>2023-04-26T13:16:55.289Z</time>
      </trkpt>
      <trkpt lat="51.42837" lon="7.10306">
        <ele>99.729541</ele>
        <time>2023-04-26T13:16:57.279Z</time>
      </trkpt>
      <trkpt lat="51.42838" lon="7.10323">
        <ele>99.832856</ele>
        <time>2023-04-26T13:16:59.284Z</time>
      </trkpt>
      <trkpt lat="51.42839" lon="7.10339">
        <ele>99.937288</ele>
        <time>2023-04-26T13:17:01.282Z</time>
      </trkpt>
      <trkpt lat="51.42839" lon="7.10356">
        <ele>100.04225</ele>
        <time>2023-04-26T13:17:03.284Z</time>
      </trkpt>
      <trkpt lat="51.42839" lon="7.10372">
        <ele>100.144627</ele>
        <time>2023-04-26T13:17:05.285Z</time>
      </trkpt>
      <trkpt lat="51.42839" lon="7.10394">
        <ele>100.281558</ele>
        <time>2023-04-26T13:17:08.270Z</time>
      </trkpt>
      <trkpt lat="51.4284" lon="7.10411">
        <ele>100.388346</ele>
        <time>2023-04-26T13:17:10.277Z</time>
      </trkpt>
      <trkpt lat="51.4284" lon="7.10427">
        <ele>100.485197</ele>
        <time>2023-04-26T13:17:12.293Z</time>
      </trkpt>
      <trkpt lat="51.42841" lon="7.10441">
        <ele>100.578068</ele>
        <time>2023-04-26T13:17:14.277Z</time>
      </trkpt>
      <trkpt lat="51.42842" lon="7.10456">
        <ele>100.669902</ele>
        <time>2023-04-26T13:17:16.284Z</time>
      </trkpt>
      <trkpt lat="51.42844" lon="7.10476">
        <ele>100.799927</ele>
        <time>2023-04-26T13:17:19.296Z</time>
      </trkpt>
      <trkpt lat="51.42844" lon="7.10491">
        <ele>100.894848</ele>
        <time>2023-04-26T13:17:21.280Z</time>
      </trkpt>
      <trkpt lat="51.42846" lon="7.10512">
        <ele>101.025227</ele>
        <time>2023-04-26T13:17:24.277Z</time>
      </trkpt>
      <trkpt lat="51.42847" lon="7.10533">
        <ele>101.160266</ele>
        <time>2023-04-26T13:17:27.287Z</time>
      </trkpt>
      <trkpt lat="51.42848" lon="7.10548">
        <ele>101.255295</ele>
        <time>2023-04-26T13:17:29.281Z</time>
      </trkpt>
      <trkpt lat="51.42849" lon="7.10564">
        <ele>101.351399</ele>
        <time>2023-04-26T13:17:31.291Z</time>
      </trkpt>
      <trkpt lat="51.4285" lon="7.10578">
        <ele>101.395881</ele>
        <time>2023-04-26T13:17:33.282Z</time>
      </trkpt>
      <trkpt lat="51.42851" lon="7.10593">
        <ele>101.393473</ele>
        <time>2023-04-26T13:17:35.278Z</time>
      </trkpt>
      <trkpt lat="51.42852" lon="7.10608">
        <ele>101.391009</ele>
        <time>2023-04-26T13:17:37.285Z</time>
      </trkpt>
      <trkpt lat="51.42854" lon="7.10622">
        <ele>101.388623</ele>
        <time>2023-04-26T13:17:39.270Z</time>
      </trkpt>
      <trkpt lat="51.42855" lon="7.10638">
        <ele>101.386092</ele>
        <time>2023-04-26T13:17:41.279Z</time>
      </trkpt>
      <trkpt lat="51.42856" lon="7.10654">
        <ele>101.383506</ele>
        <time>2023-04-26T13:17:43.287Z</time>
      </trkpt>
      <trkpt lat="51.42857" lon="7.10669">
        <ele>101.380977</ele>
        <time>2023-04-26T13:17:45.270Z</time>
      </trkpt>
      <trkpt lat="51.42858" lon="7.10685">
        <ele>101.378372</ele>
        <time>2023-04-26T13:17:47.277Z</time>
      </trkpt>
      <trkpt lat="51.4286" lon="7.107">
        <ele>101.375886</ele>
        <time>2023-04-26T13:17:49.285Z</time>
      </trkpt>
      <trkpt lat="51.42861" lon="7.10715">
        <ele>101.373405</ele>
        <time>2023-04-26T13:17:51.302Z</time>
      </trkpt>
      <trkpt lat="51.42862" lon="7.10731">
        <ele>101.370751</ele>
        <time>2023-04-26T13:17:53.282Z</time>
      </trkpt>
      <trkpt lat="51.42863" lon="7.10747">
        <ele>101.368245</ele>
        <time>2023-04-26T13:17:55.299Z</time>
      </trkpt>
      <trkpt lat="51.42863" lon="7.10763">
        <ele>101.365689</ele>
        <time>2023-04-26T13:17:57.279Z</time>
      </trkpt>
      <trkpt lat="51.42864" lon="7.10778">
        <ele>101.363112</ele>
        <time>2023-04-26T13:17:59.281Z</time>
      </trkpt>
      <trkpt lat="51.42865" lon="7.10795">
        <ele>101.360426</ele>
        <time>2023-04-26T13:18:01.280Z</time>
      </trkpt>
      <trkpt lat="51.42866" lon="7.10811">
        <ele>101.357715</ele>
        <time>2023-04-26T13:18:03.291Z</time>
      </trkpt>
      <trkpt lat="51.42867" lon="7.10827">
        <ele>101.355197</ele>
        <time>2023-04-26T13:18:05.280Z</time>
      </trkpt>
      <trkpt lat="51.42867" lon="7.10842">
        <ele>101.352769</ele>
        <time>2023-04-26T13:18:07.280Z</time>
      </trkpt>
      <trkpt lat="51.42867" lon="7.10857">
        <ele>101.350316</ele>
        <time>2023-04-26T13:18:09.259Z</time>
      </trkpt>
      <trkpt lat="51.42868" lon="7.10871">
        <ele>101.319885</ele>
        <time>2023-04-26T13:18:11.291Z</time>
      </trkpt>
      <trkpt lat="51.42869" lon="7.10886">
        <ele>101.288046</ele>
        <time>2023-04-26T13:18:13.298Z</time>
      </trkpt>
      <trkpt lat="51.42869" lon="7.10907">
        <ele>101.242053</ele>
        <time>2023-04-26T13:18:16.283Z</time>
      </trkpt>
      <trkpt lat="51.42869" lon="7.10922">
        <ele>101.210399</ele>
        <time>2023-04-26T13:18:18.285Z</time>
      </trkpt>
      <trkpt lat="51.4287" lon="7.10942">
        <ele>101.165464</ele>
        <time>2023-04-26T13:18:21.271Z</time>
      </trkpt>
      <trkpt lat="51.42869" lon="7.10962">
        <ele>101.12182</ele>
        <time>2023-04-26T13:18:24.268Z</time>
      </trkpt>
      <trkpt lat="51.42869" lon="7.10982">
        <ele>101.07951</ele>
        <time>2023-04-26T13:18:27.287Z</time>
      </trkpt>
      <trkpt lat="51.42869" lon="7.11002">
        <ele>101.035479</ele>
        <time>2023-04-26T13:18:30.293Z</time>
      </trkpt>
      <trkpt lat="51.42867" lon="7.11022">
        <ele>100.991649</ele>
        <time>2023-04-26T13:18:33.296Z</time>
      </trkpt>
      <trkpt lat="51.42865" lon="7.11043">
        <ele>100.945828</ele>
        <time>2023-04-26T13:18:36.286Z</time>
      </trkpt>
      <trkpt lat="51.42865" lon="7.11063">
        <ele>100.900206</ele>
        <time>2023-04-26T13:18:39.282Z</time>
      </trkpt>
      <trkpt lat="51.42863" lon="7.11083">
        <ele>100.856904</ele>
        <time>2023-04-26T13:18:42.297Z</time>
      </trkpt>
      <trkpt lat="51.42861" lon="7.11104">
        <ele>100.811394</ele>
        <time>2023-04-26T13:18:45.262Z</time>
      </trkpt>
      <trkpt lat="51.4286" lon="7.11125">
        <ele>100.765754</ele>
        <time>2023-04-26T13:18:48.281Z</time>
      </trkpt>
      <trkpt lat="51.42859" lon="7.11145">
        <ele>100.724516</ele>
        <time>2023-04-26T13:18:51.277Z</time>
      </trkpt>
      <trkpt lat="51.42857" lon="7.11165">
        <ele>100.86051</ele>
        <time>2023-04-26T13:18:54.291Z</time>
      </trkpt>
      <trkpt lat="51.42857" lon="7.11182">
        <ele>100.986209</ele>
        <time>2023-04-26T13:18:57.278Z</time>
      </trkpt>
      <trkpt lat="51.42856" lon="7.11201">
        <ele>101.117419</ele>
        <time>2023-04-26T13:19:00.293Z</time>
      </trkpt>
      <trkpt lat="51.42856" lon="7.11221">
        <ele>101.256982</ele>
        <time>2023-04-26T13:19:03.298Z</time>
      </trkpt>
      <trkpt lat="51.42856" lon="7.11241">
        <ele>101.397232</ele>
        <time>2023-04-26T13:19:06.289Z</time>
      </trkpt>
      <trkpt lat="51.42857" lon="7.11261">
        <ele>101.539757</ele>
        <time>2023-04-26T13:19:09.282Z</time>
      </trkpt>
      <trkpt lat="51.42858" lon="7.11278">
        <ele>101.659057</ele>
        <time>2023-04-26T13:19:12.288Z</time>
      </trkpt>
      <trkpt lat="51.42859" lon="7.11292">
        <ele>101.763254</ele>
        <time>2023-04-26T13:19:15.264Z</time>
      </trkpt>
      <trkpt lat="51.42862" lon="7.11311">
        <ele>101.896665</ele>
        <time>2023-04-26T13:19:19.280Z</time>
      </trkpt>
      <trkpt lat="51.42865" lon="7.11325">
        <ele>101.999272</ele>
        <time>2023-04-26T13:19:22.279Z</time>
      </trkpt>
      <trkpt lat="51.42868" lon="7.11339">
        <ele>102.106593</ele>
        <time>2023-04-26T13:19:25.293Z</time>
      </trkpt>
      <trkpt lat="51.42871" lon="7.11353">
        <ele>102.210101</ele>
        <time>2023-04-26T13:19:28.289Z</time>
      </trkpt>
      <trkpt lat="51.42875" lon="7.11371">
        <ele>102.346039</ele>
        <time>2023-04-26T13:19:32.278Z</time>
      </trkpt>
      <trkpt lat="51.42877" lon="7.11386">
        <ele>102.456749</ele>
        <time>2023-04-26T13:19:35.288Z</time>
      </trkpt>
      <trkpt lat="51.42881" lon="7.11402">
        <ele>102.572552</ele>
        <time>2023-04-26T13:19:38.301Z</time>
      </trkpt>
      <trkpt lat="51.42885" lon="7.11418">
        <ele>102.698187</ele>
        <time>2023-04-26T13:19:41.280Z</time>
      </trkpt>
      <trkpt lat="51.42891" lon="7.11433">
        <ele>102.686722</ele>
        <time>2023-04-26T13:19:44.269Z</time>
      </trkpt>
      <trkpt lat="51.42897" lon="7.11449">
        <ele>102.546655</ele>
        <time>2023-04-26T13:19:47.279Z</time>
      </trkpt>
      <trkpt lat="51.42901" lon="7.11463">
        <ele>102.437435</ele>
        <time>2023-04-26T13:19:49.275Z</time>
      </trkpt>
      <trkpt lat="51.42904" lon="7.11477">
        <ele>102.328001</ele>
        <time>2023-04-26T13:19:51.273Z</time>
      </trkpt>
      <trkpt lat="51.4291" lon="7.11496">
        <ele>102.175135</ele>
        <time>2023-04-26T13:19:54.280Z</time>
      </trkpt>
      <trkpt lat="51.42916" lon="7.11515">
        <ele>102.019635</ele>
        <time>2023-04-26T13:19:57.289Z</time>
      </trkpt>
      <trkpt lat="51.42921" lon="7.11534">
        <ele>101.871275</ele>
        <time>2023-04-26T13:20:00.272Z</time>
      </trkpt>
      <trkpt lat="51.42927" lon="7.11551">
        <ele>101.72974</ele>
        <time>2023-04-26T13:20:03.277Z</time>
      </trkpt>
      <trkpt lat="51.42933" lon="7.11569">
        <ele>101.583714</ele>
        <time>2023-04-26T13:20:06.295Z</time>
      </trkpt>
      <trkpt lat="51.42939" lon="7.11586">
        <ele>101.438976</ele>
        <time>2023-04-26T13:20:09.278Z</time>
      </trkpt>
      <trkpt lat="51.42945" lon="7.11602">
        <ele>101.303203</ele>
        <time>2023-04-26T13:20:12.281Z</time>
      </trkpt>
      <trkpt lat="51.42951" lon="7.11619">
        <ele>101.159332</ele>
        <time>2023-04-26T13:20:15.283Z</time>
      </trkpt>
      <trkpt lat="51.42958" lon="7.11637">
        <ele>101.003817</ele>
        <time>2023-04-26T13:20:18.289Z</time>
      </trkpt>
      <trkpt lat="51.42965" lon="7.11656">
        <ele>100.847725</ele>
        <time>2023-04-26T13:20:21.290Z</time>
      </trkpt>
      <trkpt lat="51.4297" lon="7.11669">
        <ele>100.734184</ele>
        <time>2023-04-26T13:20:23.287Z</time>
      </trkpt>
      <trkpt lat="51.42975" lon="7.11681">
        <ele>100.653096</ele>
        <time>2023-04-26T13:20:25.285Z</time>
      </trkpt>
      <trkpt lat="51.4298" lon="7.11694">
        <ele>100.638329</ele>
        <time>2023-04-26T13:20:27.272Z</time>
      </trkpt>
      <trkpt lat="51.42985" lon="7.11706">
        <ele>100.623718</ele>
        <time>2023-04-26T13:20:29.282Z</time>
      </trkpt>
      <trkpt lat="51.4299" lon="7.11719">
        <ele>100.608358</ele>
        <time>2023-04-26T13:20:31.276Z</time>
      </trkpt>
      <trkpt lat="51.42996" lon="7.11731">
        <ele>100.593389</ele>
        <time>2023-04-26T13:20:33.283Z</time>
      </trkpt>
      <trkpt lat="51.43" lon="7.11745">
        <ele>100.578115</ele>
        <time>2023-04-26T13:20:35.296Z</time>
      </trkpt>
      <trkpt lat="51.43005" lon="7.11759">
        <ele>100.562454</ele>
        <time>2023-04-26T13:20:37.266Z</time>
      </trkpt>
      <trkpt lat="51.4301" lon="7.11772">
        <ele>100.547175</ele>
        <time>2023-04-26T13:20:39.276Z</time>
      </trkpt>
      <trkpt lat="51.43014" lon="7.11786">
        <ele>100.531852</ele>
        <time>2023-04-26T13:20:41.278Z</time>
      </trkpt>
      <trkpt lat="51.43019" lon="7.11799">
        <ele>100.516469</ele>
        <time>2023-04-26T13:20:43.279Z</time>
      </trkpt>
      <trkpt lat="51.43023" lon="7.11813">
        <ele>100.501538</ele>
        <time>2023-04-26T13:20:45.275Z</time>
      </trkpt>
      <trkpt lat="51.43027" lon="7.11827">
        <ele>100.48642</ele>
        <time>2023-04-26T13:20:47.268Z</time>
      </trkpt>
      <trkpt lat="51.4303" lon="7.1184">
        <ele>100.471667</ele>
        <time>2023-04-26T13:20:49.281Z</time>
      </trkpt>
      <trkpt lat="51.43034" lon="7.11854">
        <ele>100.457159</ele>
        <time>2023-04-26T13:20:51.280Z</time>
      </trkpt>
      <trkpt lat="51.43037" lon="7.11868">
        <ele>100.441918</ele>
        <time>2023-04-26T13:20:53.281Z</time>
      </trkpt>
      <trkpt lat="51.43042" lon="7.11888">
        <ele>100.421072</ele>
        <time>2023-04-26T13:20:56.289Z</time>
      </trkpt>
      <trkpt lat="51.43046" lon="7.11908">
        <ele>100.399995</ele>
        <time>2023-04-26T13:20:59.281Z</time>
      </trkpt>
      <trkpt lat="51.43048" lon="7.11922">
        <ele>100.385559</ele>
        <time>2023-04-26T13:21:01.283Z</time>
      </trkpt>
      <trkpt lat="51.43052" lon="7.11942">
        <ele>100.390189</ele>
        <time>2023-04-26T13:21:04.278Z</time>
      </trkpt>
      <trkpt lat="51.43056" lon="7.11962">
        <ele>100.455831</ele>
        <time>2023-04-26T13:21:07.295Z</time>
      </trkpt>
      <trkpt lat="51.43059" lon="7.11982">
        <ele>100.522981</ele>
        <time>2023-04-26T13:21:10.294Z</time>
      </trkpt>
      <trkpt lat="51.43061" lon="7.12002">
        <ele>100.591057</ele>
        <time>2023-04-26T13:21:13.285Z</time>
      </trkpt>
      <trkpt lat="51.43063" lon="7.12023">
        <ele>100.659839</ele>
        <time>2023-04-26T13:21:16.278Z</time>
      </trkpt>
      <trkpt lat="51.43065" lon="7.12037">
        <ele>100.707736</ele>
        <time>2023-04-26T13:21:18.281Z</time>
      </trkpt>
      <trkpt lat="51.43066" lon="7.12058">
        <ele>100.776215</ele>
        <time>2023-04-26T13:21:21.296Z</time>
      </trkpt>
      <trkpt lat="51.43068" lon="7.12079">
        <ele>100.843804</ele>
        <time>2023-04-26T13:21:24.285Z</time>
      </trkpt>
      <trkpt lat="51.43068" lon="7.121">
        <ele>100.912354</ele>
        <time>2023-04-26T13:21:27.280Z</time>
      </trkpt>
      <trkpt lat="51.43068" lon="7.12115">
        <ele>100.960385</ele>
        <time>2023-04-26T13:21:29.280Z</time>
      </trkpt>
      <trkpt lat="51.43068" lon="7.12136">
        <ele>101.030244</ele>
        <time>2023-04-26T13:21:32.295Z</time>
      </trkpt>
      <trkpt lat="51.43068" lon="7.12151">
        <ele>101.079872</ele>
        <time>2023-04-26T13:21:34.292Z</time>
      </trkpt>
      <trkpt lat="51.43068" lon="7.12167">
        <ele>101.130154</ele>
        <time>2023-04-26T13:21:36.284Z</time>
      </trkpt>
      <trkpt lat="51.43068" lon="7.12182">
        <ele>101.180166</ele>
        <time>2023-04-26T13:21:38.283Z</time>
      </trkpt>
      <trkpt lat="51.43067" lon="7.12196">
        <ele>101.227851</ele>
        <time>2023-04-26T13:21:40.285Z</time>
      </trkpt>
      <trkpt lat="51.43067" lon="7.12211">
        <ele>101.275582</ele>
        <time>2023-04-26T13:21:42.281Z</time>
      </trkpt>
      <trkpt lat="51.43067" lon="7.12226">
        <ele>101.41241</ele>
        <time>2023-04-26T13:21:44.276Z</time>
      </trkpt>
      <trkpt lat="51.43066" lon="7.12241">
        <ele>101.794519</ele>
        <time>2023-04-26T13:21:46.285Z</time>
      </trkpt>
      <trkpt lat="51.43066" lon="7.12256">
        <ele>102.179223</ele>
        <time>2023-04-26T13:21:48.286Z</time>
      </trkpt>
      <trkpt lat="51.43065" lon="7.12276">
        <ele>102.712907</ele>
        <time>2023-04-26T13:21:51.287Z</time>
      </trkpt>
      <trkpt lat="51.43063" lon="7.12293">
        <ele>103.14942</ele>
        <time>2023-04-26T13:21:54.292Z</time>
      </trkpt>
      <trkpt lat="51.43052" lon="7.12298">
        <ele>103.621404</ele>
        <time>2023-04-26T13:21:58.299Z</time>
      </trkpt>
      <trkpt lat="51.43052" lon="7.12316">
        <ele>104.099255</ele>
        <time>2023-04-26T13:22:02.276Z</time>
      </trkpt>
      <trkpt lat="51.43053" lon="7.12332">
        <ele>104.497368</ele>
        <time>2023-04-26T13:22:06.312Z</time>
      </trkpt>
      <trkpt lat="51.43052" lon="7.12348">
        <ele>104.912374</ele>
        <time>2023-04-26T13:22:10.296Z</time>
      </trkpt>
      <trkpt lat="51.4305" lon="7.12363">
        <ele>105.305012</ele>
        <time>2023-04-26T13:22:14.278Z</time>
      </trkpt>
      <trkpt lat="51.43049" lon="7.12377">
        <ele>105.695168</ele>
        <time>2023-04-26T13:22:18.296Z</time>
      </trkpt>
      <trkpt lat="51.43053" lon="7.12392">
        <ele>106.110828</ele>
        <time>2023-04-26T13:22:23.268Z</time>
      </trkpt>
      <trkpt lat="51.4306" lon="7.12402">
        <ele>106.491096</ele>
        <time>2023-04-26T13:22:28.284Z</time>
      </trkpt>
      <trkpt lat="51.43067" lon="7.12413">
        <ele>106.926883</ele>
        <time>2023-04-26T13:22:34.278Z</time>
      </trkpt>
      <trkpt lat="51.43075" lon="7.12425">
        <ele>107.350679</ele>
        <time>2023-04-26T13:22:39.287Z</time>
      </trkpt>
      <trkpt lat="51.43086" lon="7.12441">
        <ele>107.972298</ele>
        <time>2023-04-26T13:23:52.265Z</time>
      </trkpt>
      <trkpt lat="51.43094" lon="7.1245">
        <ele>108.39002</ele>
        <time>2023-04-26T13:23:58.285Z</time>
      </trkpt>
      <trkpt lat="51.43101" lon="7.12461">
        <ele>108.803541</ele>
        <time>2023-04-26T13:24:03.291Z</time>
      </trkpt>
      <trkpt lat="51.43109" lon="7.12469">
        <ele>108.648726</ele>
        <time>2023-04-26T13:24:07.286Z</time>
      </trkpt>
      <trkpt lat="51.43115" lon="7.1248">
        <ele>108.492722</ele>
        <time>2023-04-26T13:24:10.272Z</time>
      </trkpt>
      <trkpt lat="51.43124" lon="7.12492">
        <ele>108.291613</ele>
        <time>2023-04-26T13:24:13.278Z</time>
      </trkpt>
      <trkpt lat="51.43135" lon="7.12502">
        <ele>108.076358</ele>
        <time>2023-04-26T13:24:16.276Z</time>
      </trkpt>
      <trkpt lat="51.43146" lon="7.12501">
        <ele>107.891333</ele>
        <time>2023-04-26T13:24:19.280Z</time>
      </trkpt>
      <trkpt lat="51.43156" lon="7.12494">
        <ele>107.697279</ele>
        <time>2023-04-26T13:24:22.280Z</time>
      </trkpt>
      <trkpt lat="51.43168" lon="7.12501">
        <ele>107.488932</ele>
        <time>2023-04-26T13:24:25.278Z</time>
      </trkpt>
      <trkpt lat="51.43181" lon="7.12504">
        <ele>107.267117</ele>
        <time>2023-04-26T13:24:28.262Z</time>
      </trkpt>
      <trkpt lat="51.43191" lon="7.12508">
        <ele>107.092206</ele>
        <time>2023-04-26T13:24:30.260Z</time>
      </trkpt>
      <trkpt lat="51.43201" lon="7.12507">
        <ele>106.913793</ele>
        <time>2023-04-26T13:24:32.263Z</time>
      </trkpt>
      <trkpt lat="51.43211" lon="7.12502">
        <ele>106.743394</ele>
        <time>2023-04-26T13:24:36.265Z</time>
      </trkpt>
      <trkpt lat="51.4322" lon="7.12497">
        <ele>106.582378</ele>
        <time>2023-04-26T13:24:38.269Z</time>
      </trkpt>
      <trkpt lat="51.43229" lon="7.12492">
        <ele>106.422267</ele>
        <time>2023-04-26T13:24:40.263Z</time>
      </trkpt>
      <trkpt lat="51.43239" lon="7.12485">
        <ele>106.229634</ele>
        <time>2023-04-26T13:24:42.252Z</time>
      </trkpt>
      <trkpt lat="51.4325" lon="7.12481">
        <ele>106.038551</ele>
        <time>2023-04-26T13:24:44.265Z</time>
      </trkpt>
      <trkpt lat="51.4326" lon="7.12478">
        <ele>105.868599</ele>
        <time>2023-04-26T13:24:46.255Z</time>
      </trkpt>
      <trkpt lat="51.43269" lon="7.12481">
        <ele>105.79061</ele>
        <time>2023-04-26T13:24:48.262Z</time>
      </trkpt>
      <trkpt lat="51.43277" lon="7.125">
        <ele>105.973973</ele>
        <time>2023-04-26T13:24:54.260Z</time>
      </trkpt>
      <trkpt lat="51.43282" lon="7.12515">
        <ele>106.110987</ele>
        <time>2023-04-26T13:24:57.274Z</time>
      </trkpt>
      <trkpt lat="51.43286" lon="7.12531">
        <ele>106.244039</ele>
        <time>2023-04-26T13:25:01.288Z</time>
      </trkpt>
      <trkpt lat="51.43287" lon="7.12547">
        <ele>106.376217</ele>
        <time>2023-04-26T13:25:06.255Z</time>
      </trkpt>
      <trkpt lat="51.43288" lon="7.12564">
        <ele>106.516576</ele>
        <time>2023-04-26T13:25:11.265Z</time>
      </trkpt>
      <trkpt lat="51.43293" lon="7.12578">
        <ele>106.641797</ele>
        <time>2023-04-26T13:25:16.286Z</time>
      </trkpt>
      <trkpt lat="51.43299" lon="7.1259">
        <ele>106.769046</ele>
        <time>2023-04-26T13:25:22.271Z</time>
      </trkpt>
      <trkpt lat="51.43304" lon="7.12603">
        <ele>106.888343</ele>
        <time>2023-04-26T13:25:29.281Z</time>
      </trkpt>
      <trkpt lat="51.4331" lon="7.12615">
        <ele>107.011335</ele>
        <time>2023-04-26T13:25:34.264Z</time>
      </trkpt>
      <trkpt lat="51.4331" lon="7.12633">
        <ele>107.153721</ele>
        <time>2023-04-26T13:25:39.315Z</time>
      </trkpt>
      <trkpt lat="51.43308" lon="7.12648">
        <ele>107.277019</ele>
        <time>2023-04-26T13:25:43.283Z</time>
      </trkpt>
      <trkpt lat="51.43306" lon="7.12664">
        <ele>107.411552</ele>
        <time>2023-04-26T13:25:48.268Z</time>
      </trkpt>
      <trkpt lat="51.43301" lon="7.12679">
        <ele>107.546767</ele>
        <time>2023-04-26T13:25:53.290Z</time>
      </trkpt>
      <trkpt lat="51.43295" lon="7.12694">
        <ele>107.689912</ele>
        <time>2023-04-26T13:25:58.277Z</time>
      </trkpt>
      <trkpt lat="51.43289" lon="7.12708">
        <ele>107.822175</ele>
        <time>2023-04-26T13:26:02.256Z</time>
      </trkpt>
      <trkpt lat="51.43283" lon="7.12722">
        <ele>107.96123</ele>
        <time>2023-04-26T13:26:06.275Z</time>
      </trkpt>
      <trkpt lat="51.43278" lon="7.12739">
        <ele>108.066725</ele>
        <time>2023-04-26T13:26:10.288Z</time>
      </trkpt>
      <trkpt lat="51.43272" lon="7.12755">
        <ele>108.035572</ele>
        <time>2023-04-26T13:26:14.265Z</time>
      </trkpt>
      <trkpt lat="51.43268" lon="7.12768">
        <ele>108.011478</ele>
        <time>2023-04-26T13:26:17.284Z</time>
      </trkpt>
      <trkpt lat="51.43263" lon="7.12782">
        <ele>107.987074</ele>
        <time>2023-04-26T13:26:20.275Z</time>
      </trkpt>
      <trkpt lat="51.43258" lon="7.12794">
        <ele>107.962705</ele>
        <time>2023-04-26T13:26:23.295Z</time>
      </trkpt>
      <trkpt lat="51.43252" lon="7.12811">
        <ele>107.931353</ele>
        <time>2023-04-26T13:26:27.261Z</time>
      </trkpt>
      <trkpt lat="51.43248" lon="7.12827">
        <ele>107.902088</ele>
        <time>2023-04-26T13:26:30.289Z</time>
      </trkpt>
      <trkpt lat="51.43242" lon="7.12843">
        <ele>107.872381</ele>
        <time>2023-04-26T13:26:33.279Z</time>
      </trkpt>
      <trkpt lat="51.43238" lon="7.12861">
        <ele>107.841093</ele>
        <time>2023-04-26T13:26:36.281Z</time>
      </trkpt>
      <trkpt lat="51.43233" lon="7.1288">
        <ele>107.808785</ele>
        <time>2023-04-26T13:26:39.290Z</time>
      </trkpt>
      <trkpt lat="51.4323" lon="7.12899">
        <ele>107.776151</ele>
        <time>2023-04-26T13:26:42.280Z</time>
      </trkpt>
      <trkpt lat="51.43225" lon="7.12918">
        <ele>107.742468</ele>
        <time>2023-04-26T13:26:45.283Z</time>
      </trkpt>
      <trkpt lat="51.4322" lon="7.12937">
        <ele>107.708115</ele>
        <time>2023-04-26T13:26:48.266Z</time>
      </trkpt>
      <trkpt lat="51.43217" lon="7.12952">
        <ele>107.683736</ele>
        <time>2023-04-26T13:26:50.293Z</time>
      </trkpt>
      <trkpt lat="51.43213" lon="7.12972">
        <ele>107.648954</ele>
        <time>2023-04-26T13:26:53.280Z</time>
      </trkpt>
      <trkpt lat="51.4321" lon="7.12992">
        <ele>107.614913</ele>
        <time>2023-04-26T13:26:56.287Z</time>
      </trkpt>
      <trkpt lat="51.43204" lon="7.13011">
        <ele>107.518663</ele>
        <time>2023-04-26T13:26:59.284Z</time>
      </trkpt>
      <trkpt lat="51.432" lon="7.13031">
        <ele>107.392912</ele>
        <time>2023-04-26T13:27:02.277Z</time>
      </trkpt>
      <trkpt lat="51.43194" lon="7.13049">
        <ele>107.275434</ele>
        <time>2023-04-26T13:27:05.270Z</time>
      </trkpt>
      <trkpt lat="51.4319" lon="7.13068">
        <ele>107.155586</ele>
        <time>2023-04-26T13:27:08.280Z</time>
      </trkpt>
      <trkpt lat="51.43184" lon="7.13084">
        <ele>107.042187</ele>
        <time>2023-04-26T13:27:11.293Z</time>
      </trkpt>
      <trkpt lat="51.43179" lon="7.131">
        <ele>106.935145</ele>
        <time>2023-04-26T13:27:14.299Z</time>
      </trkpt>
      <trkpt lat="51.43175" lon="7.13116">
        <ele>106.834944</ele>
        <time>2023-04-26T13:27:17.276Z</time>
      </trkpt>
      <trkpt lat="51.43171" lon="7.1313">
        <ele>106.740705</ele>
        <time>2023-04-26T13:27:20.272Z</time>
      </trkpt>
      <trkpt lat="51.43167" lon="7.13146">
        <ele>106.639296</ele>
        <time>2023-04-26T13:27:23.283Z</time>
      </trkpt>
      <trkpt lat="51.43162" lon="7.13163">
        <ele>106.527883</ele>
        <time>2023-04-26T13:27:26.262Z</time>
      </trkpt>
      <trkpt lat="51.43157" lon="7.1318">
        <ele>106.417019</ele>
        <time>2023-04-26T13:27:29.295Z</time>
      </trkpt>
      <trkpt lat="51.43152" lon="7.13197">
        <ele>106.304958</ele>
        <time>2023-04-26T13:27:32.275Z</time>
      </trkpt>
      <trkpt lat="51.43146" lon="7.13214">
        <ele>106.188495</ele>
        <time>2023-04-26T13:27:35.294Z</time>
      </trkpt>
      <trkpt lat="51.43138" lon="7.13227">
        <ele>106.076152</ele>
        <time>2023-04-26T13:27:38.259Z</time>
      </trkpt>
      <trkpt lat="51.4313" lon="7.13241">
        <ele>105.9605</ele>
        <time>2023-04-26T13:27:41.280Z</time>
      </trkpt>
      <trkpt lat="51.43122" lon="7.13255">
        <ele>105.8716</ele>
        <time>2023-04-26T13:27:44.276Z</time>
      </trkpt>
      <trkpt lat="51.43115" lon="7.13268">
        <ele>105.831398</ele>
        <time>2023-04-26T13:27:47.290Z</time>
      </trkpt>
      <trkpt lat="51.43108" lon="7.13281">
        <ele>105.793658</ele>
        <time>2023-04-26T13:27:50.273Z</time>
      </trkpt>
      <trkpt lat="51.43099" lon="7.13292">
        <ele>105.751827</ele>
        <time>2023-04-26T13:27:53.270Z</time>
      </trkpt>
      <trkpt lat="51.43089" lon="7.133">
        <ele>105.710604</ele>
        <time>2023-04-26T13:27:56.264Z</time>
      </trkpt>
      <trkpt lat="51.43077" lon="7.13305">
        <ele>105.668218</ele>
        <time>2023-04-26T13:27:59.272Z</time>
      </trkpt>
      <trkpt lat="51.43066" lon="7.13309">
        <ele>105.626825</ele>
        <time>2023-04-26T13:28:02.277Z</time>
      </trkpt>
      <trkpt lat="51.43054" lon="7.13304">
        <ele>105.583182</ele>
        <time>2023-04-26T13:28:05.268Z</time>
      </trkpt>
      <trkpt lat="51.43045" lon="7.13292">
        <ele>105.538677</ele>
        <time>2023-04-26T13:28:08.261Z</time>
      </trkpt>
      <trkpt lat="51.43037" lon="7.13278">
        <ele>105.496749</ele>
        <time>2023-04-26T13:28:11.278Z</time>
      </trkpt>
      <trkpt lat="51.43029" lon="7.13264">
        <ele>105.453665</ele>
        <time>2023-04-26T13:28:14.264Z</time>
      </trkpt>
      <trkpt lat="51.43019" lon="7.13251">
        <ele>105.406615</ele>
        <time>2023-04-26T13:28:17.293Z</time>
      </trkpt>
      <trkpt lat="51.4301" lon="7.13244">
        <ele>105.371995</ele>
        <time>2023-04-26T13:28:19.291Z</time>
      </trkpt>
      <trkpt lat="51.43001" lon="7.13246">
        <ele>105.338222</ele>
        <time>2023-04-26T13:28:21.264Z</time>
      </trkpt>
      <trkpt lat="51.42993" lon="7.13256">
        <ele>105.302248</ele>
        <time>2023-04-26T13:28:23.280Z</time>
      </trkpt>
      <trkpt lat="51.42986" lon="7.13267">
        <ele>105.267291</ele>
        <time>2023-04-26T13:28:25.276Z</time>
      </trkpt>
      <trkpt lat="51.42978" lon="7.13277">
        <ele>105.23409</ele>
        <time>2023-04-26T13:28:27.276Z</time>
      </trkpt>
      <trkpt lat="51.42972" lon="7.13288">
        <ele>105.234445</ele>
        <time>2023-04-26T13:28:29.293Z</time>
      </trkpt>
      <trkpt lat="51.42966" lon="7.13299">
        <ele>105.234802</ele>
        <time>2023-04-26T13:28:31.287Z</time>
      </trkpt>
      <trkpt lat="51.4296" lon="7.13311">
        <ele>105.235161</ele>
        <time>2023-04-26T13:28:33.292Z</time>
      </trkpt>
      <trkpt lat="51.42953" lon="7.13322">
        <ele>105.235505</ele>
        <time>2023-04-26T13:28:35.284Z</time>
      </trkpt>
      <trkpt lat="51.42947" lon="7.13333">
        <ele>105.235845</ele>
        <time>2023-04-26T13:28:37.303Z</time>
      </trkpt>
      <trkpt lat="51.42939" lon="7.1335">
        <ele>105.236359</ele>
        <time>2023-04-26T13:28:40.275Z</time>
      </trkpt>
      <trkpt lat="51.42933" lon="7.13362">
        <ele>105.236709</ele>
        <time>2023-04-26T13:28:42.279Z</time>
      </trkpt>
      <trkpt lat="51.42925" lon="7.13379">
        <ele>105.237221</ele>
        <time>2023-04-26T13:28:45.293Z</time>
      </trkpt>
      <trkpt lat="51.42919" lon="7.1339">
        <ele>105.237561</ele>
        <time>2023-04-26T13:28:47.282Z</time>
      </trkpt>
      <trkpt lat="51.42913" lon="7.13402">
        <ele>105.23792</ele>
        <time>2023-04-26T13:28:49.277Z</time>
      </trkpt>
      <trkpt lat="51.42905" lon="7.1342">
        <ele>105.238415</ele>
        <time>2023-04-26T13:28:52.279Z</time>
      </trkpt>
      <trkpt lat="51.42899" lon="7.13431">
        <ele>105.238765</ele>
        <time>2023-04-26T13:28:54.286Z</time>
      </trkpt>
      <trkpt lat="51.42894" lon="7.13443">
        <ele>105.239115</ele>
        <time>2023-04-26T13:28:56.270Z</time>
      </trkpt>
      <trkpt lat="51.42888" lon="7.13455">
        <ele>105.239462</ele>
        <time>2023-04-26T13:28:58.278Z</time>
      </trkpt>
      <trkpt lat="51.42882" lon="7.13466">
        <ele>105.239815</ele>
        <time>2023-04-26T13:29:00.276Z</time>
      </trkpt>
      <trkpt lat="51.42876" lon="7.13478">
        <ele>105.240168</ele>
        <time>2023-04-26T13:29:02.276Z</time>
      </trkpt>
      <trkpt lat="51.42871" lon="7.13491">
        <ele>105.240528</ele>
        <time>2023-04-26T13:29:04.276Z</time>
      </trkpt>
      <trkpt lat="51.42865" lon="7.13504">
        <ele>105.246058</ele>
        <time>2023-04-26T13:29:06.274Z</time>
      </trkpt>
      <trkpt lat="51.4286" lon="7.13516">
        <ele>105.267694</ele>
        <time>2023-04-26T13:29:08.258Z</time>
      </trkpt>
      <trkpt lat="51.42854" lon="7.13528">
        <ele>105.288964</ele>
        <time>2023-04-26T13:29:10.278Z</time>
      </trkpt>
      <trkpt lat="51.42848" lon="7.1354">
        <ele>105.310683</ele>
        <time>2023-04-26T13:29:12.273Z</time>
      </trkpt>
      <trkpt lat="51.42842" lon="7.13551">
        <ele>105.332214</ele>
        <time>2023-04-26T13:29:14.274Z</time>
      </trkpt>
      <trkpt lat="51.42836" lon="7.13562">
        <ele>105.353579</ele>
        <time>2023-04-26T13:29:16.296Z</time>
      </trkpt>
      <trkpt lat="51.42827" lon="7.13579">
        <ele>105.384856</ele>
        <time>2023-04-26T13:29:19.286Z</time>
      </trkpt>
      <trkpt lat="51.4282" lon="7.13596">
        <ele>105.414866</ele>
        <time>2023-04-26T13:29:22.280Z</time>
      </trkpt>
      <trkpt lat="51.42811" lon="7.13612">
        <ele>105.443984</ele>
        <time>2023-04-26T13:29:25.279Z</time>
      </trkpt>
      <trkpt lat="51.42803" lon="7.13627">
        <ele>105.472199</ele>
        <time>2023-04-26T13:29:28.267Z</time>
      </trkpt>
      <trkpt lat="51.42796" lon="7.13642">
        <ele>105.500124</ele>
        <time>2023-04-26T13:29:31.284Z</time>
      </trkpt>
      <trkpt lat="51.42789" lon="7.1366">
        <ele>105.529863</ele>
        <time>2023-04-26T13:29:34.271Z</time>
      </trkpt>
      <trkpt lat="51.42781" lon="7.13675">
        <ele>105.558722</ele>
        <time>2023-04-26T13:29:37.275Z</time>
      </trkpt>
      <trkpt lat="51.42774" lon="7.13692">
        <ele>105.588163</ele>
        <time>2023-04-26T13:29:40.265Z</time>
      </trkpt>
      <trkpt lat="51.42768" lon="7.13712">
        <ele>105.618684</ele>
        <time>2023-04-26T13:29:43.274Z</time>
      </trkpt>
      <trkpt lat="51.42764" lon="7.13725">
        <ele>105.639907</ele>
        <time>2023-04-26T13:29:45.303Z</time>
      </trkpt>
      <trkpt lat="51.42759" lon="7.13744">
        <ele>105.645662</ele>
        <time>2023-04-26T13:29:48.282Z</time>
      </trkpt>
      <trkpt lat="51.42753" lon="7.13762">
        <ele>105.630304</ele>
        <time>2023-04-26T13:29:51.268Z</time>
      </trkpt>
      <trkpt lat="51.42748" lon="7.13782">
        <ele>105.614985</ele>
        <time>2023-04-26T13:29:54.272Z</time>
      </trkpt>
      <trkpt lat="51.42743" lon="7.13801">
        <ele>105.600337</ele>
        <time>2023-04-26T13:29:57.281Z</time>
      </trkpt>
      <trkpt lat="51.42738" lon="7.13819">
        <ele>105.585707</ele>
        <time>2023-04-26T13:30:00.281Z</time>
      </trkpt>
      <trkpt lat="51.42734" lon="7.13839">
        <ele>105.570654</ele>
        <time>2023-04-26T13:30:03.287Z</time>
      </trkpt>
      <trkpt lat="51.42729" lon="7.13857">
        <ele>105.555916</ele>
        <time>2023-04-26T13:30:06.288Z</time>
      </trkpt>
      <trkpt lat="51.42724" lon="7.13876">
        <ele>105.541485</ele>
        <time>2023-04-26T13:30:09.273Z</time>
      </trkpt>
      <trkpt lat="51.42719" lon="7.13893">
        <ele>105.527392</ele>
        <time>2023-04-26T13:30:12.279Z</time>
      </trkpt>
      <trkpt lat="51.42714" lon="7.13911">
        <ele>105.513404</ele>
        <time>2023-04-26T13:30:15.258Z</time>
      </trkpt>
      <trkpt lat="51.42708" lon="7.13928">
        <ele>105.499915</ele>
        <time>2023-04-26T13:30:18.280Z</time>
      </trkpt>
      <trkpt lat="51.42705" lon="7.13945">
        <ele>105.486724</ele>
        <time>2023-04-26T13:30:21.303Z</time>
      </trkpt>
      <trkpt lat="51.427" lon="7.13962">
        <ele>105.472933</ele>
        <time>2023-04-26T13:30:24.278Z</time>
      </trkpt>
      <trkpt lat="51.42695" lon="7.13979">
        <ele>105.459794</ele>
        <time>2023-04-26T13:30:27.266Z</time>
      </trkpt>
      <trkpt lat="51.42691" lon="7.13993">
        <ele>105.44826</ele>
        <time>2023-04-26T13:30:30.280Z</time>
      </trkpt>
      <trkpt lat="51.42691" lon="7.14012">
        <ele>105.436165</ele>
        <time>2023-04-26T13:30:34.287Z</time>
      </trkpt>
      <trkpt lat="51.42699" lon="7.14023">
        <ele>105.426062</ele>
        <time>2023-04-26T13:30:37.297Z</time>
      </trkpt>
      <trkpt lat="51.42707" lon="7.14033">
        <ele>105.41589</ele>
        <time>2023-04-26T13:30:40.273Z</time>
      </trkpt>
      <trkpt lat="51.42715" lon="7.14042">
        <ele>105.407083</ele>
        <time>2023-04-26T13:30:43.290Z</time>
      </trkpt>
      <trkpt lat="51.42723" lon="7.14053">
        <ele>105.396031</ele>
        <time>2023-04-26T13:30:47.276Z</time>
      </trkpt>
      <trkpt lat="51.42732" lon="7.14063">
        <ele>105.38582</ele>
        <time>2023-04-26T13:30:51.294Z</time>
      </trkpt>
      <trkpt lat="51.42727" lon="7.14077">
        <ele>105.376598</ele>
        <time>2023-04-26T13:30:55.274Z</time>
      </trkpt>
      <trkpt lat="51.42721" lon="7.14088">
        <ele>105.367084</ele>
        <time>2023-04-26T13:30:59.285Z</time>
      </trkpt>
      <trkpt lat="51.42715" lon="7.141">
        <ele>105.358165</ele>
        <time>2023-04-26T13:31:03.277Z</time>
      </trkpt>
      <trkpt lat="51.4271" lon="7.14113">
        <ele>105.348543</ele>
        <time>2023-04-26T13:31:07.284Z</time>
      </trkpt>
      <trkpt lat="51.42711" lon="7.14128">
        <ele>105.338802</ele>
        <time>2023-04-26T13:31:11.280Z</time>
      </trkpt>
      <trkpt lat="51.4272" lon="7.14141">
        <ele>105.327372</ele>
        <time>2023-04-26T13:31:15.281Z</time>
      </trkpt>
      <trkpt lat="51.42722" lon="7.14156">
        <ele>105.318154</ele>
        <time>2023-04-26T13:31:19.270Z</time>
      </trkpt>
      <trkpt lat="51.42716" lon="7.14169">
        <ele>105.308316</ele>
        <time>2023-04-26T13:31:25.274Z</time>
      </trkpt>
      <trkpt lat="51.42715" lon="7.14186">
        <ele>105.297712</ele>
        <time>2023-04-26T13:31:31.261Z</time>
      </trkpt>
      <trkpt lat="51.42713" lon="7.14204">
        <ele>105.2868</ele>
        <time>2023-04-26T13:31:35.297Z</time>
      </trkpt>
      <trkpt lat="51.42709" lon="7.1422">
        <ele>105.276468</ele>
        <time>2023-04-26T13:31:39.281Z</time>
      </trkpt>
      <trkpt lat="51.42707" lon="7.14236">
        <ele>105.268491</ele>
        <time>2023-04-26T13:31:43.288Z</time>
      </trkpt>
      <trkpt lat="51.42704" lon="7.14252">
        <ele>105.268491</ele>
        <time>2023-04-26T13:31:47.287Z</time>
      </trkpt>
      <trkpt lat="51.42694" lon="7.1426">
        <ele>105.268491</ele>
        <time>2023-04-26T13:31:51.305Z</time>
      </trkpt>
      <trkpt lat="51.42687" lon="7.14272">
        <ele>105.268491</ele>
        <time>2023-04-26T13:31:56.299Z</time>
      </trkpt>
      <trkpt lat="51.42682" lon="7.14284">
        <ele>105.268491</ele>
        <time>2023-04-26T13:32:02.278Z</time>
      </trkpt>
      <trkpt lat="51.42678" lon="7.14298">
        <ele>105.268491</ele>
        <time>2023-04-26T13:32:08.266Z</time>
      </trkpt>
      <trkpt lat="51.42684" lon="7.14283">
        <ele>105.268491</ele>
        <time>2023-04-26T13:32:17.301Z</time>
      </trkpt>
      <trkpt lat="51.4269" lon="7.1427">
        <ele>105.268491</ele>
        <time>2023-04-26T13:32:22.282Z</time>
      </trkpt>
      <trkpt lat="51.42698" lon="7.14258">
        <ele>105.268491</ele>
        <time>2023-04-26T13:32:27.296Z</time>
      </trkpt>
      <trkpt lat="51.42705" lon="7.14244">
        <ele>105.268491</ele>
        <time>2023-04-26T13:32:32.288Z</time>
      </trkpt>
      <trkpt lat="51.42703" lon="7.14231">
        <ele>105.268491</ele>
        <time>2023-04-26T13:32:44.374Z</time>
      </trkpt>
    </trkseg>
  </trk>
</gpx>